<?xml version="1.0" encoding="UTF-8" standalone="no" ?>
<gpx xmlns="http://www.topografix.com/GPX/1/1" xmlns:xsi="http://www.w3.org/2001/XMLSchema-instance" xsi:schemaLocation="http://www.topografix.com/GPX/1/1 http://www.topografix.com/GPX/1/1/gpx.xsd" version="1.1" creator="VisuGPX - https://www.visugpx.com">
  <metadata>
    <name>GR®652 Voie de Rocamadour (2021)</name>
    <desc><![CDATA[Randonnée sur le GR®652 Voie de Rocamadour vers Saint-Jacques-de-Compostelle à travers le Cantal, le Lot, le Lot-et-Garonne et le Gers de Laroquebrou à La Romieu. Gîtes d'étapes, Chambres d'hôtes, Maison d'hôtes, Hôtels, Camping, Refuges, Auberges, Commerces.

Randonnée sur le GR®652 Voie de Rocamadour vers Saint-Jacques-de-Compostelle à travers le Cantal, le Lot, le Lot-et-Garonne et le Gers de Laroquebrou à La Romieu. Gîtes d'étapes, Chambres d'hôtes, Maison d'hôtes, Hôtels, Camping, Refuges, Auberges, Commerces.]]></desc>
  </metadata>
  <trk>
    <name><![CDATA[GR®652 Voie de Rocamadour (2021)]]></name>
    <cmt><![CDATA[Randonnée sur le GR®652 Voie de Rocamadour vers Saint-Jacques-de-Compostelle à travers le Cantal, le Lot, le Lot-et-Garonne et le Gers de Laroquebrou à La Romieu. Gîtes d'étapes, Chambres d'hôtes, Maison d'hôtes, Hôtels, Camping, Refuges, Auberges, Commerces.]]></cmt>
    <desc><![CDATA[Randonnée sur le GR®652 Voie de Rocamadour vers Saint-Jacques-de-Compostelle à travers le Cantal, le Lot, le Lot-et-Garonne et le Gers de Laroquebrou à La Romieu. Gîtes d'étapes, Chambres d'hôtes, Maison d'hôtes, Hôtels, Camping, Refuges, Auberges, Commerces.]]></desc>
    <trkseg>
      <trkpt lat="44.96424" lon="2.19303">
        <ele>452.025</ele>
        <time>2021-01-04T11:30:22Z</time>
      </trkpt>
      <trkpt lat="44.96444" lon="2.19336">
        <ele>448.926</ele>
        <time>2021-01-04T11:30:42Z</time>
      </trkpt>
      <trkpt lat="44.96529" lon="2.19235">
        <ele>449.108</ele>
        <time>2021-01-04T11:31:02Z</time>
      </trkpt>
      <trkpt lat="44.9656" lon="2.19159">
        <ele>449.108</ele>
        <time>2021-01-04T11:31:22Z</time>
      </trkpt>
      <trkpt lat="44.96661" lon="2.19039">
        <ele>448.039</ele>
        <time>2021-01-04T11:31:42Z</time>
      </trkpt>
      <trkpt lat="44.96703" lon="2.18972">
        <ele>451.312</ele>
        <time>2021-01-04T11:32:02Z</time>
      </trkpt>
      <trkpt lat="44.96747" lon="2.18847">
        <ele>445.346</ele>
        <time>2021-01-04T11:32:22Z</time>
      </trkpt>
      <trkpt lat="44.96749" lon="2.18782">
        <ele>447.451</ele>
        <time>2021-01-04T11:32:42Z</time>
      </trkpt>
      <trkpt lat="44.96778" lon="2.18673">
        <ele>453.098</ele>
        <time>2021-01-04T11:33:02Z</time>
      </trkpt>
      <trkpt lat="44.96766" lon="2.18649">
        <ele>459.678</ele>
        <time>2021-01-04T11:33:22Z</time>
      </trkpt>
      <trkpt lat="44.96806" lon="2.18465">
        <ele>458.279</ele>
        <time>2021-04-13T19:33:41Z</time>
      </trkpt>
      <trkpt lat="44.96808" lon="2.18308">
        <ele>462.621</ele>
        <time>2021-04-13T19:34:01Z</time>
      </trkpt>
      <trkpt lat="44.96763" lon="2.18184">
        <ele>476.663</ele>
        <time>2021-04-13T19:34:21Z</time>
      </trkpt>
      <trkpt lat="44.96767" lon="2.18126">
        <ele>466.944</ele>
        <time>2021-04-13T19:34:41Z</time>
      </trkpt>
      <trkpt lat="44.96715" lon="2.1802">
        <ele>453.418</ele>
        <time>2021-04-13T19:35:01Z</time>
      </trkpt>
      <trkpt lat="44.96691" lon="2.17992">
        <ele>450.708</ele>
        <time>2021-04-13T19:35:21Z</time>
      </trkpt>
      <trkpt lat="44.96657" lon="2.18024">
        <ele>455.913</ele>
        <time>2021-04-13T19:35:41Z</time>
      </trkpt>
      <trkpt lat="44.96608" lon="2.18044">
        <ele>458.676</ele>
        <time>2021-04-13T19:36:01Z</time>
      </trkpt>
      <trkpt lat="44.96591" lon="2.18036">
        <ele>456.86</ele>
        <time>2021-04-13T19:36:21Z</time>
      </trkpt>
      <trkpt lat="44.96576" lon="2.18008">
        <ele>452.855</ele>
        <time>2021-04-13T19:36:41Z</time>
      </trkpt>
      <trkpt lat="44.9657" lon="2.17956">
        <ele>462.082</ele>
        <time>2021-01-04T11:36:22Z</time>
      </trkpt>
      <trkpt lat="44.96625" lon="2.1793">
        <ele>459.982</ele>
        <time>2021-01-04T11:36:42Z</time>
      </trkpt>
      <trkpt lat="44.96618" lon="2.17901">
        <ele>464.793</ele>
        <time>2021-04-13T19:37:41Z</time>
      </trkpt>
      <trkpt lat="44.96631" lon="2.17895">
        <ele>462.535</ele>
        <time>2021-04-13T19:38:01Z</time>
      </trkpt>
      <trkpt lat="44.96625" lon="2.17869">
        <ele>466.551</ele>
        <time>2021-04-13T19:38:21Z</time>
      </trkpt>
      <trkpt lat="44.96632" lon="2.17849">
        <ele>466.301</ele>
        <time>2021-04-13T19:38:41Z</time>
      </trkpt>
      <trkpt lat="44.96601" lon="2.1772">
        <ele>476.011</ele>
        <time>2021-04-13T19:39:01Z</time>
      </trkpt>
      <trkpt lat="44.96581" lon="2.1769">
        <ele>482.008</ele>
        <time>2021-04-13T19:39:21Z</time>
      </trkpt>
      <trkpt lat="44.96581" lon="2.17502">
        <ele>492.222</ele>
        <time>2021-04-13T19:39:41Z</time>
      </trkpt>
      <trkpt lat="44.96608" lon="2.17443">
        <ele>485.875</ele>
        <time>2021-04-13T19:40:01Z</time>
      </trkpt>
      <trkpt lat="44.96629" lon="2.17381">
        <ele>485.059</ele>
        <time>2021-04-13T19:40:21Z</time>
      </trkpt>
      <trkpt lat="44.96659" lon="2.17318">
        <ele>485.534</ele>
        <time>2021-04-13T19:40:41Z</time>
      </trkpt>
      <trkpt lat="44.96912" lon="2.1711">
        <ele>499.731</ele>
        <time>2021-04-13T19:41:01Z</time>
      </trkpt>
      <trkpt lat="44.96943" lon="2.17079">
        <ele>503.651</ele>
        <time>2021-04-13T19:41:21Z</time>
      </trkpt>
      <trkpt lat="44.96991" lon="2.1706">
        <ele>493.942</ele>
        <time>2021-04-13T19:41:41Z</time>
      </trkpt>
      <trkpt lat="44.97044" lon="2.16974">
        <ele>498.494</ele>
        <time>2021-04-13T19:42:01Z</time>
      </trkpt>
      <trkpt lat="44.97054" lon="2.16904">
        <ele>513.175</ele>
        <time>2021-04-13T19:42:21Z</time>
      </trkpt>
      <trkpt lat="44.97088" lon="2.16876">
        <ele>505.828</ele>
        <time>2021-04-13T19:42:41Z</time>
      </trkpt>
      <trkpt lat="44.97141" lon="2.16717">
        <ele>527.62</ele>
        <time>2021-04-13T19:43:01Z</time>
      </trkpt>
      <trkpt lat="44.97138" lon="2.16669">
        <ele>542.408</ele>
        <time>2021-04-13T19:43:21Z</time>
      </trkpt>
      <trkpt lat="44.97195" lon="2.16691">
        <ele>514.914</ele>
        <time>2021-04-13T19:43:41Z</time>
      </trkpt>
      <trkpt lat="44.97335" lon="2.16563">
        <ele>504.927</ele>
        <time>2021-04-13T19:44:01Z</time>
      </trkpt>
      <trkpt lat="44.97361" lon="2.16584">
        <ele>485.011</ele>
        <time>2021-04-13T19:44:21Z</time>
      </trkpt>
      <trkpt lat="44.9744" lon="2.16587">
        <ele>453.726</ele>
        <time>2021-01-04T11:40:02Z</time>
      </trkpt>
      <trkpt lat="44.97506" lon="2.16498">
        <ele>458.033</ele>
        <time>2021-04-13T19:45:01Z</time>
      </trkpt>
      <trkpt lat="44.97506" lon="2.16436">
        <ele>471.743</ele>
        <time>2021-04-13T19:45:21Z</time>
      </trkpt>
      <trkpt lat="44.97554" lon="2.16321">
        <ele>471.364</ele>
        <time>2021-01-04T11:40:42Z</time>
      </trkpt>
      <trkpt lat="44.9757" lon="2.16247">
        <ele>470.956</ele>
        <time>2021-04-13T19:46:01Z</time>
      </trkpt>
      <trkpt lat="44.9756" lon="2.16159">
        <ele>471.281</ele>
        <time>2021-04-13T19:46:21Z</time>
      </trkpt>
      <trkpt lat="44.97596" lon="2.15952">
        <ele>471.761</ele>
        <time>2021-04-13T19:46:41Z</time>
      </trkpt>
      <trkpt lat="44.97657" lon="2.15756">
        <ele>458.417</ele>
        <time>2021-04-13T19:47:01Z</time>
      </trkpt>
      <trkpt lat="44.97644" lon="2.15713">
        <ele>458.208</ele>
        <time>2021-04-13T19:47:21Z</time>
      </trkpt>
      <trkpt lat="44.97597" lon="2.15671">
        <ele>468.085</ele>
        <time>2021-04-13T19:47:41Z</time>
      </trkpt>
      <trkpt lat="44.97551" lon="2.15585">
        <ele>463.948</ele>
        <time>2021-04-13T19:48:01Z</time>
      </trkpt>
      <trkpt lat="44.97516" lon="2.15407">
        <ele>483.892</ele>
        <time>2021-04-13T19:48:21Z</time>
      </trkpt>
      <trkpt lat="44.97607" lon="2.15347">
        <ele>454.287</ele>
        <time>2021-04-13T19:48:41Z</time>
      </trkpt>
      <trkpt lat="44.97636" lon="2.15293">
        <ele>452.984</ele>
        <time>2021-04-13T19:49:01Z</time>
      </trkpt>
      <trkpt lat="44.97634" lon="2.15255">
        <ele>453.574</ele>
        <time>2021-04-13T19:49:21Z</time>
      </trkpt>
      <trkpt lat="44.97536" lon="2.14886">
        <ele>451.015</ele>
        <time>2021-04-13T19:49:41Z</time>
      </trkpt>
      <trkpt lat="44.97466" lon="2.14835">
        <ele>446.647</ele>
        <time>2021-04-13T19:50:01Z</time>
      </trkpt>
      <trkpt lat="44.97418" lon="2.14834">
        <ele>452.937</ele>
        <time>2021-04-13T19:50:21Z</time>
      </trkpt>
      <trkpt lat="44.97455" lon="2.14876">
        <ele>463.549</ele>
        <time>2021-04-13T19:50:41Z</time>
      </trkpt>
      <trkpt lat="44.9739" lon="2.1489">
        <ele>485.113</ele>
        <time>2021-04-13T19:51:01Z</time>
      </trkpt>
      <trkpt lat="44.97337" lon="2.14872">
        <ele>491.908</ele>
        <time>2021-01-04T11:45:42Z</time>
      </trkpt>
      <trkpt lat="44.97316" lon="2.14815">
        <ele>483.74</ele>
        <time>2021-04-13T19:51:41Z</time>
      </trkpt>
      <trkpt lat="44.97353" lon="2.14784">
        <ele>462.913</ele>
        <time>2021-04-13T19:52:01Z</time>
      </trkpt>
      <trkpt lat="44.97345" lon="2.14718">
        <ele>455.687</ele>
        <time>2019-12-02T17:22:20Z</time>
      </trkpt>
      <trkpt lat="44.97376" lon="2.14557">
        <ele>478.222</ele>
        <time>2019-12-02T17:22:40Z</time>
      </trkpt>
      <trkpt lat="44.97391" lon="2.14566">
        <ele>471.559</ele>
        <time>2019-12-02T17:23:00Z</time>
      </trkpt>
      <trkpt lat="44.97461" lon="2.14541">
        <ele>454.119</ele>
        <time>2021-04-13T19:53:21Z</time>
      </trkpt>
      <trkpt lat="44.97485" lon="2.14513">
        <ele>452.39</ele>
        <time>2021-04-13T19:53:41Z</time>
      </trkpt>
      <trkpt lat="44.97585" lon="2.14487">
        <ele>451.032</ele>
        <time>2021-04-13T19:54:01Z</time>
      </trkpt>
      <trkpt lat="44.97681" lon="2.14478">
        <ele>446.369</ele>
        <time>2021-04-13T19:54:21Z</time>
      </trkpt>
      <trkpt lat="44.97729" lon="2.14454">
        <ele>444.604</ele>
        <time>2021-04-13T19:54:41Z</time>
      </trkpt>
      <trkpt lat="44.97747" lon="2.14394">
        <ele>444.624</ele>
        <time>2021-04-13T19:55:01Z</time>
      </trkpt>
      <trkpt lat="44.97766" lon="2.14189">
        <ele>458.108</ele>
        <time>2021-04-13T19:55:21Z</time>
      </trkpt>
      <trkpt lat="44.97801" lon="2.14112">
        <ele>472.243</ele>
        <time>2021-04-13T19:55:41Z</time>
      </trkpt>
      <trkpt lat="44.97875" lon="2.14089">
        <ele>468.826</ele>
        <time>2021-04-13T19:56:01Z</time>
      </trkpt>
      <trkpt lat="44.97924" lon="2.14099">
        <ele>464.95</ele>
        <time>2021-04-13T19:56:21Z</time>
      </trkpt>
      <trkpt lat="44.98097" lon="2.14189">
        <ele>450.745</ele>
        <time>2021-04-13T19:56:41Z</time>
      </trkpt>
      <trkpt lat="44.98127" lon="2.14184">
        <ele>451.822</ele>
        <time>2021-04-13T19:57:01Z</time>
      </trkpt>
      <trkpt lat="44.98183" lon="2.14199">
        <ele>442.392</ele>
        <time>2021-04-13T19:57:21Z</time>
      </trkpt>
      <trkpt lat="44.98215" lon="2.14188">
        <ele>439.483</ele>
        <time>2021-04-13T19:57:41Z</time>
      </trkpt>
      <trkpt lat="44.98263" lon="2.14141">
        <ele>439.835</ele>
        <time>2021-04-13T19:58:01Z</time>
      </trkpt>
      <trkpt lat="44.98377" lon="2.13922">
        <ele>435.849</ele>
        <time>2021-04-13T19:58:21Z</time>
      </trkpt>
      <trkpt lat="44.98359" lon="2.13834">
        <ele>443.502</ele>
        <time>2021-04-13T19:58:41Z</time>
      </trkpt>
      <trkpt lat="44.98362" lon="2.13789">
        <ele>440.222</ele>
        <time>2021-04-13T19:59:01Z</time>
      </trkpt>
      <trkpt lat="44.98352" lon="2.13728">
        <ele>446.208</ele>
        <time>2021-04-13T19:59:21Z</time>
      </trkpt>
      <trkpt lat="44.98449" lon="2.13535">
        <ele>448.171</ele>
        <time>2021-04-13T19:59:41Z</time>
      </trkpt>
      <trkpt lat="44.98526" lon="2.13444">
        <ele>431.644</ele>
        <time>2021-04-13T20:00:01Z</time>
      </trkpt>
      <trkpt lat="44.98533" lon="2.13377">
        <ele>427.948</ele>
        <time>2021-04-13T20:00:21Z</time>
      </trkpt>
      <trkpt lat="44.98493" lon="2.13336">
        <ele>433.673</ele>
        <time>2021-04-13T20:00:41Z</time>
      </trkpt>
      <trkpt lat="44.98476" lon="2.133">
        <ele>433.75</ele>
        <time>2021-04-13T20:01:01Z</time>
      </trkpt>
      <trkpt lat="44.98424" lon="2.13231">
        <ele>438.82</ele>
        <time>2021-04-13T20:01:21Z</time>
      </trkpt>
      <trkpt lat="44.98422" lon="2.13195">
        <ele>428.071</ele>
        <time>2021-04-13T20:01:41Z</time>
      </trkpt>
      <trkpt lat="44.98379" lon="2.1315">
        <ele>436.883</ele>
        <time>2021-04-13T20:02:01Z</time>
      </trkpt>
      <trkpt lat="44.98362" lon="2.131">
        <ele>435.957</ele>
        <time>2021-04-13T20:02:21Z</time>
      </trkpt>
      <trkpt lat="44.98315" lon="2.13076">
        <ele>449.2</ele>
        <time>2021-04-13T20:02:41Z</time>
      </trkpt>
      <trkpt lat="44.98297" lon="2.1304">
        <ele>457.72</ele>
        <time>2019-12-02T17:31:00Z</time>
      </trkpt>
      <trkpt lat="44.98363" lon="2.12987">
        <ele>434.108</ele>
        <time>2021-04-13T20:03:21Z</time>
      </trkpt>
      <trkpt lat="44.9841" lon="2.12782">
        <ele>441.232</ele>
        <time>2021-04-13T20:03:41Z</time>
      </trkpt>
      <trkpt lat="44.98459" lon="2.12687">
        <ele>421.685</ele>
        <time>2021-04-13T20:04:01Z</time>
      </trkpt>
      <trkpt lat="44.98481" lon="2.12579">
        <ele>429.459</ele>
        <time>2019-12-02T17:33:20Z</time>
      </trkpt>
      <trkpt lat="44.98508" lon="2.12543">
        <ele>416.634</ele>
        <time>2019-12-02T17:33:40Z</time>
      </trkpt>
      <trkpt lat="44.98575" lon="2.12577">
        <ele>412.011</ele>
        <time>2019-12-02T17:34:00Z</time>
      </trkpt>
      <trkpt lat="44.98599" lon="2.12605">
        <ele>422.541</ele>
        <time>2019-12-02T17:34:20Z</time>
      </trkpt>
      <trkpt lat="44.98643" lon="2.1244">
        <ele>432.632</ele>
        <time>2019-12-02T17:34:40Z</time>
      </trkpt>
      <trkpt lat="44.98664" lon="2.12274">
        <ele>426.484</ele>
        <time>2019-12-02T17:35:00Z</time>
      </trkpt>
      <trkpt lat="44.9865" lon="2.12189">
        <ele>425.112</ele>
        <time>2019-12-02T17:35:20Z</time>
      </trkpt>
      <trkpt lat="44.98663" lon="2.12141">
        <ele>424.032</ele>
        <time>2019-12-02T17:35:40Z</time>
      </trkpt>
      <trkpt lat="44.98701" lon="2.1212">
        <ele>443.005</ele>
        <time>2019-12-02T17:36:00Z</time>
      </trkpt>
      <trkpt lat="44.98739" lon="2.1212">
        <ele>449.208</ele>
        <time>2019-12-02T17:36:20Z</time>
      </trkpt>
      <trkpt lat="44.98735" lon="2.12079">
        <ele>450.238</ele>
        <time>2019-12-02T17:36:40Z</time>
      </trkpt>
      <trkpt lat="44.98681" lon="2.12034">
        <ele>440.381</ele>
        <time>2019-12-02T17:37:00Z</time>
      </trkpt>
      <trkpt lat="44.98635" lon="2.11895">
        <ele>449.375</ele>
        <time>2019-12-02T17:37:20Z</time>
      </trkpt>
      <trkpt lat="44.9857" lon="2.11847">
        <ele>438.62</ele>
        <time>2019-12-02T17:37:40Z</time>
      </trkpt>
      <trkpt lat="44.98534" lon="2.11856">
        <ele>427.517</ele>
        <time>2019-12-02T17:38:00Z</time>
      </trkpt>
      <trkpt lat="44.98481" lon="2.11862">
        <ele>411.527</ele>
        <time>2019-12-02T17:38:20Z</time>
      </trkpt>
      <trkpt lat="44.9847" lon="2.11843">
        <ele>412.698</ele>
        <time>2019-12-02T17:38:40Z</time>
      </trkpt>
      <trkpt lat="44.98485" lon="2.11811">
        <ele>420.02</ele>
        <time>2019-12-02T17:39:00Z</time>
      </trkpt>
      <trkpt lat="44.98497" lon="2.1171">
        <ele>418.085</ele>
        <time>2019-12-02T17:39:20Z</time>
      </trkpt>
      <trkpt lat="44.98617" lon="2.1144">
        <ele>421.289</ele>
        <time>2019-12-02T17:39:40Z</time>
      </trkpt>
      <trkpt lat="44.98663" lon="2.11392">
        <ele>426.517</ele>
        <time>2019-12-02T17:40:00Z</time>
      </trkpt>
      <trkpt lat="44.9866" lon="2.11369">
        <ele>426.108</ele>
        <time>2019-12-02T17:40:20Z</time>
      </trkpt>
      <trkpt lat="44.98628" lon="2.11354">
        <ele>421.815</ele>
        <time>2019-12-02T17:40:40Z</time>
      </trkpt>
      <trkpt lat="44.98605" lon="2.11326">
        <ele>427.278</ele>
        <time>2019-12-02T17:41:00Z</time>
      </trkpt>
      <trkpt lat="44.98582" lon="2.1124">
        <ele>435.472</ele>
        <time>2019-12-02T17:41:20Z</time>
      </trkpt>
      <trkpt lat="44.98508" lon="2.11189">
        <ele>428.247</ele>
        <time>2019-12-02T17:41:40Z</time>
      </trkpt>
      <trkpt lat="44.98455" lon="2.11122">
        <ele>419.454</ele>
        <time>2019-12-02T17:42:00Z</time>
      </trkpt>
      <trkpt lat="44.98392" lon="2.11">
        <ele>422.254</ele>
        <time>2019-12-02T17:42:20Z</time>
      </trkpt>
      <trkpt lat="44.98309" lon="2.10822">
        <ele>430.435</ele>
        <time>2019-12-02T17:42:40Z</time>
      </trkpt>
      <trkpt lat="44.98276" lon="2.10785">
        <ele>425.727</ele>
        <time>2019-12-02T17:43:00Z</time>
      </trkpt>
      <trkpt lat="44.98268" lon="2.10757">
        <ele>425.184</ele>
        <time>2019-12-02T17:43:20Z</time>
      </trkpt>
      <trkpt lat="44.98262" lon="2.10708">
        <ele>441.807</ele>
        <time>2019-12-02T17:43:40Z</time>
      </trkpt>
      <trkpt lat="44.98227" lon="2.10644">
        <ele>425.917</ele>
        <time>2019-12-02T17:44:00Z</time>
      </trkpt>
      <trkpt lat="44.98121" lon="2.10326">
        <ele>418.508</ele>
        <time>2019-12-02T17:44:20Z</time>
      </trkpt>
      <trkpt lat="44.98122" lon="2.10247">
        <ele>406.325</ele>
        <time>2019-12-02T17:44:40Z</time>
      </trkpt>
      <trkpt lat="44.98175" lon="2.10214">
        <ele>424.668</ele>
        <time>2019-12-02T17:45:00Z</time>
      </trkpt>
      <trkpt lat="44.98233" lon="2.1018">
        <ele>421.432</ele>
        <time>2019-12-02T17:45:20Z</time>
      </trkpt>
      <trkpt lat="44.9837" lon="2.10152">
        <ele>425.157</ele>
        <time>2019-12-02T17:45:40Z</time>
      </trkpt>
      <trkpt lat="44.98435" lon="2.10122">
        <ele>442.624</ele>
        <time>2019-12-02T17:46:00Z</time>
      </trkpt>
      <trkpt lat="44.98484" lon="2.10088">
        <ele>447.954</ele>
        <time>2019-12-02T17:46:20Z</time>
      </trkpt>
      <trkpt lat="44.98538" lon="2.09989">
        <ele>439.845</ele>
        <time>2019-12-02T17:46:40Z</time>
      </trkpt>
      <trkpt lat="44.98578" lon="2.0986">
        <ele>435.097</ele>
        <time>2019-12-02T17:47:00Z</time>
      </trkpt>
      <trkpt lat="44.98582" lon="2.09779">
        <ele>428.244</ele>
        <time>2019-12-02T17:47:20Z</time>
      </trkpt>
      <trkpt lat="44.98562" lon="2.09528">
        <ele>408.205</ele>
        <time>2019-12-02T17:47:40Z</time>
      </trkpt>
      <trkpt lat="44.98578" lon="2.09511">
        <ele>411.515</ele>
        <time>2019-12-02T17:48:00Z</time>
      </trkpt>
      <trkpt lat="44.98649" lon="2.09515">
        <ele>438.008</ele>
        <time>2019-12-02T17:48:20Z</time>
      </trkpt>
      <trkpt lat="44.98688" lon="2.09498">
        <ele>447.931</ele>
        <time>2019-12-02T17:48:40Z</time>
      </trkpt>
      <trkpt lat="44.98713" lon="2.09414">
        <ele>444.944</ele>
        <time>2019-12-02T17:49:00Z</time>
      </trkpt>
      <trkpt lat="44.98725" lon="2.09311">
        <ele>449.738</ele>
        <time>2019-12-02T17:49:20Z</time>
      </trkpt>
      <trkpt lat="44.98716" lon="2.09257">
        <ele>450.433</ele>
        <time>2019-12-02T17:49:40Z</time>
      </trkpt>
      <trkpt lat="44.9867" lon="2.09187">
        <ele>463.15</ele>
        <time>2019-12-02T17:50:00Z</time>
      </trkpt>
      <trkpt lat="44.98597" lon="2.09079">
        <ele>438.04</ele>
        <time>2019-12-02T17:50:20Z</time>
      </trkpt>
      <trkpt lat="44.98588" lon="2.09002">
        <ele>436.971</ele>
        <time>2019-12-02T17:50:40Z</time>
      </trkpt>
      <trkpt lat="44.986" lon="2.08916">
        <ele>445.343</ele>
        <time>2019-12-02T17:51:00Z</time>
      </trkpt>
      <trkpt lat="44.98573" lon="2.08871">
        <ele>418.352</ele>
        <time>2019-12-02T17:51:20Z</time>
      </trkpt>
      <trkpt lat="44.98547" lon="2.08738">
        <ele>423.353</ele>
        <time>2019-12-02T17:51:40Z</time>
      </trkpt>
      <trkpt lat="44.98531" lon="2.08571">
        <ele>437.608</ele>
        <time>2019-12-02T17:52:00Z</time>
      </trkpt>
      <trkpt lat="44.98496" lon="2.08438">
        <ele>431.708</ele>
        <time>2019-12-02T17:52:20Z</time>
      </trkpt>
      <trkpt lat="44.98446" lon="2.0838">
        <ele>444.462</ele>
        <time>2019-12-02T17:52:40Z</time>
      </trkpt>
      <trkpt lat="44.98399" lon="2.08358">
        <ele>433.815</ele>
        <time>2019-12-02T17:53:00Z</time>
      </trkpt>
      <trkpt lat="44.98276" lon="2.08326">
        <ele>449.039</ele>
        <time>2019-12-02T17:53:20Z</time>
      </trkpt>
      <trkpt lat="44.9821" lon="2.08281">
        <ele>426.094</ele>
        <time>2019-12-02T17:53:40Z</time>
      </trkpt>
      <trkpt lat="44.98178" lon="2.08238">
        <ele>432.061</ele>
        <time>2019-12-02T17:54:00Z</time>
      </trkpt>
      <trkpt lat="44.98156" lon="2.08138">
        <ele>434.741</ele>
        <time>2021-04-13T20:25:21Z</time>
      </trkpt>
      <trkpt lat="44.98165" lon="2.07948">
        <ele>430.252</ele>
        <time>2019-12-02T17:54:40Z</time>
      </trkpt>
      <trkpt lat="44.98093" lon="2.0782">
        <ele>440.794</ele>
        <time>2019-12-02T17:55:00Z</time>
      </trkpt>
      <trkpt lat="44.98068" lon="2.07682">
        <ele>438.521</ele>
        <time>2019-12-02T17:55:20Z</time>
      </trkpt>
      <trkpt lat="44.97999" lon="2.07603">
        <ele>419.841</ele>
        <time>2019-12-02T17:55:40Z</time>
      </trkpt>
      <trkpt lat="44.97929" lon="2.0745">
        <ele>436.905</ele>
        <time>2021-04-13T20:27:01Z</time>
      </trkpt>
      <trkpt lat="44.97928" lon="2.07363">
        <ele>441.508</ele>
        <time>2019-12-02T17:56:20Z</time>
      </trkpt>
      <trkpt lat="44.97981" lon="2.07255">
        <ele>439.399</ele>
        <time>2019-12-02T17:56:40Z</time>
      </trkpt>
      <trkpt lat="44.97957" lon="2.07052">
        <ele>429.362</ele>
        <time>2019-12-02T17:57:00Z</time>
      </trkpt>
      <trkpt lat="44.97946" lon="2.06891">
        <ele>441.056</ele>
        <time>2019-12-02T17:57:20Z</time>
      </trkpt>
      <trkpt lat="44.9793" lon="2.06788">
        <ele>449.981</ele>
        <time>2019-12-02T17:57:40Z</time>
      </trkpt>
      <trkpt lat="44.97935" lon="2.0657">
        <ele>436.778</ele>
        <time>2021-04-13T20:29:01Z</time>
      </trkpt>
      <trkpt lat="44.97896" lon="2.06452">
        <ele>429.148</ele>
        <time>2021-04-13T20:29:21Z</time>
      </trkpt>
      <trkpt lat="44.97822" lon="2.0645">
        <ele>406.579</ele>
        <time>2021-04-13T20:29:41Z</time>
      </trkpt>
      <trkpt lat="44.97852" lon="2.064">
        <ele>425.221</ele>
        <time>2021-04-13T20:30:01Z</time>
      </trkpt>
      <trkpt lat="44.97859" lon="2.06353">
        <ele>434.973</ele>
        <time>2021-04-13T20:30:21Z</time>
      </trkpt>
      <trkpt lat="44.9778" lon="2.06386">
        <ele>400.985</ele>
        <time>2021-04-13T20:30:41Z</time>
      </trkpt>
      <trkpt lat="44.97764" lon="2.06373">
        <ele>395.513</ele>
        <time>2021-04-13T20:31:01Z</time>
      </trkpt>
      <trkpt lat="44.97775" lon="2.06302">
        <ele>415.608</ele>
        <time>2019-12-02T18:00:00Z</time>
      </trkpt>
      <trkpt lat="44.97734" lon="2.06151">
        <ele>399.784</ele>
        <time>2019-12-02T18:00:20Z</time>
      </trkpt>
      <trkpt lat="44.97749" lon="2.06152">
        <ele>403.897</ele>
        <time>2019-12-02T18:00:40Z</time>
      </trkpt>
      <trkpt lat="44.97749" lon="2.06144">
        <ele>400.811</ele>
        <time>2019-12-02T18:01:00Z</time>
      </trkpt>
      <trkpt lat="44.97773" lon="2.06145">
        <ele>417.386</ele>
        <time>2019-12-02T18:01:20Z</time>
      </trkpt>
      <trkpt lat="44.97849" lon="2.06106">
        <ele>435.473</ele>
        <time>2019-12-02T18:01:40Z</time>
      </trkpt>
      <trkpt lat="44.97912" lon="2.06036">
        <ele>424.073</ele>
        <time>2019-12-02T18:02:00Z</time>
      </trkpt>
      <trkpt lat="44.9792" lon="2.05776">
        <ele>457.464</ele>
        <time>2019-12-02T18:02:20Z</time>
      </trkpt>
      <trkpt lat="44.97888" lon="2.05687">
        <ele>445.496</ele>
        <time>2019-12-02T18:02:40Z</time>
      </trkpt>
      <trkpt lat="44.97802" lon="2.05616">
        <ele>430.451</ele>
        <time>2019-12-02T18:03:00Z</time>
      </trkpt>
      <trkpt lat="44.97717" lon="2.05486">
        <ele>418.201</ele>
        <time>2019-12-02T18:03:20Z</time>
      </trkpt>
      <trkpt lat="44.97705" lon="2.05432">
        <ele>414.411</ele>
        <time>2019-12-02T18:03:40Z</time>
      </trkpt>
      <trkpt lat="44.97724" lon="2.05402">
        <ele>413.708</ele>
        <time>2019-12-02T18:04:00Z</time>
      </trkpt>
      <trkpt lat="44.97826" lon="2.05355">
        <ele>434.682</ele>
        <time>2019-12-02T18:04:20Z</time>
      </trkpt>
      <trkpt lat="44.97897" lon="2.05299">
        <ele>435.725</ele>
        <time>2019-12-02T18:04:40Z</time>
      </trkpt>
      <trkpt lat="44.97941" lon="2.05238">
        <ele>441.499</ele>
        <time>2019-12-02T18:05:00Z</time>
      </trkpt>
      <trkpt lat="44.97972" lon="2.05136">
        <ele>421.394</ele>
        <time>2019-12-02T18:05:20Z</time>
      </trkpt>
      <trkpt lat="44.98012" lon="2.05074">
        <ele>425.721</ele>
        <time>2019-12-02T18:05:40Z</time>
      </trkpt>
      <trkpt lat="44.98092" lon="2.05014">
        <ele>439.491</ele>
        <time>2019-12-02T18:06:00Z</time>
      </trkpt>
      <trkpt lat="44.9812" lon="2.04979">
        <ele>430.692</ele>
        <time>2019-12-02T18:06:20Z</time>
      </trkpt>
      <trkpt lat="44.98142" lon="2.04969">
        <ele>432.884</ele>
        <time>2019-12-02T18:06:40Z</time>
      </trkpt>
      <trkpt lat="44.98266" lon="2.04836">
        <ele>431.768</ele>
        <time>2019-12-02T18:07:00Z</time>
      </trkpt>
      <trkpt lat="44.98353" lon="2.04778">
        <ele>424.342</ele>
        <time>2019-12-02T18:07:20Z</time>
      </trkpt>
      <trkpt lat="44.98384" lon="2.04766">
        <ele>427.126</ele>
        <time>2019-12-02T18:07:40Z</time>
      </trkpt>
      <trkpt lat="44.98414" lon="2.04774">
        <ele>429.508</ele>
        <time>2019-12-02T18:08:00Z</time>
      </trkpt>
      <trkpt lat="44.98496" lon="2.04614">
        <ele>404.613</ele>
        <time>2019-12-02T18:08:20Z</time>
      </trkpt>
      <trkpt lat="44.98574" lon="2.04497">
        <ele>421.116</ele>
        <time>2019-12-02T18:08:40Z</time>
      </trkpt>
      <trkpt lat="44.98648" lon="2.0442">
        <ele>438.16</ele>
        <time>2019-12-02T18:09:00Z</time>
      </trkpt>
      <trkpt lat="44.98642" lon="2.04374">
        <ele>443.745</ele>
        <time>2021-04-13T20:40:41Z</time>
      </trkpt>
      <trkpt lat="44.98585" lon="2.04384">
        <ele>435.072</ele>
        <time>2019-12-02T18:09:40Z</time>
      </trkpt>
      <trkpt lat="44.9855" lon="2.04384">
        <ele>422.992</ele>
        <time>2019-12-02T18:10:00Z</time>
      </trkpt>
      <trkpt lat="44.98532" lon="2.04393">
        <ele>418.953</ele>
        <time>2019-12-02T18:10:20Z</time>
      </trkpt>
      <trkpt lat="44.98499" lon="2.0438">
        <ele>397.945</ele>
        <time>2019-12-02T18:10:40Z</time>
      </trkpt>
      <trkpt lat="44.98477" lon="2.04372">
        <ele>396.313</ele>
        <time>2019-12-02T18:11:00Z</time>
      </trkpt>
      <trkpt lat="44.98423" lon="2.0424">
        <ele>416.943</ele>
        <time>2019-12-02T18:11:20Z</time>
      </trkpt>
      <trkpt lat="44.9841" lon="2.04187">
        <ele>401.607</ele>
        <time>2019-12-02T18:11:40Z</time>
      </trkpt>
      <trkpt lat="44.98416" lon="2.04135">
        <ele>413.008</ele>
        <time>2019-12-02T18:12:00Z</time>
      </trkpt>
      <trkpt lat="44.98356" lon="2.04052">
        <ele>408.018</ele>
        <time>2019-12-02T18:12:20Z</time>
      </trkpt>
      <trkpt lat="44.98353" lon="2.04002">
        <ele>404.941</ele>
        <time>2019-12-02T18:12:40Z</time>
      </trkpt>
      <trkpt lat="44.9838" lon="2.03958">
        <ele>408.995</ele>
        <time>2019-12-02T18:13:00Z</time>
      </trkpt>
      <trkpt lat="44.98425" lon="2.03909">
        <ele>424.78</ele>
        <time>2019-12-02T18:13:20Z</time>
      </trkpt>
      <trkpt lat="44.98455" lon="2.03834">
        <ele>430.587</ele>
        <time>2019-12-02T18:13:40Z</time>
      </trkpt>
      <trkpt lat="44.98449" lon="2.03788">
        <ele>431.767</ele>
        <time>2019-12-02T18:14:00Z</time>
      </trkpt>
      <trkpt lat="44.98356" lon="2.03725">
        <ele>397.858</ele>
        <time>2021-04-13T20:45:41Z</time>
      </trkpt>
      <trkpt lat="44.98362" lon="2.03649">
        <ele>402.67</ele>
        <time>2021-04-13T20:46:01Z</time>
      </trkpt>
      <trkpt lat="44.98407" lon="2.03559">
        <ele>403.997</ele>
        <time>2019-12-02T18:15:00Z</time>
      </trkpt>
      <trkpt lat="44.98432" lon="2.03516">
        <ele>425.023</ele>
        <time>2019-12-02T18:15:20Z</time>
      </trkpt>
      <trkpt lat="44.98459" lon="2.03485">
        <ele>418.825</ele>
        <time>2019-12-02T18:15:40Z</time>
      </trkpt>
      <trkpt lat="44.98461" lon="2.03413">
        <ele>395.308</ele>
        <time>2019-12-02T18:16:00Z</time>
      </trkpt>
      <trkpt lat="44.98521" lon="2.03304">
        <ele>403.256</ele>
        <time>2019-12-02T18:16:20Z</time>
      </trkpt>
      <trkpt lat="44.98589" lon="2.03214">
        <ele>402.569</ele>
        <time>2019-12-02T18:16:40Z</time>
      </trkpt>
      <trkpt lat="44.98476" lon="2.03281">
        <ele>370.383</ele>
        <time>2019-12-02T18:17:00Z</time>
      </trkpt>
      <trkpt lat="44.98416" lon="2.03327">
        <ele>349.788</ele>
        <time>2019-12-02T18:17:20Z</time>
      </trkpt>
      <trkpt lat="44.9846" lon="2.03228">
        <ele>350.215</ele>
        <time>2019-12-02T18:17:40Z</time>
      </trkpt>
      <trkpt lat="44.98524" lon="2.03144">
        <ele>350.675</ele>
        <time>2019-12-02T18:18:00Z</time>
      </trkpt>
      <trkpt lat="44.98661" lon="2.02987">
        <ele>361.326</ele>
        <time>2019-12-02T18:18:20Z</time>
      </trkpt>
      <trkpt lat="44.98602" lon="2.02994">
        <ele>362.938</ele>
        <time>2019-12-02T18:18:40Z</time>
      </trkpt>
      <trkpt lat="44.98488" lon="2.03047">
        <ele>351.921</ele>
        <time>2019-12-02T18:19:00Z</time>
      </trkpt>
      <trkpt lat="44.984" lon="2.03115">
        <ele>328.341</ele>
        <time>2019-12-02T18:19:20Z</time>
      </trkpt>
      <trkpt lat="44.98354" lon="2.0312">
        <ele>322.105</ele>
        <time>2021-04-13T20:51:01Z</time>
      </trkpt>
      <trkpt lat="44.98246" lon="2.0304">
        <ele>312.608</ele>
        <time>2019-12-02T18:20:00Z</time>
      </trkpt>
      <trkpt lat="44.98215" lon="2.02988">
        <ele>326.769</ele>
        <time>2019-12-02T18:20:20Z</time>
      </trkpt>
      <trkpt lat="44.98098" lon="2.02872">
        <ele>303.492</ele>
        <time>2019-12-02T18:20:40Z</time>
      </trkpt>
      <trkpt lat="44.98097" lon="2.02697">
        <ele>303.126</ele>
        <time>2019-12-02T18:21:00Z</time>
      </trkpt>
      <trkpt lat="44.98079" lon="2.02682">
        <ele>293.021</ele>
        <time>2019-12-02T18:21:20Z</time>
      </trkpt>
      <trkpt lat="44.98023" lon="2.02687">
        <ele>301.438</ele>
        <time>2019-12-02T18:21:40Z</time>
      </trkpt>
      <trkpt lat="44.98016" lon="2.02648">
        <ele>298.978</ele>
        <time>2019-12-02T18:22:00Z</time>
      </trkpt>
      <trkpt lat="44.98016" lon="2.02589">
        <ele>294.039</ele>
        <time>2019-12-02T18:22:20Z</time>
      </trkpt>
      <trkpt lat="44.98" lon="2.02542">
        <ele>290.171</ele>
        <time>2019-12-02T18:22:40Z</time>
      </trkpt>
      <trkpt lat="44.97967" lon="2.02541">
        <ele>291.974</ele>
        <time>2019-12-02T18:23:00Z</time>
      </trkpt>
      <trkpt lat="44.9795" lon="2.02517">
        <ele>288.156</ele>
        <time>2021-04-13T20:54:41Z</time>
      </trkpt>
      <trkpt lat="44.97865" lon="2.02474">
        <ele>312.221</ele>
        <time>2019-12-02T18:23:40Z</time>
      </trkpt>
      <trkpt lat="44.97847" lon="2.02438">
        <ele>313.208</ele>
        <time>2019-12-02T18:24:00Z</time>
      </trkpt>
      <trkpt lat="44.97846" lon="2.02318">
        <ele>321.144</ele>
        <time>2019-12-02T18:24:20Z</time>
      </trkpt>
      <trkpt lat="44.97871" lon="2.0224">
        <ele>315.297</ele>
        <time>2019-12-02T18:24:40Z</time>
      </trkpt>
      <trkpt lat="44.9795" lon="2.02004">
        <ele>300.781</ele>
        <time>2019-12-02T18:25:00Z</time>
      </trkpt>
      <trkpt lat="44.97951" lon="2.01916">
        <ele>295.386</ele>
        <time>2019-12-02T18:25:20Z</time>
      </trkpt>
      <trkpt lat="44.97944" lon="2.01892">
        <ele>294.433</ele>
        <time>2019-12-02T18:25:40Z</time>
      </trkpt>
      <trkpt lat="44.97945" lon="2.01871">
        <ele>293.093</ele>
        <time>2019-12-02T18:26:00Z</time>
      </trkpt>
      <trkpt lat="44.97926" lon="2.01839">
        <ele>284.234</ele>
        <time>2019-12-02T18:26:20Z</time>
      </trkpt>
      <trkpt lat="44.97852" lon="2.01801">
        <ele>286.566</ele>
        <time>2019-12-02T18:26:40Z</time>
      </trkpt>
      <trkpt lat="44.97791" lon="2.01777">
        <ele>295.033</ele>
        <time>2019-12-02T18:27:00Z</time>
      </trkpt>
      <trkpt lat="44.97742" lon="2.01743">
        <ele>298.123</ele>
        <time>2019-12-02T18:27:20Z</time>
      </trkpt>
      <trkpt lat="44.97731" lon="2.01716">
        <ele>307.815</ele>
        <time>2019-12-02T18:27:40Z</time>
      </trkpt>
      <trkpt lat="44.97736" lon="2.01542">
        <ele>307.208</ele>
        <time>2019-12-02T18:28:00Z</time>
      </trkpt>
      <trkpt lat="44.97728" lon="2.01222">
        <ele>284.89</ele>
        <time>2019-12-02T18:28:20Z</time>
      </trkpt>
      <trkpt lat="44.97733" lon="2.01083">
        <ele>280.683</ele>
        <time>2019-12-02T18:28:40Z</time>
      </trkpt>
      <trkpt lat="44.97719" lon="2.01005">
        <ele>282.427</ele>
        <time>2019-12-02T18:29:00Z</time>
      </trkpt>
      <trkpt lat="44.97675" lon="2.00938">
        <ele>277.762</ele>
        <time>2019-12-02T18:29:20Z</time>
      </trkpt>
      <trkpt lat="44.97631" lon="2.00895">
        <ele>273.619</ele>
        <time>2019-12-02T18:29:40Z</time>
      </trkpt>
      <trkpt lat="44.9761" lon="2.0094">
        <ele>279.219</ele>
        <time>2019-12-02T18:30:00Z</time>
      </trkpt>
      <trkpt lat="44.97579" lon="2.00895">
        <ele>286.55</ele>
        <time>2019-12-02T18:30:20Z</time>
      </trkpt>
      <trkpt lat="44.97588" lon="2.00867">
        <ele>274.272</ele>
        <time>2019-12-02T18:30:40Z</time>
      </trkpt>
      <trkpt lat="44.97577" lon="2.00826">
        <ele>285.914</ele>
        <time>2019-12-02T18:31:00Z</time>
      </trkpt>
      <trkpt lat="44.97567" lon="2.0079">
        <ele>298.354</ele>
        <time>2019-12-02T18:31:20Z</time>
      </trkpt>
      <trkpt lat="44.97573" lon="2.00733">
        <ele>302.509</ele>
        <time>2019-12-02T18:31:40Z</time>
      </trkpt>
      <trkpt lat="44.97544" lon="2.00735">
        <ele>316.008</ele>
        <time>2019-12-02T18:32:00Z</time>
      </trkpt>
      <trkpt lat="44.97517" lon="2.00751">
        <ele>320.278</ele>
        <time>2019-12-02T18:32:20Z</time>
      </trkpt>
      <trkpt lat="44.97503" lon="2.00744">
        <ele>332.411</ele>
        <time>2019-12-02T18:32:40Z</time>
      </trkpt>
      <trkpt lat="44.97485" lon="2.007">
        <ele>370.785</ele>
        <time>2019-12-02T18:33:00Z</time>
      </trkpt>
      <trkpt lat="44.97478" lon="2.00729">
        <ele>366.55</ele>
        <time>2019-12-02T18:33:20Z</time>
      </trkpt>
      <trkpt lat="44.97461" lon="2.0076">
        <ele>363.467</ele>
        <time>2019-12-02T18:33:40Z</time>
      </trkpt>
      <trkpt lat="44.97448" lon="2.0087">
        <ele>352.887</ele>
        <time>2019-12-02T18:34:00Z</time>
      </trkpt>
      <trkpt lat="44.97417" lon="2.00908">
        <ele>376.928</ele>
        <time>2019-12-02T18:34:20Z</time>
      </trkpt>
      <trkpt lat="44.97385" lon="2.01006">
        <ele>362.69</ele>
        <time>2019-12-02T18:34:40Z</time>
      </trkpt>
      <trkpt lat="44.9739" lon="2.01087">
        <ele>361.838</ele>
        <time>2019-12-02T18:35:00Z</time>
      </trkpt>
      <trkpt lat="44.97424" lon="2.01185">
        <ele>344.77</ele>
        <time>2019-12-02T18:35:20Z</time>
      </trkpt>
      <trkpt lat="44.97451" lon="2.01241">
        <ele>342.317</ele>
        <time>2019-12-02T18:35:40Z</time>
      </trkpt>
      <trkpt lat="44.97468" lon="2.01258">
        <ele>337.708</ele>
        <time>2019-12-02T18:36:00Z</time>
      </trkpt>
      <trkpt lat="44.9747" lon="2.01283">
        <ele>336.96</ele>
        <time>2019-12-02T18:36:20Z</time>
      </trkpt>
      <trkpt lat="44.97459" lon="2.01291">
        <ele>339.173</ele>
        <time>2019-12-02T18:36:40Z</time>
      </trkpt>
      <trkpt lat="44.97426" lon="2.01254">
        <ele>358.047</ele>
        <time>2019-12-02T18:37:00Z</time>
      </trkpt>
      <trkpt lat="44.97404" lon="2.01204">
        <ele>377.092</ele>
        <time>2019-12-02T18:37:20Z</time>
      </trkpt>
      <trkpt lat="44.97385" lon="2.01183">
        <ele>380.519</ele>
        <time>2019-12-02T18:37:40Z</time>
      </trkpt>
      <trkpt lat="44.97403" lon="2.01272">
        <ele>369.999</ele>
        <time>2019-12-02T18:38:00Z</time>
      </trkpt>
      <trkpt lat="44.97396" lon="2.01285">
        <ele>369.55</ele>
        <time>2019-12-02T18:38:20Z</time>
      </trkpt>
      <trkpt lat="44.97384" lon="2.01278">
        <ele>372.152</ele>
        <time>2019-12-02T18:38:40Z</time>
      </trkpt>
      <trkpt lat="44.97351" lon="2.01194">
        <ele>393.584</ele>
        <time>2019-12-02T18:39:00Z</time>
      </trkpt>
      <trkpt lat="44.97319" lon="2.01135">
        <ele>421.707</ele>
        <time>2019-12-02T18:39:20Z</time>
      </trkpt>
      <trkpt lat="44.97306" lon="2.01171">
        <ele>418.617</ele>
        <time>2019-12-02T18:39:40Z</time>
      </trkpt>
      <trkpt lat="44.97287" lon="2.01167">
        <ele>422.708</ele>
        <time>2019-12-02T18:40:00Z</time>
      </trkpt>
      <trkpt lat="44.97256" lon="2.01131">
        <ele>433.965</ele>
        <time>2019-12-02T18:40:20Z</time>
      </trkpt>
      <trkpt lat="44.9723" lon="2.01132">
        <ele>452.848</ele>
        <time>2019-12-02T18:40:40Z</time>
      </trkpt>
      <trkpt lat="44.97204" lon="2.01112">
        <ele>458.052</ele>
        <time>2019-12-02T18:41:00Z</time>
      </trkpt>
      <trkpt lat="44.97174" lon="2.01102">
        <ele>466.047</ele>
        <time>2019-12-02T18:41:20Z</time>
      </trkpt>
      <trkpt lat="44.97191" lon="2.01081">
        <ele>474.254</ele>
        <time>2019-12-02T18:41:40Z</time>
      </trkpt>
      <trkpt lat="44.972" lon="2.01042">
        <ele>474.144</ele>
        <time>2019-12-02T18:42:00Z</time>
      </trkpt>
      <trkpt lat="44.97233" lon="2.00988">
        <ele>474.635</ele>
        <time>2019-12-02T18:42:20Z</time>
      </trkpt>
      <trkpt lat="44.97231" lon="2.00936">
        <ele>482.087</ele>
        <time>2019-12-02T18:42:40Z</time>
      </trkpt>
      <trkpt lat="44.97237" lon="2.00923">
        <ele>479.951</ele>
        <time>2019-12-02T18:43:00Z</time>
      </trkpt>
      <trkpt lat="44.9727" lon="2.00908">
        <ele>466.501</ele>
        <time>2019-12-02T18:43:20Z</time>
      </trkpt>
      <trkpt lat="44.97275" lon="2.00869">
        <ele>468.111</ele>
        <time>2019-12-02T18:43:40Z</time>
      </trkpt>
      <trkpt lat="44.97309" lon="2.00835">
        <ele>460.508</ele>
        <time>2019-12-02T18:44:00Z</time>
      </trkpt>
      <trkpt lat="44.97297" lon="2.00741">
        <ele>484.362</ele>
        <time>2019-12-02T18:44:20Z</time>
      </trkpt>
      <trkpt lat="44.97314" lon="2.00705">
        <ele>482.515</ele>
        <time>2019-12-02T18:44:40Z</time>
      </trkpt>
      <trkpt lat="44.97322" lon="2.00663">
        <ele>482.039</ele>
        <time>2019-12-02T18:45:00Z</time>
      </trkpt>
      <trkpt lat="44.97353" lon="2.00644">
        <ele>458.864</ele>
        <time>2019-12-02T18:45:20Z</time>
      </trkpt>
      <trkpt lat="44.97372" lon="2.0058">
        <ele>465.431</ele>
        <time>2019-12-02T18:45:40Z</time>
      </trkpt>
      <trkpt lat="44.9736" lon="2.00562">
        <ele>470.051</ele>
        <time>2019-12-02T18:46:00Z</time>
      </trkpt>
      <trkpt lat="44.97368" lon="2.00519">
        <ele>468.982</ele>
        <time>2019-12-02T18:46:20Z</time>
      </trkpt>
      <trkpt lat="44.97356" lon="2.0048">
        <ele>477.334</ele>
        <time>2019-12-02T18:46:40Z</time>
      </trkpt>
      <trkpt lat="44.97357" lon="2.00458">
        <ele>476.014</ele>
        <time>2019-12-02T18:47:00Z</time>
      </trkpt>
      <trkpt lat="44.97379" lon="2.00418">
        <ele>470.754</ele>
        <time>2019-12-02T18:47:20Z</time>
      </trkpt>
      <trkpt lat="44.97385" lon="2.00361">
        <ele>470.009</ele>
        <time>2019-12-02T18:47:40Z</time>
      </trkpt>
      <trkpt lat="44.97384" lon="2.00318">
        <ele>464.408</ele>
        <time>2019-12-02T18:48:00Z</time>
      </trkpt>
      <trkpt lat="44.97364" lon="2.00275">
        <ele>468.448</ele>
        <time>2019-12-02T18:48:20Z</time>
      </trkpt>
      <trkpt lat="44.97358" lon="2.00225">
        <ele>455.731</ele>
        <time>2019-12-02T18:48:40Z</time>
      </trkpt>
      <trkpt lat="44.97341" lon="2.002">
        <ele>454.535</ele>
        <time>2019-12-02T18:49:00Z</time>
      </trkpt>
      <trkpt lat="44.97322" lon="2.002">
        <ele>481.74</ele>
        <time>2019-12-02T18:49:20Z</time>
      </trkpt>
      <trkpt lat="44.97282" lon="2.00167">
        <ele>488.737</ele>
        <time>2019-12-02T18:49:40Z</time>
      </trkpt>
      <trkpt lat="44.97303" lon="2.00113">
        <ele>471.587</ele>
        <time>2019-12-02T18:50:00Z</time>
      </trkpt>
      <trkpt lat="44.973" lon="2.00075">
        <ele>465.088</ele>
        <time>2019-12-02T18:50:20Z</time>
      </trkpt>
      <trkpt lat="44.97256" lon="2.00012">
        <ele>480.21</ele>
        <time>2019-12-02T18:50:40Z</time>
      </trkpt>
      <trkpt lat="44.97282" lon="1.99929">
        <ele>464.459</ele>
        <time>2019-12-02T18:51:00Z</time>
      </trkpt>
      <trkpt lat="44.97279" lon="1.99899">
        <ele>459.203</ele>
        <time>2019-12-02T18:51:20Z</time>
      </trkpt>
      <trkpt lat="44.97228" lon="1.99891">
        <ele>484.023</ele>
        <time>2019-12-02T18:51:40Z</time>
      </trkpt>
      <trkpt lat="44.97243" lon="1.9988">
        <ele>481.308</ele>
        <time>2019-12-02T18:52:00Z</time>
      </trkpt>
      <trkpt lat="44.9729" lon="1.99875">
        <ele>454.332</ele>
        <time>2019-12-02T18:52:20Z</time>
      </trkpt>
      <trkpt lat="44.97291" lon="1.99862">
        <ele>453.195</ele>
        <time>2019-12-02T18:52:40Z</time>
      </trkpt>
      <trkpt lat="44.97234" lon="1.99858">
        <ele>478.019</ele>
        <time>2019-12-02T18:53:00Z</time>
      </trkpt>
      <trkpt lat="44.9719" lon="1.99751">
        <ele>477.524</ele>
        <time>2019-12-02T18:53:20Z</time>
      </trkpt>
      <trkpt lat="44.97202" lon="1.99681">
        <ele>459.611</ele>
        <time>2019-12-02T18:53:40Z</time>
      </trkpt>
      <trkpt lat="44.97205" lon="1.99594">
        <ele>444.821</ele>
        <time>2019-12-02T18:54:00Z</time>
      </trkpt>
      <trkpt lat="44.9718" lon="1.99565">
        <ele>441.862</ele>
        <time>2019-12-02T18:54:20Z</time>
      </trkpt>
      <trkpt lat="44.97136" lon="1.99478">
        <ele>458.584</ele>
        <time>2019-12-02T18:54:40Z</time>
      </trkpt>
      <trkpt lat="44.97146" lon="1.99443">
        <ele>453.983</ele>
        <time>2019-12-02T18:55:00Z</time>
      </trkpt>
      <trkpt lat="44.97144" lon="1.99397">
        <ele>455.525</ele>
        <time>2019-12-02T18:55:20Z</time>
      </trkpt>
      <trkpt lat="44.97166" lon="1.99357">
        <ele>454.917</ele>
        <time>2019-12-02T18:55:40Z</time>
      </trkpt>
      <trkpt lat="44.97165" lon="1.99309">
        <ele>466.408</ele>
        <time>2019-12-02T18:56:00Z</time>
      </trkpt>
      <trkpt lat="44.97216" lon="1.99259">
        <ele>437.425</ele>
        <time>2019-12-02T18:56:20Z</time>
      </trkpt>
      <trkpt lat="44.97267" lon="1.99152">
        <ele>438.938</ele>
        <time>2019-12-02T18:56:40Z</time>
      </trkpt>
      <trkpt lat="44.9727" lon="1.9911">
        <ele>436.532</ele>
        <time>2019-12-02T18:57:00Z</time>
      </trkpt>
      <trkpt lat="44.9723" lon="1.99085">
        <ele>470.797</ele>
        <time>2019-12-02T18:57:20Z</time>
      </trkpt>
      <trkpt lat="44.97234" lon="1.99041">
        <ele>470.524</ele>
        <time>2019-12-02T18:57:40Z</time>
      </trkpt>
      <trkpt lat="44.97218" lon="1.99018">
        <ele>472.744</ele>
        <time>2019-12-02T18:58:00Z</time>
      </trkpt>
      <trkpt lat="44.97213" lon="1.98975">
        <ele>466.215</ele>
        <time>2019-12-02T18:58:20Z</time>
      </trkpt>
      <trkpt lat="44.97202" lon="1.98964">
        <ele>469.067</ele>
        <time>2019-12-02T18:58:40Z</time>
      </trkpt>
      <trkpt lat="44.97188" lon="1.98934">
        <ele>471.573</ele>
        <time>2019-12-02T18:59:00Z</time>
      </trkpt>
      <trkpt lat="44.97194" lon="1.98888">
        <ele>455.485</ele>
        <time>2019-12-02T18:59:20Z</time>
      </trkpt>
      <trkpt lat="44.97168" lon="1.98875">
        <ele>457.613</ele>
        <time>2019-12-02T18:59:40Z</time>
      </trkpt>
      <trkpt lat="44.9712" lon="1.98871">
        <ele>484.708</ele>
        <time>2019-12-02T19:00:00Z</time>
      </trkpt>
      <trkpt lat="44.97107" lon="1.98848">
        <ele>486.044</ele>
        <time>2019-12-02T19:00:20Z</time>
      </trkpt>
      <trkpt lat="44.97106" lon="1.98713">
        <ele>460.467</ele>
        <time>2019-12-02T19:00:40Z</time>
      </trkpt>
      <trkpt lat="44.97089" lon="1.98691">
        <ele>460.451</ele>
        <time>2019-12-02T19:01:00Z</time>
      </trkpt>
      <trkpt lat="44.97049" lon="1.98687">
        <ele>482.466</ele>
        <time>2019-12-02T19:01:20Z</time>
      </trkpt>
      <trkpt lat="44.9703" lon="1.98633">
        <ele>469.243</ele>
        <time>2019-12-02T19:01:40Z</time>
      </trkpt>
      <trkpt lat="44.96978" lon="1.98614">
        <ele>490.423</ele>
        <time>2019-12-02T19:02:00Z</time>
      </trkpt>
      <trkpt lat="44.96979" lon="1.986">
        <ele>488.214</ele>
        <time>2019-12-02T19:02:20Z</time>
      </trkpt>
      <trkpt lat="44.96997" lon="1.98554">
        <ele>485.446</ele>
        <time>2019-12-02T19:02:40Z</time>
      </trkpt>
      <trkpt lat="44.97" lon="1.9851">
        <ele>483.664</ele>
        <time>2019-12-02T19:03:00Z</time>
      </trkpt>
      <trkpt lat="44.97014" lon="1.98482">
        <ele>462.606</ele>
        <time>2019-12-02T19:03:20Z</time>
      </trkpt>
      <trkpt lat="44.97021" lon="1.98451">
        <ele>455.316</ele>
        <time>2019-12-02T19:03:40Z</time>
      </trkpt>
      <trkpt lat="44.97013" lon="1.98428">
        <ele>458.108</ele>
        <time>2019-12-02T19:04:00Z</time>
      </trkpt>
      <trkpt lat="44.96957" lon="1.98391">
        <ele>462.263</ele>
        <time>2019-12-02T19:04:20Z</time>
      </trkpt>
      <trkpt lat="44.96921" lon="1.98399">
        <ele>473.676</ele>
        <time>2019-12-02T19:04:40Z</time>
      </trkpt>
      <trkpt lat="44.96884" lon="1.98381">
        <ele>483.16</ele>
        <time>2019-12-02T19:05:00Z</time>
      </trkpt>
      <trkpt lat="44.96868" lon="1.98356">
        <ele>481.175</ele>
        <time>2019-12-02T19:05:20Z</time>
      </trkpt>
      <trkpt lat="44.96833" lon="1.98325">
        <ele>483.962</ele>
        <time>2019-12-02T19:05:40Z</time>
      </trkpt>
      <trkpt lat="44.96811" lon="1.9832">
        <ele>487.332</ele>
        <time>2019-12-02T19:06:00Z</time>
      </trkpt>
      <trkpt lat="44.96799" lon="1.98303">
        <ele>489.013</ele>
        <time>2019-12-02T19:06:20Z</time>
      </trkpt>
      <trkpt lat="44.96813" lon="1.98212">
        <ele>472.275</ele>
        <time>2019-12-02T19:06:40Z</time>
      </trkpt>
      <trkpt lat="44.96801" lon="1.98206">
        <ele>473.798</ele>
        <time>2019-12-02T19:07:00Z</time>
      </trkpt>
      <trkpt lat="44.96751" lon="1.98207">
        <ele>481.615</ele>
        <time>2019-12-02T19:07:20Z</time>
      </trkpt>
      <trkpt lat="44.9673" lon="1.9817">
        <ele>490.026</ele>
        <time>2019-12-02T19:07:40Z</time>
      </trkpt>
      <trkpt lat="44.96725" lon="1.9814">
        <ele>476.008</ele>
        <time>2019-12-02T19:08:00Z</time>
      </trkpt>
      <trkpt lat="44.96711" lon="1.98134">
        <ele>475.876</ele>
        <time>2019-12-02T19:08:20Z</time>
      </trkpt>
      <trkpt lat="44.96695" lon="1.98154">
        <ele>480.979</ele>
        <time>2019-12-02T19:08:40Z</time>
      </trkpt>
      <trkpt lat="44.96673" lon="1.98153">
        <ele>485.783</ele>
        <time>2019-12-02T19:09:00Z</time>
      </trkpt>
      <trkpt lat="44.96648" lon="1.98139">
        <ele>490.848</ele>
        <time>2019-12-02T19:09:20Z</time>
      </trkpt>
      <trkpt lat="44.96623" lon="1.98167">
        <ele>499.455</ele>
        <time>2019-12-02T19:09:40Z</time>
      </trkpt>
      <trkpt lat="44.96596" lon="1.98167">
        <ele>500.495</ele>
        <time>2019-12-02T19:10:00Z</time>
      </trkpt>
      <trkpt lat="44.96587" lon="1.98146">
        <ele>496.076</ele>
        <time>2019-12-02T19:10:20Z</time>
      </trkpt>
      <trkpt lat="44.96594" lon="1.98129">
        <ele>494.158</ele>
        <time>2019-12-02T19:10:40Z</time>
      </trkpt>
      <trkpt lat="44.96594" lon="1.98103">
        <ele>494.127</ele>
        <time>2019-12-02T19:11:00Z</time>
      </trkpt>
      <trkpt lat="44.96589" lon="1.98078">
        <ele>492.568</ele>
        <time>2019-12-02T19:11:20Z</time>
      </trkpt>
      <trkpt lat="44.9658" lon="1.9808">
        <ele>498.614</ele>
        <time>2019-12-02T19:11:40Z</time>
      </trkpt>
      <trkpt lat="44.96563" lon="1.98033">
        <ele>495.308</ele>
        <time>2019-12-02T19:12:00Z</time>
      </trkpt>
      <trkpt lat="44.96535" lon="1.98021">
        <ele>496.429</ele>
        <time>2019-12-02T19:12:20Z</time>
      </trkpt>
      <trkpt lat="44.96503" lon="1.98019">
        <ele>497.772</ele>
        <time>2019-12-02T19:12:40Z</time>
      </trkpt>
      <trkpt lat="44.96477" lon="1.98003">
        <ele>498.376</ele>
        <time>2019-12-02T19:13:00Z</time>
      </trkpt>
      <trkpt lat="44.96437" lon="1.97938">
        <ele>482.961</ele>
        <time>2019-12-02T19:13:20Z</time>
      </trkpt>
      <trkpt lat="44.9641" lon="1.97936">
        <ele>482.538</ele>
        <time>2019-12-02T19:13:40Z</time>
      </trkpt>
      <trkpt lat="44.96393" lon="1.97959">
        <ele>485.648</ele>
        <time>2019-12-02T19:14:00Z</time>
      </trkpt>
      <trkpt lat="44.96381" lon="1.98063">
        <ele>492.679</ele>
        <time>2019-12-02T19:14:20Z</time>
      </trkpt>
      <trkpt lat="44.96359" lon="1.98135">
        <ele>489.391</ele>
        <time>2019-12-02T19:14:40Z</time>
      </trkpt>
      <trkpt lat="44.96354" lon="1.98178">
        <ele>485.532</ele>
        <time>2019-12-02T19:15:00Z</time>
      </trkpt>
      <trkpt lat="44.96343" lon="1.98187">
        <ele>485.292</ele>
        <time>2019-12-02T19:15:20Z</time>
      </trkpt>
      <trkpt lat="44.96329" lon="1.98185">
        <ele>486.011</ele>
        <time>2019-12-02T19:15:40Z</time>
      </trkpt>
      <trkpt lat="44.96333" lon="1.98077">
        <ele>491.808</ele>
        <time>2019-12-02T19:16:00Z</time>
      </trkpt>
      <trkpt lat="44.96327" lon="1.97984">
        <ele>491.49</ele>
        <time>2019-12-02T19:16:20Z</time>
      </trkpt>
      <trkpt lat="44.96312" lon="1.9789">
        <ele>483.083</ele>
        <time>2019-12-02T19:16:40Z</time>
      </trkpt>
      <trkpt lat="44.96289" lon="1.97804">
        <ele>470.157</ele>
        <time>2019-12-02T19:17:00Z</time>
      </trkpt>
      <trkpt lat="44.96293" lon="1.97757">
        <ele>464.552</ele>
        <time>2019-12-02T19:17:20Z</time>
      </trkpt>
      <trkpt lat="44.96287" lon="1.97725">
        <ele>454.799</ele>
        <time>2019-12-02T19:17:40Z</time>
      </trkpt>
      <trkpt lat="44.96265" lon="1.97705">
        <ele>458.339</ele>
        <time>2019-12-02T19:18:00Z</time>
      </trkpt>
      <trkpt lat="44.96263" lon="1.97685">
        <ele>458.91</ele>
        <time>2019-12-02T19:18:20Z</time>
      </trkpt>
      <trkpt lat="44.96271" lon="1.97662">
        <ele>450.612</ele>
        <time>2019-12-02T19:18:40Z</time>
      </trkpt>
      <trkpt lat="44.96268" lon="1.97634">
        <ele>446.567</ele>
        <time>2019-12-02T19:19:00Z</time>
      </trkpt>
      <trkpt lat="44.96248" lon="1.9761">
        <ele>467.381</ele>
        <time>2019-12-02T19:19:20Z</time>
      </trkpt>
      <trkpt lat="44.96241" lon="1.97544">
        <ele>462.919</ele>
        <time>2019-12-02T19:19:40Z</time>
      </trkpt>
      <trkpt lat="44.96246" lon="1.97517">
        <ele>460.008</ele>
        <time>2019-12-02T19:20:00Z</time>
      </trkpt>
      <trkpt lat="44.96234" lon="1.97491">
        <ele>458.423</ele>
        <time>2019-12-02T19:20:20Z</time>
      </trkpt>
      <trkpt lat="44.96204" lon="1.97484">
        <ele>462.716</ele>
        <time>2019-12-02T19:20:40Z</time>
      </trkpt>
      <trkpt lat="44.96212" lon="1.97464">
        <ele>461.22</ele>
        <time>2019-12-02T19:21:00Z</time>
      </trkpt>
      <trkpt lat="44.96234" lon="1.97443">
        <ele>457.165</ele>
        <time>2019-12-02T19:21:20Z</time>
      </trkpt>
      <trkpt lat="44.96229" lon="1.97398">
        <ele>447.392</ele>
        <time>2019-12-02T19:21:40Z</time>
      </trkpt>
      <trkpt lat="44.96211" lon="1.97376">
        <ele>447.612</ele>
        <time>2019-12-02T19:22:00Z</time>
      </trkpt>
      <trkpt lat="44.96158" lon="1.97355">
        <ele>463.213</ele>
        <time>2019-12-02T19:22:20Z</time>
      </trkpt>
      <trkpt lat="44.96125" lon="1.97308">
        <ele>454.915</ele>
        <time>2019-12-02T19:22:40Z</time>
      </trkpt>
      <trkpt lat="44.96113" lon="1.97214">
        <ele>436.488</ele>
        <time>2019-12-02T19:23:00Z</time>
      </trkpt>
      <trkpt lat="44.96091" lon="1.97205">
        <ele>438.624</ele>
        <time>2019-12-02T19:23:20Z</time>
      </trkpt>
      <trkpt lat="44.96061" lon="1.97224">
        <ele>454.426</ele>
        <time>2019-12-02T19:23:40Z</time>
      </trkpt>
      <trkpt lat="44.96053" lon="1.97221">
        <ele>454.108</ele>
        <time>2019-12-02T19:24:00Z</time>
      </trkpt>
      <trkpt lat="44.96046" lon="1.97174">
        <ele>451.055</ele>
        <time>2019-12-02T19:24:20Z</time>
      </trkpt>
      <trkpt lat="44.95999" lon="1.97127">
        <ele>443.018</ele>
        <time>2019-12-02T19:24:40Z</time>
      </trkpt>
      <trkpt lat="44.95966" lon="1.9713">
        <ele>442.082</ele>
        <time>2019-12-02T19:25:00Z</time>
      </trkpt>
      <trkpt lat="44.95926" lon="1.9723">
        <ele>454.257</ele>
        <time>2019-12-02T19:25:20Z</time>
      </trkpt>
      <trkpt lat="44.95912" lon="1.97278">
        <ele>461.734</ele>
        <time>2019-12-02T19:25:40Z</time>
      </trkpt>
      <trkpt lat="44.95901" lon="1.97277">
        <ele>462.114</ele>
        <time>2019-12-02T19:26:00Z</time>
      </trkpt>
      <trkpt lat="44.95891" lon="1.97186">
        <ele>450.765</ele>
        <time>2019-12-02T19:26:20Z</time>
      </trkpt>
      <trkpt lat="44.95871" lon="1.97131">
        <ele>438.267</ele>
        <time>2019-12-02T19:26:40Z</time>
      </trkpt>
      <trkpt lat="44.95847" lon="1.97116">
        <ele>436.516</ele>
        <time>2019-12-02T19:27:00Z</time>
      </trkpt>
      <trkpt lat="44.95853" lon="1.97016">
        <ele>422.476</ele>
        <time>2019-12-02T19:27:20Z</time>
      </trkpt>
      <trkpt lat="44.95897" lon="1.96948">
        <ele>413.613</ele>
        <time>2019-12-02T19:27:40Z</time>
      </trkpt>
      <trkpt lat="44.95947" lon="1.96916">
        <ele>396.508</ele>
        <time>2019-12-02T19:28:00Z</time>
      </trkpt>
      <trkpt lat="44.95957" lon="1.96889">
        <ele>392.238</ele>
        <time>2019-12-02T19:28:20Z</time>
      </trkpt>
      <trkpt lat="44.95958" lon="1.96678">
        <ele>360.671</ele>
        <time>2019-12-02T19:28:40Z</time>
      </trkpt>
      <trkpt lat="44.9594" lon="1.96587">
        <ele>358.635</ele>
        <time>2019-12-02T19:29:00Z</time>
      </trkpt>
      <trkpt lat="44.95944" lon="1.96546">
        <ele>344.03</ele>
        <time>2019-12-02T19:29:20Z</time>
      </trkpt>
      <trkpt lat="44.95931" lon="1.96501">
        <ele>347.227</ele>
        <time>2019-12-02T19:29:40Z</time>
      </trkpt>
      <trkpt lat="44.95942" lon="1.965">
        <ele>334.057</ele>
        <time>2019-12-02T19:30:00Z</time>
      </trkpt>
      <trkpt lat="44.95974" lon="1.9651">
        <ele>331.158</ele>
        <time>2019-12-02T19:30:20Z</time>
      </trkpt>
      <trkpt lat="44.95957" lon="1.96463">
        <ele>324.01</ele>
        <time>2019-12-02T19:30:40Z</time>
      </trkpt>
      <trkpt lat="44.95935" lon="1.9644">
        <ele>326.627</ele>
        <time>2019-12-02T19:31:00Z</time>
      </trkpt>
      <trkpt lat="44.95923" lon="1.96386">
        <ele>313.268</ele>
        <time>2019-12-02T19:31:20Z</time>
      </trkpt>
      <trkpt lat="44.95923" lon="1.9632">
        <ele>303.314</ele>
        <time>2019-12-02T19:31:40Z</time>
      </trkpt>
      <trkpt lat="44.95959" lon="1.96148">
        <ele>269.608</ele>
        <time>2019-12-02T19:32:00Z</time>
      </trkpt>
      <trkpt lat="44.95956" lon="1.96126">
        <ele>269.579</ele>
        <time>2019-12-02T19:32:20Z</time>
      </trkpt>
      <trkpt lat="44.95936" lon="1.96065">
        <ele>271.232</ele>
        <time>2019-12-02T19:32:40Z</time>
      </trkpt>
      <trkpt lat="44.95915" lon="1.95938">
        <ele>282.096</ele>
        <time>2019-12-02T19:33:00Z</time>
      </trkpt>
      <trkpt lat="44.95913" lon="1.95889">
        <ele>266.541</ele>
        <time>2019-12-02T19:33:20Z</time>
      </trkpt>
      <trkpt lat="44.95892" lon="1.95868">
        <ele>265.498</ele>
        <time>2019-12-02T19:33:40Z</time>
      </trkpt>
      <trkpt lat="44.95764" lon="1.95804">
        <ele>274.238</ele>
        <time>2019-12-02T19:34:00Z</time>
      </trkpt>
      <trkpt lat="44.95661" lon="1.95723">
        <ele>264.819</ele>
        <time>2019-12-02T19:34:20Z</time>
      </trkpt>
      <trkpt lat="44.95619" lon="1.9567">
        <ele>254.891</ele>
        <time>2019-12-02T19:34:40Z</time>
      </trkpt>
      <trkpt lat="44.95586" lon="1.95669">
        <ele>252.958</ele>
        <time>2019-12-02T19:35:00Z</time>
      </trkpt>
      <trkpt lat="44.95575" lon="1.95701">
        <ele>247.552</ele>
        <time>2019-12-02T19:35:20Z</time>
      </trkpt>
      <trkpt lat="44.95565" lon="1.9585">
        <ele>262.517</ele>
        <time>2019-12-02T19:35:40Z</time>
      </trkpt>
      <trkpt lat="44.95571" lon="1.95978">
        <ele>272.508</ele>
        <time>2019-12-02T19:36:00Z</time>
      </trkpt>
      <trkpt lat="44.95541" lon="1.9614">
        <ele>281.182</ele>
        <time>2019-12-02T19:36:20Z</time>
      </trkpt>
      <trkpt lat="44.95486" lon="1.96217">
        <ele>261.555</ele>
        <time>2021-04-13T22:08:01Z</time>
      </trkpt>
      <trkpt lat="44.95492" lon="1.9625">
        <ele>265.969</ele>
        <time>2019-12-02T19:37:00Z</time>
      </trkpt>
      <trkpt lat="44.95541" lon="1.96294">
        <ele>282.164</ele>
        <time>2019-12-02T19:37:20Z</time>
      </trkpt>
      <trkpt lat="44.95556" lon="1.9637">
        <ele>283.321</ele>
        <time>2019-12-02T19:37:40Z</time>
      </trkpt>
      <trkpt lat="44.95579" lon="1.96379">
        <ele>284.411</ele>
        <time>2021-04-13T22:09:21Z</time>
      </trkpt>
      <trkpt lat="44.95628" lon="1.96448">
        <ele>300.682</ele>
        <time>2019-12-02T19:38:20Z</time>
      </trkpt>
      <trkpt lat="44.95616" lon="1.96482">
        <ele>301.744</ele>
        <time>2019-12-02T19:38:40Z</time>
      </trkpt>
      <trkpt lat="44.95485" lon="1.96372">
        <ele>287.031</ele>
        <time>2019-12-02T19:39:00Z</time>
      </trkpt>
      <trkpt lat="44.95398" lon="1.9637">
        <ele>309.561</ele>
        <time>2019-12-02T19:39:20Z</time>
      </trkpt>
      <trkpt lat="44.95369" lon="1.96342">
        <ele>311.307</ele>
        <time>2019-12-02T19:39:40Z</time>
      </trkpt>
      <trkpt lat="44.9535" lon="1.96262">
        <ele>290.408</ele>
        <time>2019-12-02T19:40:00Z</time>
      </trkpt>
      <trkpt lat="44.95326" lon="1.96224">
        <ele>310.66</ele>
        <time>2019-12-02T19:40:20Z</time>
      </trkpt>
      <trkpt lat="44.95336" lon="1.96182">
        <ele>285.473</ele>
        <time>2019-12-02T19:40:40Z</time>
      </trkpt>
      <trkpt lat="44.95363" lon="1.96088">
        <ele>279.487</ele>
        <time>2019-12-02T19:41:00Z</time>
      </trkpt>
      <trkpt lat="44.95354" lon="1.96032">
        <ele>277.772</ele>
        <time>2019-12-02T19:41:20Z</time>
      </trkpt>
      <trkpt lat="44.95323" lon="1.95972">
        <ele>307.489</ele>
        <time>2019-12-02T19:41:40Z</time>
      </trkpt>
      <trkpt lat="44.9532" lon="1.95926">
        <ele>299.129</ele>
        <time>2019-12-02T19:42:00Z</time>
      </trkpt>
      <trkpt lat="44.95347" lon="1.95886">
        <ele>266.03</ele>
        <time>2019-12-02T19:42:20Z</time>
      </trkpt>
      <trkpt lat="44.95352" lon="1.95782">
        <ele>258.122</ele>
        <time>2019-12-02T19:42:40Z</time>
      </trkpt>
      <trkpt lat="44.95322" lon="1.95734">
        <ele>289.192</ele>
        <time>2019-12-02T19:43:00Z</time>
      </trkpt>
      <trkpt lat="44.95309" lon="1.9568">
        <ele>291.073</ele>
        <time>2021-04-13T22:14:41Z</time>
      </trkpt>
      <trkpt lat="44.95306" lon="1.9562">
        <ele>299.12</ele>
        <time>2019-12-02T19:43:20Z</time>
      </trkpt>
      <trkpt lat="44.95319" lon="1.95467">
        <ele>282.708</ele>
        <time>2019-12-02T19:43:40Z</time>
      </trkpt>
      <trkpt lat="44.95311" lon="1.95442">
        <ele>277.826</ele>
        <time>2021-04-13T22:15:41Z</time>
      </trkpt>
      <trkpt lat="44.95246" lon="1.95457">
        <ele>294.139</ele>
        <time>2021-04-13T22:16:01Z</time>
      </trkpt>
      <trkpt lat="44.9518" lon="1.95439">
        <ele>299.543</ele>
        <time>2019-12-02T19:44:00Z</time>
      </trkpt>
      <trkpt lat="44.95094" lon="1.95433">
        <ele>310.818</ele>
        <time>2019-12-02T19:44:20Z</time>
      </trkpt>
      <trkpt lat="44.95079" lon="1.95424">
        <ele>310.745</ele>
        <time>2021-04-13T22:17:01Z</time>
      </trkpt>
      <trkpt lat="44.95072" lon="1.95403">
        <ele>313.865</ele>
        <time>2019-12-02T19:44:40Z</time>
      </trkpt>
      <trkpt lat="44.9516" lon="1.95271">
        <ele>288.686</ele>
        <time>2019-12-02T19:45:00Z</time>
      </trkpt>
      <trkpt lat="44.95166" lon="1.95215">
        <ele>286.348</ele>
        <time>2019-12-02T19:45:20Z</time>
      </trkpt>
      <trkpt lat="44.95136" lon="1.95151">
        <ele>281.021</ele>
        <time>2019-12-02T19:45:40Z</time>
      </trkpt>
      <trkpt lat="44.95105" lon="1.95075">
        <ele>284.841</ele>
        <time>2019-12-02T19:46:00Z</time>
      </trkpt>
      <trkpt lat="44.95104" lon="1.95033">
        <ele>281.505</ele>
        <time>2019-12-02T19:46:20Z</time>
      </trkpt>
      <trkpt lat="44.95159" lon="1.94821">
        <ele>279.208</ele>
        <time>2019-12-02T19:46:40Z</time>
      </trkpt>
      <trkpt lat="44.95234" lon="1.94683">
        <ele>246.999</ele>
        <time>2019-12-02T19:47:20Z</time>
      </trkpt>
      <trkpt lat="44.95242" lon="1.94566">
        <ele>240.552</ele>
        <time>2019-12-02T19:47:40Z</time>
      </trkpt>
      <trkpt lat="44.95223" lon="1.94448">
        <ele>236.556</ele>
        <time>2021-04-13T22:20:21Z</time>
      </trkpt>
      <trkpt lat="44.95235" lon="1.94324">
        <ele>227.451</ele>
        <time>2019-12-02T19:48:20Z</time>
      </trkpt>
      <trkpt lat="44.95237" lon="1.94168">
        <ele>222.418</ele>
        <time>2019-12-02T19:48:40Z</time>
      </trkpt>
      <trkpt lat="44.95233" lon="1.94076">
        <ele>209.458</ele>
        <time>2019-12-02T19:49:00Z</time>
      </trkpt>
      <trkpt lat="44.95241" lon="1.94014">
        <ele>203.259</ele>
        <time>2019-12-02T19:49:20Z</time>
      </trkpt>
      <trkpt lat="44.95214" lon="1.93878">
        <ele>193.061</ele>
        <time>2019-12-02T19:49:40Z</time>
      </trkpt>
      <trkpt lat="44.95174" lon="1.93742">
        <ele>175.675</ele>
        <time>2019-12-02T19:50:00Z</time>
      </trkpt>
      <trkpt lat="44.95145" lon="1.93742">
        <ele>188.728</ele>
        <time>2019-12-02T19:50:20Z</time>
      </trkpt>
      <trkpt lat="44.95101" lon="1.93583">
        <ele>198.02</ele>
        <time>2019-12-02T19:50:40Z</time>
      </trkpt>
      <trkpt lat="44.9505" lon="1.93455">
        <ele>205.208</ele>
        <time>2019-12-02T19:51:00Z</time>
      </trkpt>
      <trkpt lat="44.95044" lon="1.93415">
        <ele>197.564</ele>
        <time>2019-12-02T19:51:20Z</time>
      </trkpt>
      <trkpt lat="44.95004" lon="1.93323">
        <ele>200.537</ele>
        <time>2019-12-02T19:51:40Z</time>
      </trkpt>
      <trkpt lat="44.94956" lon="1.93253">
        <ele>204.261</ele>
        <time>2019-12-02T19:52:00Z</time>
      </trkpt>
      <trkpt lat="44.94917" lon="1.93187">
        <ele>197.946</ele>
        <time>2019-12-02T19:52:20Z</time>
      </trkpt>
      <trkpt lat="44.94874" lon="1.93165">
        <ele>190.153</ele>
        <time>2019-12-02T19:52:40Z</time>
      </trkpt>
      <trkpt lat="44.94765" lon="1.93143">
        <ele>184.173</ele>
        <time>2019-12-02T19:53:00Z</time>
      </trkpt>
      <trkpt lat="44.94715" lon="1.93249">
        <ele>185.824</ele>
        <time>2019-12-02T19:53:20Z</time>
      </trkpt>
      <trkpt lat="44.94698" lon="1.93317">
        <ele>195.156</ele>
        <time>2019-12-02T19:53:40Z</time>
      </trkpt>
      <trkpt lat="44.94667" lon="1.93325">
        <ele>194.763</ele>
        <time>2019-12-02T19:54:00Z</time>
      </trkpt>
      <trkpt lat="44.94645" lon="1.93301">
        <ele>193.244</ele>
        <time>2019-12-02T19:54:20Z</time>
      </trkpt>
      <trkpt lat="44.9461" lon="1.93233">
        <ele>185.018</ele>
        <time>2019-12-02T19:54:40Z</time>
      </trkpt>
      <trkpt lat="44.94554" lon="1.93171">
        <ele>182.508</ele>
        <time>2019-12-02T19:55:00Z</time>
      </trkpt>
      <trkpt lat="44.94523" lon="1.93171">
        <ele>181.453</ele>
        <time>2019-12-02T19:55:20Z</time>
      </trkpt>
      <trkpt lat="44.94469" lon="1.93185">
        <ele>179.286</ele>
        <time>2019-12-02T19:55:40Z</time>
      </trkpt>
      <trkpt lat="44.94414" lon="1.93177">
        <ele>175.78</ele>
        <time>2019-12-02T19:56:00Z</time>
      </trkpt>
      <trkpt lat="44.94319" lon="1.93089">
        <ele>167.875</ele>
        <time>2019-12-02T19:56:20Z</time>
      </trkpt>
      <trkpt lat="44.94197" lon="1.93027">
        <ele>165.132</ele>
        <time>2019-12-02T19:56:40Z</time>
      </trkpt>
      <trkpt lat="44.94103" lon="1.92995">
        <ele>164.322</ele>
        <time>2019-12-02T19:57:00Z</time>
      </trkpt>
      <trkpt lat="44.93994" lon="1.92899">
        <ele>171.923</ele>
        <time>2019-12-02T19:57:20Z</time>
      </trkpt>
      <trkpt lat="44.93925" lon="1.92841">
        <ele>174.715</ele>
        <time>2019-12-02T19:57:40Z</time>
      </trkpt>
      <trkpt lat="44.93894" lon="1.928">
        <ele>181.715</ele>
        <time>2021-04-13T22:30:21Z</time>
      </trkpt>
      <trkpt lat="44.93882" lon="1.92747">
        <ele>180.265</ele>
        <time>2019-12-02T19:58:20Z</time>
      </trkpt>
      <trkpt lat="44.93878" lon="1.92622">
        <ele>176.611</ele>
        <time>2019-12-02T19:58:40Z</time>
      </trkpt>
      <trkpt lat="44.93869" lon="1.92571">
        <ele>175.308</ele>
        <time>2021-04-13T22:31:21Z</time>
      </trkpt>
      <trkpt lat="44.93834" lon="1.92478">
        <ele>173.058</ele>
        <time>2019-12-02T19:59:20Z</time>
      </trkpt>
      <trkpt lat="44.93798" lon="1.92318">
        <ele>177.051</ele>
        <time>2019-12-02T19:59:40Z</time>
      </trkpt>
      <trkpt lat="44.9382" lon="1.9219">
        <ele>182.935</ele>
        <time>2019-12-02T20:00:00Z</time>
      </trkpt>
      <trkpt lat="44.93818" lon="1.92084">
        <ele>187.57</ele>
        <time>2019-12-02T20:00:20Z</time>
      </trkpt>
      <trkpt lat="44.93854" lon="1.91954">
        <ele>189.657</ele>
        <time>2019-12-02T20:00:40Z</time>
      </trkpt>
      <trkpt lat="44.93886" lon="1.91878">
        <ele>199.827</ele>
        <time>2019-12-02T20:01:00Z</time>
      </trkpt>
      <trkpt lat="44.93915" lon="1.91734">
        <ele>210.118</ele>
        <time>2019-12-02T20:01:20Z</time>
      </trkpt>
      <trkpt lat="44.93944" lon="1.91712">
        <ele>196.37</ele>
        <time>2019-12-02T20:01:40Z</time>
      </trkpt>
      <trkpt lat="44.94005" lon="1.91647">
        <ele>192.128</ele>
        <time>2019-12-02T20:02:00Z</time>
      </trkpt>
      <trkpt lat="44.94014" lon="1.9162">
        <ele>198.189</ele>
        <time>2021-04-13T22:34:41Z</time>
      </trkpt>
      <trkpt lat="44.94022" lon="1.91568">
        <ele>203.217</ele>
        <time>2021-04-13T22:35:01Z</time>
      </trkpt>
      <trkpt lat="44.94021" lon="1.91539">
        <ele>205.108</ele>
        <time>2021-04-13T22:35:21Z</time>
      </trkpt>
      <trkpt lat="44.94025" lon="1.91519">
        <ele>202.779</ele>
        <time>2019-12-02T20:03:20Z</time>
      </trkpt>
      <trkpt lat="44.94013" lon="1.91482">
        <ele>207.692</ele>
        <time>2019-12-02T20:03:40Z</time>
      </trkpt>
      <trkpt lat="44.93999" lon="1.91486">
        <ele>214.176</ele>
        <time>2021-04-13T22:36:21Z</time>
      </trkpt>
      <trkpt lat="44.93988" lon="1.9139">
        <ele>234.061</ele>
        <time>2019-12-02T20:04:20Z</time>
      </trkpt>
      <trkpt lat="44.93966" lon="1.91391">
        <ele>237.468</ele>
        <time>2021-04-13T22:37:01Z</time>
      </trkpt>
      <trkpt lat="44.93953" lon="1.91466">
        <ele>239.138</ele>
        <time>2021-04-13T22:37:21Z</time>
      </trkpt>
      <trkpt lat="44.93926" lon="1.91553">
        <ele>234.519</ele>
        <time>2019-12-02T20:05:20Z</time>
      </trkpt>
      <trkpt lat="44.93894" lon="1.91565">
        <ele>254.421</ele>
        <time>2019-12-02T20:05:40Z</time>
      </trkpt>
      <trkpt lat="44.93841" lon="1.91554">
        <ele>263.513</ele>
        <time>2019-12-02T20:06:00Z</time>
      </trkpt>
      <trkpt lat="44.93743" lon="1.91596">
        <ele>290.843</ele>
        <time>2019-12-02T20:06:20Z</time>
      </trkpt>
      <trkpt lat="44.93737" lon="1.91618">
        <ele>291.207</ele>
        <time>2019-12-02T20:06:40Z</time>
      </trkpt>
      <trkpt lat="44.93737" lon="1.91669">
        <ele>290.808</ele>
        <time>2019-12-02T20:07:00Z</time>
      </trkpt>
      <trkpt lat="44.93724" lon="1.9167">
        <ele>293.058</ele>
        <time>2019-12-02T20:07:20Z</time>
      </trkpt>
      <trkpt lat="44.93701" lon="1.91633">
        <ele>292.881</ele>
        <time>2019-12-02T20:07:40Z</time>
      </trkpt>
      <trkpt lat="44.93682" lon="1.91509">
        <ele>298.285</ele>
        <time>2019-12-02T20:08:00Z</time>
      </trkpt>
      <trkpt lat="44.9367" lon="1.91354">
        <ele>318.35</ele>
        <time>2019-12-02T20:08:20Z</time>
      </trkpt>
      <trkpt lat="44.93649" lon="1.9125">
        <ele>317.257</ele>
        <time>2019-12-02T20:08:40Z</time>
      </trkpt>
      <trkpt lat="44.936" lon="1.91184">
        <ele>316.177</ele>
        <time>2019-12-02T20:09:00Z</time>
      </trkpt>
      <trkpt lat="44.93523" lon="1.91133">
        <ele>312.088</ele>
        <time>2019-12-02T20:09:20Z</time>
      </trkpt>
      <trkpt lat="44.93465" lon="1.91078">
        <ele>303.76</ele>
        <time>2019-12-02T20:09:40Z</time>
      </trkpt>
      <trkpt lat="44.93496" lon="1.91153">
        <ele>286.191</ele>
        <time>2019-12-02T20:10:00Z</time>
      </trkpt>
      <trkpt lat="44.93541" lon="1.9121">
        <ele>290.281</ele>
        <time>2019-12-02T20:10:20Z</time>
      </trkpt>
      <trkpt lat="44.93444" lon="1.91173">
        <ele>257.619</ele>
        <time>2019-12-02T20:10:40Z</time>
      </trkpt>
      <trkpt lat="44.93377" lon="1.91056">
        <ele>260.708</ele>
        <time>2019-12-02T20:11:00Z</time>
      </trkpt>
      <trkpt lat="44.93365" lon="1.91056">
        <ele>257.346</ele>
        <time>2019-12-02T20:11:20Z</time>
      </trkpt>
      <trkpt lat="44.93385" lon="1.91156">
        <ele>244.069</ele>
        <time>2019-12-02T20:11:40Z</time>
      </trkpt>
      <trkpt lat="44.93414" lon="1.91233">
        <ele>229.283</ele>
        <time>2019-12-02T20:12:00Z</time>
      </trkpt>
      <trkpt lat="44.93471" lon="1.91301">
        <ele>237.278</ele>
        <time>2019-12-02T20:12:20Z</time>
      </trkpt>
      <trkpt lat="44.93463" lon="1.91316">
        <ele>234.695</ele>
        <time>2019-12-02T20:12:40Z</time>
      </trkpt>
      <trkpt lat="44.93397" lon="1.91248">
        <ele>227.695</ele>
        <time>2019-12-02T20:13:00Z</time>
      </trkpt>
      <trkpt lat="44.93311" lon="1.9117">
        <ele>217.256</ele>
        <time>2019-12-02T20:13:20Z</time>
      </trkpt>
      <trkpt lat="44.93275" lon="1.91097">
        <ele>216.598</ele>
        <time>2019-12-02T20:13:40Z</time>
      </trkpt>
      <trkpt lat="44.93251" lon="1.90982">
        <ele>221.441</ele>
        <time>2019-12-02T20:14:00Z</time>
      </trkpt>
      <trkpt lat="44.93251" lon="1.90843">
        <ele>221.881</ele>
        <time>2019-12-02T20:14:20Z</time>
      </trkpt>
      <trkpt lat="44.93197" lon="1.90775">
        <ele>214.609</ele>
        <time>2019-12-02T20:14:40Z</time>
      </trkpt>
      <trkpt lat="44.93144" lon="1.90625">
        <ele>215.608</ele>
        <time>2019-12-02T20:15:00Z</time>
      </trkpt>
      <trkpt lat="44.93089" lon="1.90553">
        <ele>218.441</ele>
        <time>2019-12-02T20:15:20Z</time>
      </trkpt>
      <trkpt lat="44.93047" lon="1.90528">
        <ele>205.454</ele>
        <time>2019-12-02T20:15:40Z</time>
      </trkpt>
      <trkpt lat="44.93057" lon="1.90574">
        <ele>203.958</ele>
        <time>2019-12-02T20:16:00Z</time>
      </trkpt>
      <trkpt lat="44.93055" lon="1.90639">
        <ele>208.063</ele>
        <time>2019-12-02T20:16:20Z</time>
      </trkpt>
      <trkpt lat="44.93007" lon="1.90615">
        <ele>207.57</ele>
        <time>2019-12-02T20:16:40Z</time>
      </trkpt>
      <trkpt lat="44.92976" lon="1.90617">
        <ele>210.66</ele>
        <time>2019-12-02T20:17:00Z</time>
      </trkpt>
      <trkpt lat="44.92943" lon="1.90639">
        <ele>213.161</ele>
        <time>2019-12-02T20:17:20Z</time>
      </trkpt>
      <trkpt lat="44.92891" lon="1.90701">
        <ele>226.363</ele>
        <time>2019-12-02T20:17:40Z</time>
      </trkpt>
      <trkpt lat="44.92864" lon="1.90752">
        <ele>238.055</ele>
        <time>2019-12-02T20:18:00Z</time>
      </trkpt>
      <trkpt lat="44.92836" lon="1.90821">
        <ele>242.107</ele>
        <time>2019-12-02T20:18:20Z</time>
      </trkpt>
      <trkpt lat="44.92797" lon="1.9089">
        <ele>249.517</ele>
        <time>2019-12-02T20:18:40Z</time>
      </trkpt>
      <trkpt lat="44.92709" lon="1.90881">
        <ele>247.708</ele>
        <time>2019-12-02T20:19:00Z</time>
      </trkpt>
      <trkpt lat="44.92653" lon="1.90918">
        <ele>252.812</ele>
        <time>2019-12-02T20:19:20Z</time>
      </trkpt>
      <trkpt lat="44.92593" lon="1.91006">
        <ele>262.195</ele>
        <time>2019-12-02T20:19:40Z</time>
      </trkpt>
      <trkpt lat="44.92534" lon="1.91012">
        <ele>270.499</ele>
        <time>2019-12-02T20:20:00Z</time>
      </trkpt>
      <trkpt lat="44.92474" lon="1.91011">
        <ele>275.894</ele>
        <time>2021-04-13T22:52:41Z</time>
      </trkpt>
      <trkpt lat="44.92435" lon="1.91033">
        <ele>279.961</ele>
        <time>2019-12-02T20:20:20Z</time>
      </trkpt>
      <trkpt lat="44.92353" lon="1.91051">
        <ele>286.671</ele>
        <time>2021-04-13T22:53:21Z</time>
      </trkpt>
      <trkpt lat="44.92301" lon="1.91091">
        <ele>290.512</ele>
        <time>2021-04-13T22:53:41Z</time>
      </trkpt>
      <trkpt lat="44.92182" lon="1.91189">
        <ele>303.644</ele>
        <time>2021-04-13T22:54:01Z</time>
      </trkpt>
      <trkpt lat="44.92119" lon="1.91279">
        <ele>318.293</ele>
        <time>2021-04-13T22:54:21Z</time>
      </trkpt>
      <trkpt lat="44.92093" lon="1.91257">
        <ele>319.865</ele>
        <time>2021-04-13T22:54:41Z</time>
      </trkpt>
      <trkpt lat="44.92087" lon="1.91315">
        <ele>320.221</ele>
        <time>2019-12-02T20:22:20Z</time>
      </trkpt>
      <trkpt lat="44.92031" lon="1.91372">
        <ele>328.608</ele>
        <time>2019-12-02T20:22:40Z</time>
      </trkpt>
      <trkpt lat="44.91999" lon="1.91458">
        <ele>333.076</ele>
        <time>2019-12-02T20:23:00Z</time>
      </trkpt>
      <trkpt lat="44.92069" lon="1.91424">
        <ele>337.649</ele>
        <time>2019-12-02T20:23:20Z</time>
      </trkpt>
      <trkpt lat="44.92113" lon="1.91422">
        <ele>344.223</ele>
        <time>2019-12-02T20:23:40Z</time>
      </trkpt>
      <trkpt lat="44.92232" lon="1.91463">
        <ele>352.668</ele>
        <time>2019-12-02T20:24:00Z</time>
      </trkpt>
      <trkpt lat="44.92259" lon="1.91515">
        <ele>360.165</ele>
        <time>2021-04-13T22:57:01Z</time>
      </trkpt>
      <trkpt lat="44.92249" lon="1.91546">
        <ele>363.415</ele>
        <time>2019-12-02T20:24:40Z</time>
      </trkpt>
      <trkpt lat="44.92211" lon="1.91568">
        <ele>364.396</ele>
        <time>2019-12-02T20:25:00Z</time>
      </trkpt>
      <trkpt lat="44.92122" lon="1.91694">
        <ele>372.388</ele>
        <time>2019-12-02T20:25:20Z</time>
      </trkpt>
      <trkpt lat="44.92056" lon="1.91819">
        <ele>376.865</ele>
        <time>2019-12-02T20:25:40Z</time>
      </trkpt>
      <trkpt lat="44.91948" lon="1.91969">
        <ele>385.068</ele>
        <time>2019-12-02T20:26:00Z</time>
      </trkpt>
      <trkpt lat="44.91957" lon="1.92025">
        <ele>386.814</ele>
        <time>2019-12-02T20:26:20Z</time>
      </trkpt>
      <trkpt lat="44.91914" lon="1.92059">
        <ele>394.208</ele>
        <time>2019-12-02T20:26:40Z</time>
      </trkpt>
      <trkpt lat="44.91888" lon="1.92055">
        <ele>394.633</ele>
        <time>2019-12-02T20:27:00Z</time>
      </trkpt>
      <trkpt lat="44.91852" lon="1.92093">
        <ele>400.716</ele>
        <time>2019-12-02T20:27:20Z</time>
      </trkpt>
      <trkpt lat="44.91837" lon="1.92145">
        <ele>402.59</ele>
        <time>2019-12-02T20:27:40Z</time>
      </trkpt>
      <trkpt lat="44.91811" lon="1.92201">
        <ele>410.795</ele>
        <time>2019-12-02T20:28:00Z</time>
      </trkpt>
      <trkpt lat="44.91764" lon="1.92231">
        <ele>413.332</ele>
        <time>2019-12-02T20:28:20Z</time>
      </trkpt>
      <trkpt lat="44.91712" lon="1.92241">
        <ele>419.242</ele>
        <time>2019-12-02T20:28:40Z</time>
      </trkpt>
      <trkpt lat="44.91645" lon="1.92289">
        <ele>429.363</ele>
        <time>2019-12-02T20:29:00Z</time>
      </trkpt>
      <trkpt lat="44.9163" lon="1.9219">
        <ele>424.965</ele>
        <time>2019-12-02T20:29:20Z</time>
      </trkpt>
      <trkpt lat="44.91548" lon="1.92117">
        <ele>414.897</ele>
        <time>2019-12-02T20:29:40Z</time>
      </trkpt>
      <trkpt lat="44.91527" lon="1.92048">
        <ele>406.823</ele>
        <time>2019-12-02T20:30:00Z</time>
      </trkpt>
      <trkpt lat="44.91509" lon="1.92029">
        <ele>407.025</ele>
        <time>2019-12-02T20:30:20Z</time>
      </trkpt>
      <trkpt lat="44.91466" lon="1.92061">
        <ele>407.108</ele>
        <time>2019-12-02T20:30:40Z</time>
      </trkpt>
      <trkpt lat="44.91443" lon="1.92068">
        <ele>405.876</ele>
        <time>2019-12-02T20:31:00Z</time>
      </trkpt>
      <trkpt lat="44.9141" lon="1.91969">
        <ele>404.519</ele>
        <time>2019-12-02T20:31:20Z</time>
      </trkpt>
      <trkpt lat="44.91369" lon="1.9193">
        <ele>402.953</ele>
        <time>2019-12-02T20:31:40Z</time>
      </trkpt>
      <trkpt lat="44.91317" lon="1.9181">
        <ele>398.968</ele>
        <time>2019-12-02T20:32:00Z</time>
      </trkpt>
      <trkpt lat="44.91288" lon="1.91752">
        <ele>396.055</ele>
        <time>2019-12-02T20:32:20Z</time>
      </trkpt>
      <trkpt lat="44.91294" lon="1.91694">
        <ele>391.285</ele>
        <time>2019-12-02T20:32:40Z</time>
      </trkpt>
      <trkpt lat="44.91357" lon="1.91465">
        <ele>371.656</ele>
        <time>2019-12-02T20:33:00Z</time>
      </trkpt>
      <trkpt lat="44.91399" lon="1.91418">
        <ele>369.078</ele>
        <time>2019-12-02T20:33:20Z</time>
      </trkpt>
      <trkpt lat="44.91372" lon="1.91364">
        <ele>357.489</ele>
        <time>2019-12-02T20:33:40Z</time>
      </trkpt>
      <trkpt lat="44.91347" lon="1.91355">
        <ele>355.706</ele>
        <time>2019-12-02T20:34:00Z</time>
      </trkpt>
      <trkpt lat="44.91291" lon="1.91312">
        <ele>345.626</ele>
        <time>2019-12-02T20:34:20Z</time>
      </trkpt>
      <trkpt lat="44.91235" lon="1.91278">
        <ele>346.208</ele>
        <time>2019-12-02T20:34:40Z</time>
      </trkpt>
      <trkpt lat="44.91217" lon="1.91246">
        <ele>351.315</ele>
        <time>2019-12-02T20:35:00Z</time>
      </trkpt>
      <trkpt lat="44.9123" lon="1.911">
        <ele>356.428</ele>
        <time>2019-12-02T20:35:20Z</time>
      </trkpt>
      <trkpt lat="44.91218" lon="1.91053">
        <ele>356.082</ele>
        <time>2019-12-02T20:35:40Z</time>
      </trkpt>
      <trkpt lat="44.91094" lon="1.9096">
        <ele>355.327</ele>
        <time>2019-12-02T20:36:00Z</time>
      </trkpt>
      <trkpt lat="44.911" lon="1.9092">
        <ele>353.814</ele>
        <time>2019-12-02T20:36:20Z</time>
      </trkpt>
      <trkpt lat="44.91127" lon="1.90905">
        <ele>344.764</ele>
        <time>2019-12-02T20:36:40Z</time>
      </trkpt>
      <trkpt lat="44.91139" lon="1.90853">
        <ele>341.195</ele>
        <time>2019-12-02T20:37:00Z</time>
      </trkpt>
      <trkpt lat="44.91101" lon="1.90733">
        <ele>326.177</ele>
        <time>2019-12-02T20:37:20Z</time>
      </trkpt>
      <trkpt lat="44.91129" lon="1.90686">
        <ele>323.065</ele>
        <time>2019-12-02T20:37:40Z</time>
      </trkpt>
      <trkpt lat="44.91162" lon="1.90669">
        <ele>320.768</ele>
        <time>2019-12-02T20:38:00Z</time>
      </trkpt>
      <trkpt lat="44.91203" lon="1.90566">
        <ele>306.314</ele>
        <time>2019-12-02T20:38:20Z</time>
      </trkpt>
      <trkpt lat="44.9122" lon="1.90611">
        <ele>309.608</ele>
        <time>2019-12-02T20:38:40Z</time>
      </trkpt>
      <trkpt lat="44.9127" lon="1.90488">
        <ele>285.953</ele>
        <time>2019-12-02T20:39:00Z</time>
      </trkpt>
      <trkpt lat="44.9125" lon="1.90438">
        <ele>283.876</ele>
        <time>2021-04-13T23:12:01Z</time>
      </trkpt>
      <trkpt lat="44.91211" lon="1.90377">
        <ele>277.01</ele>
        <time>2019-12-02T20:39:20Z</time>
      </trkpt>
      <trkpt lat="44.91211" lon="1.90285">
        <ele>259.185</ele>
        <time>2019-12-02T20:39:40Z</time>
      </trkpt>
      <trkpt lat="44.91183" lon="1.90203">
        <ele>244.142</ele>
        <time>2021-04-13T23:13:01Z</time>
      </trkpt>
      <trkpt lat="44.9114" lon="1.90162">
        <ele>224.072</ele>
        <time>2019-12-02T20:40:20Z</time>
      </trkpt>
      <trkpt lat="44.91153" lon="1.90144">
        <ele>222.853</ele>
        <time>2019-12-02T20:40:40Z</time>
      </trkpt>
      <trkpt lat="44.9112" lon="1.90127">
        <ele>217.115</ele>
        <time>2019-12-02T20:41:00Z</time>
      </trkpt>
      <trkpt lat="44.91059" lon="1.90121">
        <ele>206.121</ele>
        <time>2019-12-02T20:41:20Z</time>
      </trkpt>
      <trkpt lat="44.91007" lon="1.90131">
        <ele>202.841</ele>
        <time>2019-12-02T20:41:40Z</time>
      </trkpt>
      <trkpt lat="44.91034" lon="1.90053">
        <ele>192.005</ele>
        <time>2019-12-02T20:42:00Z</time>
      </trkpt>
      <trkpt lat="44.91084" lon="1.90005">
        <ele>185.808</ele>
        <time>2019-12-02T20:42:20Z</time>
      </trkpt>
      <trkpt lat="44.91122" lon="1.8995">
        <ele>183.979</ele>
        <time>2019-12-02T20:42:40Z</time>
      </trkpt>
      <trkpt lat="44.91117" lon="1.89852">
        <ele>189.292</ele>
        <time>2019-12-02T20:43:00Z</time>
      </trkpt>
      <trkpt lat="44.91154" lon="1.89688">
        <ele>191.386</ele>
        <time>2019-12-02T20:43:20Z</time>
      </trkpt>
      <trkpt lat="44.91165" lon="1.89557">
        <ele>189.571</ele>
        <time>2019-12-02T20:43:40Z</time>
      </trkpt>
      <trkpt lat="44.9117" lon="1.89358">
        <ele>180.388</ele>
        <time>2019-12-02T20:44:00Z</time>
      </trkpt>
      <trkpt lat="44.91203" lon="1.89231">
        <ele>184.058</ele>
        <time>2019-12-02T20:44:20Z</time>
      </trkpt>
      <trkpt lat="44.91205" lon="1.89173">
        <ele>183.259</ele>
        <time>2019-12-02T20:44:40Z</time>
      </trkpt>
      <trkpt lat="44.91185" lon="1.89102">
        <ele>180.251</ele>
        <time>2019-12-02T20:45:00Z</time>
      </trkpt>
      <trkpt lat="44.9115" lon="1.88995">
        <ele>187.051</ele>
        <time>2019-12-02T20:45:20Z</time>
      </trkpt>
      <trkpt lat="44.91144" lon="1.88864">
        <ele>177.501</ele>
        <time>2019-12-02T20:45:40Z</time>
      </trkpt>
      <trkpt lat="44.91124" lon="1.88773">
        <ele>169.711</ele>
        <time>2021-04-13T23:19:01Z</time>
      </trkpt>
      <trkpt lat="44.91089" lon="1.88663">
        <ele>170.308</ele>
        <time>2021-01-04T15:10:22Z</time>
      </trkpt>
      <trkpt lat="44.90898" lon="1.8823">
        <ele>161.732</ele>
        <time>2021-04-13T23:19:41Z</time>
      </trkpt>
      <trkpt lat="44.90935" lon="1.88213">
        <ele>159.665</ele>
        <time>2021-04-13T23:20:01Z</time>
      </trkpt>
      <trkpt lat="44.9095" lon="1.88165">
        <ele>156.939</ele>
        <time>2021-04-13T23:20:21Z</time>
      </trkpt>
      <trkpt lat="44.90974" lon="1.88158">
        <ele>155.464</ele>
        <time>2019-12-02T20:47:40Z</time>
      </trkpt>
      <trkpt lat="44.91018" lon="1.88124">
        <ele>153.851</ele>
        <time>2019-12-02T20:48:00Z</time>
      </trkpt>
      <trkpt lat="44.91044" lon="1.88066">
        <ele>153.351</ele>
        <time>2019-12-02T20:48:20Z</time>
      </trkpt>
      <trkpt lat="44.91033" lon="1.87956">
        <ele>152.712</ele>
        <time>2019-12-02T20:48:40Z</time>
      </trkpt>
      <trkpt lat="44.91066" lon="1.87892">
        <ele>152.714</ele>
        <time>2019-12-02T20:49:00Z</time>
      </trkpt>
      <trkpt lat="44.91069" lon="1.87753">
        <ele>152.534</ele>
        <time>2019-12-02T20:49:20Z</time>
      </trkpt>
      <trkpt lat="44.91062" lon="1.87686">
        <ele>151.955</ele>
        <time>2019-12-02T20:49:40Z</time>
      </trkpt>
      <trkpt lat="44.91077" lon="1.87617">
        <ele>153.01</ele>
        <time>2019-12-02T20:50:00Z</time>
      </trkpt>
      <trkpt lat="44.91068" lon="1.87467">
        <ele>154.708</ele>
        <time>2019-12-02T20:50:20Z</time>
      </trkpt>
      <trkpt lat="44.91091" lon="1.87456">
        <ele>164.81</ele>
        <time>2019-12-02T20:50:40Z</time>
      </trkpt>
      <trkpt lat="44.91075" lon="1.87338">
        <ele>163.983</ele>
        <time>2019-12-02T20:51:00Z</time>
      </trkpt>
      <trkpt lat="44.91017" lon="1.87203">
        <ele>160.527</ele>
        <time>2021-04-13T23:24:21Z</time>
      </trkpt>
      <trkpt lat="44.91036" lon="1.87017">
        <ele>162.012</ele>
        <time>2019-12-02T20:51:40Z</time>
      </trkpt>
      <trkpt lat="44.91031" lon="1.86909">
        <ele>153.249</ele>
        <time>2019-12-02T20:52:00Z</time>
      </trkpt>
      <trkpt lat="44.91019" lon="1.86843">
        <ele>150.969</ele>
        <time>2019-12-02T20:52:20Z</time>
      </trkpt>
      <trkpt lat="44.91027" lon="1.86738">
        <ele>150.03</ele>
        <time>2019-12-02T20:52:40Z</time>
      </trkpt>
      <trkpt lat="44.90983" lon="1.86682">
        <ele>146.672</ele>
        <time>2019-12-02T20:53:00Z</time>
      </trkpt>
      <trkpt lat="44.90974" lon="1.8663">
        <ele>148.642</ele>
        <time>2019-12-02T20:53:20Z</time>
      </trkpt>
      <trkpt lat="44.90928" lon="1.86514">
        <ele>149.222</ele>
        <time>2019-12-02T20:53:40Z</time>
      </trkpt>
      <trkpt lat="44.9092" lon="1.86467">
        <ele>147.614</ele>
        <time>2019-12-02T20:54:00Z</time>
      </trkpt>
      <trkpt lat="44.90876" lon="1.86348">
        <ele>144.108</ele>
        <time>2021-04-13T23:27:21Z</time>
      </trkpt>
      <trkpt lat="44.90851" lon="1.86164">
        <ele>143.781</ele>
        <time>2021-04-13T23:27:41Z</time>
      </trkpt>
      <trkpt lat="44.9087" lon="1.86036">
        <ele>143.434</ele>
        <time>2021-04-13T23:28:01Z</time>
      </trkpt>
      <trkpt lat="44.90867" lon="1.85919">
        <ele>143.298</ele>
        <time>2021-04-13T23:28:21Z</time>
      </trkpt>
      <trkpt lat="44.90879" lon="1.85849">
        <ele>143.473</ele>
        <time>2021-04-13T23:28:41Z</time>
      </trkpt>
      <trkpt lat="44.90889" lon="1.85772">
        <ele>143.21</ele>
        <time>2019-12-02T20:56:00Z</time>
      </trkpt>
      <trkpt lat="44.90858" lon="1.85654">
        <ele>144.05</ele>
        <time>2019-12-02T20:56:20Z</time>
      </trkpt>
      <trkpt lat="44.90852" lon="1.85594">
        <ele>143.621</ele>
        <time>2019-12-02T20:56:40Z</time>
      </trkpt>
      <trkpt lat="44.90806" lon="1.85431">
        <ele>143.333</ele>
        <time>2019-12-02T20:57:00Z</time>
      </trkpt>
      <trkpt lat="44.9079" lon="1.85401">
        <ele>144.623</ele>
        <time>2019-12-02T20:57:20Z</time>
      </trkpt>
      <trkpt lat="44.90805" lon="1.85298">
        <ele>148.083</ele>
        <time>2019-12-02T20:57:40Z</time>
      </trkpt>
      <trkpt lat="44.90925" lon="1.85229">
        <ele>149.011</ele>
        <time>2019-12-02T20:58:00Z</time>
      </trkpt>
      <trkpt lat="44.91018" lon="1.85362">
        <ele>150.008</ele>
        <time>2021-04-13T23:31:21Z</time>
      </trkpt>
      <trkpt lat="44.91082" lon="1.85442">
        <ele>150.169</ele>
        <time>2019-12-02T20:58:20Z</time>
      </trkpt>
      <trkpt lat="44.91191" lon="1.85527">
        <ele>154.952</ele>
        <time>2019-12-02T20:58:40Z</time>
      </trkpt>
      <trkpt lat="44.91182" lon="1.85469">
        <ele>156.916</ele>
        <time>2019-12-02T20:59:00Z</time>
      </trkpt>
      <trkpt lat="44.91214" lon="1.85349">
        <ele>155.371</ele>
        <time>2019-12-02T20:59:20Z</time>
      </trkpt>
      <trkpt lat="44.91221" lon="1.85274">
        <ele>153.048</ele>
        <time>2019-12-02T20:59:40Z</time>
      </trkpt>
      <trkpt lat="44.91197" lon="1.85186">
        <ele>152.728</ele>
        <time>2019-12-02T21:00:00Z</time>
      </trkpt>
      <trkpt lat="44.91311" lon="1.85092">
        <ele>151.539</ele>
        <time>2019-12-02T21:00:20Z</time>
      </trkpt>
      <trkpt lat="44.91396" lon="1.85032">
        <ele>151.441</ele>
        <time>2019-12-02T21:00:40Z</time>
      </trkpt>
      <trkpt lat="44.91498" lon="1.84916">
        <ele>155.947</ele>
        <time>2019-12-02T21:01:00Z</time>
      </trkpt>
      <trkpt lat="44.91594" lon="1.84768">
        <ele>156.629</ele>
        <time>2019-12-02T21:01:20Z</time>
      </trkpt>
      <trkpt lat="44.91624" lon="1.84777">
        <ele>155.021</ele>
        <time>2021-04-13T23:35:01Z</time>
      </trkpt>
      <trkpt lat="44.91554" lon="1.84686">
        <ele>150.608</ele>
        <time>2021-04-13T23:35:21Z</time>
      </trkpt>
      <trkpt lat="44.91534" lon="1.84645">
        <ele>146.711</ele>
        <time>2019-12-02T21:02:40Z</time>
      </trkpt>
      <trkpt lat="44.91556" lon="1.84573">
        <ele>137.454</ele>
        <time>2019-12-02T21:03:00Z</time>
      </trkpt>
      <trkpt lat="44.91556" lon="1.84502">
        <ele>136.828</ele>
        <time>2019-12-02T21:03:20Z</time>
      </trkpt>
      <trkpt lat="44.91548" lon="1.84476">
        <ele>136.293</ele>
        <time>2019-12-02T21:03:40Z</time>
      </trkpt>
      <trkpt lat="44.91735" lon="1.84336">
        <ele>135.67</ele>
        <time>2019-12-02T21:04:00Z</time>
      </trkpt>
      <trkpt lat="44.91607" lon="1.84098">
        <ele>137.72</ele>
        <time>2019-12-02T21:04:20Z</time>
      </trkpt>
      <trkpt lat="44.91577" lon="1.83972">
        <ele>137.811</ele>
        <time>2019-12-02T21:04:40Z</time>
      </trkpt>
      <trkpt lat="44.91512" lon="1.83814">
        <ele>138.863</ele>
        <time>2021-04-13T23:38:01Z</time>
      </trkpt>
      <trkpt lat="44.91285" lon="1.8401">
        <ele>136.498</ele>
        <time>2019-12-02T21:05:20Z</time>
      </trkpt>
      <trkpt lat="44.91285" lon="1.83987">
        <ele>136.315</ele>
        <time>2019-12-02T21:05:40Z</time>
      </trkpt>
      <trkpt lat="44.91177" lon="1.83952">
        <ele>135.026</ele>
        <time>2019-12-02T21:06:00Z</time>
      </trkpt>
      <trkpt lat="44.91075" lon="1.83961">
        <ele>135.008</ele>
        <time>2019-12-02T21:06:20Z</time>
      </trkpt>
      <trkpt lat="44.91039" lon="1.84019">
        <ele>136.116</ele>
        <time>2019-12-02T21:06:40Z</time>
      </trkpt>
      <trkpt lat="44.90974" lon="1.84047">
        <ele>136.339</ele>
        <time>2019-12-02T21:07:00Z</time>
      </trkpt>
      <trkpt lat="44.90904" lon="1.8397">
        <ele>136.023</ele>
        <time>2019-12-02T21:07:20Z</time>
      </trkpt>
      <trkpt lat="44.9086" lon="1.83914">
        <ele>136.048</ele>
        <time>2019-12-02T21:07:40Z</time>
      </trkpt>
      <trkpt lat="44.9074" lon="1.84015">
        <ele>137.795</ele>
        <time>2019-12-02T21:08:00Z</time>
      </trkpt>
      <trkpt lat="44.90665" lon="1.84055">
        <ele>139.945</ele>
        <time>2019-12-02T21:08:20Z</time>
      </trkpt>
      <trkpt lat="44.90623" lon="1.84068">
        <ele>140.656</ele>
        <time>2019-12-02T21:08:40Z</time>
      </trkpt>
      <trkpt lat="44.9058" lon="1.84118">
        <ele>146.738</ele>
        <time>2019-12-02T21:09:00Z</time>
      </trkpt>
      <trkpt lat="44.90515" lon="1.84092">
        <ele>152.199</ele>
        <time>2019-12-02T21:09:20Z</time>
      </trkpt>
      <trkpt lat="44.90455" lon="1.8409">
        <ele>163.407</ele>
        <time>2019-12-02T21:09:40Z</time>
      </trkpt>
      <trkpt lat="44.90417" lon="1.84124">
        <ele>165.527</ele>
        <time>2019-12-02T21:10:00Z</time>
      </trkpt>
      <trkpt lat="44.90378" lon="1.84128">
        <ele>175.308</ele>
        <time>2019-12-02T21:10:20Z</time>
      </trkpt>
      <trkpt lat="44.90363" lon="1.84115">
        <ele>176.486</ele>
        <time>2019-12-02T21:10:40Z</time>
      </trkpt>
      <trkpt lat="44.9031" lon="1.84128">
        <ele>191.339</ele>
        <time>2019-12-02T21:11:00Z</time>
      </trkpt>
      <trkpt lat="44.90282" lon="1.84158">
        <ele>194.943</ele>
        <time>2019-12-02T21:11:20Z</time>
      </trkpt>
      <trkpt lat="44.90287" lon="1.84203">
        <ele>199.488</ele>
        <time>2019-12-02T21:11:40Z</time>
      </trkpt>
      <trkpt lat="44.90351" lon="1.84259">
        <ele>197.835</ele>
        <time>2019-12-02T21:12:00Z</time>
      </trkpt>
      <trkpt lat="44.903" lon="1.84276">
        <ele>214.575</ele>
        <time>2019-12-02T21:12:20Z</time>
      </trkpt>
      <trkpt lat="44.90221" lon="1.84253">
        <ele>231.326</ele>
        <time>2019-12-02T21:12:40Z</time>
      </trkpt>
      <trkpt lat="44.90174" lon="1.84208">
        <ele>232.588</ele>
        <time>2019-12-02T21:13:00Z</time>
      </trkpt>
      <trkpt lat="44.90173" lon="1.84124">
        <ele>234.542</ele>
        <time>2019-12-02T21:13:20Z</time>
      </trkpt>
      <trkpt lat="44.90202" lon="1.8398">
        <ele>248.122</ele>
        <time>2019-12-02T21:13:40Z</time>
      </trkpt>
      <trkpt lat="44.90183" lon="1.83922">
        <ele>254.014</ele>
        <time>2019-12-02T21:14:00Z</time>
      </trkpt>
      <trkpt lat="44.90139" lon="1.83909">
        <ele>259.008</ele>
        <time>2019-12-02T21:14:20Z</time>
      </trkpt>
      <trkpt lat="44.90106" lon="1.83927">
        <ele>258.781</ele>
        <time>2019-12-02T21:14:40Z</time>
      </trkpt>
      <trkpt lat="44.89939" lon="1.83869">
        <ele>246.534</ele>
        <time>2019-12-02T21:15:00Z</time>
      </trkpt>
      <trkpt lat="44.89939" lon="1.83774">
        <ele>245.978</ele>
        <time>2019-12-02T21:15:20Z</time>
      </trkpt>
      <trkpt lat="44.89928" lon="1.83714">
        <ele>245.763</ele>
        <time>2019-12-02T21:15:40Z</time>
      </trkpt>
      <trkpt lat="44.89917" lon="1.83545">
        <ele>241.65</ele>
        <time>2019-12-02T21:16:00Z</time>
      </trkpt>
      <trkpt lat="44.89934" lon="1.83407">
        <ele>238.15</ele>
        <time>2019-12-02T21:16:20Z</time>
      </trkpt>
      <trkpt lat="44.89971" lon="1.83199">
        <ele>242.751</ele>
        <time>2019-12-02T21:16:40Z</time>
      </trkpt>
      <trkpt lat="44.89933" lon="1.83141">
        <ele>240.393</ele>
        <time>2019-12-02T21:17:00Z</time>
      </trkpt>
      <trkpt lat="44.89972" lon="1.83081">
        <ele>237.622</ele>
        <time>2019-12-02T21:17:20Z</time>
      </trkpt>
      <trkpt lat="44.89986" lon="1.82991">
        <ele>232.862</ele>
        <time>2019-12-02T21:17:40Z</time>
      </trkpt>
      <trkpt lat="44.89978" lon="1.82912">
        <ele>221.708</ele>
        <time>2019-12-02T21:18:00Z</time>
      </trkpt>
      <trkpt lat="44.8999" lon="1.82895">
        <ele>221.408</ele>
        <time>2019-12-02T21:18:20Z</time>
      </trkpt>
      <trkpt lat="44.89993" lon="1.82809">
        <ele>209.819</ele>
        <time>2019-12-02T21:18:40Z</time>
      </trkpt>
      <trkpt lat="44.89984" lon="1.82759">
        <ele>205.042</ele>
        <time>2019-12-02T21:19:00Z</time>
      </trkpt>
      <trkpt lat="44.8989" lon="1.82714">
        <ele>200.696</ele>
        <time>2019-12-02T21:19:20Z</time>
      </trkpt>
      <trkpt lat="44.89902" lon="1.82759">
        <ele>198.161</ele>
        <time>2019-12-02T21:19:40Z</time>
      </trkpt>
      <trkpt lat="44.89847" lon="1.82817">
        <ele>190.078</ele>
        <time>2019-12-02T21:20:00Z</time>
      </trkpt>
      <trkpt lat="44.89762" lon="1.82858">
        <ele>180.148</ele>
        <time>2019-12-02T21:20:20Z</time>
      </trkpt>
      <trkpt lat="44.89705" lon="1.82858">
        <ele>177.019</ele>
        <time>2019-12-02T21:20:40Z</time>
      </trkpt>
      <trkpt lat="44.89661" lon="1.82824">
        <ele>172.311</ele>
        <time>2019-12-02T21:21:00Z</time>
      </trkpt>
      <trkpt lat="44.8956" lon="1.82903">
        <ele>169.359</ele>
        <time>2019-12-02T21:21:20Z</time>
      </trkpt>
      <trkpt lat="44.89503" lon="1.82923">
        <ele>167.303</ele>
        <time>2021-04-13T23:54:41Z</time>
      </trkpt>
      <trkpt lat="44.89395" lon="1.82978">
        <ele>165.023</ele>
        <time>2019-12-02T21:21:40Z</time>
      </trkpt>
      <trkpt lat="44.89358" lon="1.82985">
        <ele>164.508</ele>
        <time>2019-12-02T21:22:00Z</time>
      </trkpt>
      <trkpt lat="44.89326" lon="1.82967">
        <ele>165.362</ele>
        <time>2019-12-02T21:22:20Z</time>
      </trkpt>
      <trkpt lat="44.89239" lon="1.82961">
        <ele>168.915</ele>
        <time>2019-12-02T21:22:40Z</time>
      </trkpt>
      <trkpt lat="44.89206" lon="1.82991">
        <ele>169.959</ele>
        <time>2019-12-02T21:23:00Z</time>
      </trkpt>
      <trkpt lat="44.89182" lon="1.83043">
        <ele>176.084</ele>
        <time>2019-12-02T21:23:20Z</time>
      </trkpt>
      <trkpt lat="44.89148" lon="1.82998">
        <ele>170.081</ele>
        <time>2019-12-02T21:23:40Z</time>
      </trkpt>
      <trkpt lat="44.891" lon="1.82952">
        <ele>165.941</ele>
        <time>2019-12-02T21:24:00Z</time>
      </trkpt>
      <trkpt lat="44.89054" lon="1.82849">
        <ele>155.172</ele>
        <time>2019-12-02T21:24:20Z</time>
      </trkpt>
      <trkpt lat="44.88934" lon="1.82646">
        <ele>143.344</ele>
        <time>2019-12-02T21:24:40Z</time>
      </trkpt>
      <trkpt lat="44.88786" lon="1.82611">
        <ele>138.483</ele>
        <time>2019-12-02T21:25:00Z</time>
      </trkpt>
      <trkpt lat="44.88765" lon="1.82558">
        <ele>137.025</ele>
        <time>2019-12-02T21:25:20Z</time>
      </trkpt>
      <trkpt lat="44.8866" lon="1.82525">
        <ele>133.817</ele>
        <time>2019-12-02T21:25:40Z</time>
      </trkpt>
      <trkpt lat="44.88631" lon="1.82489">
        <ele>134.408</ele>
        <time>2019-12-02T21:26:00Z</time>
      </trkpt>
      <trkpt lat="44.88557" lon="1.82433">
        <ele>135.145</ele>
        <time>2019-12-02T21:26:20Z</time>
      </trkpt>
      <trkpt lat="44.88446" lon="1.8238">
        <ele>131.618</ele>
        <time>2019-12-02T21:26:40Z</time>
      </trkpt>
      <trkpt lat="44.88362" lon="1.82266">
        <ele>128.792</ele>
        <time>2019-12-02T21:27:00Z</time>
      </trkpt>
      <trkpt lat="44.88289" lon="1.82152">
        <ele>130.547</ele>
        <time>2019-12-02T21:27:20Z</time>
      </trkpt>
      <trkpt lat="44.88259" lon="1.82169">
        <ele>131.584</ele>
        <time>2019-12-02T21:27:40Z</time>
      </trkpt>
      <trkpt lat="44.88238" lon="1.82212">
        <ele>132.274</ele>
        <time>2019-12-02T21:28:00Z</time>
      </trkpt>
      <trkpt lat="44.88228" lon="1.82277">
        <ele>131.695</ele>
        <time>2019-12-02T21:28:20Z</time>
      </trkpt>
      <trkpt lat="44.88201" lon="1.82347">
        <ele>131.927</ele>
        <time>2019-12-02T21:28:40Z</time>
      </trkpt>
      <trkpt lat="44.88171" lon="1.82442">
        <ele>132.651</ele>
        <time>2019-12-02T21:29:00Z</time>
      </trkpt>
      <trkpt lat="44.88147" lon="1.82475">
        <ele>131.701</ele>
        <time>2021-04-14T00:02:41Z</time>
      </trkpt>
      <trkpt lat="44.88147" lon="1.8256">
        <ele>130.511</ele>
        <time>2021-04-14T00:03:01Z</time>
      </trkpt>
      <trkpt lat="44.88155" lon="1.82701">
        <ele>132.408</ele>
        <time>2019-12-02T21:29:40Z</time>
      </trkpt>
      <trkpt lat="44.88183" lon="1.82761">
        <ele>132.642</ele>
        <time>2019-12-02T21:30:00Z</time>
      </trkpt>
      <trkpt lat="44.88204" lon="1.82852">
        <ele>132.055</ele>
        <time>2019-12-02T21:30:20Z</time>
      </trkpt>
      <trkpt lat="44.88224" lon="1.8292">
        <ele>132.049</ele>
        <time>2019-12-02T21:30:40Z</time>
      </trkpt>
      <trkpt lat="44.88219" lon="1.83">
        <ele>132.024</ele>
        <time>2019-12-02T21:31:00Z</time>
      </trkpt>
      <trkpt lat="44.88189" lon="1.8315">
        <ele>133.311</ele>
        <time>2019-12-02T21:31:20Z</time>
      </trkpt>
      <trkpt lat="44.88058" lon="1.83081">
        <ele>132.461</ele>
        <time>2019-12-02T21:31:40Z</time>
      </trkpt>
      <trkpt lat="44.87908" lon="1.8306">
        <ele>132.512</ele>
        <time>2019-12-02T21:32:00Z</time>
      </trkpt>
      <trkpt lat="44.87848" lon="1.8303">
        <ele>132.984</ele>
        <time>2019-12-02T21:32:20Z</time>
      </trkpt>
      <trkpt lat="44.87769" lon="1.83036">
        <ele>132.615</ele>
        <time>2019-12-02T21:32:40Z</time>
      </trkpt>
      <trkpt lat="44.87731" lon="1.83098">
        <ele>131.565</ele>
        <time>2019-12-02T21:33:00Z</time>
      </trkpt>
      <trkpt lat="44.8768" lon="1.83251">
        <ele>133.211</ele>
        <time>2019-12-02T21:33:20Z</time>
      </trkpt>
      <trkpt lat="44.8764" lon="1.83317">
        <ele>133.608</ele>
        <time>2019-12-02T21:33:40Z</time>
      </trkpt>
      <trkpt lat="44.87575" lon="1.83364">
        <ele>134.218</ele>
        <time>2019-12-02T21:34:00Z</time>
      </trkpt>
      <trkpt lat="44.87503" lon="1.83394">
        <ele>135.481</ele>
        <time>2019-12-02T21:34:20Z</time>
      </trkpt>
      <trkpt lat="44.87372" lon="1.83407">
        <ele>139.615</ele>
        <time>2019-12-02T21:34:40Z</time>
      </trkpt>
      <trkpt lat="44.87306" lon="1.83405">
        <ele>142.76</ele>
        <time>2019-12-02T21:35:00Z</time>
      </trkpt>
      <trkpt lat="44.8726" lon="1.83394">
        <ele>143.887</ele>
        <time>2019-12-02T21:35:20Z</time>
      </trkpt>
      <trkpt lat="44.87233" lon="1.83442">
        <ele>139.957</ele>
        <time>2019-12-02T21:35:40Z</time>
      </trkpt>
      <trkpt lat="44.87195" lon="1.83435">
        <ele>139.798</ele>
        <time>2019-12-02T21:36:00Z</time>
      </trkpt>
      <trkpt lat="44.87147" lon="1.83467">
        <ele>139.64</ele>
        <time>2019-12-02T21:36:20Z</time>
      </trkpt>
      <trkpt lat="44.87053" lon="1.8342">
        <ele>141.979</ele>
        <time>2019-12-02T21:36:40Z</time>
      </trkpt>
      <trkpt lat="44.86971" lon="1.83386">
        <ele>143.205</ele>
        <time>2019-12-02T21:37:00Z</time>
      </trkpt>
      <trkpt lat="44.86921" lon="1.83337">
        <ele>143.925</ele>
        <time>2019-12-02T21:37:20Z</time>
      </trkpt>
      <trkpt lat="44.8672" lon="1.83103">
        <ele>146.208</ele>
        <time>2019-12-02T21:37:40Z</time>
      </trkpt>
      <trkpt lat="44.86673" lon="1.83098">
        <ele>146.614</ele>
        <time>2019-12-02T21:38:00Z</time>
      </trkpt>
      <trkpt lat="44.86656" lon="1.83074">
        <ele>147.137</ele>
        <time>2021-04-14T00:12:01Z</time>
      </trkpt>
      <trkpt lat="44.86617" lon="1.8304">
        <ele>147.391</ele>
        <time>2019-12-02T21:38:20Z</time>
      </trkpt>
      <trkpt lat="44.86597" lon="1.83015">
        <ele>147.216</ele>
        <time>2019-12-02T21:38:40Z</time>
      </trkpt>
      <trkpt lat="44.86557" lon="1.82999">
        <ele>148.013</ele>
        <time>2021-04-14T00:13:01Z</time>
      </trkpt>
      <trkpt lat="44.86541" lon="1.82954">
        <ele>148.883</ele>
        <time>2021-04-14T00:13:21Z</time>
      </trkpt>
      <trkpt lat="44.86522" lon="1.82926">
        <ele>149.454</ele>
        <time>2021-04-14T00:13:41Z</time>
      </trkpt>
      <trkpt lat="44.86509" lon="1.82884">
        <ele>149.246</ele>
        <time>2021-04-14T00:14:01Z</time>
      </trkpt>
      <trkpt lat="44.86458" lon="1.82847">
        <ele>149.157</ele>
        <time>2021-04-14T00:14:21Z</time>
      </trkpt>
      <trkpt lat="44.86417" lon="1.82786">
        <ele>149</ele>
        <time>2021-04-14T00:14:41Z</time>
      </trkpt>
      <trkpt lat="44.86355" lon="1.82774">
        <ele>152.52</ele>
        <time>2021-04-14T00:15:01Z</time>
      </trkpt>
      <trkpt lat="44.86323" lon="1.82725">
        <ele>152.508</ele>
        <time>2021-04-14T00:15:21Z</time>
      </trkpt>
      <trkpt lat="44.86268" lon="1.82685">
        <ele>153.562</ele>
        <time>2021-04-14T00:15:41Z</time>
      </trkpt>
      <trkpt lat="44.86173" lon="1.82619">
        <ele>157.935</ele>
        <time>2021-04-14T00:16:01Z</time>
      </trkpt>
      <trkpt lat="44.86064" lon="1.82474">
        <ele>162.479</ele>
        <time>2021-04-14T00:16:21Z</time>
      </trkpt>
      <trkpt lat="44.86061" lon="1.82486">
        <ele>161.244</ele>
        <time>2021-04-14T00:16:41Z</time>
      </trkpt>
      <trkpt lat="44.86033" lon="1.82455">
        <ele>162.851</ele>
        <time>2021-04-14T00:17:01Z</time>
      </trkpt>
      <trkpt lat="44.85874" lon="1.82356">
        <ele>167.311</ele>
        <time>2019-12-02T21:43:20Z</time>
      </trkpt>
      <trkpt lat="44.85832" lon="1.82349">
        <ele>170.292</ele>
        <time>2019-12-02T21:43:40Z</time>
      </trkpt>
      <trkpt lat="44.85769" lon="1.82356">
        <ele>172.834</ele>
        <time>2019-12-02T21:44:00Z</time>
      </trkpt>
      <trkpt lat="44.85721" lon="1.82337">
        <ele>177.235</ele>
        <time>2019-12-02T21:44:20Z</time>
      </trkpt>
      <trkpt lat="44.85654" lon="1.82285">
        <ele>180.086</ele>
        <time>2019-12-02T21:44:40Z</time>
      </trkpt>
      <trkpt lat="44.85508" lon="1.82193">
        <ele>178.714</ele>
        <time>2019-12-02T21:45:00Z</time>
      </trkpt>
      <trkpt lat="44.85473" lon="1.82137">
        <ele>180.208</ele>
        <time>2019-12-02T21:45:20Z</time>
      </trkpt>
      <trkpt lat="44.85409" lon="1.82073">
        <ele>184.49</ele>
        <time>2019-12-02T21:45:40Z</time>
      </trkpt>
      <trkpt lat="44.85375" lon="1.82079">
        <ele>186.653</ele>
        <time>2019-12-02T21:46:00Z</time>
      </trkpt>
      <trkpt lat="44.85341" lon="1.82051">
        <ele>187.787</ele>
        <time>2019-12-02T21:46:20Z</time>
      </trkpt>
      <trkpt lat="44.85334" lon="1.82012">
        <ele>186.382</ele>
        <time>2021-04-14T00:20:41Z</time>
      </trkpt>
      <trkpt lat="44.85287" lon="1.81988">
        <ele>187.329</ele>
        <time>2021-04-14T00:21:01Z</time>
      </trkpt>
      <trkpt lat="44.85252" lon="1.81924">
        <ele>183.559</ele>
        <time>2021-04-14T00:21:21Z</time>
      </trkpt>
      <trkpt lat="44.85211" lon="1.81895">
        <ele>186.12</ele>
        <time>2019-12-02T21:47:00Z</time>
      </trkpt>
      <trkpt lat="44.85211" lon="1.81856">
        <ele>184.652</ele>
        <time>2019-12-02T21:47:20Z</time>
      </trkpt>
      <trkpt lat="44.85185" lon="1.81787">
        <ele>183.435</ele>
        <time>2019-12-02T21:47:40Z</time>
      </trkpt>
      <trkpt lat="44.85182" lon="1.81759">
        <ele>183.386</ele>
        <time>2019-12-02T21:48:00Z</time>
      </trkpt>
      <trkpt lat="44.85149" lon="1.81732">
        <ele>189.214</ele>
        <time>2019-12-02T21:48:20Z</time>
      </trkpt>
      <trkpt lat="44.85068" lon="1.81719">
        <ele>191.008</ele>
        <time>2019-12-02T21:48:40Z</time>
      </trkpt>
      <trkpt lat="44.85038" lon="1.81659">
        <ele>198.58</ele>
        <time>2019-12-02T21:49:00Z</time>
      </trkpt>
      <trkpt lat="44.84983" lon="1.81613">
        <ele>196.393</ele>
        <time>2019-12-02T21:49:20Z</time>
      </trkpt>
      <trkpt lat="44.84908" lon="1.81575">
        <ele>198.727</ele>
        <time>2019-12-02T21:49:40Z</time>
      </trkpt>
      <trkpt lat="44.84828" lon="1.81463">
        <ele>209.642</ele>
        <time>2019-12-02T21:50:00Z</time>
      </trkpt>
      <trkpt lat="44.84808" lon="1.8141">
        <ele>218.039</ele>
        <time>2019-12-02T21:50:20Z</time>
      </trkpt>
      <trkpt lat="44.8477" lon="1.81347">
        <ele>220.219</ele>
        <time>2019-12-02T21:50:40Z</time>
      </trkpt>
      <trkpt lat="44.8479" lon="1.81315">
        <ele>237.54</ele>
        <time>2019-12-02T21:51:00Z</time>
      </trkpt>
      <trkpt lat="44.84857" lon="1.8132">
        <ele>262.112</ele>
        <time>2019-12-02T21:51:20Z</time>
      </trkpt>
      <trkpt lat="44.84921" lon="1.81347">
        <ele>272.085</ele>
        <time>2021-04-14T00:26:21Z</time>
      </trkpt>
      <trkpt lat="44.85019" lon="1.81404">
        <ele>290.489</ele>
        <time>2021-04-14T00:26:41Z</time>
      </trkpt>
      <trkpt lat="44.84991" lon="1.81272">
        <ele>330.117</ele>
        <time>2019-12-02T21:52:00Z</time>
      </trkpt>
      <trkpt lat="44.84933" lon="1.81204">
        <ele>334.408</ele>
        <time>2021-04-14T00:27:21Z</time>
      </trkpt>
      <trkpt lat="44.8486" lon="1.81163">
        <ele>317.845</ele>
        <time>2021-04-14T00:27:41Z</time>
      </trkpt>
      <trkpt lat="44.84863" lon="1.81116">
        <ele>337.338</ele>
        <time>2021-04-14T00:28:01Z</time>
      </trkpt>
      <trkpt lat="44.84811" lon="1.8106">
        <ele>347.352</ele>
        <time>2019-12-02T21:53:40Z</time>
      </trkpt>
      <trkpt lat="44.84773" lon="1.81026">
        <ele>349.447</ele>
        <time>2019-12-02T21:54:00Z</time>
      </trkpt>
      <trkpt lat="44.84734" lon="1.80959">
        <ele>355.514</ele>
        <time>2019-12-02T21:54:20Z</time>
      </trkpt>
      <trkpt lat="44.84536" lon="1.80914">
        <ele>345.154</ele>
        <time>2019-12-02T21:54:40Z</time>
      </trkpt>
      <trkpt lat="44.84522" lon="1.80898">
        <ele>345.185</ele>
        <time>2019-12-02T21:55:00Z</time>
      </trkpt>
      <trkpt lat="44.8451" lon="1.80865">
        <ele>347.567</ele>
        <time>2019-12-02T21:55:20Z</time>
      </trkpt>
      <trkpt lat="44.84519" lon="1.80848">
        <ele>348.626</ele>
        <time>2019-12-02T21:55:40Z</time>
      </trkpt>
      <trkpt lat="44.84548" lon="1.80712">
        <ele>355.247</ele>
        <time>2019-12-02T21:56:00Z</time>
      </trkpt>
      <trkpt lat="44.84537" lon="1.80678">
        <ele>355.311</ele>
        <time>2019-12-02T21:56:20Z</time>
      </trkpt>
      <trkpt lat="44.84561" lon="1.80537">
        <ele>358.608</ele>
        <time>2019-12-02T21:56:40Z</time>
      </trkpt>
      <trkpt lat="44.84592" lon="1.80531">
        <ele>360.199</ele>
        <time>2019-12-02T21:57:00Z</time>
      </trkpt>
      <trkpt lat="44.84641" lon="1.80531">
        <ele>361.732</ele>
        <time>2019-12-02T21:57:20Z</time>
      </trkpt>
      <trkpt lat="44.84724" lon="1.80493">
        <ele>367.396</ele>
        <time>2019-12-02T21:57:40Z</time>
      </trkpt>
      <trkpt lat="44.84787" lon="1.80495">
        <ele>369.951</ele>
        <time>2019-12-02T21:58:00Z</time>
      </trkpt>
      <trkpt lat="44.8492" lon="1.80449">
        <ele>372.718</ele>
        <time>2019-12-02T21:58:20Z</time>
      </trkpt>
      <trkpt lat="44.84955" lon="1.8045">
        <ele>373.178</ele>
        <time>2019-12-02T21:58:40Z</time>
      </trkpt>
      <trkpt lat="44.84995" lon="1.80468">
        <ele>373.769</ele>
        <time>2019-12-02T21:59:00Z</time>
      </trkpt>
      <trkpt lat="44.85143" lon="1.80476">
        <ele>372.461</ele>
        <time>2019-12-02T21:59:20Z</time>
      </trkpt>
      <trkpt lat="44.85207" lon="1.80503">
        <ele>371.267</ele>
        <time>2019-12-02T21:59:40Z</time>
      </trkpt>
      <trkpt lat="44.85302" lon="1.80526">
        <ele>370.081</ele>
        <time>2019-12-02T22:00:00Z</time>
      </trkpt>
      <trkpt lat="44.85336" lon="1.80573">
        <ele>367.119</ele>
        <time>2019-12-02T22:00:20Z</time>
      </trkpt>
      <trkpt lat="44.85401" lon="1.80651">
        <ele>364.108</ele>
        <time>2019-12-02T22:00:40Z</time>
      </trkpt>
      <trkpt lat="44.85496" lon="1.80711">
        <ele>362.343</ele>
        <time>2019-12-02T22:01:00Z</time>
      </trkpt>
      <trkpt lat="44.85531" lon="1.80753">
        <ele>362.436</ele>
        <time>2019-12-02T22:01:20Z</time>
      </trkpt>
      <trkpt lat="44.8562" lon="1.80783">
        <ele>357.87</ele>
        <time>2019-12-02T22:01:40Z</time>
      </trkpt>
      <trkpt lat="44.85645" lon="1.80811">
        <ele>355.835</ele>
        <time>2019-12-02T22:02:00Z</time>
      </trkpt>
      <trkpt lat="44.85683" lon="1.80884">
        <ele>347.782</ele>
        <time>2019-12-02T22:02:20Z</time>
      </trkpt>
      <trkpt lat="44.85732" lon="1.80883">
        <ele>345.912</ele>
        <time>2019-12-02T22:02:40Z</time>
      </trkpt>
      <trkpt lat="44.85751" lon="1.8096">
        <ele>340.973</ele>
        <time>2019-12-02T22:03:00Z</time>
      </trkpt>
      <trkpt lat="44.85789" lon="1.81005">
        <ele>337.555</ele>
        <time>2019-12-02T22:03:20Z</time>
      </trkpt>
      <trkpt lat="44.85887" lon="1.81097">
        <ele>326.723</ele>
        <time>2019-12-02T22:03:40Z</time>
      </trkpt>
      <trkpt lat="44.85937" lon="1.81121">
        <ele>324.183</ele>
        <time>2019-12-02T22:04:00Z</time>
      </trkpt>
      <trkpt lat="44.86017" lon="1.81141">
        <ele>319.411</ele>
        <time>2019-12-02T22:04:20Z</time>
      </trkpt>
      <trkpt lat="44.86072" lon="1.81183">
        <ele>311.408</ele>
        <time>2019-12-02T22:04:40Z</time>
      </trkpt>
      <trkpt lat="44.86188" lon="1.81221">
        <ele>298.979</ele>
        <time>2019-12-02T22:05:00Z</time>
      </trkpt>
      <trkpt lat="44.86333" lon="1.8126">
        <ele>290.792</ele>
        <time>2019-12-02T22:05:20Z</time>
      </trkpt>
      <trkpt lat="44.86347" lon="1.81241">
        <ele>291.186</ele>
        <time>2019-12-02T22:05:40Z</time>
      </trkpt>
      <trkpt lat="44.86437" lon="1.81168">
        <ele>289.991</ele>
        <time>2019-12-02T22:06:00Z</time>
      </trkpt>
      <trkpt lat="44.86457" lon="1.8116">
        <ele>297.598</ele>
        <time>2019-12-02T22:06:20Z</time>
      </trkpt>
      <trkpt lat="44.86561" lon="1.81058">
        <ele>298.668</ele>
        <time>2019-12-02T22:06:40Z</time>
      </trkpt>
      <trkpt lat="44.86668" lon="1.80952">
        <ele>300.879</ele>
        <time>2019-12-02T22:07:00Z</time>
      </trkpt>
      <trkpt lat="44.86714" lon="1.80909">
        <ele>308.841</ele>
        <time>2021-04-14T00:42:01Z</time>
      </trkpt>
      <trkpt lat="44.86764" lon="1.80874">
        <ele>314.797</ele>
        <time>2019-12-02T22:07:40Z</time>
      </trkpt>
      <trkpt lat="44.86816" lon="1.80855">
        <ele>316.223</ele>
        <time>2019-12-02T22:08:00Z</time>
      </trkpt>
      <trkpt lat="44.86851" lon="1.80852">
        <ele>311.725</ele>
        <time>2019-12-02T22:08:20Z</time>
      </trkpt>
      <trkpt lat="44.86891" lon="1.80819">
        <ele>322.308</ele>
        <time>2019-12-02T22:08:40Z</time>
      </trkpt>
      <trkpt lat="44.86922" lon="1.80788">
        <ele>321.786</ele>
        <time>2019-12-02T22:09:00Z</time>
      </trkpt>
      <trkpt lat="44.86945" lon="1.80767">
        <ele>323.339</ele>
        <time>2019-12-02T22:09:20Z</time>
      </trkpt>
      <trkpt lat="44.8699" lon="1.80697">
        <ele>332.463</ele>
        <time>2019-12-02T22:09:40Z</time>
      </trkpt>
      <trkpt lat="44.8707" lon="1.80632">
        <ele>323.058</ele>
        <time>2021-04-14T00:44:41Z</time>
      </trkpt>
      <trkpt lat="44.87125" lon="1.80565">
        <ele>326.645</ele>
        <time>2019-12-02T22:10:20Z</time>
      </trkpt>
      <trkpt lat="44.87163" lon="1.80546">
        <ele>326.885</ele>
        <time>2019-12-02T22:10:40Z</time>
      </trkpt>
      <trkpt lat="44.87172" lon="1.80492">
        <ele>329.446</ele>
        <time>2019-12-02T22:11:00Z</time>
      </trkpt>
      <trkpt lat="44.87142" lon="1.80424">
        <ele>326.178</ele>
        <time>2019-12-02T22:11:20Z</time>
      </trkpt>
      <trkpt lat="44.87145" lon="1.80407">
        <ele>324.895</ele>
        <time>2019-12-02T22:11:40Z</time>
      </trkpt>
      <trkpt lat="44.87062" lon="1.8029">
        <ele>329.749</ele>
        <time>2019-12-02T22:12:00Z</time>
      </trkpt>
      <trkpt lat="44.87025" lon="1.80267">
        <ele>330.823</ele>
        <time>2019-12-02T22:12:20Z</time>
      </trkpt>
      <trkpt lat="44.86991" lon="1.80215">
        <ele>334.508</ele>
        <time>2019-12-02T22:12:40Z</time>
      </trkpt>
      <trkpt lat="44.86999" lon="1.80135">
        <ele>336.836</ele>
        <time>2019-12-02T22:13:00Z</time>
      </trkpt>
      <trkpt lat="44.86991" lon="1.80021">
        <ele>340.969</ele>
        <time>2019-12-02T22:13:20Z</time>
      </trkpt>
      <trkpt lat="44.8696" lon="1.79934">
        <ele>344.513</ele>
        <time>2019-12-02T22:13:40Z</time>
      </trkpt>
      <trkpt lat="44.86908" lon="1.79854">
        <ele>348.438</ele>
        <time>2019-12-02T22:14:00Z</time>
      </trkpt>
      <trkpt lat="44.86862" lon="1.79804">
        <ele>348.665</ele>
        <time>2019-12-02T22:14:20Z</time>
      </trkpt>
      <trkpt lat="44.86797" lon="1.79756">
        <ele>349.315</ele>
        <time>2019-12-02T22:14:40Z</time>
      </trkpt>
      <trkpt lat="44.86741" lon="1.79664">
        <ele>349.256</ele>
        <time>2019-12-02T22:15:00Z</time>
      </trkpt>
      <trkpt lat="44.86664" lon="1.79558">
        <ele>346.958</ele>
        <time>2021-04-14T00:50:01Z</time>
      </trkpt>
      <trkpt lat="44.86664" lon="1.79458">
        <ele>346.051</ele>
        <time>2019-12-02T22:15:40Z</time>
      </trkpt>
      <trkpt lat="44.86646" lon="1.79373">
        <ele>342.301</ele>
        <time>2019-12-02T22:16:00Z</time>
      </trkpt>
      <trkpt lat="44.8661" lon="1.79331">
        <ele>337.411</ele>
        <time>2019-12-02T22:16:20Z</time>
      </trkpt>
      <trkpt lat="44.86588" lon="1.79255">
        <ele>332.908</ele>
        <time>2019-12-02T22:16:40Z</time>
      </trkpt>
      <trkpt lat="44.86545" lon="1.79139">
        <ele>330.562</ele>
        <time>2019-12-02T22:17:00Z</time>
      </trkpt>
      <trkpt lat="44.86542" lon="1.79096">
        <ele>331.985</ele>
        <time>2019-12-02T22:17:20Z</time>
      </trkpt>
      <trkpt lat="44.8652" lon="1.79065">
        <ele>336.649</ele>
        <time>2019-12-02T22:17:40Z</time>
      </trkpt>
      <trkpt lat="44.86493" lon="1.78992">
        <ele>340.484</ele>
        <time>2021-04-14T00:52:41Z</time>
      </trkpt>
      <trkpt lat="44.86494" lon="1.78908">
        <ele>341.051</ele>
        <time>2021-04-14T00:53:01Z</time>
      </trkpt>
      <trkpt lat="44.86408" lon="1.78794">
        <ele>337.171</ele>
        <time>2021-04-14T00:53:21Z</time>
      </trkpt>
      <trkpt lat="44.86399" lon="1.78757">
        <ele>338.842</ele>
        <time>2021-04-14T00:53:41Z</time>
      </trkpt>
      <trkpt lat="44.86405" lon="1.78685">
        <ele>340.884</ele>
        <time>2019-12-02T22:19:20Z</time>
      </trkpt>
      <trkpt lat="44.86416" lon="1.78629">
        <ele>342.574</ele>
        <time>2019-12-02T22:19:40Z</time>
      </trkpt>
      <trkpt lat="44.8644" lon="1.7857">
        <ele>339.156</ele>
        <time>2019-12-02T22:20:00Z</time>
      </trkpt>
      <trkpt lat="44.86446" lon="1.7851">
        <ele>338.321</ele>
        <time>2019-12-02T22:20:20Z</time>
      </trkpt>
      <trkpt lat="44.86437" lon="1.78367">
        <ele>335.808</ele>
        <time>2019-12-02T22:20:40Z</time>
      </trkpt>
      <trkpt lat="44.86466" lon="1.78312">
        <ele>336.764</ele>
        <time>2019-12-02T22:21:00Z</time>
      </trkpt>
      <trkpt lat="44.86467" lon="1.78162">
        <ele>340.657</ele>
        <time>2019-12-02T22:21:20Z</time>
      </trkpt>
      <trkpt lat="44.86414" lon="1.78034">
        <ele>347.671</ele>
        <time>2019-12-02T22:21:40Z</time>
      </trkpt>
      <trkpt lat="44.86332" lon="1.77956">
        <ele>351.336</ele>
        <time>2019-12-02T22:22:00Z</time>
      </trkpt>
      <trkpt lat="44.86262" lon="1.77864">
        <ele>355.873</ele>
        <time>2019-12-02T22:22:20Z</time>
      </trkpt>
      <trkpt lat="44.86273" lon="1.77839">
        <ele>356.053</ele>
        <time>2019-12-02T22:22:40Z</time>
      </trkpt>
      <trkpt lat="44.86264" lon="1.77785">
        <ele>356.134</ele>
        <time>2019-12-02T22:23:00Z</time>
      </trkpt>
      <trkpt lat="44.86246" lon="1.77752">
        <ele>360.326</ele>
        <time>2019-12-02T22:23:20Z</time>
      </trkpt>
      <trkpt lat="44.86288" lon="1.77614">
        <ele>361.061</ele>
        <time>2019-12-02T22:23:40Z</time>
      </trkpt>
      <trkpt lat="44.86294" lon="1.77545">
        <ele>363.321</ele>
        <time>2019-12-02T22:24:00Z</time>
      </trkpt>
      <trkpt lat="44.8629" lon="1.77468">
        <ele>365.813</ele>
        <time>2019-12-02T22:24:20Z</time>
      </trkpt>
      <trkpt lat="44.863" lon="1.77437">
        <ele>364.908</ele>
        <time>2019-12-02T22:24:40Z</time>
      </trkpt>
      <trkpt lat="44.86325" lon="1.77255">
        <ele>363.553</ele>
        <time>2019-12-02T22:25:00Z</time>
      </trkpt>
      <trkpt lat="44.86325" lon="1.77212">
        <ele>362.926</ele>
        <time>2019-12-02T22:25:20Z</time>
      </trkpt>
      <trkpt lat="44.86344" lon="1.7718">
        <ele>359.63</ele>
        <time>2019-12-02T22:25:40Z</time>
      </trkpt>
      <trkpt lat="44.86358" lon="1.77055">
        <ele>364.525</ele>
        <time>2019-12-02T22:26:00Z</time>
      </trkpt>
      <trkpt lat="44.86379" lon="1.77001">
        <ele>364.962</ele>
        <time>2019-12-02T22:26:20Z</time>
      </trkpt>
      <trkpt lat="44.86336" lon="1.76987">
        <ele>370.382</ele>
        <time>2019-12-02T22:26:40Z</time>
      </trkpt>
      <trkpt lat="44.86309" lon="1.76959">
        <ele>372.913</ele>
        <time>2019-12-02T22:27:00Z</time>
      </trkpt>
      <trkpt lat="44.8631" lon="1.76929">
        <ele>373.565</ele>
        <time>2019-12-02T22:27:20Z</time>
      </trkpt>
      <trkpt lat="44.86277" lon="1.76802">
        <ele>376.262</ele>
        <time>2019-12-02T22:27:40Z</time>
      </trkpt>
      <trkpt lat="44.86259" lon="1.76645">
        <ele>378.183</ele>
        <time>2019-12-02T22:28:00Z</time>
      </trkpt>
      <trkpt lat="44.86163" lon="1.76379">
        <ele>380.111</ele>
        <time>2019-12-02T22:28:20Z</time>
      </trkpt>
      <trkpt lat="44.86032" lon="1.76091">
        <ele>366.008</ele>
        <time>2019-12-02T22:28:40Z</time>
      </trkpt>
      <trkpt lat="44.86008" lon="1.76062">
        <ele>362.633</ele>
        <time>2019-12-02T22:29:00Z</time>
      </trkpt>
      <trkpt lat="44.85984" lon="1.75973">
        <ele>358.066</ele>
        <time>2019-12-02T22:29:20Z</time>
      </trkpt>
      <trkpt lat="44.85981" lon="1.75915">
        <ele>353.26</ele>
        <time>2019-12-02T22:29:40Z</time>
      </trkpt>
      <trkpt lat="44.85965" lon="1.75767">
        <ele>353.295</ele>
        <time>2019-12-02T22:30:00Z</time>
      </trkpt>
      <trkpt lat="44.85989" lon="1.75633">
        <ele>355.242</ele>
        <time>2019-12-02T22:30:20Z</time>
      </trkpt>
      <trkpt lat="44.85992" lon="1.75438">
        <ele>353.182</ele>
        <time>2019-12-02T22:30:40Z</time>
      </trkpt>
      <trkpt lat="44.86049" lon="1.75509">
        <ele>347.623</ele>
        <time>2019-12-02T22:31:00Z</time>
      </trkpt>
      <trkpt lat="44.86094" lon="1.75577">
        <ele>343.025</ele>
        <time>2019-12-02T22:31:20Z</time>
      </trkpt>
      <trkpt lat="44.86141" lon="1.75614">
        <ele>340.786</ele>
        <time>2019-12-02T22:31:40Z</time>
      </trkpt>
      <trkpt lat="44.862" lon="1.75697">
        <ele>343.16</ele>
        <time>2019-12-02T22:32:00Z</time>
      </trkpt>
      <trkpt lat="44.86247" lon="1.75784">
        <ele>347.126</ele>
        <time>2019-12-02T22:32:20Z</time>
      </trkpt>
      <trkpt lat="44.8629" lon="1.75872">
        <ele>351.508</ele>
        <time>2019-12-02T22:32:40Z</time>
      </trkpt>
      <trkpt lat="44.86347" lon="1.7591">
        <ele>352.695</ele>
        <time>2019-12-02T22:33:00Z</time>
      </trkpt>
      <trkpt lat="44.86419" lon="1.7594">
        <ele>355.798</ele>
        <time>2019-12-02T22:33:20Z</time>
      </trkpt>
      <trkpt lat="44.86504" lon="1.75957">
        <ele>354.672</ele>
        <time>2019-12-02T22:33:40Z</time>
      </trkpt>
      <trkpt lat="44.86526" lon="1.7599">
        <ele>354.547</ele>
        <time>2019-12-02T22:34:00Z</time>
      </trkpt>
      <trkpt lat="44.8654" lon="1.76032">
        <ele>354.564</ele>
        <time>2019-12-02T22:34:20Z</time>
      </trkpt>
      <trkpt lat="44.8659" lon="1.76089">
        <ele>356.444</ele>
        <time>2019-12-02T22:34:40Z</time>
      </trkpt>
      <trkpt lat="44.86693" lon="1.76028">
        <ele>356.685</ele>
        <time>2019-12-02T22:35:00Z</time>
      </trkpt>
      <trkpt lat="44.86818" lon="1.75987">
        <ele>358.967</ele>
        <time>2019-12-02T22:35:20Z</time>
      </trkpt>
      <trkpt lat="44.8693" lon="1.75906">
        <ele>365.089</ele>
        <time>2019-12-02T22:35:40Z</time>
      </trkpt>
      <trkpt lat="44.87" lon="1.7588">
        <ele>364.006</ele>
        <time>2019-12-02T22:36:00Z</time>
      </trkpt>
      <trkpt lat="44.8707" lon="1.75882">
        <ele>362.926</ele>
        <time>2019-12-02T22:36:20Z</time>
      </trkpt>
      <trkpt lat="44.87133" lon="1.75868">
        <ele>360.508</ele>
        <time>2019-12-02T22:36:40Z</time>
      </trkpt>
      <trkpt lat="44.87155" lon="1.75873">
        <ele>360.555</ele>
        <time>2019-12-02T22:37:00Z</time>
      </trkpt>
      <trkpt lat="44.87235" lon="1.75892">
        <ele>361.288</ele>
        <time>2019-12-02T22:37:20Z</time>
      </trkpt>
      <trkpt lat="44.87362" lon="1.75943">
        <ele>360.022</ele>
        <time>2019-12-02T22:37:40Z</time>
      </trkpt>
      <trkpt lat="44.87398" lon="1.76002">
        <ele>359.627</ele>
        <time>2019-12-02T22:38:00Z</time>
      </trkpt>
      <trkpt lat="44.87455" lon="1.76034">
        <ele>355.084</ele>
        <time>2019-12-02T22:38:20Z</time>
      </trkpt>
      <trkpt lat="44.87575" lon="1.76046">
        <ele>352.374</ele>
        <time>2019-12-02T22:38:40Z</time>
      </trkpt>
      <trkpt lat="44.8766" lon="1.76072">
        <ele>349.295</ele>
        <time>2019-12-02T22:39:00Z</time>
      </trkpt>
      <trkpt lat="44.87738" lon="1.76124">
        <ele>341.167</ele>
        <time>2019-12-02T22:39:20Z</time>
      </trkpt>
      <trkpt lat="44.87764" lon="1.76182">
        <ele>338.376</ele>
        <time>2019-12-02T22:39:40Z</time>
      </trkpt>
      <trkpt lat="44.87782" lon="1.76236">
        <ele>339.29</ele>
        <time>2019-12-02T22:40:00Z</time>
      </trkpt>
      <trkpt lat="44.87854" lon="1.76267">
        <ele>342.719</ele>
        <time>2019-12-02T22:40:20Z</time>
      </trkpt>
      <trkpt lat="44.87935" lon="1.76337">
        <ele>351.108</ele>
        <time>2019-12-02T22:40:40Z</time>
      </trkpt>
      <trkpt lat="44.87951" lon="1.76386">
        <ele>352.514</ele>
        <time>2019-12-02T22:41:00Z</time>
      </trkpt>
      <trkpt lat="44.88005" lon="1.76405">
        <ele>354.047</ele>
        <time>2019-12-02T22:41:20Z</time>
      </trkpt>
      <trkpt lat="44.88053" lon="1.76454">
        <ele>354.321</ele>
        <time>2019-12-02T22:41:40Z</time>
      </trkpt>
      <trkpt lat="44.88153" lon="1.76452">
        <ele>351.326</ele>
        <time>2019-12-02T22:42:00Z</time>
      </trkpt>
      <trkpt lat="44.88195" lon="1.76461">
        <ele>351.193</ele>
        <time>2019-12-02T22:42:20Z</time>
      </trkpt>
      <trkpt lat="44.88275" lon="1.76445">
        <ele>353.253</ele>
        <time>2019-12-02T22:42:40Z</time>
      </trkpt>
      <trkpt lat="44.88332" lon="1.764">
        <ele>355.164</ele>
        <time>2019-12-02T22:43:00Z</time>
      </trkpt>
      <trkpt lat="44.88332" lon="1.76502">
        <ele>348.866</ele>
        <time>2019-12-02T22:43:20Z</time>
      </trkpt>
      <trkpt lat="44.88359" lon="1.76572">
        <ele>343.231</ele>
        <time>2019-12-02T22:43:40Z</time>
      </trkpt>
      <trkpt lat="44.88494" lon="1.76848">
        <ele>324.961</ele>
        <time>2019-12-02T22:44:00Z</time>
      </trkpt>
      <trkpt lat="44.8855" lon="1.76837">
        <ele>327.107</ele>
        <time>2019-12-02T22:44:20Z</time>
      </trkpt>
      <trkpt lat="44.88597" lon="1.76733">
        <ele>326.508</ele>
        <time>2019-12-02T22:44:40Z</time>
      </trkpt>
      <trkpt lat="44.88637" lon="1.76619">
        <ele>321.36</ele>
        <time>2019-12-02T22:45:00Z</time>
      </trkpt>
      <trkpt lat="44.88652" lon="1.76483">
        <ele>314.563</ele>
        <time>2019-12-02T22:45:20Z</time>
      </trkpt>
      <trkpt lat="44.88665" lon="1.76414">
        <ele>312.347</ele>
        <time>2019-12-02T22:45:40Z</time>
      </trkpt>
      <trkpt lat="44.88668" lon="1.7633">
        <ele>310.972</ele>
        <time>2019-12-02T22:46:00Z</time>
      </trkpt>
      <trkpt lat="44.88694" lon="1.76218">
        <ele>313.599</ele>
        <time>2019-12-02T22:46:20Z</time>
      </trkpt>
      <trkpt lat="44.88748" lon="1.7611">
        <ele>316.739</ele>
        <time>2019-12-02T22:46:40Z</time>
      </trkpt>
      <trkpt lat="44.8879" lon="1.76035">
        <ele>317.59</ele>
        <time>2019-12-02T22:47:00Z</time>
      </trkpt>
      <trkpt lat="44.88821" lon="1.76009">
        <ele>317.192</ele>
        <time>2019-12-02T22:47:20Z</time>
      </trkpt>
      <trkpt lat="44.88855" lon="1.75936">
        <ele>316.796</ele>
        <time>2019-12-02T22:47:40Z</time>
      </trkpt>
      <trkpt lat="44.88881" lon="1.75849">
        <ele>318.031</ele>
        <time>2019-12-02T22:48:00Z</time>
      </trkpt>
      <trkpt lat="44.88932" lon="1.75758">
        <ele>311.924</ele>
        <time>2019-12-02T22:48:20Z</time>
      </trkpt>
      <trkpt lat="44.88941" lon="1.75718">
        <ele>311.208</ele>
        <time>2019-12-02T22:48:40Z</time>
      </trkpt>
      <trkpt lat="44.8901" lon="1.7572">
        <ele>307.886</ele>
        <time>2019-12-02T22:49:00Z</time>
      </trkpt>
      <trkpt lat="44.89075" lon="1.7568">
        <ele>305.759</ele>
        <time>2019-12-02T22:49:20Z</time>
      </trkpt>
      <trkpt lat="44.89209" lon="1.75659">
        <ele>285.643</ele>
        <time>2019-12-02T22:49:40Z</time>
      </trkpt>
      <trkpt lat="44.89302" lon="1.75638">
        <ele>276.828</ele>
        <time>2019-12-02T22:50:00Z</time>
      </trkpt>
      <trkpt lat="44.89365" lon="1.7565">
        <ele>279.235</ele>
        <time>2019-12-02T22:50:20Z</time>
      </trkpt>
      <trkpt lat="44.89378" lon="1.75633">
        <ele>282.035</ele>
        <time>2019-12-02T22:50:40Z</time>
      </trkpt>
      <trkpt lat="44.89364" lon="1.75471">
        <ele>288.646</ele>
        <time>2019-12-02T22:51:00Z</time>
      </trkpt>
      <trkpt lat="44.89518" lon="1.75319">
        <ele>270.518</ele>
        <time>2019-12-02T22:51:20Z</time>
      </trkpt>
      <trkpt lat="44.89521" lon="1.75349">
        <ele>278.665</ele>
        <time>2019-12-02T22:51:40Z</time>
      </trkpt>
      <trkpt lat="44.89596" lon="1.75422">
        <ele>273.368</ele>
        <time>2019-12-02T22:52:00Z</time>
      </trkpt>
      <trkpt lat="44.89659" lon="1.755">
        <ele>269.414</ele>
        <time>2019-12-02T22:52:20Z</time>
      </trkpt>
      <trkpt lat="44.89701" lon="1.75511">
        <ele>258.108</ele>
        <time>2019-12-02T22:52:40Z</time>
      </trkpt>
      <trkpt lat="44.89763" lon="1.75478">
        <ele>233.863</ele>
        <time>2019-12-02T22:53:00Z</time>
      </trkpt>
      <trkpt lat="44.8983" lon="1.75451">
        <ele>226.856</ele>
        <time>2019-12-02T22:53:20Z</time>
      </trkpt>
      <trkpt lat="44.89851" lon="1.75394">
        <ele>219.96</ele>
        <time>2019-12-02T22:53:40Z</time>
      </trkpt>
      <trkpt lat="44.89849" lon="1.75354">
        <ele>219.975</ele>
        <time>2019-12-02T22:54:00Z</time>
      </trkpt>
      <trkpt lat="44.89842" lon="1.7531">
        <ele>215.842</ele>
        <time>2019-12-02T22:54:20Z</time>
      </trkpt>
      <trkpt lat="44.89857" lon="1.75281">
        <ele>211.852</ele>
        <time>2019-12-02T22:54:40Z</time>
      </trkpt>
      <trkpt lat="44.89889" lon="1.75277">
        <ele>209.273</ele>
        <time>2019-12-02T22:55:00Z</time>
      </trkpt>
      <trkpt lat="44.89921" lon="1.7526">
        <ele>197.745</ele>
        <time>2019-12-02T22:55:20Z</time>
      </trkpt>
      <trkpt lat="44.89949" lon="1.7527">
        <ele>194.721</ele>
        <time>2019-12-02T22:55:40Z</time>
      </trkpt>
      <trkpt lat="44.8999" lon="1.75316">
        <ele>187.341</ele>
        <time>2021-04-14T01:30:41Z</time>
      </trkpt>
      <trkpt lat="44.90022" lon="1.75263">
        <ele>171.305</ele>
        <time>2019-12-02T22:57:00Z</time>
      </trkpt>
      <trkpt lat="44.90044" lon="1.75251">
        <ele>165.108</ele>
        <time>2019-12-02T22:57:20Z</time>
      </trkpt>
      <trkpt lat="44.90033" lon="1.75211">
        <ele>160.569</ele>
        <time>2019-12-02T22:57:40Z</time>
      </trkpt>
      <trkpt lat="44.90069" lon="1.75256">
        <ele>156.562</ele>
        <time>2019-12-02T22:58:00Z</time>
      </trkpt>
      <trkpt lat="44.90115" lon="1.75262">
        <ele>141.096</ele>
        <time>2019-12-02T22:58:20Z</time>
      </trkpt>
      <trkpt lat="44.90101" lon="1.75171">
        <ele>137.851</ele>
        <time>2019-12-02T22:58:40Z</time>
      </trkpt>
      <trkpt lat="44.90111" lon="1.7507">
        <ele>149.278</ele>
        <time>2019-12-02T22:59:00Z</time>
      </trkpt>
      <trkpt lat="44.9014" lon="1.74984">
        <ele>167.188</ele>
        <time>2019-12-02T22:59:20Z</time>
      </trkpt>
      <trkpt lat="44.9013" lon="1.74962">
        <ele>171.059</ele>
        <time>2019-12-02T22:59:40Z</time>
      </trkpt>
      <trkpt lat="44.90095" lon="1.75007">
        <ele>162.231</ele>
        <time>2019-12-02T23:00:00Z</time>
      </trkpt>
      <trkpt lat="44.90062" lon="1.75003">
        <ele>163.745</ele>
        <time>2019-12-02T23:00:20Z</time>
      </trkpt>
      <trkpt lat="44.90042" lon="1.74974">
        <ele>172.747</ele>
        <time>2019-12-02T23:00:40Z</time>
      </trkpt>
      <trkpt lat="44.90034" lon="1.74943">
        <ele>174.611</ele>
        <time>2019-12-02T23:01:00Z</time>
      </trkpt>
      <trkpt lat="44.90074" lon="1.7492">
        <ele>184.708</ele>
        <time>2019-12-02T23:01:20Z</time>
      </trkpt>
      <trkpt lat="44.90114" lon="1.74865">
        <ele>192.111</ele>
        <time>2019-12-02T23:01:40Z</time>
      </trkpt>
      <trkpt lat="44.90151" lon="1.74768">
        <ele>205.974</ele>
        <time>2019-12-02T23:02:00Z</time>
      </trkpt>
      <trkpt lat="44.90163" lon="1.74701">
        <ele>212.528</ele>
        <time>2019-12-02T23:02:20Z</time>
      </trkpt>
      <trkpt lat="44.90163" lon="1.74577">
        <ele>225.823</ele>
        <time>2019-12-02T23:02:40Z</time>
      </trkpt>
      <trkpt lat="44.90154" lon="1.7451">
        <ele>231.29</ele>
        <time>2019-12-02T23:03:00Z</time>
      </trkpt>
      <trkpt lat="44.90189" lon="1.74467">
        <ele>234.72</ele>
        <time>2019-12-02T23:03:20Z</time>
      </trkpt>
      <trkpt lat="44.90187" lon="1.74383">
        <ele>242.361</ele>
        <time>2019-12-02T23:03:40Z</time>
      </trkpt>
      <trkpt lat="44.90142" lon="1.74381">
        <ele>250.763</ele>
        <time>2019-12-02T23:04:00Z</time>
      </trkpt>
      <trkpt lat="44.90104" lon="1.74322">
        <ele>261.322</ele>
        <time>2019-12-02T23:04:20Z</time>
      </trkpt>
      <trkpt lat="44.90109" lon="1.74296">
        <ele>261.062</ele>
        <time>2019-12-02T23:04:40Z</time>
      </trkpt>
      <trkpt lat="44.9011" lon="1.74233">
        <ele>265.208</ele>
        <time>2019-12-02T23:05:00Z</time>
      </trkpt>
      <trkpt lat="44.90154" lon="1.74161">
        <ele>258.708</ele>
        <time>2019-12-02T23:05:20Z</time>
      </trkpt>
      <trkpt lat="44.90159" lon="1.74112">
        <ele>259.039</ele>
        <time>2019-12-02T23:05:40Z</time>
      </trkpt>
      <trkpt lat="44.90127" lon="1.74013">
        <ele>255.252</ele>
        <time>2019-12-02T23:06:00Z</time>
      </trkpt>
      <trkpt lat="44.90132" lon="1.73957">
        <ele>252.336</ele>
        <time>2019-12-02T23:06:20Z</time>
      </trkpt>
      <trkpt lat="44.90159" lon="1.73887">
        <ele>251.691</ele>
        <time>2019-12-02T23:06:40Z</time>
      </trkpt>
      <trkpt lat="44.9023" lon="1.73794">
        <ele>238.728</ele>
        <time>2019-12-02T23:07:00Z</time>
      </trkpt>
      <trkpt lat="44.90264" lon="1.73732">
        <ele>233.568</ele>
        <time>2019-12-02T23:07:20Z</time>
      </trkpt>
      <trkpt lat="44.90478" lon="1.73678">
        <ele>208.669</ele>
        <time>2019-12-02T23:07:40Z</time>
      </trkpt>
      <trkpt lat="44.90519" lon="1.73717">
        <ele>202.791</ele>
        <time>2019-12-02T23:08:00Z</time>
      </trkpt>
      <trkpt lat="44.90575" lon="1.73715">
        <ele>200.626</ele>
        <time>2019-12-02T23:08:20Z</time>
      </trkpt>
      <trkpt lat="44.90624" lon="1.73702">
        <ele>197.447</ele>
        <time>2019-12-02T23:08:40Z</time>
      </trkpt>
      <trkpt lat="44.90712" lon="1.73704">
        <ele>191.311</ele>
        <time>2019-12-02T23:09:00Z</time>
      </trkpt>
      <trkpt lat="44.90822" lon="1.737">
        <ele>179.108</ele>
        <time>2019-12-02T23:09:20Z</time>
      </trkpt>
      <trkpt lat="44.90886" lon="1.73721">
        <ele>166.779</ele>
        <time>2019-12-02T23:09:40Z</time>
      </trkpt>
      <trkpt lat="44.90945" lon="1.73751">
        <ele>158.212</ele>
        <time>2019-12-02T23:10:00Z</time>
      </trkpt>
      <trkpt lat="44.91003" lon="1.73762">
        <ele>151.616</ele>
        <time>2019-12-02T23:10:20Z</time>
      </trkpt>
      <trkpt lat="44.91069" lon="1.73764">
        <ele>146.171</ele>
        <time>2019-12-02T23:10:40Z</time>
      </trkpt>
      <trkpt lat="44.9115" lon="1.73784">
        <ele>137.058</ele>
        <time>2019-12-02T23:11:00Z</time>
      </trkpt>
      <trkpt lat="44.91192" lon="1.73824">
        <ele>130.538</ele>
        <time>2019-12-02T23:11:20Z</time>
      </trkpt>
      <trkpt lat="44.91189" lon="1.73878">
        <ele>128.299</ele>
        <time>2019-12-02T23:11:40Z</time>
      </trkpt>
      <trkpt lat="44.91272" lon="1.73872">
        <ele>124.311</ele>
        <time>2019-12-02T23:12:00Z</time>
      </trkpt>
      <trkpt lat="44.913" lon="1.73854">
        <ele>124.292</ele>
        <time>2019-12-02T23:12:20Z</time>
      </trkpt>
      <trkpt lat="44.91214" lon="1.73674">
        <ele>139.473</ele>
        <time>2019-12-02T23:12:40Z</time>
      </trkpt>
      <trkpt lat="44.91398" lon="1.73706">
        <ele>148.02</ele>
        <time>2019-12-02T23:13:00Z</time>
      </trkpt>
      <trkpt lat="44.91464" lon="1.737">
        <ele>145.308</ele>
        <time>2019-12-02T23:13:20Z</time>
      </trkpt>
      <trkpt lat="44.91539" lon="1.73661">
        <ele>147.956</ele>
        <time>2019-12-02T23:13:40Z</time>
      </trkpt>
      <trkpt lat="44.9158" lon="1.73653">
        <ele>144.259</ele>
        <time>2019-12-02T23:14:00Z</time>
      </trkpt>
      <trkpt lat="44.91642" lon="1.73571">
        <ele>145.113</ele>
        <time>2019-12-02T23:14:20Z</time>
      </trkpt>
      <trkpt lat="44.91679" lon="1.73397">
        <ele>144.168</ele>
        <time>2019-12-02T23:14:40Z</time>
      </trkpt>
      <trkpt lat="44.91679" lon="1.73331">
        <ele>145.815</ele>
        <time>2019-12-02T23:15:00Z</time>
      </trkpt>
      <trkpt lat="44.91689" lon="1.73277">
        <ele>145.495</ele>
        <time>2019-12-02T23:15:20Z</time>
      </trkpt>
      <trkpt lat="44.91733" lon="1.73271">
        <ele>143.746</ele>
        <time>2019-12-02T23:15:40Z</time>
      </trkpt>
      <trkpt lat="44.91729" lon="1.73209">
        <ele>145.558</ele>
        <time>2019-12-02T23:16:00Z</time>
      </trkpt>
      <trkpt lat="44.91793" lon="1.73211">
        <ele>142.046</ele>
        <time>2019-12-02T23:16:20Z</time>
      </trkpt>
      <trkpt lat="44.91817" lon="1.73226">
        <ele>141.988</ele>
        <time>2019-12-02T23:16:40Z</time>
      </trkpt>
      <trkpt lat="44.91825" lon="1.73269">
        <ele>140.616</ele>
        <time>2019-12-02T23:17:00Z</time>
      </trkpt>
      <trkpt lat="44.9185" lon="1.73319">
        <ele>134.908</ele>
        <time>2021-04-14T01:51:21Z</time>
      </trkpt>
      <trkpt lat="44.9191" lon="1.73224">
        <ele>135.421</ele>
        <time>2019-12-02T23:17:40Z</time>
      </trkpt>
      <trkpt lat="44.9191" lon="1.73178">
        <ele>134.614</ele>
        <time>2019-12-02T23:18:00Z</time>
      </trkpt>
      <trkpt lat="44.91955" lon="1.73058">
        <ele>137.578</ele>
        <time>2019-12-02T23:18:20Z</time>
      </trkpt>
      <trkpt lat="44.91972" lon="1.73039">
        <ele>137.793</ele>
        <time>2019-12-02T23:18:40Z</time>
      </trkpt>
      <trkpt lat="44.92054" lon="1.72863">
        <ele>140.07</ele>
        <time>2019-12-02T23:19:00Z</time>
      </trkpt>
      <trkpt lat="44.92065" lon="1.72803">
        <ele>145.11</ele>
        <time>2019-12-02T23:19:20Z</time>
      </trkpt>
      <trkpt lat="44.92094" lon="1.72762">
        <ele>137.681</ele>
        <time>2019-12-02T23:19:40Z</time>
      </trkpt>
      <trkpt lat="44.921" lon="1.72666">
        <ele>143.263</ele>
        <time>2019-12-02T23:20:00Z</time>
      </trkpt>
      <trkpt lat="44.92119" lon="1.72621">
        <ele>141.181</ele>
        <time>2019-12-02T23:20:20Z</time>
      </trkpt>
      <trkpt lat="44.92139" lon="1.72597">
        <ele>140.661</ele>
        <time>2019-12-02T23:20:40Z</time>
      </trkpt>
      <trkpt lat="44.92179" lon="1.72586">
        <ele>136.817</ele>
        <time>2019-12-02T23:21:00Z</time>
      </trkpt>
      <trkpt lat="44.92182" lon="1.72485">
        <ele>151.208</ele>
        <time>2019-12-02T23:21:20Z</time>
      </trkpt>
      <trkpt lat="44.922" lon="1.72419">
        <ele>157.775</ele>
        <time>2019-12-02T23:21:40Z</time>
      </trkpt>
      <trkpt lat="44.92215" lon="1.7237">
        <ele>170.998</ele>
        <time>2019-12-02T23:22:00Z</time>
      </trkpt>
      <trkpt lat="44.92209" lon="1.72307">
        <ele>183.162</ele>
        <time>2019-12-02T23:22:20Z</time>
      </trkpt>
      <trkpt lat="44.92182" lon="1.72245">
        <ele>191.327</ele>
        <time>2019-12-02T23:22:40Z</time>
      </trkpt>
      <trkpt lat="44.92136" lon="1.722">
        <ele>184.384</ele>
        <time>2019-12-02T23:23:00Z</time>
      </trkpt>
      <trkpt lat="44.92127" lon="1.72151">
        <ele>192.524</ele>
        <time>2019-12-02T23:23:20Z</time>
      </trkpt>
      <trkpt lat="44.92141" lon="1.72071">
        <ele>201.545</ele>
        <time>2019-12-02T23:23:40Z</time>
      </trkpt>
      <trkpt lat="44.92182" lon="1.72005">
        <ele>208.087</ele>
        <time>2019-12-02T23:24:00Z</time>
      </trkpt>
      <trkpt lat="44.92201" lon="1.7194">
        <ele>212.862</ele>
        <time>2019-12-02T23:24:20Z</time>
      </trkpt>
      <trkpt lat="44.92209" lon="1.7188">
        <ele>218.083</ele>
        <time>2019-12-02T23:24:40Z</time>
      </trkpt>
      <trkpt lat="44.92302" lon="1.71809">
        <ele>220.811</ele>
        <time>2019-12-02T23:25:00Z</time>
      </trkpt>
      <trkpt lat="44.92332" lon="1.71758">
        <ele>221.208</ele>
        <time>2019-12-02T23:25:20Z</time>
      </trkpt>
      <trkpt lat="44.9237" lon="1.71576">
        <ele>228.073</ele>
        <time>2019-12-02T23:25:40Z</time>
      </trkpt>
      <trkpt lat="44.92356" lon="1.71511">
        <ele>231.136</ele>
        <time>2019-12-02T23:26:00Z</time>
      </trkpt>
      <trkpt lat="44.92456" lon="1.71369">
        <ele>231.14</ele>
        <time>2019-12-02T23:26:20Z</time>
      </trkpt>
      <trkpt lat="44.92483" lon="1.71291">
        <ele>245.695</ele>
        <time>2019-12-02T23:26:40Z</time>
      </trkpt>
      <trkpt lat="44.92516" lon="1.71233">
        <ele>255.962</ele>
        <time>2019-12-02T23:27:00Z</time>
      </trkpt>
      <trkpt lat="44.92572" lon="1.71212">
        <ele>257.382</ele>
        <time>2019-12-02T23:27:20Z</time>
      </trkpt>
      <trkpt lat="44.92627" lon="1.71213">
        <ele>256.373</ele>
        <time>2019-12-02T23:27:40Z</time>
      </trkpt>
      <trkpt lat="44.92664" lon="1.71236">
        <ele>252.095</ele>
        <time>2019-12-02T23:28:00Z</time>
      </trkpt>
      <trkpt lat="44.92699" lon="1.71222">
        <ele>250.559</ele>
        <time>2019-12-02T23:28:20Z</time>
      </trkpt>
      <trkpt lat="44.92726" lon="1.71179">
        <ele>252.303</ele>
        <time>2019-12-02T23:28:40Z</time>
      </trkpt>
      <trkpt lat="44.92761" lon="1.71072">
        <ele>263.123</ele>
        <time>2019-12-02T23:29:00Z</time>
      </trkpt>
      <trkpt lat="44.92787" lon="1.71015">
        <ele>263.408</ele>
        <time>2019-12-02T23:29:20Z</time>
      </trkpt>
      <trkpt lat="44.9282" lon="1.7099">
        <ele>264.192</ele>
        <time>2019-12-02T23:29:40Z</time>
      </trkpt>
      <trkpt lat="44.92893" lon="1.70862">
        <ele>262.815</ele>
        <time>2019-12-02T23:30:00Z</time>
      </trkpt>
      <trkpt lat="44.92924" lon="1.70827">
        <ele>252.769</ele>
        <time>2019-12-02T23:30:20Z</time>
      </trkpt>
      <trkpt lat="44.92943" lon="1.70779">
        <ele>254.174</ele>
        <time>2019-12-02T23:30:40Z</time>
      </trkpt>
      <trkpt lat="44.92987" lon="1.70715">
        <ele>255.691</ele>
        <time>2019-12-02T23:31:00Z</time>
      </trkpt>
      <trkpt lat="44.92999" lon="1.70653">
        <ele>255.121</ele>
        <time>2019-12-02T23:31:20Z</time>
      </trkpt>
      <trkpt lat="44.93003" lon="1.70581">
        <ele>248.942</ele>
        <time>2019-12-02T23:31:40Z</time>
      </trkpt>
      <trkpt lat="44.9305" lon="1.70472">
        <ele>247.614</ele>
        <time>2019-12-02T23:32:00Z</time>
      </trkpt>
      <trkpt lat="44.93076" lon="1.70384">
        <ele>250.278</ele>
        <time>2019-12-02T23:32:20Z</time>
      </trkpt>
      <trkpt lat="44.93113" lon="1.70296">
        <ele>226.133</ele>
        <time>2019-12-02T23:32:40Z</time>
      </trkpt>
      <trkpt lat="44.93117" lon="1.70221">
        <ele>220.426</ele>
        <time>2019-12-02T23:33:00Z</time>
      </trkpt>
      <trkpt lat="44.93082" lon="1.70033">
        <ele>230.008</ele>
        <time>2019-12-02T23:33:20Z</time>
      </trkpt>
      <trkpt lat="44.93075" lon="1.69886">
        <ele>225.444</ele>
        <time>2019-12-02T23:33:40Z</time>
      </trkpt>
      <trkpt lat="44.93067" lon="1.69811">
        <ele>227.567</ele>
        <time>2019-12-02T23:34:00Z</time>
      </trkpt>
      <trkpt lat="44.93069" lon="1.69646">
        <ele>227.721</ele>
        <time>2019-12-02T23:34:20Z</time>
      </trkpt>
      <trkpt lat="44.93052" lon="1.69517">
        <ele>225.946</ele>
        <time>2019-12-02T23:34:40Z</time>
      </trkpt>
      <trkpt lat="44.93002" lon="1.69441">
        <ele>232.583</ele>
        <time>2019-12-02T23:35:00Z</time>
      </trkpt>
      <trkpt lat="44.92964" lon="1.69332">
        <ele>244.253</ele>
        <time>2019-12-02T23:35:20Z</time>
      </trkpt>
      <trkpt lat="44.92942" lon="1.69294">
        <ele>248.384</ele>
        <time>2019-12-02T23:35:40Z</time>
      </trkpt>
      <trkpt lat="44.9292" lon="1.69281">
        <ele>252.356</ele>
        <time>2019-12-02T23:36:00Z</time>
      </trkpt>
      <trkpt lat="44.92921" lon="1.69343">
        <ele>267.486</ele>
        <time>2019-12-02T23:36:20Z</time>
      </trkpt>
      <trkpt lat="44.92888" lon="1.69417">
        <ele>281.66</ele>
        <time>2019-12-02T23:36:40Z</time>
      </trkpt>
      <trkpt lat="44.92842" lon="1.69437">
        <ele>282.926</ele>
        <time>2019-12-02T23:37:00Z</time>
      </trkpt>
      <trkpt lat="44.92816" lon="1.69471">
        <ele>283.908</ele>
        <time>2019-12-02T23:37:20Z</time>
      </trkpt>
      <trkpt lat="44.928" lon="1.69443">
        <ele>283.815</ele>
        <time>2019-12-02T23:37:40Z</time>
      </trkpt>
      <trkpt lat="44.92738" lon="1.69378">
        <ele>287.388</ele>
        <time>2019-12-02T23:38:00Z</time>
      </trkpt>
      <trkpt lat="44.9272" lon="1.69299">
        <ele>288.992</ele>
        <time>2019-12-02T23:38:20Z</time>
      </trkpt>
      <trkpt lat="44.92694" lon="1.69256">
        <ele>289.597</ele>
        <time>2019-12-02T23:38:40Z</time>
      </trkpt>
      <trkpt lat="44.92622" lon="1.69245">
        <ele>289.224</ele>
        <time>2019-12-02T23:39:00Z</time>
      </trkpt>
      <trkpt lat="44.92577" lon="1.69205">
        <ele>286.624</ele>
        <time>2019-12-02T23:39:20Z</time>
      </trkpt>
      <trkpt lat="44.92508" lon="1.69168">
        <ele>281.975</ele>
        <time>2019-12-02T23:39:40Z</time>
      </trkpt>
      <trkpt lat="44.92464" lon="1.69159">
        <ele>276.287</ele>
        <time>2019-12-02T23:40:00Z</time>
      </trkpt>
      <trkpt lat="44.92416" lon="1.69121">
        <ele>273.718</ele>
        <time>2019-12-02T23:40:20Z</time>
      </trkpt>
      <trkpt lat="44.92426" lon="1.69078">
        <ele>269.398</ele>
        <time>2019-12-02T23:40:40Z</time>
      </trkpt>
      <trkpt lat="44.92372" lon="1.69095">
        <ele>273.817</ele>
        <time>2019-12-02T23:41:00Z</time>
      </trkpt>
      <trkpt lat="44.9235" lon="1.6908">
        <ele>274.208</ele>
        <time>2019-12-02T23:41:20Z</time>
      </trkpt>
      <trkpt lat="44.92341" lon="1.69026">
        <ele>274.318</ele>
        <time>2019-12-02T23:41:40Z</time>
      </trkpt>
      <trkpt lat="44.92247" lon="1.69104">
        <ele>290.531</ele>
        <time>2019-12-02T23:42:00Z</time>
      </trkpt>
      <trkpt lat="44.92215" lon="1.69144">
        <ele>289.935</ele>
        <time>2019-12-02T23:42:20Z</time>
      </trkpt>
      <trkpt lat="44.92153" lon="1.69177">
        <ele>293.28</ele>
        <time>2019-12-02T23:42:40Z</time>
      </trkpt>
      <trkpt lat="44.92037" lon="1.69207">
        <ele>302.077</ele>
        <time>2019-12-02T23:43:00Z</time>
      </trkpt>
      <trkpt lat="44.91972" lon="1.69198">
        <ele>304.917</ele>
        <time>2019-12-02T23:43:20Z</time>
      </trkpt>
      <trkpt lat="44.91936" lon="1.69172">
        <ele>306.278</ele>
        <time>2019-12-02T23:43:40Z</time>
      </trkpt>
      <trkpt lat="44.91863" lon="1.6917">
        <ele>307.61</ele>
        <time>2019-12-02T23:44:00Z</time>
      </trkpt>
      <trkpt lat="44.91823" lon="1.69172">
        <ele>308.199</ele>
        <time>2019-12-02T23:44:20Z</time>
      </trkpt>
      <trkpt lat="44.9168" lon="1.69142">
        <ele>299.507</ele>
        <time>2019-12-02T23:44:40Z</time>
      </trkpt>
      <trkpt lat="44.91619" lon="1.6917">
        <ele>298.127</ele>
        <time>2019-12-02T23:45:00Z</time>
      </trkpt>
      <trkpt lat="44.91594" lon="1.69196">
        <ele>298.708</ele>
        <time>2019-12-02T23:45:20Z</time>
      </trkpt>
      <trkpt lat="44.91547" lon="1.69211">
        <ele>304.236</ele>
        <time>2019-12-02T23:45:40Z</time>
      </trkpt>
      <trkpt lat="44.91521" lon="1.69192">
        <ele>304.199</ele>
        <time>2019-12-02T23:46:00Z</time>
      </trkpt>
      <trkpt lat="44.91493" lon="1.69165">
        <ele>303.643</ele>
        <time>2021-04-14T02:20:21Z</time>
      </trkpt>
      <trkpt lat="44.91402" lon="1.69117">
        <ele>307.028</ele>
        <time>2019-12-02T23:46:40Z</time>
      </trkpt>
      <trkpt lat="44.91416" lon="1.69061">
        <ele>302.635</ele>
        <time>2019-12-02T23:47:00Z</time>
      </trkpt>
      <trkpt lat="44.91332" lon="1.69037">
        <ele>302.795</ele>
        <time>2019-12-02T23:47:20Z</time>
      </trkpt>
      <trkpt lat="44.91343" lon="1.68986">
        <ele>300.846</ele>
        <time>2019-12-02T23:47:40Z</time>
      </trkpt>
      <trkpt lat="44.91314" lon="1.6882">
        <ele>301.848</ele>
        <time>2019-12-02T23:48:00Z</time>
      </trkpt>
      <trkpt lat="44.91316" lon="1.68604">
        <ele>294.362</ele>
        <time>2019-12-02T23:48:20Z</time>
      </trkpt>
      <trkpt lat="44.91297" lon="1.68548">
        <ele>291.883</ele>
        <time>2019-12-02T23:48:40Z</time>
      </trkpt>
      <trkpt lat="44.91294" lon="1.6832">
        <ele>283.611</ele>
        <time>2019-12-02T23:49:00Z</time>
      </trkpt>
      <trkpt lat="44.913" lon="1.6823">
        <ele>282.208</ele>
        <time>2019-12-02T23:49:20Z</time>
      </trkpt>
      <trkpt lat="44.91309" lon="1.6802">
        <ele>275.633</ele>
        <time>2019-12-02T23:49:40Z</time>
      </trkpt>
      <trkpt lat="44.9127" lon="1.67874">
        <ele>268.176</ele>
        <time>2019-12-02T23:50:00Z</time>
      </trkpt>
      <trkpt lat="44.91209" lon="1.6784">
        <ele>266.37</ele>
        <time>2019-12-02T23:50:20Z</time>
      </trkpt>
      <trkpt lat="44.91194" lon="1.67782">
        <ele>263.445</ele>
        <time>2019-12-02T23:50:40Z</time>
      </trkpt>
      <trkpt lat="44.91174" lon="1.67754">
        <ele>263.172</ele>
        <time>2019-12-02T23:51:00Z</time>
      </trkpt>
      <trkpt lat="44.9127" lon="1.67718">
        <ele>260.032</ele>
        <time>2019-12-02T23:51:20Z</time>
      </trkpt>
      <trkpt lat="44.91268" lon="1.6766">
        <ele>255.963</ele>
        <time>2019-12-02T23:51:40Z</time>
      </trkpt>
      <trkpt lat="44.91306" lon="1.67548">
        <ele>252.915</ele>
        <time>2019-12-02T23:52:00Z</time>
      </trkpt>
      <trkpt lat="44.91332" lon="1.6752">
        <ele>252.179</ele>
        <time>2019-12-02T23:52:20Z</time>
      </trkpt>
      <trkpt lat="44.91364" lon="1.67456">
        <ele>249.205</ele>
        <time>2019-12-02T23:52:40Z</time>
      </trkpt>
      <trkpt lat="44.91476" lon="1.67342">
        <ele>241.325</ele>
        <time>2019-12-02T23:53:00Z</time>
      </trkpt>
      <trkpt lat="44.91515" lon="1.67275">
        <ele>231.008</ele>
        <time>2019-12-02T23:53:20Z</time>
      </trkpt>
      <trkpt lat="44.91592" lon="1.67143">
        <ele>211.464</ele>
        <time>2019-12-02T23:53:40Z</time>
      </trkpt>
      <trkpt lat="44.91661" lon="1.67074">
        <ele>205.237</ele>
        <time>2019-12-02T23:54:00Z</time>
      </trkpt>
      <trkpt lat="44.91638" lon="1.66927">
        <ele>198.521</ele>
        <time>2019-12-02T23:54:20Z</time>
      </trkpt>
      <trkpt lat="44.91637" lon="1.66862">
        <ele>192.956</ele>
        <time>2019-12-02T23:54:40Z</time>
      </trkpt>
      <trkpt lat="44.91645" lon="1.66801">
        <ele>187.223</ele>
        <time>2019-12-02T23:55:00Z</time>
      </trkpt>
      <trkpt lat="44.91643" lon="1.6675">
        <ele>181.843</ele>
        <time>2019-12-02T23:55:20Z</time>
      </trkpt>
      <trkpt lat="44.91659" lon="1.66695">
        <ele>179.374</ele>
        <time>2019-12-02T23:55:40Z</time>
      </trkpt>
      <trkpt lat="44.91679" lon="1.66645">
        <ele>173.636</ele>
        <time>2019-12-02T23:56:00Z</time>
      </trkpt>
      <trkpt lat="44.91701" lon="1.66621">
        <ele>174.372</ele>
        <time>2019-12-02T23:56:20Z</time>
      </trkpt>
      <trkpt lat="44.91731" lon="1.66549">
        <ele>174.013</ele>
        <time>2019-12-02T23:56:40Z</time>
      </trkpt>
      <trkpt lat="44.91791" lon="1.66477">
        <ele>167.814</ele>
        <time>2019-12-02T23:57:00Z</time>
      </trkpt>
      <trkpt lat="44.9183" lon="1.66416">
        <ele>159.108</ele>
        <time>2019-12-02T23:57:20Z</time>
      </trkpt>
      <trkpt lat="44.91834" lon="1.66337">
        <ele>158.264</ele>
        <time>2019-12-02T23:57:40Z</time>
      </trkpt>
      <trkpt lat="44.9185" lon="1.66299">
        <ele>156.647</ele>
        <time>2019-12-02T23:58:00Z</time>
      </trkpt>
      <trkpt lat="44.91847" lon="1.66239">
        <ele>158.621</ele>
        <time>2019-12-02T23:58:20Z</time>
      </trkpt>
      <trkpt lat="44.91818" lon="1.66215">
        <ele>162.096</ele>
        <time>2019-12-02T23:58:40Z</time>
      </trkpt>
      <trkpt lat="44.9176" lon="1.66201">
        <ele>161.953</ele>
        <time>2019-12-02T23:59:00Z</time>
      </trkpt>
      <trkpt lat="44.91729" lon="1.66145">
        <ele>160.033</ele>
        <time>2019-12-02T23:59:20Z</time>
      </trkpt>
      <trkpt lat="44.91706" lon="1.66079">
        <ele>156.994</ele>
        <time>2019-12-02T23:59:40Z</time>
      </trkpt>
      <trkpt lat="44.91685" lon="1.66059">
        <ele>157.926</ele>
        <time>2019-12-03T00:00:00Z</time>
      </trkpt>
      <trkpt lat="44.91655" lon="1.65969">
        <ele>157.257</ele>
        <time>2019-12-03T00:00:20Z</time>
      </trkpt>
      <trkpt lat="44.91604" lon="1.66087">
        <ele>171.1</ele>
        <time>2019-12-03T00:00:40Z</time>
      </trkpt>
      <trkpt lat="44.91569" lon="1.66061">
        <ele>165.82</ele>
        <time>2019-12-03T00:01:00Z</time>
      </trkpt>
      <trkpt lat="44.91509" lon="1.65953">
        <ele>152.508</ele>
        <time>2019-12-03T00:01:20Z</time>
      </trkpt>
      <trkpt lat="44.91438" lon="1.65879">
        <ele>150.472</ele>
        <time>2019-12-03T00:01:40Z</time>
      </trkpt>
      <trkpt lat="44.91436" lon="1.65825">
        <ele>148.385</ele>
        <time>2019-12-03T00:02:00Z</time>
      </trkpt>
      <trkpt lat="44.91421" lon="1.65785">
        <ele>147.359</ele>
        <time>2019-12-03T00:02:20Z</time>
      </trkpt>
      <trkpt lat="44.91366" lon="1.65741">
        <ele>148.494</ele>
        <time>2019-12-03T00:02:40Z</time>
      </trkpt>
      <trkpt lat="44.91411" lon="1.65651">
        <ele>142.551</ele>
        <time>2019-12-03T00:03:00Z</time>
      </trkpt>
      <trkpt lat="44.91416" lon="1.65597">
        <ele>140.991</ele>
        <time>2019-12-03T00:03:20Z</time>
      </trkpt>
      <trkpt lat="44.91392" lon="1.65599">
        <ele>140.692</ele>
        <time>2019-12-03T00:03:40Z</time>
      </trkpt>
      <trkpt lat="44.91343" lon="1.65619">
        <ele>139.894</ele>
        <time>2019-12-03T00:04:00Z</time>
      </trkpt>
      <trkpt lat="44.91311" lon="1.65616">
        <ele>138.266</ele>
        <time>2021-04-14T02:38:21Z</time>
      </trkpt>
      <trkpt lat="44.91203" lon="1.65626">
        <ele>138.329</ele>
        <time>2021-04-14T02:38:41Z</time>
      </trkpt>
      <trkpt lat="44.91155" lon="1.65636">
        <ele>138.821</ele>
        <time>2021-04-14T02:39:01Z</time>
      </trkpt>
      <trkpt lat="44.9107" lon="1.65643">
        <ele>137.608</ele>
        <time>2021-04-14T02:39:21Z</time>
      </trkpt>
      <trkpt lat="44.90971" lon="1.65694">
        <ele>142.213</ele>
        <time>2021-04-14T02:39:41Z</time>
      </trkpt>
      <trkpt lat="44.90841" lon="1.65716">
        <ele>137.376</ele>
        <time>2021-04-14T02:40:01Z</time>
      </trkpt>
      <trkpt lat="44.90781" lon="1.65698">
        <ele>141.95</ele>
        <time>2021-04-14T02:40:21Z</time>
      </trkpt>
      <trkpt lat="44.90656" lon="1.65745">
        <ele>170.175</ele>
        <time>2019-12-03T00:06:00Z</time>
      </trkpt>
      <trkpt lat="44.90511" lon="1.65761">
        <ele>201.752</ele>
        <time>2019-12-03T00:06:20Z</time>
      </trkpt>
      <trkpt lat="44.90524" lon="1.65783">
        <ele>205.732</ele>
        <time>2019-12-03T00:06:40Z</time>
      </trkpt>
      <trkpt lat="44.90372" lon="1.65803">
        <ele>236.663</ele>
        <time>2019-12-03T00:07:00Z</time>
      </trkpt>
      <trkpt lat="44.90322" lon="1.65769">
        <ele>238.185</ele>
        <time>2019-12-03T00:07:20Z</time>
      </trkpt>
      <trkpt lat="44.90188" lon="1.65783">
        <ele>247.928</ele>
        <time>2019-12-03T00:07:40Z</time>
      </trkpt>
      <trkpt lat="44.90171" lon="1.65871">
        <ele>264.089</ele>
        <time>2019-12-03T00:08:00Z</time>
      </trkpt>
      <trkpt lat="44.90144" lon="1.65921">
        <ele>270.617</ele>
        <time>2019-12-03T00:08:20Z</time>
      </trkpt>
      <trkpt lat="44.90097" lon="1.65923">
        <ele>271.008</ele>
        <time>2019-12-03T00:08:40Z</time>
      </trkpt>
      <trkpt lat="44.90001" lon="1.65853">
        <ele>270.649</ele>
        <time>2019-12-03T00:09:00Z</time>
      </trkpt>
      <trkpt lat="44.89898" lon="1.65759">
        <ele>268.352</ele>
        <time>2019-12-03T00:09:20Z</time>
      </trkpt>
      <trkpt lat="44.89803" lon="1.65755">
        <ele>267.356</ele>
        <time>2019-12-03T00:09:40Z</time>
      </trkpt>
      <trkpt lat="44.89708" lon="1.65683">
        <ele>263.981</ele>
        <time>2019-12-03T00:10:00Z</time>
      </trkpt>
      <trkpt lat="44.89684" lon="1.65643">
        <ele>261.858</ele>
        <time>2019-12-03T00:10:20Z</time>
      </trkpt>
      <trkpt lat="44.89615" lon="1.65622">
        <ele>262.788</ele>
        <time>2021-04-14T02:45:21Z</time>
      </trkpt>
      <trkpt lat="44.89477" lon="1.65629">
        <ele>258.819</ele>
        <time>2019-12-03T00:11:00Z</time>
      </trkpt>
      <trkpt lat="44.89323" lon="1.65695">
        <ele>263.181</ele>
        <time>2019-12-03T00:11:20Z</time>
      </trkpt>
      <trkpt lat="44.89293" lon="1.65568">
        <ele>253.553</ele>
        <time>2019-12-03T00:11:40Z</time>
      </trkpt>
      <trkpt lat="44.89265" lon="1.65502">
        <ele>253.904</ele>
        <time>2019-12-03T00:12:00Z</time>
      </trkpt>
      <trkpt lat="44.89158" lon="1.65384">
        <ele>248.014</ele>
        <time>2019-12-03T00:12:20Z</time>
      </trkpt>
      <trkpt lat="44.89077" lon="1.64989">
        <ele>227.208</ele>
        <time>2019-12-03T00:12:40Z</time>
      </trkpt>
      <trkpt lat="44.89015" lon="1.64815">
        <ele>224.422</ele>
        <time>2021-04-14T02:47:41Z</time>
      </trkpt>
      <trkpt lat="44.88957" lon="1.6477">
        <ele>223.545</ele>
        <time>2019-12-03T00:13:20Z</time>
      </trkpt>
      <trkpt lat="44.88926" lon="1.64728">
        <ele>223.439</ele>
        <time>2019-12-03T00:13:40Z</time>
      </trkpt>
      <trkpt lat="44.88897" lon="1.64612">
        <ele>222.574</ele>
        <time>2019-12-03T00:14:00Z</time>
      </trkpt>
      <trkpt lat="44.88859" lon="1.64547">
        <ele>220.851</ele>
        <time>2019-12-03T00:14:20Z</time>
      </trkpt>
      <trkpt lat="44.88829" lon="1.64511">
        <ele>218.811</ele>
        <time>2019-12-03T00:14:40Z</time>
      </trkpt>
      <trkpt lat="44.88792" lon="1.64491">
        <ele>216.432</ele>
        <time>2019-12-03T00:15:00Z</time>
      </trkpt>
      <trkpt lat="44.88752" lon="1.64428">
        <ele>213.364</ele>
        <time>2021-04-14T02:50:01Z</time>
      </trkpt>
      <trkpt lat="44.88736" lon="1.64426">
        <ele>213.027</ele>
        <time>2021-04-14T02:50:21Z</time>
      </trkpt>
      <trkpt lat="44.8871" lon="1.64439">
        <ele>212.868</ele>
        <time>2021-04-14T02:50:41Z</time>
      </trkpt>
      <trkpt lat="44.88686" lon="1.64421">
        <ele>212.314</ele>
        <time>2021-04-14T02:51:01Z</time>
      </trkpt>
      <trkpt lat="44.88664" lon="1.64392">
        <ele>211.408</ele>
        <time>2021-04-14T02:51:21Z</time>
      </trkpt>
      <trkpt lat="44.88652" lon="1.64391">
        <ele>211.299</ele>
        <time>2019-12-03T00:16:40Z</time>
      </trkpt>
      <trkpt lat="44.88543" lon="1.64356">
        <ele>211.462</ele>
        <time>2021-04-14T02:52:01Z</time>
      </trkpt>
      <trkpt lat="44.88339" lon="1.64211">
        <ele>218.986</ele>
        <time>2021-04-14T02:52:21Z</time>
      </trkpt>
      <trkpt lat="44.88314" lon="1.64189">
        <ele>219.011</ele>
        <time>2019-12-03T00:17:40Z</time>
      </trkpt>
      <trkpt lat="44.88299" lon="1.64161">
        <ele>217.118</ele>
        <time>2019-12-03T00:18:00Z</time>
      </trkpt>
      <trkpt lat="44.88236" lon="1.63951">
        <ele>203.918</ele>
        <time>2019-12-03T00:18:20Z</time>
      </trkpt>
      <trkpt lat="44.88213" lon="1.63917">
        <ele>202.639</ele>
        <time>2019-12-03T00:18:40Z</time>
      </trkpt>
      <trkpt lat="44.88186" lon="1.63899">
        <ele>198.191</ele>
        <time>2021-04-14T02:54:01Z</time>
      </trkpt>
      <trkpt lat="44.88188" lon="1.63861">
        <ele>194.862</ele>
        <time>2021-04-14T02:54:21Z</time>
      </trkpt>
      <trkpt lat="44.88133" lon="1.63751">
        <ele>177.183</ele>
        <time>2019-12-03T00:19:40Z</time>
      </trkpt>
      <trkpt lat="44.88126" lon="1.63693">
        <ele>167.211</ele>
        <time>2021-04-14T02:55:01Z</time>
      </trkpt>
      <trkpt lat="44.88134" lon="1.63624">
        <ele>160.608</ele>
        <time>2021-04-14T02:55:21Z</time>
      </trkpt>
      <trkpt lat="44.88159" lon="1.63552">
        <ele>158.193</ele>
        <time>2019-12-03T00:20:20Z</time>
      </trkpt>
      <trkpt lat="44.88226" lon="1.6352">
        <ele>157.486</ele>
        <time>2019-12-03T00:20:40Z</time>
      </trkpt>
      <trkpt lat="44.8826" lon="1.6353">
        <ele>158.03</ele>
        <time>2019-12-03T00:21:00Z</time>
      </trkpt>
      <trkpt lat="44.88273" lon="1.63502">
        <ele>158.285</ele>
        <time>2019-12-03T00:21:20Z</time>
      </trkpt>
      <trkpt lat="44.88347" lon="1.63412">
        <ele>171.092</ele>
        <time>2021-04-14T02:57:01Z</time>
      </trkpt>
      <trkpt lat="44.88411" lon="1.6338">
        <ele>173.642</ele>
        <time>2021-04-14T02:57:21Z</time>
      </trkpt>
      <trkpt lat="44.88415" lon="1.63372">
        <ele>177.423</ele>
        <time>2019-12-03T00:22:00Z</time>
      </trkpt>
      <trkpt lat="44.88355" lon="1.6336">
        <ele>181.555</ele>
        <time>2019-12-03T00:22:20Z</time>
      </trkpt>
      <trkpt lat="44.8832" lon="1.63366">
        <ele>185.221</ele>
        <time>2019-12-03T00:22:40Z</time>
      </trkpt>
      <trkpt lat="44.88287" lon="1.6335">
        <ele>187.241</ele>
        <time>2019-12-03T00:23:00Z</time>
      </trkpt>
      <trkpt lat="44.88246" lon="1.63358">
        <ele>185.305</ele>
        <time>2019-12-03T00:23:20Z</time>
      </trkpt>
      <trkpt lat="44.88245" lon="1.63326">
        <ele>193.208</ele>
        <time>2019-12-03T00:23:40Z</time>
      </trkpt>
      <trkpt lat="44.88286" lon="1.63278">
        <ele>200.489</ele>
        <time>2019-12-03T00:24:00Z</time>
      </trkpt>
      <trkpt lat="44.88269" lon="1.63116">
        <ele>212.612</ele>
        <time>2019-12-03T00:24:20Z</time>
      </trkpt>
      <trkpt lat="44.88269" lon="1.6304">
        <ele>217.756</ele>
        <time>2019-12-03T00:24:40Z</time>
      </trkpt>
      <trkpt lat="44.883" lon="1.62856">
        <ele>224.341</ele>
        <time>2019-12-03T00:25:00Z</time>
      </trkpt>
      <trkpt lat="44.883" lon="1.62765">
        <ele>222.288</ele>
        <time>2019-12-03T00:25:20Z</time>
      </trkpt>
      <trkpt lat="44.88267" lon="1.62666">
        <ele>221.748</ele>
        <time>2019-12-03T00:25:40Z</time>
      </trkpt>
      <trkpt lat="44.88269" lon="1.62596">
        <ele>221.619</ele>
        <time>2019-12-03T00:26:00Z</time>
      </trkpt>
      <trkpt lat="44.88243" lon="1.62482">
        <ele>224.331</ele>
        <time>2019-12-03T00:26:20Z</time>
      </trkpt>
      <trkpt lat="44.8823" lon="1.62447">
        <ele>224.491</ele>
        <time>2019-12-03T00:26:40Z</time>
      </trkpt>
      <trkpt lat="44.88211" lon="1.62395">
        <ele>224.381</ele>
        <time>2019-12-03T00:27:00Z</time>
      </trkpt>
      <trkpt lat="44.88213" lon="1.62301">
        <ele>224.019</ele>
        <time>2019-12-03T00:27:20Z</time>
      </trkpt>
      <trkpt lat="44.88226" lon="1.62178">
        <ele>223.508</ele>
        <time>2019-12-03T00:27:40Z</time>
      </trkpt>
      <trkpt lat="44.88216" lon="1.62119">
        <ele>222.856</ele>
        <time>2019-12-03T00:28:00Z</time>
      </trkpt>
      <trkpt lat="44.88195" lon="1.62023">
        <ele>218.659</ele>
        <time>2019-12-03T00:28:20Z</time>
      </trkpt>
      <trkpt lat="44.8823" lon="1.61969">
        <ele>211.663</ele>
        <time>2019-12-03T00:28:40Z</time>
      </trkpt>
      <trkpt lat="44.88192" lon="1.61947">
        <ele>208.748</ele>
        <time>2019-12-03T00:29:00Z</time>
      </trkpt>
      <trkpt lat="44.88159" lon="1.61959">
        <ele>203.345</ele>
        <time>2019-12-03T00:29:20Z</time>
      </trkpt>
      <trkpt lat="44.88094" lon="1.62059">
        <ele>207.955</ele>
        <time>2019-12-03T00:29:40Z</time>
      </trkpt>
      <trkpt lat="44.88087" lon="1.62051">
        <ele>207.296</ele>
        <time>2019-12-03T00:30:00Z</time>
      </trkpt>
      <trkpt lat="44.88062" lon="1.62065">
        <ele>206.518</ele>
        <time>2019-12-03T00:30:20Z</time>
      </trkpt>
      <trkpt lat="44.88009" lon="1.61971">
        <ele>198.852</ele>
        <time>2019-12-03T00:30:40Z</time>
      </trkpt>
      <trkpt lat="44.87973" lon="1.61962">
        <ele>200.953</ele>
        <time>2021-04-14T03:06:41Z</time>
      </trkpt>
      <trkpt lat="44.87833" lon="1.62047">
        <ele>203.008</ele>
        <time>2019-12-03T00:31:20Z</time>
      </trkpt>
      <trkpt lat="44.87674" lon="1.62179">
        <ele>213.908</ele>
        <time>2019-12-03T00:31:40Z</time>
      </trkpt>
      <trkpt lat="44.87619" lon="1.62213">
        <ele>210.782</ele>
        <time>2019-12-03T00:32:00Z</time>
      </trkpt>
      <trkpt lat="44.87531" lon="1.62305">
        <ele>216.395</ele>
        <time>2021-04-14T03:08:01Z</time>
      </trkpt>
      <trkpt lat="44.87479" lon="1.62339">
        <ele>218.269</ele>
        <time>2021-04-14T03:08:21Z</time>
      </trkpt>
      <trkpt lat="44.8747" lon="1.62333">
        <ele>216.584</ele>
        <time>2019-12-03T00:33:00Z</time>
      </trkpt>
      <trkpt lat="44.87372" lon="1.62381">
        <ele>219.851</ele>
        <time>2019-12-03T00:33:20Z</time>
      </trkpt>
      <trkpt lat="44.87344" lon="1.62337">
        <ele>221.161</ele>
        <time>2019-12-03T00:33:40Z</time>
      </trkpt>
      <trkpt lat="44.87249" lon="1.62331">
        <ele>227.542</ele>
        <time>2019-12-03T00:34:00Z</time>
      </trkpt>
      <trkpt lat="44.87164" lon="1.62321">
        <ele>235.584</ele>
        <time>2019-12-03T00:34:20Z</time>
      </trkpt>
      <trkpt lat="44.8706" lon="1.62327">
        <ele>238.994</ele>
        <time>2019-12-03T00:34:40Z</time>
      </trkpt>
      <trkpt lat="44.86918" lon="1.62343">
        <ele>240.657</ele>
        <time>2019-12-03T00:35:00Z</time>
      </trkpt>
      <trkpt lat="44.86792" lon="1.62381">
        <ele>239.522</ele>
        <time>2019-12-03T00:35:20Z</time>
      </trkpt>
      <trkpt lat="44.86678" lon="1.62407">
        <ele>236.808</ele>
        <time>2019-12-03T00:35:40Z</time>
      </trkpt>
      <trkpt lat="44.86515" lon="1.62473">
        <ele>237.276</ele>
        <time>2019-12-03T00:36:00Z</time>
      </trkpt>
      <trkpt lat="44.86397" lon="1.62499">
        <ele>233.559</ele>
        <time>2019-12-03T00:36:20Z</time>
      </trkpt>
      <trkpt lat="44.86258" lon="1.62495">
        <ele>229.343</ele>
        <time>2019-12-03T00:36:40Z</time>
      </trkpt>
      <trkpt lat="44.86197" lon="1.62521">
        <ele>230.728</ele>
        <time>2019-12-03T00:37:00Z</time>
      </trkpt>
      <trkpt lat="44.86101" lon="1.62547">
        <ele>235.395</ele>
        <time>2019-12-03T00:37:20Z</time>
      </trkpt>
      <trkpt lat="44.85983" lon="1.62609">
        <ele>243.355</ele>
        <time>2019-12-03T00:37:40Z</time>
      </trkpt>
      <trkpt lat="44.85902" lon="1.62615">
        <ele>245.536</ele>
        <time>2019-12-03T00:38:00Z</time>
      </trkpt>
      <trkpt lat="44.85851" lon="1.62605">
        <ele>245.368</ele>
        <time>2019-12-03T00:38:20Z</time>
      </trkpt>
      <trkpt lat="44.85681" lon="1.62591">
        <ele>235.358</ele>
        <time>2019-12-03T00:38:40Z</time>
      </trkpt>
      <trkpt lat="44.85578" lon="1.62589">
        <ele>235.852</ele>
        <time>2019-12-03T00:39:00Z</time>
      </trkpt>
      <trkpt lat="44.85512" lon="1.62607">
        <ele>235.417</ele>
        <time>2019-12-03T00:39:20Z</time>
      </trkpt>
      <trkpt lat="44.85377" lon="1.62579">
        <ele>231.408</ele>
        <time>2019-12-03T00:39:40Z</time>
      </trkpt>
      <trkpt lat="44.85288" lon="1.62539">
        <ele>228.982</ele>
        <time>2019-12-03T00:40:00Z</time>
      </trkpt>
      <trkpt lat="44.85248" lon="1.62533">
        <ele>227.425</ele>
        <time>2019-12-03T00:40:20Z</time>
      </trkpt>
      <trkpt lat="44.85157" lon="1.62547">
        <ele>225.279</ele>
        <time>2019-12-03T00:40:40Z</time>
      </trkpt>
      <trkpt lat="44.85045" lon="1.62563">
        <ele>223.214</ele>
        <time>2019-12-03T00:41:00Z</time>
      </trkpt>
      <trkpt lat="44.8498" lon="1.62567">
        <ele>218.571</ele>
        <time>2019-12-03T00:41:20Z</time>
      </trkpt>
      <trkpt lat="44.84845" lon="1.62597">
        <ele>213.431</ele>
        <time>2019-12-03T00:41:40Z</time>
      </trkpt>
      <trkpt lat="44.84754" lon="1.62601">
        <ele>208.362</ele>
        <time>2019-12-03T00:42:00Z</time>
      </trkpt>
      <trkpt lat="44.8468" lon="1.62575">
        <ele>203.014</ele>
        <time>2019-12-03T00:42:20Z</time>
      </trkpt>
      <trkpt lat="44.8465" lon="1.62551">
        <ele>198.684</ele>
        <time>2019-12-03T00:42:40Z</time>
      </trkpt>
      <trkpt lat="44.84566" lon="1.62549">
        <ele>192.107</ele>
        <time>2019-12-03T00:43:00Z</time>
      </trkpt>
      <trkpt lat="44.84505" lon="1.62569">
        <ele>188.917</ele>
        <time>2019-12-03T00:43:20Z</time>
      </trkpt>
      <trkpt lat="44.84456" lon="1.62627">
        <ele>189.708</ele>
        <time>2019-12-03T00:43:40Z</time>
      </trkpt>
      <trkpt lat="44.84415" lon="1.62619">
        <ele>184.395</ele>
        <time>2021-04-14T03:19:41Z</time>
      </trkpt>
      <trkpt lat="44.84359" lon="1.62579">
        <ele>187.248</ele>
        <time>2019-12-03T00:44:00Z</time>
      </trkpt>
      <trkpt lat="44.84189" lon="1.62535">
        <ele>192.072</ele>
        <time>2019-12-03T00:44:20Z</time>
      </trkpt>
      <trkpt lat="44.84087" lon="1.62551">
        <ele>194.467</ele>
        <time>2019-12-03T00:44:40Z</time>
      </trkpt>
      <trkpt lat="44.83989" lon="1.62503">
        <ele>192.394</ele>
        <time>2019-12-03T00:45:00Z</time>
      </trkpt>
      <trkpt lat="44.83949" lon="1.62423">
        <ele>201.784</ele>
        <time>2019-12-03T00:45:20Z</time>
      </trkpt>
      <trkpt lat="44.83935" lon="1.62357">
        <ele>209.555</ele>
        <time>2019-12-03T00:45:40Z</time>
      </trkpt>
      <trkpt lat="44.83889" lon="1.62315">
        <ele>208.637</ele>
        <time>2019-12-03T00:46:00Z</time>
      </trkpt>
      <trkpt lat="44.83696" lon="1.62251">
        <ele>215.143</ele>
        <time>2019-12-03T00:46:20Z</time>
      </trkpt>
      <trkpt lat="44.83591" lon="1.62242">
        <ele>219.264</ele>
        <time>2021-04-14T03:22:41Z</time>
      </trkpt>
      <trkpt lat="44.83534" lon="1.62199">
        <ele>222.41</ele>
        <time>2019-12-03T00:47:00Z</time>
      </trkpt>
      <trkpt lat="44.83472" lon="1.62169">
        <ele>223.308</ele>
        <time>2019-12-03T00:47:20Z</time>
      </trkpt>
      <trkpt lat="44.83422" lon="1.62173">
        <ele>224.521</ele>
        <time>2019-12-03T00:47:40Z</time>
      </trkpt>
      <trkpt lat="44.83338" lon="1.62281">
        <ele>238.834</ele>
        <time>2019-12-03T00:48:00Z</time>
      </trkpt>
      <trkpt lat="44.83303" lon="1.62323">
        <ele>244.568</ele>
        <time>2019-12-03T00:48:20Z</time>
      </trkpt>
      <trkpt lat="44.83241" lon="1.62433">
        <ele>253.763</ele>
        <time>2019-12-03T00:48:40Z</time>
      </trkpt>
      <trkpt lat="44.8311" lon="1.62437">
        <ele>263.35</ele>
        <time>2019-12-03T00:49:00Z</time>
      </trkpt>
      <trkpt lat="44.83019" lon="1.62427">
        <ele>267.28</ele>
        <time>2019-12-03T00:49:20Z</time>
      </trkpt>
      <trkpt lat="44.82993" lon="1.62397">
        <ele>267.411</ele>
        <time>2019-12-03T00:49:40Z</time>
      </trkpt>
      <trkpt lat="44.82941" lon="1.62397">
        <ele>266.513</ele>
        <time>2019-12-03T00:50:00Z</time>
      </trkpt>
      <trkpt lat="44.82705" lon="1.62846">
        <ele>262.815</ele>
        <time>2019-12-03T00:50:20Z</time>
      </trkpt>
      <trkpt lat="44.82678" lon="1.62996">
        <ele>264.965</ele>
        <time>2019-12-03T00:50:40Z</time>
      </trkpt>
      <trkpt lat="44.82624" lon="1.63054">
        <ele>264.411</ele>
        <time>2019-12-03T00:51:00Z</time>
      </trkpt>
      <trkpt lat="44.82528" lon="1.6312">
        <ele>264.508</ele>
        <time>2019-12-03T00:51:20Z</time>
      </trkpt>
      <trkpt lat="44.82436" lon="1.63222">
        <ele>264.428</ele>
        <time>2019-12-03T00:51:40Z</time>
      </trkpt>
      <trkpt lat="44.8241" lon="1.63256">
        <ele>265.291</ele>
        <time>2019-12-03T00:52:00Z</time>
      </trkpt>
      <trkpt lat="44.8227" lon="1.6321">
        <ele>262.155</ele>
        <time>2019-12-03T00:52:20Z</time>
      </trkpt>
      <trkpt lat="44.82201" lon="1.63196">
        <ele>258.91</ele>
        <time>2019-12-03T00:52:40Z</time>
      </trkpt>
      <trkpt lat="44.82092" lon="1.6316">
        <ele>252.527</ele>
        <time>2019-12-03T00:53:00Z</time>
      </trkpt>
      <trkpt lat="44.82037" lon="1.63108">
        <ele>249.457</ele>
        <time>2019-12-03T00:53:20Z</time>
      </trkpt>
      <trkpt lat="44.81974" lon="1.6308">
        <ele>244.658</ele>
        <time>2019-12-03T00:53:40Z</time>
      </trkpt>
      <trkpt lat="44.81737" lon="1.62919">
        <ele>237.71</ele>
        <time>2019-12-03T00:54:00Z</time>
      </trkpt>
      <trkpt lat="44.81664" lon="1.62895">
        <ele>237.795</ele>
        <time>2019-12-03T00:54:20Z</time>
      </trkpt>
      <trkpt lat="44.81581" lon="1.62831">
        <ele>243.549</ele>
        <time>2019-12-03T00:54:40Z</time>
      </trkpt>
      <trkpt lat="44.81546" lon="1.62816">
        <ele>246.123</ele>
        <time>2019-12-03T00:55:00Z</time>
      </trkpt>
      <trkpt lat="44.81516" lon="1.62792">
        <ele>247.208</ele>
        <time>2019-12-03T00:55:20Z</time>
      </trkpt>
      <trkpt lat="44.81496" lon="1.62814">
        <ele>246.916</ele>
        <time>2019-12-03T00:55:40Z</time>
      </trkpt>
      <trkpt lat="44.81468" lon="1.62831">
        <ele>246.469</ele>
        <time>2019-12-03T00:56:00Z</time>
      </trkpt>
      <trkpt lat="44.81464" lon="1.62811">
        <ele>246.433</ele>
        <time>2019-12-03T00:56:20Z</time>
      </trkpt>
      <trkpt lat="44.81405" lon="1.62833">
        <ele>243.298</ele>
        <time>2019-12-03T00:56:40Z</time>
      </trkpt>
      <trkpt lat="44.81348" lon="1.6268">
        <ele>243.015</ele>
        <time>2019-12-03T00:57:00Z</time>
      </trkpt>
      <trkpt lat="44.81349" lon="1.62607">
        <ele>244.415</ele>
        <time>2019-12-03T00:57:20Z</time>
      </trkpt>
      <trkpt lat="44.81315" lon="1.62601">
        <ele>240.486</ele>
        <time>2019-12-03T00:57:40Z</time>
      </trkpt>
      <trkpt lat="44.81064" lon="1.62437">
        <ele>245.938</ele>
        <time>2019-12-03T00:58:00Z</time>
      </trkpt>
      <trkpt lat="44.81028" lon="1.62433">
        <ele>247.191</ele>
        <time>2019-12-03T00:58:20Z</time>
      </trkpt>
      <trkpt lat="44.80913" lon="1.62454">
        <ele>251.481</ele>
        <time>2019-12-03T00:58:40Z</time>
      </trkpt>
      <trkpt lat="44.80734" lon="1.62562">
        <ele>260.919</ele>
        <time>2019-12-03T00:59:00Z</time>
      </trkpt>
      <trkpt lat="44.80657" lon="1.62583">
        <ele>263.108</ele>
        <time>2019-12-03T00:59:20Z</time>
      </trkpt>
      <trkpt lat="44.8055" lon="1.6265">
        <ele>258.346</ele>
        <time>2021-04-14T03:35:41Z</time>
      </trkpt>
      <trkpt lat="44.80438" lon="1.62602">
        <ele>253.639</ele>
        <time>2019-12-03T01:00:00Z</time>
      </trkpt>
      <trkpt lat="44.80435" lon="1.62618">
        <ele>254.433</ele>
        <time>2019-12-03T01:00:20Z</time>
      </trkpt>
      <trkpt lat="44.80409" lon="1.62617">
        <ele>244.998</ele>
        <time>2019-12-03T01:00:40Z</time>
      </trkpt>
      <trkpt lat="44.80414" lon="1.62451">
        <ele>233.575</ele>
        <time>2021-04-14T03:37:01Z</time>
      </trkpt>
      <trkpt lat="44.80403" lon="1.62368">
        <ele>225.815</ele>
        <time>2021-04-14T03:37:21Z</time>
      </trkpt>
      <trkpt lat="44.80379" lon="1.62303">
        <ele>217.716</ele>
        <time>2021-04-14T03:37:41Z</time>
      </trkpt>
      <trkpt lat="44.80332" lon="1.62226">
        <ele>207.478</ele>
        <time>2021-04-14T03:38:01Z</time>
      </trkpt>
      <trkpt lat="44.80234" lon="1.62075">
        <ele>194.395</ele>
        <time>2019-12-03T01:02:20Z</time>
      </trkpt>
      <trkpt lat="44.80135" lon="1.61953">
        <ele>180.849</ele>
        <time>2019-12-03T01:02:40Z</time>
      </trkpt>
      <trkpt lat="44.80098" lon="1.61899">
        <ele>191.423</ele>
        <time>2019-12-03T01:03:00Z</time>
      </trkpt>
      <trkpt lat="44.80021" lon="1.61837">
        <ele>177.208</ele>
        <time>2019-12-03T01:03:20Z</time>
      </trkpt>
      <trkpt lat="44.79904" lon="1.61793">
        <ele>177.556</ele>
        <time>2019-12-03T10:47:46Z</time>
      </trkpt>
      <trkpt lat="44.79904" lon="1.61793">
        <ele>177.529</ele>
        <time>2019-12-03T10:47:46Z</time>
      </trkpt>
      <trkpt lat="44.79812" lon="1.6171">
        <ele>172.833</ele>
        <time>2019-12-03T10:48:06Z</time>
      </trkpt>
      <trkpt lat="44.79779" lon="1.61691">
        <ele>168.328</ele>
        <time>2019-12-03T10:48:26Z</time>
      </trkpt>
      <trkpt lat="44.79737" lon="1.61632">
        <ele>158.025</ele>
        <time>2019-12-03T10:48:46Z</time>
      </trkpt>
      <trkpt lat="44.79685" lon="1.61601">
        <ele>151.245</ele>
        <time>2019-12-03T10:49:06Z</time>
      </trkpt>
      <trkpt lat="44.79629" lon="1.61459">
        <ele>154.566</ele>
        <time>2021-04-14T03:41:41Z</time>
      </trkpt>
      <trkpt lat="44.79617" lon="1.61392">
        <ele>152.128</ele>
        <time>2019-12-03T10:49:46Z</time>
      </trkpt>
      <trkpt lat="44.79633" lon="1.61325">
        <ele>151.117</ele>
        <time>2019-12-03T10:50:06Z</time>
      </trkpt>
      <trkpt lat="44.79687" lon="1.61219">
        <ele>156.487</ele>
        <time>2019-12-03T10:50:26Z</time>
      </trkpt>
      <trkpt lat="44.79723" lon="1.61036">
        <ele>153.315</ele>
        <time>2019-12-03T10:50:46Z</time>
      </trkpt>
      <trkpt lat="44.79706" lon="1.60993">
        <ele>160.108</ele>
        <time>2019-12-03T10:51:06Z</time>
      </trkpt>
      <trkpt lat="44.79621" lon="1.60883">
        <ele>159.548</ele>
        <time>2019-12-03T10:51:26Z</time>
      </trkpt>
      <trkpt lat="44.79569" lon="1.60831">
        <ele>153.821</ele>
        <time>2019-12-03T10:51:46Z</time>
      </trkpt>
      <trkpt lat="44.79518" lon="1.60792">
        <ele>150.155</ele>
        <time>2019-12-03T10:52:06Z</time>
      </trkpt>
      <trkpt lat="44.79494" lon="1.60736">
        <ele>147.07</ele>
        <time>2019-12-03T10:52:26Z</time>
      </trkpt>
      <trkpt lat="44.79497" lon="1.60671">
        <ele>144.787</ele>
        <time>2019-12-03T10:52:46Z</time>
      </trkpt>
      <trkpt lat="44.79563" lon="1.60512">
        <ele>148.957</ele>
        <time>2019-12-03T10:53:06Z</time>
      </trkpt>
      <trkpt lat="44.79576" lon="1.60417">
        <ele>147.938</ele>
        <time>2019-12-03T10:53:26Z</time>
      </trkpt>
      <trkpt lat="44.79566" lon="1.60378">
        <ele>149.66</ele>
        <time>2019-12-03T10:53:46Z</time>
      </trkpt>
      <trkpt lat="44.79492" lon="1.60248">
        <ele>144.459</ele>
        <time>2019-12-03T10:54:06Z</time>
      </trkpt>
      <trkpt lat="44.79451" lon="1.60148">
        <ele>148.303</ele>
        <time>2019-12-03T10:54:26Z</time>
      </trkpt>
      <trkpt lat="44.79427" lon="1.60111">
        <ele>146.823</ele>
        <time>2019-12-03T10:54:46Z</time>
      </trkpt>
      <trkpt lat="44.79432" lon="1.60035">
        <ele>147.508</ele>
        <time>2019-12-03T10:55:06Z</time>
      </trkpt>
      <trkpt lat="44.7945" lon="1.59984">
        <ele>145.722</ele>
        <time>2019-12-03T10:55:26Z</time>
      </trkpt>
      <trkpt lat="44.79477" lon="1.59953">
        <ele>146.595</ele>
        <time>2019-12-03T10:55:46Z</time>
      </trkpt>
      <trkpt lat="44.79515" lon="1.59936">
        <ele>154.369</ele>
        <time>2019-12-03T10:56:06Z</time>
      </trkpt>
      <trkpt lat="44.79598" lon="1.59867">
        <ele>161.314</ele>
        <time>2019-12-03T10:56:26Z</time>
      </trkpt>
      <trkpt lat="44.7962" lon="1.59805">
        <ele>156.851</ele>
        <time>2019-12-03T10:56:46Z</time>
      </trkpt>
      <trkpt lat="44.79623" lon="1.59748">
        <ele>161.891</ele>
        <time>2019-12-03T10:57:06Z</time>
      </trkpt>
      <trkpt lat="44.79611" lon="1.59703">
        <ele>162.112</ele>
        <time>2019-12-03T10:57:26Z</time>
      </trkpt>
      <trkpt lat="44.79558" lon="1.59637">
        <ele>153.834</ele>
        <time>2019-12-03T10:57:46Z</time>
      </trkpt>
      <trkpt lat="44.79515" lon="1.59601">
        <ele>151.656</ele>
        <time>2019-12-03T10:58:06Z</time>
      </trkpt>
      <trkpt lat="44.79456" lon="1.59574">
        <ele>146.359</ele>
        <time>2019-12-03T10:58:26Z</time>
      </trkpt>
      <trkpt lat="44.79412" lon="1.59621">
        <ele>152.114</ele>
        <time>2019-12-03T10:58:46Z</time>
      </trkpt>
      <trkpt lat="44.79328" lon="1.59556">
        <ele>160.608</ele>
        <time>2019-12-03T10:59:06Z</time>
      </trkpt>
      <trkpt lat="44.793" lon="1.59504">
        <ele>154.462</ele>
        <time>2021-04-14T03:51:41Z</time>
      </trkpt>
      <trkpt lat="44.79268" lon="1.59414">
        <ele>155.165</ele>
        <time>2019-12-03T10:59:26Z</time>
      </trkpt>
      <trkpt lat="44.79259" lon="1.5932">
        <ele>151.799</ele>
        <time>2019-12-03T10:59:46Z</time>
      </trkpt>
      <trkpt lat="44.79266" lon="1.59237">
        <ele>151.044</ele>
        <time>2019-12-03T11:00:06Z</time>
      </trkpt>
      <trkpt lat="44.79286" lon="1.59138">
        <ele>149.951</ele>
        <time>2019-12-03T11:00:26Z</time>
      </trkpt>
      <trkpt lat="44.79276" lon="1.59102">
        <ele>149.721</ele>
        <time>2019-12-03T11:00:46Z</time>
      </trkpt>
      <trkpt lat="44.79283" lon="1.59008">
        <ele>152.022</ele>
        <time>2019-12-03T11:01:06Z</time>
      </trkpt>
      <trkpt lat="44.79274" lon="1.58936">
        <ele>151.734</ele>
        <time>2019-12-03T11:01:26Z</time>
      </trkpt>
      <trkpt lat="44.79273" lon="1.58819">
        <ele>151.477</ele>
        <time>2019-12-03T11:01:46Z</time>
      </trkpt>
      <trkpt lat="44.79243" lon="1.58626">
        <ele>139.261</ele>
        <time>2019-12-03T11:02:06Z</time>
      </trkpt>
      <trkpt lat="44.79199" lon="1.58515">
        <ele>139.927</ele>
        <time>2019-12-03T11:02:26Z</time>
      </trkpt>
      <trkpt lat="44.79175" lon="1.58406">
        <ele>140.308</ele>
        <time>2019-12-03T11:02:46Z</time>
      </trkpt>
      <trkpt lat="44.79171" lon="1.58339">
        <ele>137.274</ele>
        <time>2019-12-03T11:03:06Z</time>
      </trkpt>
      <trkpt lat="44.79192" lon="1.58253">
        <ele>137.537</ele>
        <time>2019-12-03T11:03:26Z</time>
      </trkpt>
      <trkpt lat="44.79162" lon="1.58217">
        <ele>126.691</ele>
        <time>2019-12-03T11:03:46Z</time>
      </trkpt>
      <trkpt lat="44.79142" lon="1.58076">
        <ele>133.286</ele>
        <time>2019-12-03T11:04:06Z</time>
      </trkpt>
      <trkpt lat="44.79141" lon="1.58004">
        <ele>134.353</ele>
        <time>2019-12-03T11:04:26Z</time>
      </trkpt>
      <trkpt lat="44.79131" lon="1.57905">
        <ele>135.163</ele>
        <time>2019-12-03T11:04:46Z</time>
      </trkpt>
      <trkpt lat="44.79135" lon="1.57835">
        <ele>135.914</ele>
        <time>2019-12-03T11:05:06Z</time>
      </trkpt>
      <trkpt lat="44.79156" lon="1.57801">
        <ele>135.626</ele>
        <time>2019-12-03T11:05:26Z</time>
      </trkpt>
      <trkpt lat="44.79185" lon="1.57655">
        <ele>132.969</ele>
        <time>2019-12-03T11:05:46Z</time>
      </trkpt>
      <trkpt lat="44.79215" lon="1.57588">
        <ele>134.104</ele>
        <time>2019-12-03T11:06:06Z</time>
      </trkpt>
      <trkpt lat="44.79322" lon="1.57427">
        <ele>130.224</ele>
        <time>2019-12-03T11:06:26Z</time>
      </trkpt>
      <trkpt lat="44.79341" lon="1.57344">
        <ele>130.608</ele>
        <time>2019-12-03T11:06:46Z</time>
      </trkpt>
      <trkpt lat="44.79405" lon="1.57212">
        <ele>125.733</ele>
        <time>2019-12-03T11:07:06Z</time>
      </trkpt>
      <trkpt lat="44.79462" lon="1.57152">
        <ele>129.616</ele>
        <time>2019-12-03T11:07:26Z</time>
      </trkpt>
      <trkpt lat="44.79512" lon="1.57074">
        <ele>129.23</ele>
        <time>2019-12-03T11:07:46Z</time>
      </trkpt>
      <trkpt lat="44.7959" lon="1.56975">
        <ele>147.825</ele>
        <time>2019-12-03T11:08:06Z</time>
      </trkpt>
      <trkpt lat="44.79591" lon="1.56931">
        <ele>143.012</ele>
        <time>2019-12-03T11:08:26Z</time>
      </trkpt>
      <trkpt lat="44.796" lon="1.56907">
        <ele>145.732</ele>
        <time>2019-12-03T11:08:46Z</time>
      </trkpt>
      <trkpt lat="44.79578" lon="1.56807">
        <ele>138.423</ele>
        <time>2019-12-03T11:09:06Z</time>
      </trkpt>
      <trkpt lat="44.79533" lon="1.56767">
        <ele>135.075</ele>
        <time>2019-12-03T11:09:26Z</time>
      </trkpt>
      <trkpt lat="44.79469" lon="1.56682">
        <ele>123.269</ele>
        <time>2019-12-03T11:09:46Z</time>
      </trkpt>
      <trkpt lat="44.79467" lon="1.56631">
        <ele>121.004</ele>
        <time>2019-12-03T11:10:06Z</time>
      </trkpt>
      <trkpt lat="44.7949" lon="1.5659">
        <ele>120.924</ele>
        <time>2019-12-03T11:10:26Z</time>
      </trkpt>
      <trkpt lat="44.79558" lon="1.56534">
        <ele>124.708</ele>
        <time>2019-12-03T11:10:46Z</time>
      </trkpt>
      <trkpt lat="44.7961" lon="1.56448">
        <ele>123.763</ele>
        <time>2019-12-03T11:11:06Z</time>
      </trkpt>
      <trkpt lat="44.79674" lon="1.56384">
        <ele>126.916</ele>
        <time>2019-12-03T11:11:26Z</time>
      </trkpt>
      <trkpt lat="44.79734" lon="1.56276">
        <ele>119.53</ele>
        <time>2019-12-03T11:11:46Z</time>
      </trkpt>
      <trkpt lat="44.79754" lon="1.56222">
        <ele>120.325</ele>
        <time>2019-12-03T11:12:06Z</time>
      </trkpt>
      <trkpt lat="44.79794" lon="1.5615">
        <ele>118.052</ele>
        <time>2019-12-03T11:12:26Z</time>
      </trkpt>
      <trkpt lat="44.79842" lon="1.56113">
        <ele>115.612</ele>
        <time>2019-12-03T11:12:46Z</time>
      </trkpt>
      <trkpt lat="44.79919" lon="1.56017">
        <ele>108.993</ele>
        <time>2019-12-03T11:13:06Z</time>
      </trkpt>
      <trkpt lat="44.79966" lon="1.56087">
        <ele>113.535</ele>
        <time>2019-12-03T11:13:26Z</time>
      </trkpt>
      <trkpt lat="44.79992" lon="1.56064">
        <ele>110.738</ele>
        <time>2019-12-03T11:13:46Z</time>
      </trkpt>
      <trkpt lat="44.80011" lon="1.56017">
        <ele>111.67</ele>
        <time>2019-12-03T11:14:06Z</time>
      </trkpt>
      <trkpt lat="44.80055" lon="1.55988">
        <ele>112.417</ele>
        <time>2019-12-03T11:14:26Z</time>
      </trkpt>
      <trkpt lat="44.80115" lon="1.5596">
        <ele>117.708</ele>
        <time>2019-12-03T11:14:46Z</time>
      </trkpt>
      <trkpt lat="44.80394" lon="1.5575">
        <ele>113.03</ele>
        <time>2019-12-03T11:15:06Z</time>
      </trkpt>
      <trkpt lat="44.80412" lon="1.55654">
        <ele>118.953</ele>
        <time>2019-12-03T11:15:26Z</time>
      </trkpt>
      <trkpt lat="44.80394" lon="1.5563">
        <ele>127.017</ele>
        <time>2019-12-03T11:15:46Z</time>
      </trkpt>
      <trkpt lat="44.80241" lon="1.55632">
        <ele>132.962</ele>
        <time>2019-12-03T11:16:06Z</time>
      </trkpt>
      <trkpt lat="44.80147" lon="1.55669">
        <ele>129.219</ele>
        <time>2019-12-03T11:16:26Z</time>
      </trkpt>
      <trkpt lat="44.80095" lon="1.55728">
        <ele>126.349</ele>
        <time>2019-12-03T11:16:46Z</time>
      </trkpt>
      <trkpt lat="44.80054" lon="1.55723">
        <ele>132.86</ele>
        <time>2019-12-03T11:17:06Z</time>
      </trkpt>
      <trkpt lat="44.79987" lon="1.55687">
        <ele>141.832</ele>
        <time>2019-12-03T11:17:26Z</time>
      </trkpt>
      <trkpt lat="44.79971" lon="1.55703">
        <ele>141.371</ele>
        <time>2019-12-03T11:17:46Z</time>
      </trkpt>
      <trkpt lat="44.79928" lon="1.55643">
        <ele>151.041</ele>
        <time>2019-12-03T11:18:06Z</time>
      </trkpt>
      <trkpt lat="44.79851" lon="1.55599">
        <ele>156.615</ele>
        <time>2019-12-03T11:18:26Z</time>
      </trkpt>
      <trkpt lat="44.79757" lon="1.55507">
        <ele>168.708</ele>
        <time>2021-04-14T04:11:21Z</time>
      </trkpt>
      <trkpt lat="44.79702" lon="1.55411">
        <ele>182.994</ele>
        <time>2019-12-03T11:19:06Z</time>
      </trkpt>
      <trkpt lat="44.79703" lon="1.55267">
        <ele>192.937</ele>
        <time>2019-12-03T11:19:26Z</time>
      </trkpt>
      <trkpt lat="44.7974" lon="1.55137">
        <ele>203.181</ele>
        <time>2019-12-03T11:19:46Z</time>
      </trkpt>
      <trkpt lat="44.79795" lon="1.54993">
        <ele>217.686</ele>
        <time>2019-12-03T11:20:06Z</time>
      </trkpt>
      <trkpt lat="44.79785" lon="1.54932">
        <ele>219.513</ele>
        <time>2019-12-03T11:20:26Z</time>
      </trkpt>
      <trkpt lat="44.79746" lon="1.54884">
        <ele>229.873</ele>
        <time>2019-12-03T11:20:46Z</time>
      </trkpt>
      <trkpt lat="44.797" lon="1.54796">
        <ele>239.194</ele>
        <time>2019-12-03T11:21:06Z</time>
      </trkpt>
      <trkpt lat="44.797" lon="1.54695">
        <ele>246.856</ele>
        <time>2019-12-03T11:21:26Z</time>
      </trkpt>
      <trkpt lat="44.79709" lon="1.54596">
        <ele>252.989</ele>
        <time>2019-12-03T11:21:46Z</time>
      </trkpt>
      <trkpt lat="44.7969" lon="1.54472">
        <ele>255.606</ele>
        <time>2021-04-14T04:14:41Z</time>
      </trkpt>
      <trkpt lat="44.79654" lon="1.544">
        <ele>254.626</ele>
        <time>2021-04-14T04:15:01Z</time>
      </trkpt>
      <trkpt lat="44.79611" lon="1.54422">
        <ele>254.708</ele>
        <time>2019-12-03T11:22:46Z</time>
      </trkpt>
      <trkpt lat="44.79584" lon="1.54401">
        <ele>254.535</ele>
        <time>2019-12-03T11:23:06Z</time>
      </trkpt>
      <trkpt lat="44.79336" lon="1.54313">
        <ele>240.618</ele>
        <time>2019-12-03T11:23:26Z</time>
      </trkpt>
      <trkpt lat="44.7923" lon="1.54284">
        <ele>234.372</ele>
        <time>2019-12-03T11:23:46Z</time>
      </trkpt>
      <trkpt lat="44.79133" lon="1.54219">
        <ele>232.077</ele>
        <time>2019-12-03T11:24:06Z</time>
      </trkpt>
      <trkpt lat="44.79065" lon="1.54196">
        <ele>225.634</ele>
        <time>2019-12-03T11:24:26Z</time>
      </trkpt>
      <trkpt lat="44.78991" lon="1.54222">
        <ele>213.974</ele>
        <time>2019-12-03T11:24:46Z</time>
      </trkpt>
      <trkpt lat="44.78959" lon="1.5421">
        <ele>212.725</ele>
        <time>2019-12-03T11:25:06Z</time>
      </trkpt>
      <trkpt lat="44.78936" lon="1.54152">
        <ele>212.827</ele>
        <time>2019-12-03T11:25:26Z</time>
      </trkpt>
      <trkpt lat="44.78943" lon="1.53988">
        <ele>206.676</ele>
        <time>2019-12-03T11:25:46Z</time>
      </trkpt>
      <trkpt lat="44.78975" lon="1.53892">
        <ele>204.49</ele>
        <time>2019-12-03T11:26:06Z</time>
      </trkpt>
      <trkpt lat="44.79027" lon="1.53802">
        <ele>207.419</ele>
        <time>2019-12-03T11:26:26Z</time>
      </trkpt>
      <trkpt lat="44.7906" lon="1.53684">
        <ele>200.708</ele>
        <time>2019-12-03T11:26:46Z</time>
      </trkpt>
      <trkpt lat="44.79161" lon="1.53451">
        <ele>186.494</ele>
        <time>2019-12-03T11:27:06Z</time>
      </trkpt>
      <trkpt lat="44.79196" lon="1.53339">
        <ele>187.317</ele>
        <time>2019-12-03T11:27:26Z</time>
      </trkpt>
      <trkpt lat="44.79231" lon="1.53261">
        <ele>185.551</ele>
        <time>2019-12-03T11:27:46Z</time>
      </trkpt>
      <trkpt lat="44.79232" lon="1.53215">
        <ele>183.336</ele>
        <time>2019-12-03T11:28:06Z</time>
      </trkpt>
      <trkpt lat="44.7917" lon="1.53088">
        <ele>174.243</ele>
        <time>2019-12-03T11:28:26Z</time>
      </trkpt>
      <trkpt lat="44.79128" lon="1.53027">
        <ele>168.823</ele>
        <time>2019-12-03T11:28:46Z</time>
      </trkpt>
      <trkpt lat="44.79128" lon="1.52927">
        <ele>163.514</ele>
        <time>2019-12-03T11:29:06Z</time>
      </trkpt>
      <trkpt lat="44.79102" lon="1.52856">
        <ele>159.796</ele>
        <time>2019-12-03T11:29:26Z</time>
      </trkpt>
      <trkpt lat="44.79049" lon="1.5284">
        <ele>159.357</ele>
        <time>2019-12-03T11:29:46Z</time>
      </trkpt>
      <trkpt lat="44.7893" lon="1.52838">
        <ele>162</ele>
        <time>2019-12-03T11:30:06Z</time>
      </trkpt>
      <trkpt lat="44.78894" lon="1.52854">
        <ele>163.82</ele>
        <time>2019-12-03T11:30:26Z</time>
      </trkpt>
      <trkpt lat="44.78833" lon="1.52909">
        <ele>167.108</ele>
        <time>2019-12-03T11:30:46Z</time>
      </trkpt>
      <trkpt lat="44.78789" lon="1.52913">
        <ele>167.642</ele>
        <time>2019-12-03T11:31:06Z</time>
      </trkpt>
      <trkpt lat="44.78735" lon="1.52874">
        <ele>168.995</ele>
        <time>2019-12-03T11:31:26Z</time>
      </trkpt>
      <trkpt lat="44.7864" lon="1.52766">
        <ele>179.199</ele>
        <time>2019-12-03T11:31:46Z</time>
      </trkpt>
      <trkpt lat="44.78668" lon="1.52735">
        <ele>172.634</ele>
        <time>2019-12-03T11:32:06Z</time>
      </trkpt>
      <trkpt lat="44.78636" lon="1.52574">
        <ele>176.031</ele>
        <time>2019-12-03T11:32:26Z</time>
      </trkpt>
      <trkpt lat="44.78602" lon="1.52498">
        <ele>177.571</ele>
        <time>2019-12-03T11:32:46Z</time>
      </trkpt>
      <trkpt lat="44.78599" lon="1.52435">
        <ele>178.822</ele>
        <time>2019-12-03T11:33:06Z</time>
      </trkpt>
      <trkpt lat="44.78539" lon="1.52339">
        <ele>182.624</ele>
        <time>2019-12-03T11:33:26Z</time>
      </trkpt>
      <trkpt lat="44.78528" lon="1.52285">
        <ele>187.764</ele>
        <time>2019-12-03T11:33:46Z</time>
      </trkpt>
      <trkpt lat="44.78488" lon="1.52249">
        <ele>184.306</ele>
        <time>2019-12-03T11:34:06Z</time>
      </trkpt>
      <trkpt lat="44.78437" lon="1.52137">
        <ele>190.116</ele>
        <time>2019-12-03T11:34:26Z</time>
      </trkpt>
      <trkpt lat="44.78361" lon="1.52052">
        <ele>189.008</ele>
        <time>2019-12-03T11:34:46Z</time>
      </trkpt>
      <trkpt lat="44.78265" lon="1.51906">
        <ele>198.223</ele>
        <time>2019-12-03T11:35:06Z</time>
      </trkpt>
      <trkpt lat="44.78222" lon="1.51826">
        <ele>200.546</ele>
        <time>2019-12-03T11:35:26Z</time>
      </trkpt>
      <trkpt lat="44.78162" lon="1.5176">
        <ele>197.56</ele>
        <time>2019-12-03T11:35:46Z</time>
      </trkpt>
      <trkpt lat="44.78045" lon="1.51558">
        <ele>205.515</ele>
        <time>2019-12-03T11:36:06Z</time>
      </trkpt>
      <trkpt lat="44.7803" lon="1.51509">
        <ele>205.362</ele>
        <time>2019-12-03T11:36:26Z</time>
      </trkpt>
      <trkpt lat="44.77986" lon="1.51439">
        <ele>206.562</ele>
        <time>2019-12-03T11:36:46Z</time>
      </trkpt>
      <trkpt lat="44.77959" lon="1.51337">
        <ele>209.613</ele>
        <time>2019-12-03T11:37:06Z</time>
      </trkpt>
      <trkpt lat="44.77931" lon="1.51275">
        <ele>209.645</ele>
        <time>2019-12-03T11:37:26Z</time>
      </trkpt>
      <trkpt lat="44.7791" lon="1.51127">
        <ele>207.053</ele>
        <time>2019-12-03T11:37:46Z</time>
      </trkpt>
      <trkpt lat="44.77916" lon="1.51034">
        <ele>205.804</ele>
        <time>2019-12-03T11:38:06Z</time>
      </trkpt>
      <trkpt lat="44.77951" lon="1.50877">
        <ele>215.814</ele>
        <time>2019-12-03T11:38:26Z</time>
      </trkpt>
      <trkpt lat="44.77951" lon="1.5076">
        <ele>216.408</ele>
        <time>2019-12-03T11:38:46Z</time>
      </trkpt>
      <trkpt lat="44.77964" lon="1.50669">
        <ele>215.612</ele>
        <time>2019-12-03T11:39:06Z</time>
      </trkpt>
      <trkpt lat="44.77985" lon="1.50628">
        <ele>215.785</ele>
        <time>2019-12-03T11:39:26Z</time>
      </trkpt>
      <trkpt lat="44.78019" lon="1.50524">
        <ele>219.579</ele>
        <time>2019-12-03T11:39:46Z</time>
      </trkpt>
      <trkpt lat="44.78065" lon="1.50426">
        <ele>220.684</ele>
        <time>2019-12-03T11:40:06Z</time>
      </trkpt>
      <trkpt lat="44.78079" lon="1.50356">
        <ele>223.181</ele>
        <time>2019-12-03T11:40:26Z</time>
      </trkpt>
      <trkpt lat="44.78132" lon="1.50231">
        <ele>229.481</ele>
        <time>2019-12-03T11:40:46Z</time>
      </trkpt>
      <trkpt lat="44.78142" lon="1.50168">
        <ele>227.992</ele>
        <time>2019-12-03T11:41:06Z</time>
      </trkpt>
      <trkpt lat="44.78121" lon="1.50073">
        <ele>227.764</ele>
        <time>2019-12-03T11:41:26Z</time>
      </trkpt>
      <trkpt lat="44.78034" lon="1.49895">
        <ele>234.968</ele>
        <time>2019-12-03T11:41:46Z</time>
      </trkpt>
      <trkpt lat="44.77943" lon="1.49766">
        <ele>234.042</ele>
        <time>2019-12-03T11:42:06Z</time>
      </trkpt>
      <trkpt lat="44.77921" lon="1.49677">
        <ele>236.526</ele>
        <time>2019-12-03T11:42:26Z</time>
      </trkpt>
      <trkpt lat="44.77918" lon="1.49573">
        <ele>237.808</ele>
        <time>2019-12-03T11:42:46Z</time>
      </trkpt>
      <trkpt lat="44.77868" lon="1.49556">
        <ele>237.063</ele>
        <time>2019-12-03T11:43:06Z</time>
      </trkpt>
      <trkpt lat="44.77845" lon="1.49483">
        <ele>237.236</ele>
        <time>2019-12-03T11:43:26Z</time>
      </trkpt>
      <trkpt lat="44.77821" lon="1.49447">
        <ele>239.17</ele>
        <time>2019-12-03T11:43:46Z</time>
      </trkpt>
      <trkpt lat="44.77808" lon="1.49389">
        <ele>239.215</ele>
        <time>2019-12-03T11:44:06Z</time>
      </trkpt>
      <trkpt lat="44.77766" lon="1.49325">
        <ele>241.932</ele>
        <time>2019-12-03T11:44:26Z</time>
      </trkpt>
      <trkpt lat="44.77732" lon="1.49303">
        <ele>246.942</ele>
        <time>2019-12-03T11:44:46Z</time>
      </trkpt>
      <trkpt lat="44.77694" lon="1.49241">
        <ele>246.493</ele>
        <time>2019-12-03T11:45:06Z</time>
      </trkpt>
      <trkpt lat="44.77616" lon="1.49192">
        <ele>248.365</ele>
        <time>2019-12-03T11:45:26Z</time>
      </trkpt>
      <trkpt lat="44.77451" lon="1.49036">
        <ele>256.426</ele>
        <time>2019-12-03T11:45:46Z</time>
      </trkpt>
      <trkpt lat="44.77389" lon="1.48968">
        <ele>256.647</ele>
        <time>2019-12-03T11:46:06Z</time>
      </trkpt>
      <trkpt lat="44.77317" lon="1.48937">
        <ele>260.111</ele>
        <time>2019-12-03T11:46:26Z</time>
      </trkpt>
      <trkpt lat="44.77127" lon="1.48872">
        <ele>266.308</ele>
        <time>2019-12-03T11:46:46Z</time>
      </trkpt>
      <trkpt lat="44.77037" lon="1.48857">
        <ele>267.519</ele>
        <time>2019-12-03T11:47:06Z</time>
      </trkpt>
      <trkpt lat="44.76968" lon="1.48883">
        <ele>270.132</ele>
        <time>2019-12-03T11:47:26Z</time>
      </trkpt>
      <trkpt lat="44.76943" lon="1.48933">
        <ele>274.836</ele>
        <time>2019-12-03T11:47:46Z</time>
      </trkpt>
      <trkpt lat="44.76897" lon="1.48894">
        <ele>272.261</ele>
        <time>2019-12-03T11:48:06Z</time>
      </trkpt>
      <trkpt lat="44.76892" lon="1.48852">
        <ele>273.558</ele>
        <time>2019-12-03T11:48:26Z</time>
      </trkpt>
      <trkpt lat="44.76992" lon="1.4882">
        <ele>269.668</ele>
        <time>2019-12-03T11:48:46Z</time>
      </trkpt>
      <trkpt lat="44.77002" lon="1.48789">
        <ele>269.999</ele>
        <time>2019-12-03T11:49:06Z</time>
      </trkpt>
      <trkpt lat="44.76942" lon="1.48639">
        <ele>290.251</ele>
        <time>2019-12-03T11:49:26Z</time>
      </trkpt>
      <trkpt lat="44.76944" lon="1.48559">
        <ele>295.861</ele>
        <time>2019-12-03T11:49:46Z</time>
      </trkpt>
      <trkpt lat="44.76968" lon="1.48476">
        <ele>306.021</ele>
        <time>2019-12-03T11:50:06Z</time>
      </trkpt>
      <trkpt lat="44.76932" lon="1.48418">
        <ele>309.613</ele>
        <time>2019-12-03T11:50:26Z</time>
      </trkpt>
      <trkpt lat="44.76914" lon="1.4825">
        <ele>332.008</ele>
        <time>2019-12-03T11:50:46Z</time>
      </trkpt>
      <trkpt lat="44.76905" lon="1.48202">
        <ele>337.653</ele>
        <time>2019-12-03T11:51:06Z</time>
      </trkpt>
      <trkpt lat="44.76876" lon="1.48175">
        <ele>339.036</ele>
        <time>2019-12-03T11:51:26Z</time>
      </trkpt>
      <trkpt lat="44.76814" lon="1.48098">
        <ele>350.48</ele>
        <time>2019-12-03T11:51:46Z</time>
      </trkpt>
      <trkpt lat="44.76767" lon="1.48029">
        <ele>354.725</ele>
        <time>2019-12-03T11:52:06Z</time>
      </trkpt>
      <trkpt lat="44.76737" lon="1.48006">
        <ele>359.182</ele>
        <time>2019-12-03T11:52:26Z</time>
      </trkpt>
      <trkpt lat="44.767" lon="1.47997">
        <ele>360.282</ele>
        <time>2019-12-03T11:52:46Z</time>
      </trkpt>
      <trkpt lat="44.7665" lon="1.47941">
        <ele>364.033</ele>
        <time>2019-12-03T11:53:06Z</time>
      </trkpt>
      <trkpt lat="44.76532" lon="1.48124">
        <ele>373.985</ele>
        <time>2019-12-03T11:53:26Z</time>
      </trkpt>
      <trkpt lat="44.76506" lon="1.48091">
        <ele>373.317</ele>
        <time>2019-12-03T11:53:46Z</time>
      </trkpt>
      <trkpt lat="44.76468" lon="1.4808">
        <ele>369.187</ele>
        <time>2019-12-03T11:54:06Z</time>
      </trkpt>
      <trkpt lat="44.76399" lon="1.48161">
        <ele>370.115</ele>
        <time>2019-12-03T11:54:26Z</time>
      </trkpt>
      <trkpt lat="44.76341" lon="1.48161">
        <ele>370.008</ele>
        <time>2019-12-03T11:54:46Z</time>
      </trkpt>
      <trkpt lat="44.76285" lon="1.4821">
        <ele>374.448</ele>
        <time>2019-12-03T11:55:06Z</time>
      </trkpt>
      <trkpt lat="44.76188" lon="1.48262">
        <ele>372.731</ele>
        <time>2019-12-03T11:55:26Z</time>
      </trkpt>
      <trkpt lat="44.75993" lon="1.48259">
        <ele>369.765</ele>
        <time>2019-12-03T11:55:46Z</time>
      </trkpt>
      <trkpt lat="44.7596" lon="1.48249">
        <ele>368.76</ele>
        <time>2019-12-03T11:56:06Z</time>
      </trkpt>
      <trkpt lat="44.75856" lon="1.48192">
        <ele>365.727</ele>
        <time>2019-12-03T11:56:26Z</time>
      </trkpt>
      <trkpt lat="44.75811" lon="1.48026">
        <ele>359.877</ele>
        <time>2019-12-03T11:56:46Z</time>
      </trkpt>
      <trkpt lat="44.75716" lon="1.48003">
        <ele>363.338</ele>
        <time>2019-12-03T11:57:06Z</time>
      </trkpt>
      <trkpt lat="44.75657" lon="1.47943">
        <ele>362.21</ele>
        <time>2019-12-03T11:57:26Z</time>
      </trkpt>
      <trkpt lat="44.75591" lon="1.47961">
        <ele>361.523</ele>
        <time>2019-12-03T11:57:46Z</time>
      </trkpt>
      <trkpt lat="44.75523" lon="1.48003">
        <ele>359.183</ele>
        <time>2019-12-03T11:58:06Z</time>
      </trkpt>
      <trkpt lat="44.7553" lon="1.47948">
        <ele>359.311</ele>
        <time>2019-12-03T11:58:26Z</time>
      </trkpt>
      <trkpt lat="44.75573" lon="1.47894">
        <ele>358.408</ele>
        <time>2019-12-03T11:58:46Z</time>
      </trkpt>
      <trkpt lat="44.75614" lon="1.47821">
        <ele>355.999</ele>
        <time>2019-12-03T11:59:06Z</time>
      </trkpt>
      <trkpt lat="44.75672" lon="1.47798">
        <ele>358.872</ele>
        <time>2019-12-03T11:59:26Z</time>
      </trkpt>
      <trkpt lat="44.75733" lon="1.47655">
        <ele>350.766</ele>
        <time>2019-12-03T11:59:46Z</time>
      </trkpt>
      <trkpt lat="44.75707" lon="1.47589">
        <ele>345.811</ele>
        <time>2019-12-03T12:00:06Z</time>
      </trkpt>
      <trkpt lat="44.75736" lon="1.47559">
        <ele>342.018</ele>
        <time>2019-12-03T12:00:26Z</time>
      </trkpt>
      <trkpt lat="44.75734" lon="1.47455">
        <ele>333.558</ele>
        <time>2019-12-03T12:00:46Z</time>
      </trkpt>
      <trkpt lat="44.75715" lon="1.47384">
        <ele>328.629</ele>
        <time>2019-12-03T12:01:06Z</time>
      </trkpt>
      <trkpt lat="44.75583" lon="1.47189">
        <ele>307.221</ele>
        <time>2019-12-03T12:01:26Z</time>
      </trkpt>
      <trkpt lat="44.75509" lon="1.47097">
        <ele>296.011</ele>
        <time>2019-12-03T12:01:46Z</time>
      </trkpt>
      <trkpt lat="44.75478" lon="1.47146">
        <ele>299.921</ele>
        <time>2019-12-03T12:02:06Z</time>
      </trkpt>
      <trkpt lat="44.7547" lon="1.4719">
        <ele>301.803</ele>
        <time>2019-12-03T12:02:26Z</time>
      </trkpt>
      <trkpt lat="44.75413" lon="1.47187">
        <ele>302.308</ele>
        <time>2019-12-03T12:02:46Z</time>
      </trkpt>
      <trkpt lat="44.75365" lon="1.47211">
        <ele>305.058</ele>
        <time>2019-12-03T12:03:06Z</time>
      </trkpt>
      <trkpt lat="44.753" lon="1.47219">
        <ele>308.731</ele>
        <time>2019-12-03T12:03:26Z</time>
      </trkpt>
      <trkpt lat="44.75277" lon="1.47089">
        <ele>308.245</ele>
        <time>2019-12-03T12:03:46Z</time>
      </trkpt>
      <trkpt lat="44.75242" lon="1.47086">
        <ele>306.84</ele>
        <time>2019-12-03T12:04:06Z</time>
      </trkpt>
      <trkpt lat="44.7516" lon="1.4699">
        <ele>307.047</ele>
        <time>2019-12-03T12:04:26Z</time>
      </trkpt>
      <trkpt lat="44.75223" lon="1.46889">
        <ele>296.647</ele>
        <time>2019-12-03T12:04:46Z</time>
      </trkpt>
      <trkpt lat="44.75223" lon="1.46844">
        <ele>295.268</ele>
        <time>2019-12-03T12:05:06Z</time>
      </trkpt>
      <trkpt lat="44.75207" lon="1.46699">
        <ele>288.49</ele>
        <time>2019-12-03T12:05:26Z</time>
      </trkpt>
      <trkpt lat="44.75208" lon="1.46593">
        <ele>280.815</ele>
        <time>2019-12-03T12:05:46Z</time>
      </trkpt>
      <trkpt lat="44.75223" lon="1.46514">
        <ele>275.365</ele>
        <time>2019-12-03T12:06:06Z</time>
      </trkpt>
      <trkpt lat="44.75192" lon="1.4648">
        <ele>273.511</ele>
        <time>2019-12-03T12:06:26Z</time>
      </trkpt>
      <trkpt lat="44.75148" lon="1.464">
        <ele>270.808</ele>
        <time>2019-12-03T12:06:46Z</time>
      </trkpt>
      <trkpt lat="44.75028" lon="1.46279">
        <ele>268.478</ele>
        <time>2019-12-03T12:07:06Z</time>
      </trkpt>
      <trkpt lat="44.74929" lon="1.46257">
        <ele>266.851</ele>
        <time>2019-12-03T12:07:26Z</time>
      </trkpt>
      <trkpt lat="44.74903" lon="1.46224">
        <ele>266.715</ele>
        <time>2019-12-03T12:07:46Z</time>
      </trkpt>
      <trkpt lat="44.74866" lon="1.46141">
        <ele>269.91</ele>
        <time>2019-12-03T12:08:06Z</time>
      </trkpt>
      <trkpt lat="44.74823" lon="1.46107">
        <ele>265.757</ele>
        <time>2019-12-03T12:08:26Z</time>
      </trkpt>
      <trkpt lat="44.74745" lon="1.46094">
        <ele>262.977</ele>
        <time>2019-12-03T12:08:46Z</time>
      </trkpt>
      <trkpt lat="44.74692" lon="1.46056">
        <ele>263.248</ele>
        <time>2019-12-03T12:09:06Z</time>
      </trkpt>
      <trkpt lat="44.74641" lon="1.46003">
        <ele>260.21</ele>
        <time>2019-12-03T12:09:26Z</time>
      </trkpt>
      <trkpt lat="44.74564" lon="1.45984">
        <ele>255.915</ele>
        <time>2019-12-03T12:09:46Z</time>
      </trkpt>
      <trkpt lat="44.74526" lon="1.45956">
        <ele>254.965</ele>
        <time>2019-12-03T12:10:06Z</time>
      </trkpt>
      <trkpt lat="44.74502" lon="1.45914">
        <ele>251.511</ele>
        <time>2019-12-03T12:10:26Z</time>
      </trkpt>
      <trkpt lat="44.74467" lon="1.4578">
        <ele>250.108</ele>
        <time>2019-12-03T12:10:46Z</time>
      </trkpt>
      <trkpt lat="44.7444" lon="1.45647">
        <ele>248.278</ele>
        <time>2019-12-03T12:11:06Z</time>
      </trkpt>
      <trkpt lat="44.74446" lon="1.45526">
        <ele>247.251</ele>
        <time>2019-12-03T12:11:26Z</time>
      </trkpt>
      <trkpt lat="44.74439" lon="1.45396">
        <ele>247.565</ele>
        <time>2019-12-03T12:11:46Z</time>
      </trkpt>
      <trkpt lat="44.74389" lon="1.4511">
        <ele>239.69</ele>
        <time>2019-12-03T12:12:06Z</time>
      </trkpt>
      <trkpt lat="44.74346" lon="1.44904">
        <ele>238.137</ele>
        <time>2019-12-03T12:12:26Z</time>
      </trkpt>
      <trkpt lat="44.7434" lon="1.44839">
        <ele>237.877</ele>
        <time>2019-12-03T12:12:46Z</time>
      </trkpt>
      <trkpt lat="44.74292" lon="1.44743">
        <ele>236.298</ele>
        <time>2019-12-03T12:13:06Z</time>
      </trkpt>
      <trkpt lat="44.74279" lon="1.44674">
        <ele>234.95</ele>
        <time>2019-12-03T12:13:26Z</time>
      </trkpt>
      <trkpt lat="44.7427" lon="1.44271">
        <ele>232.487</ele>
        <time>2019-12-03T12:13:46Z</time>
      </trkpt>
      <trkpt lat="44.7425" lon="1.44235">
        <ele>230.742</ele>
        <time>2019-12-03T12:14:06Z</time>
      </trkpt>
      <trkpt lat="44.74246" lon="1.44089">
        <ele>227.826</ele>
        <time>2019-12-03T12:14:26Z</time>
      </trkpt>
      <trkpt lat="44.74197" lon="1.44066">
        <ele>229.408</ele>
        <time>2019-12-03T12:14:46Z</time>
      </trkpt>
      <trkpt lat="44.74186" lon="1.44043">
        <ele>229.325</ele>
        <time>2019-12-03T12:15:06Z</time>
      </trkpt>
      <trkpt lat="44.74158" lon="1.44027">
        <ele>233.738</ele>
        <time>2019-12-03T12:15:26Z</time>
      </trkpt>
      <trkpt lat="44.7415" lon="1.43996">
        <ele>230.842</ele>
        <time>2019-12-03T12:15:46Z</time>
      </trkpt>
      <trkpt lat="44.74143" lon="1.43991">
        <ele>231.157</ele>
        <time>2019-12-03T12:16:06Z</time>
      </trkpt>
      <trkpt lat="44.74137" lon="1.43931">
        <ele>230.144</ele>
        <time>2019-12-03T12:16:26Z</time>
      </trkpt>
      <trkpt lat="44.74148" lon="1.43856">
        <ele>226.974</ele>
        <time>2019-12-03T12:16:46Z</time>
      </trkpt>
      <trkpt lat="44.74113" lon="1.4385">
        <ele>227.725</ele>
        <time>2019-12-03T12:17:06Z</time>
      </trkpt>
      <trkpt lat="44.74005" lon="1.43913">
        <ele>232.777</ele>
        <time>2019-12-03T12:17:26Z</time>
      </trkpt>
      <trkpt lat="44.73796" lon="1.438">
        <ele>237.337</ele>
        <time>2019-12-03T12:17:46Z</time>
      </trkpt>
      <trkpt lat="44.73813" lon="1.43731">
        <ele>244.449</ele>
        <time>2019-12-03T12:18:06Z</time>
      </trkpt>
      <trkpt lat="44.73802" lon="1.43676">
        <ele>248.013</ele>
        <time>2019-12-03T12:18:26Z</time>
      </trkpt>
      <trkpt lat="44.73801" lon="1.43614">
        <ele>256.908</ele>
        <time>2019-12-03T12:18:46Z</time>
      </trkpt>
      <trkpt lat="44.73787" lon="1.43544">
        <ele>268.98</ele>
        <time>2019-12-03T12:19:06Z</time>
      </trkpt>
      <trkpt lat="44.73786" lon="1.43473">
        <ele>277.583</ele>
        <time>2019-12-03T12:19:26Z</time>
      </trkpt>
      <trkpt lat="44.73773" lon="1.43419">
        <ele>278.897</ele>
        <time>2019-12-03T12:19:46Z</time>
      </trkpt>
      <trkpt lat="44.73756" lon="1.43299">
        <ele>280.942</ele>
        <time>2019-12-03T12:20:06Z</time>
      </trkpt>
      <trkpt lat="44.73956" lon="1.43289">
        <ele>271.739</ele>
        <time>2019-12-03T12:20:26Z</time>
      </trkpt>
      <trkpt lat="44.7399" lon="1.43265">
        <ele>270.449</ele>
        <time>2019-12-03T12:20:46Z</time>
      </trkpt>
      <trkpt lat="44.74075" lon="1.43182">
        <ele>254.86</ele>
        <time>2019-12-03T12:21:06Z</time>
      </trkpt>
      <trkpt lat="44.74145" lon="1.42866">
        <ele>226.142</ele>
        <time>2019-12-03T12:21:26Z</time>
      </trkpt>
      <trkpt lat="44.74168" lon="1.42825">
        <ele>221.647</ele>
        <time>2019-12-03T12:21:46Z</time>
      </trkpt>
      <trkpt lat="44.74202" lon="1.42822">
        <ele>219.029</ele>
        <time>2019-12-03T12:22:06Z</time>
      </trkpt>
      <trkpt lat="44.74202" lon="1.42785">
        <ele>218.321</ele>
        <time>2019-12-03T12:22:26Z</time>
      </trkpt>
      <trkpt lat="44.74173" lon="1.42752">
        <ele>218.108</ele>
        <time>2019-12-03T12:22:46Z</time>
      </trkpt>
      <trkpt lat="44.74103" lon="1.42507">
        <ele>217.441</ele>
        <time>2019-12-03T12:23:06Z</time>
      </trkpt>
      <trkpt lat="44.74054" lon="1.4237">
        <ele>217.074</ele>
        <time>2019-12-03T12:23:26Z</time>
      </trkpt>
      <trkpt lat="44.74004" lon="1.42284">
        <ele>217.888</ele>
        <time>2019-12-03T12:23:46Z</time>
      </trkpt>
      <trkpt lat="44.73978" lon="1.42204">
        <ele>228.113</ele>
        <time>2019-12-03T12:24:06Z</time>
      </trkpt>
      <trkpt lat="44.73978" lon="1.421">
        <ele>225.25</ele>
        <time>2019-12-03T12:24:26Z</time>
      </trkpt>
      <trkpt lat="44.73956" lon="1.42009">
        <ele>223.71</ele>
        <time>2019-12-03T12:24:46Z</time>
      </trkpt>
      <trkpt lat="44.73944" lon="1.41923">
        <ele>217.571</ele>
        <time>2019-12-03T12:25:06Z</time>
      </trkpt>
      <trkpt lat="44.73903" lon="1.41806">
        <ele>213.093</ele>
        <time>2019-12-03T12:25:26Z</time>
      </trkpt>
      <trkpt lat="44.73879" lon="1.4172">
        <ele>210.679</ele>
        <time>2019-12-03T12:25:46Z</time>
      </trkpt>
      <trkpt lat="44.73877" lon="1.4166">
        <ele>211.205</ele>
        <time>2019-12-03T12:26:06Z</time>
      </trkpt>
      <trkpt lat="44.73881" lon="1.41536">
        <ele>212.225</ele>
        <time>2019-12-03T12:26:26Z</time>
      </trkpt>
      <trkpt lat="44.73922" lon="1.41476">
        <ele>207.408</ele>
        <time>2019-12-03T12:26:46Z</time>
      </trkpt>
      <trkpt lat="44.73972" lon="1.41372">
        <ele>207.114</ele>
        <time>2019-12-03T12:27:06Z</time>
      </trkpt>
      <trkpt lat="44.73978" lon="1.41316">
        <ele>206.467</ele>
        <time>2019-12-03T12:27:26Z</time>
      </trkpt>
      <trkpt lat="44.73913" lon="1.413">
        <ele>208.021</ele>
        <time>2019-12-03T12:27:46Z</time>
      </trkpt>
      <trkpt lat="44.73829" lon="1.41292">
        <ele>215.716</ele>
        <time>2019-12-03T12:28:06Z</time>
      </trkpt>
      <trkpt lat="44.73766" lon="1.41272">
        <ele>219.563</ele>
        <time>2019-12-03T12:28:26Z</time>
      </trkpt>
      <trkpt lat="44.73809" lon="1.41167">
        <ele>218.113</ele>
        <time>2019-12-03T12:28:46Z</time>
      </trkpt>
      <trkpt lat="44.73809" lon="1.41085">
        <ele>219.454</ele>
        <time>2019-12-03T12:29:06Z</time>
      </trkpt>
      <trkpt lat="44.73798" lon="1.40994">
        <ele>214.686</ele>
        <time>2019-12-03T12:29:26Z</time>
      </trkpt>
      <trkpt lat="44.73796" lon="1.40908">
        <ele>212.117</ele>
        <time>2019-12-03T12:29:46Z</time>
      </trkpt>
      <trkpt lat="44.73803" lon="1.40837">
        <ele>211.687</ele>
        <time>2019-12-03T12:30:06Z</time>
      </trkpt>
      <trkpt lat="44.73817" lon="1.40799">
        <ele>212.215</ele>
        <time>2019-12-03T12:30:26Z</time>
      </trkpt>
      <trkpt lat="44.73823" lon="1.40716">
        <ele>216.508</ele>
        <time>2019-12-03T12:30:46Z</time>
      </trkpt>
      <trkpt lat="44.74056" lon="1.40541">
        <ele>206.828</ele>
        <time>2019-12-03T12:31:06Z</time>
      </trkpt>
      <trkpt lat="44.74034" lon="1.40415">
        <ele>204.031</ele>
        <time>2019-12-03T12:31:26Z</time>
      </trkpt>
      <trkpt lat="44.74034" lon="1.40365">
        <ele>204.035</ele>
        <time>2019-12-03T12:31:46Z</time>
      </trkpt>
      <trkpt lat="44.74056" lon="1.40224">
        <ele>204.08</ele>
        <time>2019-12-03T12:32:06Z</time>
      </trkpt>
      <trkpt lat="44.74082" lon="1.40198">
        <ele>204.567</ele>
        <time>2019-12-03T12:32:26Z</time>
      </trkpt>
      <trkpt lat="44.74084" lon="1.40027">
        <ele>207.037</ele>
        <time>2019-12-03T12:32:46Z</time>
      </trkpt>
      <trkpt lat="44.74074" lon="1.39789">
        <ele>208.868</ele>
        <time>2019-12-03T12:33:06Z</time>
      </trkpt>
      <trkpt lat="44.74044" lon="1.39711">
        <ele>212.53</ele>
        <time>2019-12-03T12:33:26Z</time>
      </trkpt>
      <trkpt lat="44.74061" lon="1.39676">
        <ele>214.014</ele>
        <time>2019-12-03T12:33:46Z</time>
      </trkpt>
      <trkpt lat="44.74037" lon="1.39628">
        <ele>216.454</ele>
        <time>2019-12-03T12:34:06Z</time>
      </trkpt>
      <trkpt lat="44.7401" lon="1.39617">
        <ele>216.809</ele>
        <time>2019-12-03T12:34:26Z</time>
      </trkpt>
      <trkpt lat="44.73947" lon="1.39667">
        <ele>206.808</ele>
        <time>2019-12-03T12:34:46Z</time>
      </trkpt>
      <trkpt lat="44.73921" lon="1.39671">
        <ele>206.018</ele>
        <time>2019-12-03T12:35:06Z</time>
      </trkpt>
      <trkpt lat="44.7381" lon="1.3962">
        <ele>206.691</ele>
        <time>2019-12-03T12:35:26Z</time>
      </trkpt>
      <trkpt lat="44.73771" lon="1.39622">
        <ele>204.915</ele>
        <time>2019-12-03T12:35:46Z</time>
      </trkpt>
      <trkpt lat="44.73686" lon="1.39742">
        <ele>196.72</ele>
        <time>2019-12-03T12:36:06Z</time>
      </trkpt>
      <trkpt lat="44.73684" lon="1.39778">
        <ele>198.987</ele>
        <time>2019-12-03T12:36:26Z</time>
      </trkpt>
      <trkpt lat="44.73699" lon="1.39828">
        <ele>200.727</ele>
        <time>2019-12-03T12:36:46Z</time>
      </trkpt>
      <trkpt lat="44.73593" lon="1.39789">
        <ele>203.318</ele>
        <time>2019-12-03T12:37:06Z</time>
      </trkpt>
      <trkpt lat="44.73519" lon="1.39732">
        <ele>202.18</ele>
        <time>2019-12-03T12:37:26Z</time>
      </trkpt>
      <trkpt lat="44.73481" lon="1.39682">
        <ele>208.673</ele>
        <time>2019-12-03T12:37:46Z</time>
      </trkpt>
      <trkpt lat="44.73429" lon="1.39606">
        <ele>204.285</ele>
        <time>2019-12-03T12:38:06Z</time>
      </trkpt>
      <trkpt lat="44.73348" lon="1.39516">
        <ele>210.713</ele>
        <time>2019-12-03T12:38:26Z</time>
      </trkpt>
      <trkpt lat="44.73302" lon="1.39443">
        <ele>216.008</ele>
        <time>2019-12-03T12:38:46Z</time>
      </trkpt>
      <trkpt lat="44.73271" lon="1.39342">
        <ele>209.154</ele>
        <time>2019-12-03T12:39:06Z</time>
      </trkpt>
      <trkpt lat="44.73265" lon="1.39292">
        <ele>201.957</ele>
        <time>2019-12-03T12:39:26Z</time>
      </trkpt>
      <trkpt lat="44.73265" lon="1.39254">
        <ele>201.091</ele>
        <time>2019-12-03T12:39:46Z</time>
      </trkpt>
      <trkpt lat="44.73287" lon="1.39241">
        <ele>196.496</ele>
        <time>2019-12-03T12:40:06Z</time>
      </trkpt>
      <trkpt lat="44.73277" lon="1.39196">
        <ele>195.883</ele>
        <time>2019-12-03T12:40:26Z</time>
      </trkpt>
      <trkpt lat="44.73281" lon="1.39176">
        <ele>195.443</ele>
        <time>2019-12-03T12:40:46Z</time>
      </trkpt>
      <trkpt lat="44.73293" lon="1.39165">
        <ele>193.064</ele>
        <time>2019-12-03T12:41:06Z</time>
      </trkpt>
      <trkpt lat="44.73307" lon="1.39133">
        <ele>192.466</ele>
        <time>2019-12-03T12:41:26Z</time>
      </trkpt>
      <trkpt lat="44.7335" lon="1.39119">
        <ele>194.324</ele>
        <time>2019-12-03T12:41:46Z</time>
      </trkpt>
      <trkpt lat="44.73361" lon="1.391">
        <ele>194.604</ele>
        <time>2019-12-03T12:42:06Z</time>
      </trkpt>
      <trkpt lat="44.73373" lon="1.39074">
        <ele>195.814</ele>
        <time>2019-12-03T12:42:26Z</time>
      </trkpt>
      <trkpt lat="44.73411" lon="1.39026">
        <ele>198.108</ele>
        <time>2019-12-03T12:42:46Z</time>
      </trkpt>
      <trkpt lat="44.73419" lon="1.38919">
        <ele>202.299</ele>
        <time>2019-12-03T12:43:06Z</time>
      </trkpt>
      <trkpt lat="44.73438" lon="1.3888">
        <ele>208.962</ele>
        <time>2019-12-03T12:43:26Z</time>
      </trkpt>
      <trkpt lat="44.73506" lon="1.38799">
        <ele>218.246</ele>
        <time>2019-12-03T12:43:46Z</time>
      </trkpt>
      <trkpt lat="44.73533" lon="1.38732">
        <ele>222.211</ele>
        <time>2021-01-04T21:23:42Z</time>
      </trkpt>
      <trkpt lat="44.73587" lon="1.38661">
        <ele>224.588</ele>
        <time>2021-01-04T21:24:02Z</time>
      </trkpt>
      <trkpt lat="44.73673" lon="1.38635">
        <ele>227.728</ele>
        <time>2021-01-04T21:24:22Z</time>
      </trkpt>
      <trkpt lat="44.73705" lon="1.38553">
        <ele>234.769</ele>
        <time>2021-01-04T21:24:42Z</time>
      </trkpt>
      <trkpt lat="44.73717" lon="1.38492">
        <ele>240.091</ele>
        <time>2021-01-04T21:25:02Z</time>
      </trkpt>
      <trkpt lat="44.73751" lon="1.38491">
        <ele>240.892</ele>
        <time>2021-01-04T21:25:22Z</time>
      </trkpt>
      <trkpt lat="44.73749" lon="1.38447">
        <ele>245.173</ele>
        <time>2021-01-04T21:25:42Z</time>
      </trkpt>
      <trkpt lat="44.73735" lon="1.38446">
        <ele>244.92</ele>
        <time>2021-01-04T21:26:02Z</time>
      </trkpt>
      <trkpt lat="44.7371" lon="1.38315">
        <ele>258.708</ele>
        <time>2021-01-04T21:26:22Z</time>
      </trkpt>
      <trkpt lat="44.73694" lon="1.38281">
        <ele>260.056</ele>
        <time>2021-01-04T21:26:42Z</time>
      </trkpt>
      <trkpt lat="44.73687" lon="1.3822">
        <ele>260.839</ele>
        <time>2021-01-04T21:27:02Z</time>
      </trkpt>
      <trkpt lat="44.73703" lon="1.38183">
        <ele>260.343</ele>
        <time>2021-01-04T21:27:22Z</time>
      </trkpt>
      <trkpt lat="44.73637" lon="1.38145">
        <ele>255.448</ele>
        <time>2021-01-04T21:27:42Z</time>
      </trkpt>
      <trkpt lat="44.73584" lon="1.38066">
        <ele>249.795</ele>
        <time>2021-01-04T21:28:02Z</time>
      </trkpt>
      <trkpt lat="44.73709" lon="1.37981">
        <ele>242.415</ele>
        <time>2021-01-04T21:28:22Z</time>
      </trkpt>
      <trkpt lat="44.73594" lon="1.37923">
        <ele>240.926</ele>
        <time>2021-01-04T21:28:42Z</time>
      </trkpt>
      <trkpt lat="44.73642" lon="1.37817">
        <ele>237.598</ele>
        <time>2019-12-03T12:46:26Z</time>
      </trkpt>
      <trkpt lat="44.73582" lon="1.37762">
        <ele>242.712</ele>
        <time>2019-12-03T12:46:46Z</time>
      </trkpt>
      <trkpt lat="44.73523" lon="1.37735">
        <ele>245.732</ele>
        <time>2019-12-03T12:47:06Z</time>
      </trkpt>
      <trkpt lat="44.73527" lon="1.37661">
        <ele>243.405</ele>
        <time>2019-12-03T12:47:26Z</time>
      </trkpt>
      <trkpt lat="44.73515" lon="1.37326">
        <ele>220.808</ele>
        <time>2019-12-03T12:47:46Z</time>
      </trkpt>
      <trkpt lat="44.73482" lon="1.37184">
        <ele>217.198</ele>
        <time>2019-12-03T12:48:06Z</time>
      </trkpt>
      <trkpt lat="44.7345" lon="1.36992">
        <ele>211.511</ele>
        <time>2019-12-03T12:48:26Z</time>
      </trkpt>
      <trkpt lat="44.73381" lon="1.37104">
        <ele>215.575</ele>
        <time>2021-01-04T21:31:22Z</time>
      </trkpt>
      <trkpt lat="44.73325" lon="1.37147">
        <ele>219.11</ele>
        <time>2021-01-04T21:31:42Z</time>
      </trkpt>
      <trkpt lat="44.73292" lon="1.37095">
        <ele>220.617</ele>
        <time>2021-01-04T21:32:02Z</time>
      </trkpt>
      <trkpt lat="44.7328" lon="1.37102">
        <ele>221.747</ele>
        <time>2021-01-04T21:32:22Z</time>
      </trkpt>
      <trkpt lat="44.73264" lon="1.37049">
        <ele>222.788</ele>
        <time>2021-01-04T21:32:42Z</time>
      </trkpt>
      <trkpt lat="44.73233" lon="1.37118">
        <ele>225.12</ele>
        <time>2019-12-03T12:50:06Z</time>
      </trkpt>
      <trkpt lat="44.73163" lon="1.37153">
        <ele>228.523</ele>
        <time>2019-12-03T12:50:26Z</time>
      </trkpt>
      <trkpt lat="44.73151" lon="1.37074">
        <ele>226.783</ele>
        <time>2019-12-03T12:50:46Z</time>
      </trkpt>
      <trkpt lat="44.73153" lon="1.36934">
        <ele>224.411</ele>
        <time>2019-12-03T12:51:06Z</time>
      </trkpt>
      <trkpt lat="44.73141" lon="1.36771">
        <ele>223.008</ele>
        <time>2019-12-03T12:51:26Z</time>
      </trkpt>
      <trkpt lat="44.73129" lon="1.36731">
        <ele>221.879</ele>
        <time>2019-12-03T12:51:46Z</time>
      </trkpt>
      <trkpt lat="44.7314" lon="1.36622">
        <ele>219.962</ele>
        <time>2019-12-03T12:52:06Z</time>
      </trkpt>
      <trkpt lat="44.73132" lon="1.36503">
        <ele>217.546</ele>
        <time>2019-12-03T12:52:26Z</time>
      </trkpt>
      <trkpt lat="44.73112" lon="1.36412">
        <ele>214.321</ele>
        <time>2021-01-04T21:35:42Z</time>
      </trkpt>
      <trkpt lat="44.73073" lon="1.36329">
        <ele>209.958</ele>
        <time>2019-12-03T12:53:06Z</time>
      </trkpt>
      <trkpt lat="44.73078" lon="1.36267">
        <ele>208.168</ele>
        <time>2019-12-03T12:53:26Z</time>
      </trkpt>
      <trkpt lat="44.73095" lon="1.36204">
        <ele>207.129</ele>
        <time>2019-12-03T12:53:46Z</time>
      </trkpt>
      <trkpt lat="44.73092" lon="1.36163">
        <ele>201.961</ele>
        <time>2019-12-03T12:54:06Z</time>
      </trkpt>
      <trkpt lat="44.7298" lon="1.35932">
        <ele>184.718</ele>
        <time>2019-12-03T12:54:26Z</time>
      </trkpt>
      <trkpt lat="44.72951" lon="1.358">
        <ele>183.098</ele>
        <time>2019-12-03T12:54:46Z</time>
      </trkpt>
      <trkpt lat="44.72913" lon="1.35708">
        <ele>187.117</ele>
        <time>2019-12-03T12:55:06Z</time>
      </trkpt>
      <trkpt lat="44.72806" lon="1.35389">
        <ele>186.308</ele>
        <time>2019-12-03T12:55:26Z</time>
      </trkpt>
      <trkpt lat="44.72782" lon="1.35221">
        <ele>190.128</ele>
        <time>2019-12-03T12:55:46Z</time>
      </trkpt>
      <trkpt lat="44.72757" lon="1.3515">
        <ele>194.151</ele>
        <time>2019-12-03T12:56:06Z</time>
      </trkpt>
      <trkpt lat="44.7273" lon="1.3514">
        <ele>197.845</ele>
        <time>2019-12-03T12:56:26Z</time>
      </trkpt>
      <trkpt lat="44.72531" lon="1.35171">
        <ele>210.66</ele>
        <time>2019-12-03T12:56:46Z</time>
      </trkpt>
      <trkpt lat="44.72381" lon="1.35163">
        <ele>210.947</ele>
        <time>2019-12-03T12:57:06Z</time>
      </trkpt>
      <trkpt lat="44.72325" lon="1.35181">
        <ele>207.427</ele>
        <time>2019-12-03T12:57:26Z</time>
      </trkpt>
      <trkpt lat="44.72292" lon="1.35161">
        <ele>207.318</ele>
        <time>2019-12-03T12:57:46Z</time>
      </trkpt>
      <trkpt lat="44.72269" lon="1.35101">
        <ele>206.68</ele>
        <time>2019-12-03T12:58:06Z</time>
      </trkpt>
      <trkpt lat="44.72243" lon="1.35083">
        <ele>206.551</ele>
        <time>2019-12-03T12:58:26Z</time>
      </trkpt>
      <trkpt lat="44.72215" lon="1.35088">
        <ele>208.501</ele>
        <time>2019-12-03T12:58:46Z</time>
      </trkpt>
      <trkpt lat="44.72139" lon="1.35138">
        <ele>212.011</ele>
        <time>2019-12-03T12:59:06Z</time>
      </trkpt>
      <trkpt lat="44.72084" lon="1.35108">
        <ele>212.508</ele>
        <time>2019-12-03T12:59:26Z</time>
      </trkpt>
      <trkpt lat="44.72032" lon="1.35217">
        <ele>214.762</ele>
        <time>2019-12-03T12:59:46Z</time>
      </trkpt>
      <trkpt lat="44.71985" lon="1.35145">
        <ele>211.755</ele>
        <time>2019-12-03T13:00:06Z</time>
      </trkpt>
      <trkpt lat="44.71985" lon="1.35095">
        <ele>209.439</ele>
        <time>2019-12-03T13:00:26Z</time>
      </trkpt>
      <trkpt lat="44.71972" lon="1.35049">
        <ele>208.094</ele>
        <time>2019-12-03T13:00:46Z</time>
      </trkpt>
      <trkpt lat="44.71958" lon="1.35026">
        <ele>208.061</ele>
        <time>2019-12-03T13:01:06Z</time>
      </trkpt>
      <trkpt lat="44.71861" lon="1.34919">
        <ele>204.691</ele>
        <time>2019-12-03T13:01:26Z</time>
      </trkpt>
      <trkpt lat="44.71821" lon="1.34903">
        <ele>197.662</ele>
        <time>2019-12-03T13:01:46Z</time>
      </trkpt>
      <trkpt lat="44.71747" lon="1.34906">
        <ele>193.434</ele>
        <time>2019-12-03T13:02:06Z</time>
      </trkpt>
      <trkpt lat="44.7172" lon="1.3489">
        <ele>192.846</ele>
        <time>2019-12-03T13:02:26Z</time>
      </trkpt>
      <trkpt lat="44.71695" lon="1.34815">
        <ele>189.688</ele>
        <time>2019-12-03T13:02:46Z</time>
      </trkpt>
      <trkpt lat="44.71673" lon="1.34775">
        <ele>190.116</ele>
        <time>2019-12-03T13:03:06Z</time>
      </trkpt>
      <trkpt lat="44.71647" lon="1.34692">
        <ele>189.208</ele>
        <time>2019-12-03T13:03:26Z</time>
      </trkpt>
      <trkpt lat="44.71602" lon="1.3463">
        <ele>185.461</ele>
        <time>2019-12-03T13:03:46Z</time>
      </trkpt>
      <trkpt lat="44.71571" lon="1.34584">
        <ele>182.524</ele>
        <time>2019-12-03T13:04:06Z</time>
      </trkpt>
      <trkpt lat="44.71442" lon="1.34542">
        <ele>179.348</ele>
        <time>2019-12-03T13:04:26Z</time>
      </trkpt>
      <trkpt lat="44.71397" lon="1.34543">
        <ele>178.613</ele>
        <time>2019-12-03T13:04:46Z</time>
      </trkpt>
      <trkpt lat="44.71311" lon="1.34582">
        <ele>177.08</ele>
        <time>2019-12-03T13:05:06Z</time>
      </trkpt>
      <trkpt lat="44.71258" lon="1.34628">
        <ele>178.54</ele>
        <time>2019-12-03T13:05:26Z</time>
      </trkpt>
      <trkpt lat="44.71231" lon="1.34665">
        <ele>175.331</ele>
        <time>2019-12-03T13:05:46Z</time>
      </trkpt>
      <trkpt lat="44.71199" lon="1.34748">
        <ele>177.643</ele>
        <time>2019-12-03T13:06:06Z</time>
      </trkpt>
      <trkpt lat="44.71179" lon="1.34753">
        <ele>178.285</ele>
        <time>2019-12-03T13:06:26Z</time>
      </trkpt>
      <trkpt lat="44.71144" lon="1.34659">
        <ele>172.489</ele>
        <time>2019-12-03T13:06:46Z</time>
      </trkpt>
      <trkpt lat="44.71115" lon="1.34644">
        <ele>171.917</ele>
        <time>2019-12-03T13:07:06Z</time>
      </trkpt>
      <trkpt lat="44.71067" lon="1.34633">
        <ele>172.108</ele>
        <time>2019-12-03T13:07:26Z</time>
      </trkpt>
      <trkpt lat="44.71031" lon="1.34604">
        <ele>171.245</ele>
        <time>2021-04-14T06:03:41Z</time>
      </trkpt>
      <trkpt lat="44.70964" lon="1.3461">
        <ele>175.328</ele>
        <time>2021-04-14T06:04:01Z</time>
      </trkpt>
      <trkpt lat="44.70949" lon="1.34629">
        <ele>178.092</ele>
        <time>2021-04-14T06:04:21Z</time>
      </trkpt>
      <trkpt lat="44.70911" lon="1.34626">
        <ele>180.957</ele>
        <time>2019-12-03T13:08:46Z</time>
      </trkpt>
      <trkpt lat="44.7088" lon="1.34699">
        <ele>186.234</ele>
        <time>2019-12-03T13:09:06Z</time>
      </trkpt>
      <trkpt lat="44.70869" lon="1.34763">
        <ele>190.534</ele>
        <time>2019-12-03T13:09:26Z</time>
      </trkpt>
      <trkpt lat="44.70803" lon="1.34883">
        <ele>197.135</ele>
        <time>2019-12-03T13:09:46Z</time>
      </trkpt>
      <trkpt lat="44.70778" lon="1.34922">
        <ele>199.727</ele>
        <time>2019-12-03T13:10:06Z</time>
      </trkpt>
      <trkpt lat="44.70775" lon="1.34993">
        <ele>201.263</ele>
        <time>2021-01-04T21:53:22Z</time>
      </trkpt>
      <trkpt lat="44.7081" lon="1.35107">
        <ele>208.244</ele>
        <time>2021-01-04T21:53:42Z</time>
      </trkpt>
      <trkpt lat="44.7079" lon="1.35134">
        <ele>202.918</ele>
        <time>2019-12-03T13:11:26Z</time>
      </trkpt>
      <trkpt lat="44.70777" lon="1.35142">
        <ele>200.908</ele>
        <time>2019-12-03T13:11:46Z</time>
      </trkpt>
      <trkpt lat="44.70781" lon="1.35195">
        <ele>199.293</ele>
        <time>2019-12-03T13:12:06Z</time>
      </trkpt>
      <trkpt lat="44.70711" lon="1.3506">
        <ele>180.486</ele>
        <time>2019-12-03T13:12:26Z</time>
      </trkpt>
      <trkpt lat="44.70654" lon="1.34893">
        <ele>164.72</ele>
        <time>2019-12-03T13:12:46Z</time>
      </trkpt>
      <trkpt lat="44.70647" lon="1.34782">
        <ele>162.475</ele>
        <time>2019-12-03T13:13:06Z</time>
      </trkpt>
      <trkpt lat="44.70666" lon="1.3467">
        <ele>161.662</ele>
        <time>2019-12-03T13:13:26Z</time>
      </trkpt>
      <trkpt lat="44.70715" lon="1.34499">
        <ele>159.792</ele>
        <time>2019-12-03T13:13:46Z</time>
      </trkpt>
      <trkpt lat="44.70788" lon="1.34314">
        <ele>158.913</ele>
        <time>2019-12-03T13:14:06Z</time>
      </trkpt>
      <trkpt lat="44.70667" lon="1.3414">
        <ele>153.715</ele>
        <time>2019-12-03T13:14:26Z</time>
      </trkpt>
      <trkpt lat="44.70488" lon="1.34002">
        <ele>164.061</ele>
        <time>2021-04-14T06:10:21Z</time>
      </trkpt>
      <trkpt lat="44.70563" lon="1.33843">
        <ele>161.621</ele>
        <time>2021-04-14T06:10:41Z</time>
      </trkpt>
      <trkpt lat="44.70604" lon="1.33675">
        <ele>161.213</ele>
        <time>2019-12-03T13:15:46Z</time>
      </trkpt>
      <trkpt lat="44.70641" lon="1.33546">
        <ele>163.508</ele>
        <time>2019-12-03T13:16:06Z</time>
      </trkpt>
      <trkpt lat="44.70698" lon="1.33485">
        <ele>153.773</ele>
        <time>2019-12-03T13:16:26Z</time>
      </trkpt>
      <trkpt lat="44.70701" lon="1.33439">
        <ele>154.266</ele>
        <time>2019-12-03T13:16:46Z</time>
      </trkpt>
      <trkpt lat="44.70671" lon="1.33356">
        <ele>158.64</ele>
        <time>2019-12-03T13:17:06Z</time>
      </trkpt>
      <trkpt lat="44.70718" lon="1.33368">
        <ele>156.295</ele>
        <time>2019-12-03T13:17:26Z</time>
      </trkpt>
      <trkpt lat="44.70738" lon="1.33346">
        <ele>155.772</ele>
        <time>2019-12-03T13:17:46Z</time>
      </trkpt>
      <trkpt lat="44.70769" lon="1.33285">
        <ele>153.362</ele>
        <time>2019-12-03T13:18:06Z</time>
      </trkpt>
      <trkpt lat="44.70791" lon="1.33265">
        <ele>152.333</ele>
        <time>2019-12-03T13:18:26Z</time>
      </trkpt>
      <trkpt lat="44.7083" lon="1.33205">
        <ele>151.535</ele>
        <time>2019-12-03T13:18:46Z</time>
      </trkpt>
      <trkpt lat="44.70832" lon="1.33146">
        <ele>150.692</ele>
        <time>2019-12-03T13:19:06Z</time>
      </trkpt>
      <trkpt lat="44.70849" lon="1.33073">
        <ele>147.473</ele>
        <time>2019-12-03T13:19:26Z</time>
      </trkpt>
      <trkpt lat="44.70817" lon="1.32821">
        <ele>146.22</ele>
        <time>2019-12-03T13:19:46Z</time>
      </trkpt>
      <trkpt lat="44.70784" lon="1.32758">
        <ele>146.308</ele>
        <time>2019-12-03T13:20:06Z</time>
      </trkpt>
      <trkpt lat="44.70763" lon="1.32639">
        <ele>148.376</ele>
        <time>2019-12-03T13:20:26Z</time>
      </trkpt>
      <trkpt lat="44.70761" lon="1.32511">
        <ele>157.119</ele>
        <time>2019-12-03T13:20:46Z</time>
      </trkpt>
      <trkpt lat="44.70771" lon="1.32463">
        <ele>157.433</ele>
        <time>2019-12-03T13:21:06Z</time>
      </trkpt>
      <trkpt lat="44.70822" lon="1.32385">
        <ele>153.568</ele>
        <time>2019-12-03T13:21:26Z</time>
      </trkpt>
      <trkpt lat="44.70857" lon="1.32276">
        <ele>150.765</ele>
        <time>2019-12-03T13:21:46Z</time>
      </trkpt>
      <trkpt lat="44.70894" lon="1.32236">
        <ele>151.395</ele>
        <time>2019-12-03T13:22:06Z</time>
      </trkpt>
      <trkpt lat="44.70937" lon="1.32202">
        <ele>146.586</ele>
        <time>2019-12-03T13:22:26Z</time>
      </trkpt>
      <trkpt lat="44.70992" lon="1.32138">
        <ele>145.698</ele>
        <time>2019-12-03T13:22:46Z</time>
      </trkpt>
      <trkpt lat="44.71012" lon="1.32071">
        <ele>143.567</ele>
        <time>2019-12-03T13:23:06Z</time>
      </trkpt>
      <trkpt lat="44.7101" lon="1.31993">
        <ele>144.081</ele>
        <time>2019-12-03T13:23:26Z</time>
      </trkpt>
      <trkpt lat="44.70988" lon="1.31935">
        <ele>145.019</ele>
        <time>2019-12-03T13:23:46Z</time>
      </trkpt>
      <trkpt lat="44.70989" lon="1.31899">
        <ele>145.008</ele>
        <time>2019-12-03T13:24:06Z</time>
      </trkpt>
      <trkpt lat="44.70966" lon="1.31834">
        <ele>146.443</ele>
        <time>2019-12-03T13:24:26Z</time>
      </trkpt>
      <trkpt lat="44.7097" lon="1.31736">
        <ele>144.746</ele>
        <time>2019-12-03T13:24:46Z</time>
      </trkpt>
      <trkpt lat="44.70945" lon="1.3161">
        <ele>144.37</ele>
        <time>2019-12-03T13:25:06Z</time>
      </trkpt>
      <trkpt lat="44.70945" lon="1.3157">
        <ele>145.355</ele>
        <time>2019-12-03T13:25:26Z</time>
      </trkpt>
      <trkpt lat="44.70938" lon="1.31518">
        <ele>146.452</ele>
        <time>2019-12-03T13:25:46Z</time>
      </trkpt>
      <trkpt lat="44.70933" lon="1.31443">
        <ele>147.162</ele>
        <time>2019-12-03T13:26:06Z</time>
      </trkpt>
      <trkpt lat="44.70913" lon="1.31378">
        <ele>153.133</ele>
        <time>2019-12-03T13:26:26Z</time>
      </trkpt>
      <trkpt lat="44.70908" lon="1.31213">
        <ele>155.275</ele>
        <time>2019-12-03T13:26:46Z</time>
      </trkpt>
      <trkpt lat="44.70879" lon="1.31075">
        <ele>155.787</ele>
        <time>2019-12-03T13:27:06Z</time>
      </trkpt>
      <trkpt lat="44.70881" lon="1.31">
        <ele>153.042</ele>
        <time>2019-12-03T13:27:26Z</time>
      </trkpt>
      <trkpt lat="44.70867" lon="1.30891">
        <ele>151.426</ele>
        <time>2019-12-03T13:27:46Z</time>
      </trkpt>
      <trkpt lat="44.70825" lon="1.30881">
        <ele>159.908</ele>
        <time>2019-12-03T13:28:06Z</time>
      </trkpt>
      <trkpt lat="44.70781" lon="1.30821">
        <ele>158.415</ele>
        <time>2019-12-03T13:28:26Z</time>
      </trkpt>
      <trkpt lat="44.70746" lon="1.30831">
        <ele>165.468</ele>
        <time>2019-12-03T13:28:46Z</time>
      </trkpt>
      <trkpt lat="44.70716" lon="1.30736">
        <ele>170.232</ele>
        <time>2019-12-03T13:29:06Z</time>
      </trkpt>
      <trkpt lat="44.70722" lon="1.30629">
        <ele>167.917</ele>
        <time>2019-12-03T13:29:26Z</time>
      </trkpt>
      <trkpt lat="44.70717" lon="1.30536">
        <ele>167.234</ele>
        <time>2019-12-03T13:29:46Z</time>
      </trkpt>
      <trkpt lat="44.70732" lon="1.30211">
        <ele>162.684</ele>
        <time>2019-12-03T13:30:06Z</time>
      </trkpt>
      <trkpt lat="44.70723" lon="1.30101">
        <ele>154.275</ele>
        <time>2019-12-03T13:30:26Z</time>
      </trkpt>
      <trkpt lat="44.70693" lon="1.30049">
        <ele>149.057</ele>
        <time>2019-12-03T13:30:46Z</time>
      </trkpt>
      <trkpt lat="44.706" lon="1.29897">
        <ele>151.882</ele>
        <time>2019-12-03T13:31:06Z</time>
      </trkpt>
      <trkpt lat="44.7057" lon="1.29811">
        <ele>166.543</ele>
        <time>2019-12-03T13:31:26Z</time>
      </trkpt>
      <trkpt lat="44.70577" lon="1.29725">
        <ele>163.017</ele>
        <time>2019-12-03T13:31:46Z</time>
      </trkpt>
      <trkpt lat="44.70602" lon="1.29598">
        <ele>148.108</ele>
        <time>2019-12-03T13:32:06Z</time>
      </trkpt>
      <trkpt lat="44.70621" lon="1.29549">
        <ele>143.765</ele>
        <time>2019-12-03T13:32:26Z</time>
      </trkpt>
      <trkpt lat="44.70583" lon="1.29507">
        <ele>145.298</ele>
        <time>2019-12-03T13:32:46Z</time>
      </trkpt>
      <trkpt lat="44.70554" lon="1.29393">
        <ele>137.622</ele>
        <time>2019-12-03T13:33:06Z</time>
      </trkpt>
      <trkpt lat="44.70562" lon="1.29362">
        <ele>137.077</ele>
        <time>2019-12-03T13:33:26Z</time>
      </trkpt>
      <trkpt lat="44.70603" lon="1.29283">
        <ele>138.844</ele>
        <time>2019-12-03T13:33:46Z</time>
      </trkpt>
      <trkpt lat="44.70589" lon="1.29218">
        <ele>147.344</ele>
        <time>2019-12-03T13:34:06Z</time>
      </trkpt>
      <trkpt lat="44.70496" lon="1.29283">
        <ele>153.325</ele>
        <time>2019-12-03T13:34:26Z</time>
      </trkpt>
      <trkpt lat="44.70395" lon="1.29323">
        <ele>157.487</ele>
        <time>2019-12-03T13:34:46Z</time>
      </trkpt>
      <trkpt lat="44.70311" lon="1.29382">
        <ele>151.698</ele>
        <time>2019-12-03T13:35:06Z</time>
      </trkpt>
      <trkpt lat="44.70217" lon="1.29427">
        <ele>145.615</ele>
        <time>2019-12-03T13:35:26Z</time>
      </trkpt>
      <trkpt lat="44.70174" lon="1.29427">
        <ele>148.326</ele>
        <time>2019-12-03T13:35:46Z</time>
      </trkpt>
      <trkpt lat="44.70133" lon="1.2947">
        <ele>150.308</ele>
        <time>2019-12-03T13:36:06Z</time>
      </trkpt>
      <trkpt lat="44.70101" lon="1.2953">
        <ele>146.526</ele>
        <time>2019-12-03T13:36:26Z</time>
      </trkpt>
      <trkpt lat="44.70077" lon="1.29606">
        <ele>142.199</ele>
        <time>2019-12-03T13:36:46Z</time>
      </trkpt>
      <trkpt lat="44.70172" lon="1.29601">
        <ele>141.283</ele>
        <time>2019-12-03T13:37:06Z</time>
      </trkpt>
      <trkpt lat="44.70264" lon="1.2965">
        <ele>148.458</ele>
        <time>2019-12-03T13:37:26Z</time>
      </trkpt>
      <trkpt lat="44.70242" lon="1.29686">
        <ele>154.595</ele>
        <time>2019-12-03T13:37:46Z</time>
      </trkpt>
      <trkpt lat="44.70142" lon="1.29756">
        <ele>165.965</ele>
        <time>2019-12-03T13:38:06Z</time>
      </trkpt>
      <trkpt lat="44.70056" lon="1.29785">
        <ele>159.376</ele>
        <time>2019-12-03T13:38:26Z</time>
      </trkpt>
      <trkpt lat="44.69994" lon="1.29788">
        <ele>154.088</ele>
        <time>2019-12-03T13:38:46Z</time>
      </trkpt>
      <trkpt lat="44.69881" lon="1.29827">
        <ele>152.817</ele>
        <time>2019-12-03T13:39:06Z</time>
      </trkpt>
      <trkpt lat="44.69835" lon="1.29779">
        <ele>149.987</ele>
        <time>2019-12-03T13:39:26Z</time>
      </trkpt>
      <trkpt lat="44.6978" lon="1.29769">
        <ele>149.115</ele>
        <time>2019-12-03T13:39:46Z</time>
      </trkpt>
      <trkpt lat="44.69634" lon="1.29852">
        <ele>155.708</ele>
        <time>2019-12-03T13:40:06Z</time>
      </trkpt>
      <trkpt lat="44.69542" lon="1.29876">
        <ele>152.148</ele>
        <time>2019-12-03T13:40:26Z</time>
      </trkpt>
      <trkpt lat="44.69468" lon="1.29853">
        <ele>156.641</ele>
        <time>2019-12-03T13:40:46Z</time>
      </trkpt>
      <trkpt lat="44.6941" lon="1.29774">
        <ele>161.685</ele>
        <time>2019-12-03T13:41:06Z</time>
      </trkpt>
      <trkpt lat="44.69391" lon="1.29699">
        <ele>161.59</ele>
        <time>2019-12-03T13:41:26Z</time>
      </trkpt>
      <trkpt lat="44.69395" lon="1.29447">
        <ele>149.427</ele>
        <time>2019-12-03T13:41:46Z</time>
      </trkpt>
      <trkpt lat="44.69383" lon="1.29416">
        <ele>144.927</ele>
        <time>2019-12-03T13:42:06Z</time>
      </trkpt>
      <trkpt lat="44.69332" lon="1.29372">
        <ele>146.648</ele>
        <time>2019-12-03T13:42:26Z</time>
      </trkpt>
      <trkpt lat="44.69327" lon="1.2927">
        <ele>148.52</ele>
        <time>2019-12-03T13:42:46Z</time>
      </trkpt>
      <trkpt lat="44.69417" lon="1.29279">
        <ele>143.972</ele>
        <time>2019-12-03T13:43:06Z</time>
      </trkpt>
      <trkpt lat="44.69416" lon="1.29237">
        <ele>146.813</ele>
        <time>2019-12-03T13:43:26Z</time>
      </trkpt>
      <trkpt lat="44.69386" lon="1.29099">
        <ele>153.314</ele>
        <time>2019-12-03T13:43:46Z</time>
      </trkpt>
      <trkpt lat="44.69366" lon="1.28935">
        <ele>157.808</ele>
        <time>2019-12-03T13:44:06Z</time>
      </trkpt>
      <trkpt lat="44.69377" lon="1.28871">
        <ele>154.574</ele>
        <time>2019-12-03T13:44:26Z</time>
      </trkpt>
      <trkpt lat="44.69362" lon="1.28822">
        <ele>153.867</ele>
        <time>2019-12-03T13:44:46Z</time>
      </trkpt>
      <trkpt lat="44.69304" lon="1.28759">
        <ele>155.641</ele>
        <time>2019-12-03T13:45:06Z</time>
      </trkpt>
      <trkpt lat="44.69286" lon="1.28686">
        <ele>150.066</ele>
        <time>2019-12-03T13:45:26Z</time>
      </trkpt>
      <trkpt lat="44.69257" lon="1.28627">
        <ele>147.423</ele>
        <time>2019-12-03T13:45:46Z</time>
      </trkpt>
      <trkpt lat="44.69221" lon="1.28593">
        <ele>149.543</ele>
        <time>2019-12-03T13:46:06Z</time>
      </trkpt>
      <trkpt lat="44.69132" lon="1.28551">
        <ele>153.364</ele>
        <time>2019-12-03T13:46:26Z</time>
      </trkpt>
      <trkpt lat="44.69084" lon="1.28443">
        <ele>149.866</ele>
        <time>2019-12-03T13:46:46Z</time>
      </trkpt>
      <trkpt lat="44.68998" lon="1.28304">
        <ele>153.667</ele>
        <time>2019-12-03T13:47:06Z</time>
      </trkpt>
      <trkpt lat="44.68956" lon="1.28258">
        <ele>153.881</ele>
        <time>2019-12-03T13:47:26Z</time>
      </trkpt>
      <trkpt lat="44.68921" lon="1.28203">
        <ele>150.119</ele>
        <time>2019-12-03T13:47:46Z</time>
      </trkpt>
      <trkpt lat="44.68875" lon="1.28175">
        <ele>155.008</ele>
        <time>2019-12-03T13:48:06Z</time>
      </trkpt>
      <trkpt lat="44.68825" lon="1.28113">
        <ele>154.883</ele>
        <time>2019-12-03T13:48:26Z</time>
      </trkpt>
      <trkpt lat="44.68743" lon="1.28016">
        <ele>150.066</ele>
        <time>2019-12-03T13:48:46Z</time>
      </trkpt>
      <trkpt lat="44.68751" lon="1.2796">
        <ele>147.71</ele>
        <time>2019-12-03T13:49:06Z</time>
      </trkpt>
      <trkpt lat="44.68738" lon="1.27902">
        <ele>148.055</ele>
        <time>2019-12-03T13:49:26Z</time>
      </trkpt>
      <trkpt lat="44.68739" lon="1.2786">
        <ele>149.042</ele>
        <time>2019-12-03T13:49:46Z</time>
      </trkpt>
      <trkpt lat="44.68713" lon="1.27773">
        <ele>149.612</ele>
        <time>2019-12-03T13:50:06Z</time>
      </trkpt>
      <trkpt lat="44.6875" lon="1.277">
        <ele>151.593</ele>
        <time>2019-12-03T13:50:26Z</time>
      </trkpt>
      <trkpt lat="44.68791" lon="1.27595">
        <ele>159.345</ele>
        <time>2019-12-03T13:50:46Z</time>
      </trkpt>
      <trkpt lat="44.68882" lon="1.27474">
        <ele>160.732</ele>
        <time>2019-12-03T13:51:06Z</time>
      </trkpt>
      <trkpt lat="44.68938" lon="1.27334">
        <ele>169.392</ele>
        <time>2019-12-03T13:51:26Z</time>
      </trkpt>
      <trkpt lat="44.68934" lon="1.27323">
        <ele>172.311</ele>
        <time>2019-12-03T13:51:46Z</time>
      </trkpt>
      <trkpt lat="44.6895" lon="1.27283">
        <ele>173.808</ele>
        <time>2019-12-03T13:52:06Z</time>
      </trkpt>
      <trkpt lat="44.69003" lon="1.27102">
        <ele>182.86</ele>
        <time>2019-12-03T13:52:26Z</time>
      </trkpt>
      <trkpt lat="44.69007" lon="1.27066">
        <ele>185.593</ele>
        <time>2019-12-03T13:52:46Z</time>
      </trkpt>
      <trkpt lat="44.68968" lon="1.26935">
        <ele>188.227</ele>
        <time>2019-12-03T13:53:06Z</time>
      </trkpt>
      <trkpt lat="44.68926" lon="1.26831">
        <ele>196.922</ele>
        <time>2019-12-03T13:53:26Z</time>
      </trkpt>
      <trkpt lat="44.68988" lon="1.26746">
        <ele>201.249</ele>
        <time>2019-12-03T13:53:46Z</time>
      </trkpt>
      <trkpt lat="44.6904" lon="1.26666">
        <ele>202.849</ele>
        <time>2019-12-03T13:54:06Z</time>
      </trkpt>
      <trkpt lat="44.69028" lon="1.26656">
        <ele>202.97</ele>
        <time>2019-12-03T13:54:26Z</time>
      </trkpt>
      <trkpt lat="44.68981" lon="1.26676">
        <ele>203.012</ele>
        <time>2019-12-03T13:54:46Z</time>
      </trkpt>
      <trkpt lat="44.6894" lon="1.26664">
        <ele>208.423</ele>
        <time>2019-12-03T13:55:06Z</time>
      </trkpt>
      <trkpt lat="44.68892" lon="1.26627">
        <ele>213.483</ele>
        <time>2019-12-03T13:55:26Z</time>
      </trkpt>
      <trkpt lat="44.68839" lon="1.26614">
        <ele>215.211</ele>
        <time>2019-12-03T13:55:46Z</time>
      </trkpt>
      <trkpt lat="44.68795" lon="1.26622">
        <ele>213.908</ele>
        <time>2019-12-03T13:56:06Z</time>
      </trkpt>
      <trkpt lat="44.68709" lon="1.26703">
        <ele>207.759</ele>
        <time>2019-12-03T13:56:26Z</time>
      </trkpt>
      <trkpt lat="44.68692" lon="1.26687">
        <ele>208.312</ele>
        <time>2019-12-03T13:56:46Z</time>
      </trkpt>
      <trkpt lat="44.68645" lon="1.26599">
        <ele>206.786</ele>
        <time>2019-12-03T13:57:06Z</time>
      </trkpt>
      <trkpt lat="44.68614" lon="1.26562">
        <ele>199.621</ele>
        <time>2019-12-03T13:57:26Z</time>
      </trkpt>
      <trkpt lat="44.68517" lon="1.26489">
        <ele>182.078</ele>
        <time>2019-12-03T13:57:46Z</time>
      </trkpt>
      <trkpt lat="44.68371" lon="1.26442">
        <ele>164.368</ele>
        <time>2019-12-03T13:58:06Z</time>
      </trkpt>
      <trkpt lat="44.68354" lon="1.26359">
        <ele>162.599</ele>
        <time>2019-12-03T13:58:26Z</time>
      </trkpt>
      <trkpt lat="44.68307" lon="1.26365">
        <ele>161.991</ele>
        <time>2021-01-04T22:41:22Z</time>
      </trkpt>
      <trkpt lat="44.6827" lon="1.26351">
        <ele>161.358</ele>
        <time>2021-01-04T22:41:42Z</time>
      </trkpt>
      <trkpt lat="44.68125" lon="1.26432">
        <ele>163.552</ele>
        <time>2021-04-14T06:54:41Z</time>
      </trkpt>
      <trkpt lat="44.68138" lon="1.26537">
        <ele>161.817</ele>
        <time>2021-04-14T06:55:01Z</time>
      </trkpt>
      <trkpt lat="44.68076" lon="1.26556">
        <ele>166.108</ele>
        <time>2021-04-14T06:55:21Z</time>
      </trkpt>
      <trkpt lat="44.68053" lon="1.26456">
        <ele>168.932</ele>
        <time>2021-04-14T06:55:41Z</time>
      </trkpt>
      <trkpt lat="44.68027" lon="1.26443">
        <ele>170.835</ele>
        <time>2021-04-14T06:56:01Z</time>
      </trkpt>
      <trkpt lat="44.68003" lon="1.26419">
        <ele>173.419</ele>
        <time>2019-12-03T14:00:06Z</time>
      </trkpt>
      <trkpt lat="44.67927" lon="1.26368">
        <ele>177.424</ele>
        <time>2019-12-03T14:00:26Z</time>
      </trkpt>
      <trkpt lat="44.67857" lon="1.26305">
        <ele>185.011</ele>
        <time>2019-12-03T14:00:46Z</time>
      </trkpt>
      <trkpt lat="44.67835" lon="1.26271">
        <ele>186.481</ele>
        <time>2019-12-03T14:01:06Z</time>
      </trkpt>
      <trkpt lat="44.67798" lon="1.26251">
        <ele>193.032</ele>
        <time>2019-12-03T14:01:26Z</time>
      </trkpt>
      <trkpt lat="44.67744" lon="1.26259">
        <ele>200.034</ele>
        <time>2019-12-03T14:01:46Z</time>
      </trkpt>
      <trkpt lat="44.67691" lon="1.2625">
        <ele>203.858</ele>
        <time>2019-12-03T14:02:06Z</time>
      </trkpt>
      <trkpt lat="44.67617" lon="1.26193">
        <ele>205.252</ele>
        <time>2019-12-03T14:02:26Z</time>
      </trkpt>
      <trkpt lat="44.6747" lon="1.26159">
        <ele>209.917</ele>
        <time>2019-12-03T14:02:46Z</time>
      </trkpt>
      <trkpt lat="44.67271" lon="1.26155">
        <ele>223.008</ele>
        <time>2019-12-03T14:03:06Z</time>
      </trkpt>
      <trkpt lat="44.67241" lon="1.26139">
        <ele>227.652</ele>
        <time>2019-12-03T14:03:26Z</time>
      </trkpt>
      <trkpt lat="44.67164" lon="1.26121">
        <ele>231.915</ele>
        <time>2019-12-03T14:03:46Z</time>
      </trkpt>
      <trkpt lat="44.67102" lon="1.26094">
        <ele>232.369</ele>
        <time>2019-12-03T14:04:06Z</time>
      </trkpt>
      <trkpt lat="44.6702" lon="1.26101">
        <ele>236.624</ele>
        <time>2019-12-03T14:04:26Z</time>
      </trkpt>
      <trkpt lat="44.66983" lon="1.26082">
        <ele>241.831</ele>
        <time>2019-12-03T14:04:46Z</time>
      </trkpt>
      <trkpt lat="44.66929" lon="1.26065">
        <ele>244.261</ele>
        <time>2019-12-03T14:05:06Z</time>
      </trkpt>
      <trkpt lat="44.66871" lon="1.26061">
        <ele>245.542</ele>
        <time>2019-12-03T14:05:26Z</time>
      </trkpt>
      <trkpt lat="44.66822" lon="1.26024">
        <ele>249.614</ele>
        <time>2019-12-03T14:05:46Z</time>
      </trkpt>
      <trkpt lat="44.66745" lon="1.25998">
        <ele>261.068</ele>
        <time>2019-12-03T14:06:06Z</time>
      </trkpt>
      <trkpt lat="44.66704" lon="1.26009">
        <ele>262.342</ele>
        <time>2019-12-03T14:06:26Z</time>
      </trkpt>
      <trkpt lat="44.66629" lon="1.26108">
        <ele>261.026</ele>
        <time>2019-12-03T14:06:46Z</time>
      </trkpt>
      <trkpt lat="44.66564" lon="1.26149">
        <ele>255.008</ele>
        <time>2019-12-03T14:07:06Z</time>
      </trkpt>
      <trkpt lat="44.6651" lon="1.26154">
        <ele>248.863</ele>
        <time>2019-12-03T14:07:26Z</time>
      </trkpt>
      <trkpt lat="44.66475" lon="1.26183">
        <ele>240.336</ele>
        <time>2019-12-03T14:07:46Z</time>
      </trkpt>
      <trkpt lat="44.66447" lon="1.26193">
        <ele>237.72</ele>
        <time>2019-12-03T14:08:06Z</time>
      </trkpt>
      <trkpt lat="44.66398" lon="1.26242">
        <ele>228.065</ele>
        <time>2019-12-03T14:08:26Z</time>
      </trkpt>
      <trkpt lat="44.66296" lon="1.26295">
        <ele>216.422</ele>
        <time>2019-12-03T14:08:46Z</time>
      </trkpt>
      <trkpt lat="44.66137" lon="1.26338">
        <ele>239.892</ele>
        <time>2019-12-03T14:09:06Z</time>
      </trkpt>
      <trkpt lat="44.66112" lon="1.26362">
        <ele>242.933</ele>
        <time>2019-12-03T14:09:26Z</time>
      </trkpt>
      <trkpt lat="44.66096" lon="1.26406">
        <ele>245.155</ele>
        <time>2019-12-03T14:09:46Z</time>
      </trkpt>
      <trkpt lat="44.66018" lon="1.26486">
        <ele>252.659</ele>
        <time>2019-12-03T14:10:06Z</time>
      </trkpt>
      <trkpt lat="44.65981" lon="1.26512">
        <ele>251.503</ele>
        <time>2019-12-03T14:10:26Z</time>
      </trkpt>
      <trkpt lat="44.65913" lon="1.26528">
        <ele>244.723</ele>
        <time>2019-12-03T14:10:46Z</time>
      </trkpt>
      <trkpt lat="44.65845" lon="1.2649">
        <ele>243.708</ele>
        <time>2019-12-03T14:11:06Z</time>
      </trkpt>
      <trkpt lat="44.65801" lon="1.26451">
        <ele>241.552</ele>
        <time>2019-12-03T14:11:26Z</time>
      </trkpt>
      <trkpt lat="44.65774" lon="1.26447">
        <ele>240.935</ele>
        <time>2019-12-03T14:11:46Z</time>
      </trkpt>
      <trkpt lat="44.65752" lon="1.2642">
        <ele>241.079</ele>
        <time>2019-12-03T14:12:06Z</time>
      </trkpt>
      <trkpt lat="44.65765" lon="1.26351">
        <ele>241.994</ele>
        <time>2019-12-03T14:12:26Z</time>
      </trkpt>
      <trkpt lat="44.65773" lon="1.26245">
        <ele>249.281</ele>
        <time>2019-12-03T14:12:46Z</time>
      </trkpt>
      <trkpt lat="44.65796" lon="1.2618">
        <ele>253.311</ele>
        <time>2019-12-03T14:13:06Z</time>
      </trkpt>
      <trkpt lat="44.65857" lon="1.25929">
        <ele>265.462</ele>
        <time>2019-12-03T14:13:26Z</time>
      </trkpt>
      <trkpt lat="44.65896" lon="1.2571">
        <ele>273.744</ele>
        <time>2019-12-03T14:13:46Z</time>
      </trkpt>
      <trkpt lat="44.65903" lon="1.25606">
        <ele>272.636</ele>
        <time>2019-12-03T14:14:06Z</time>
      </trkpt>
      <trkpt lat="44.65903" lon="1.25427">
        <ele>284.917</ele>
        <time>2019-12-03T14:14:26Z</time>
      </trkpt>
      <trkpt lat="44.65893" lon="1.25339">
        <ele>291.318</ele>
        <time>2019-12-03T14:14:46Z</time>
      </trkpt>
      <trkpt lat="44.65881" lon="1.25295">
        <ele>296.508</ele>
        <time>2019-12-03T14:15:06Z</time>
      </trkpt>
      <trkpt lat="44.65842" lon="1.2523">
        <ele>301.72</ele>
        <time>2019-12-03T14:15:26Z</time>
      </trkpt>
      <trkpt lat="44.65846" lon="1.25173">
        <ele>305.393</ele>
        <time>2019-12-03T14:15:46Z</time>
      </trkpt>
      <trkpt lat="44.65826" lon="1.25134">
        <ele>306.897</ele>
        <time>2019-12-03T14:16:06Z</time>
      </trkpt>
      <trkpt lat="44.65788" lon="1.2509">
        <ele>306.852</ele>
        <time>2019-12-03T14:16:26Z</time>
      </trkpt>
      <trkpt lat="44.65797" lon="1.25009">
        <ele>308.159</ele>
        <time>2019-12-03T14:16:46Z</time>
      </trkpt>
      <trkpt lat="44.65826" lon="1.24887">
        <ele>306.259</ele>
        <time>2019-12-03T14:17:06Z</time>
      </trkpt>
      <trkpt lat="44.65862" lon="1.2483">
        <ele>301.68</ele>
        <time>2019-12-03T14:17:26Z</time>
      </trkpt>
      <trkpt lat="44.65774" lon="1.2478">
        <ele>301.692</ele>
        <time>2019-12-03T14:17:46Z</time>
      </trkpt>
      <trkpt lat="44.65655" lon="1.24664">
        <ele>295.866</ele>
        <time>2019-12-03T14:18:06Z</time>
      </trkpt>
      <trkpt lat="44.65561" lon="1.24593">
        <ele>297.729</ele>
        <time>2019-12-03T14:18:26Z</time>
      </trkpt>
      <trkpt lat="44.65526" lon="1.24541">
        <ele>299.021</ele>
        <time>2019-12-03T14:18:46Z</time>
      </trkpt>
      <trkpt lat="44.6544" lon="1.24326">
        <ele>302.908</ele>
        <time>2019-12-03T14:19:06Z</time>
      </trkpt>
      <trkpt lat="44.65321" lon="1.24149">
        <ele>312.553</ele>
        <time>2019-12-03T14:19:26Z</time>
      </trkpt>
      <trkpt lat="44.65233" lon="1.24115">
        <ele>313.566</ele>
        <time>2019-12-03T14:19:46Z</time>
      </trkpt>
      <trkpt lat="44.65035" lon="1.23996">
        <ele>322.64</ele>
        <time>2019-12-03T14:20:06Z</time>
      </trkpt>
      <trkpt lat="44.65043" lon="1.23941">
        <ele>322.595</ele>
        <time>2019-12-03T14:20:26Z</time>
      </trkpt>
      <trkpt lat="44.65015" lon="1.2393">
        <ele>323.532</ele>
        <time>2019-12-03T14:20:46Z</time>
      </trkpt>
      <trkpt lat="44.64967" lon="1.2387">
        <ele>325.062</ele>
        <time>2019-12-03T14:21:06Z</time>
      </trkpt>
      <trkpt lat="44.64936" lon="1.23828">
        <ele>326.093</ele>
        <time>2019-12-03T14:21:26Z</time>
      </trkpt>
      <trkpt lat="44.64815" lon="1.23761">
        <ele>322.145</ele>
        <time>2019-12-03T14:21:46Z</time>
      </trkpt>
      <trkpt lat="44.64785" lon="1.23752">
        <ele>319.255</ele>
        <time>2019-12-03T14:22:06Z</time>
      </trkpt>
      <trkpt lat="44.64727" lon="1.23762">
        <ele>312.407</ele>
        <time>2019-12-03T14:22:26Z</time>
      </trkpt>
      <trkpt lat="44.64704" lon="1.2369">
        <ele>302.417</ele>
        <time>2019-12-03T14:22:46Z</time>
      </trkpt>
      <trkpt lat="44.64682" lon="1.23671">
        <ele>297.608</ele>
        <time>2019-12-03T14:23:06Z</time>
      </trkpt>
      <trkpt lat="44.64666" lon="1.23635">
        <ele>286.442</ele>
        <time>2019-12-03T14:23:26Z</time>
      </trkpt>
      <trkpt lat="44.64638" lon="1.23617">
        <ele>284.235</ele>
        <time>2019-12-03T14:23:46Z</time>
      </trkpt>
      <trkpt lat="44.64612" lon="1.23552">
        <ele>276.349</ele>
        <time>2019-12-03T14:24:06Z</time>
      </trkpt>
      <trkpt lat="44.64556" lon="1.23508">
        <ele>270.124</ele>
        <time>2019-12-03T14:24:26Z</time>
      </trkpt>
      <trkpt lat="44.64538" lon="1.23375">
        <ele>258.261</ele>
        <time>2019-12-03T14:24:46Z</time>
      </trkpt>
      <trkpt lat="44.64514" lon="1.23318">
        <ele>249.641</ele>
        <time>2019-12-03T14:25:06Z</time>
      </trkpt>
      <trkpt lat="44.64483" lon="1.23176">
        <ele>229.412</ele>
        <time>2019-12-03T14:25:26Z</time>
      </trkpt>
      <trkpt lat="44.64455" lon="1.23101">
        <ele>218.974</ele>
        <time>2019-12-03T14:25:46Z</time>
      </trkpt>
      <trkpt lat="44.64445" lon="1.23027">
        <ele>214.638</ele>
        <time>2019-12-03T14:26:06Z</time>
      </trkpt>
      <trkpt lat="44.64431" lon="1.22981">
        <ele>213.37</ele>
        <time>2019-12-03T14:26:26Z</time>
      </trkpt>
      <trkpt lat="44.64434" lon="1.22941">
        <ele>214.917</ele>
        <time>2021-01-04T23:10:02Z</time>
      </trkpt>
      <trkpt lat="44.64414" lon="1.22913">
        <ele>215.108</ele>
        <time>2021-01-04T23:10:22Z</time>
      </trkpt>
      <trkpt lat="44.64381" lon="1.22908">
        <ele>206.21</ele>
        <time>2019-12-03T14:27:46Z</time>
      </trkpt>
      <trkpt lat="44.64373" lon="1.2288">
        <ele>204.273</ele>
        <time>2019-12-03T14:28:06Z</time>
      </trkpt>
      <trkpt lat="44.64385" lon="1.22825">
        <ele>200.117</ele>
        <time>2019-12-03T14:28:26Z</time>
      </trkpt>
      <trkpt lat="44.64358" lon="1.22769">
        <ele>193.972</ele>
        <time>2021-01-04T23:11:42Z</time>
      </trkpt>
      <trkpt lat="44.64429" lon="1.22544">
        <ele>186.559</ele>
        <time>2021-01-04T23:12:02Z</time>
      </trkpt>
      <trkpt lat="44.64389" lon="1.22417">
        <ele>180.949</ele>
        <time>2019-12-03T14:29:46Z</time>
      </trkpt>
      <trkpt lat="44.64411" lon="1.22136">
        <ele>175.95</ele>
        <time>2021-01-04T23:12:42Z</time>
      </trkpt>
      <trkpt lat="44.64366" lon="1.21878">
        <ele>173.612</ele>
        <time>2021-01-04T23:13:02Z</time>
      </trkpt>
      <trkpt lat="44.64235" lon="1.21836">
        <ele>170.072</ele>
        <time>2021-01-04T23:13:22Z</time>
      </trkpt>
      <trkpt lat="44.64153" lon="1.2188">
        <ele>169.513</ele>
        <time>2021-04-14T07:26:41Z</time>
      </trkpt>
      <trkpt lat="44.64006" lon="1.21863">
        <ele>177.614</ele>
        <time>2021-04-14T07:27:01Z</time>
      </trkpt>
      <trkpt lat="44.63973" lon="1.21719">
        <ele>183.008</ele>
        <time>2019-12-03T14:31:06Z</time>
      </trkpt>
      <trkpt lat="44.63924" lon="1.21617">
        <ele>183.754</ele>
        <time>2019-12-03T14:31:26Z</time>
      </trkpt>
      <trkpt lat="44.63865" lon="1.21547">
        <ele>191.447</ele>
        <time>2019-12-03T14:31:46Z</time>
      </trkpt>
      <trkpt lat="44.63799" lon="1.21444">
        <ele>199.421</ele>
        <time>2019-12-03T14:32:06Z</time>
      </trkpt>
      <trkpt lat="44.63775" lon="1.21368">
        <ele>203.776</ele>
        <time>2019-12-03T14:32:26Z</time>
      </trkpt>
      <trkpt lat="44.63758" lon="1.21246">
        <ele>209.263</ele>
        <time>2019-12-03T14:32:46Z</time>
      </trkpt>
      <trkpt lat="44.63741" lon="1.21213">
        <ele>218.533</ele>
        <time>2019-12-03T14:33:06Z</time>
      </trkpt>
      <trkpt lat="44.63667" lon="1.21215">
        <ele>225.054</ele>
        <time>2019-12-03T14:33:26Z</time>
      </trkpt>
      <trkpt lat="44.63613" lon="1.2121">
        <ele>235.366</ele>
        <time>2019-12-03T14:33:46Z</time>
      </trkpt>
      <trkpt lat="44.63579" lon="1.21238">
        <ele>238.296</ele>
        <time>2019-12-03T14:34:06Z</time>
      </trkpt>
      <trkpt lat="44.63538" lon="1.21239">
        <ele>238.131</ele>
        <time>2019-12-03T14:34:26Z</time>
      </trkpt>
      <trkpt lat="44.63561" lon="1.21216">
        <ele>238.524</ele>
        <time>2019-12-03T14:34:46Z</time>
      </trkpt>
      <trkpt lat="44.63598" lon="1.21084">
        <ele>242.608</ele>
        <time>2019-12-03T14:35:06Z</time>
      </trkpt>
      <trkpt lat="44.63641" lon="1.21011">
        <ele>246.756</ele>
        <time>2019-12-03T14:35:26Z</time>
      </trkpt>
      <trkpt lat="44.63662" lon="1.20925">
        <ele>245.139</ele>
        <time>2019-12-03T14:35:46Z</time>
      </trkpt>
      <trkpt lat="44.6367" lon="1.20802">
        <ele>243.923</ele>
        <time>2019-12-03T14:36:06Z</time>
      </trkpt>
      <trkpt lat="44.63686" lon="1.20749">
        <ele>243.548</ele>
        <time>2019-12-03T14:36:26Z</time>
      </trkpt>
      <trkpt lat="44.63708" lon="1.20719">
        <ele>243.245</ele>
        <time>2019-12-03T14:36:46Z</time>
      </trkpt>
      <trkpt lat="44.63721" lon="1.20645">
        <ele>239.135</ele>
        <time>2019-12-03T14:37:06Z</time>
      </trkpt>
      <trkpt lat="44.63739" lon="1.20589">
        <ele>237.216</ele>
        <time>2019-12-03T14:37:26Z</time>
      </trkpt>
      <trkpt lat="44.6374" lon="1.20526">
        <ele>233.958</ele>
        <time>2019-12-03T14:37:46Z</time>
      </trkpt>
      <trkpt lat="44.63735" lon="1.20421">
        <ele>234.558</ele>
        <time>2019-12-03T14:38:06Z</time>
      </trkpt>
      <trkpt lat="44.63719" lon="1.20362">
        <ele>237.152</ele>
        <time>2019-12-03T14:38:26Z</time>
      </trkpt>
      <trkpt lat="44.63671" lon="1.20342">
        <ele>239.717</ele>
        <time>2021-04-14T07:35:01Z</time>
      </trkpt>
      <trkpt lat="44.63608" lon="1.20331">
        <ele>243.508</ele>
        <time>2021-04-14T07:35:21Z</time>
      </trkpt>
      <trkpt lat="44.63541" lon="1.20316">
        <ele>247.862</ele>
        <time>2021-04-14T07:35:41Z</time>
      </trkpt>
      <trkpt lat="44.63477" lon="1.20255">
        <ele>253.785</ele>
        <time>2021-04-14T07:36:01Z</time>
      </trkpt>
      <trkpt lat="44.63444" lon="1.2024">
        <ele>255.989</ele>
        <time>2021-04-14T07:36:21Z</time>
      </trkpt>
      <trkpt lat="44.63397" lon="1.20181">
        <ele>260.284</ele>
        <time>2019-12-03T14:39:46Z</time>
      </trkpt>
      <trkpt lat="44.63316" lon="1.20135">
        <ele>264.651</ele>
        <time>2019-12-03T14:40:06Z</time>
      </trkpt>
      <trkpt lat="44.63275" lon="1.20132">
        <ele>265.391</ele>
        <time>2019-12-03T14:40:26Z</time>
      </trkpt>
      <trkpt lat="44.63222" lon="1.20095">
        <ele>267.312</ele>
        <time>2019-12-03T14:40:46Z</time>
      </trkpt>
      <trkpt lat="44.63165" lon="1.20039">
        <ele>269.964</ele>
        <time>2019-12-03T14:41:06Z</time>
      </trkpt>
      <trkpt lat="44.6316" lon="1.2002">
        <ele>269.989</ele>
        <time>2019-12-03T14:41:26Z</time>
      </trkpt>
      <trkpt lat="44.63067" lon="1.19905">
        <ele>276.606</ele>
        <time>2019-12-03T14:41:46Z</time>
      </trkpt>
      <trkpt lat="44.6301" lon="1.19849">
        <ele>277.526</ele>
        <time>2019-12-03T14:42:06Z</time>
      </trkpt>
      <trkpt lat="44.63038" lon="1.19844">
        <ele>278.408</ele>
        <time>2019-12-03T14:42:26Z</time>
      </trkpt>
      <trkpt lat="44.63056" lon="1.19813">
        <ele>283.665</ele>
        <time>2019-12-03T14:42:46Z</time>
      </trkpt>
      <trkpt lat="44.63059" lon="1.19776">
        <ele>284.448</ele>
        <time>2019-12-03T14:43:06Z</time>
      </trkpt>
      <trkpt lat="44.63051" lon="1.19703">
        <ele>288.472</ele>
        <time>2019-12-03T14:43:26Z</time>
      </trkpt>
      <trkpt lat="44.63073" lon="1.19635">
        <ele>292.137</ele>
        <time>2019-12-03T14:43:46Z</time>
      </trkpt>
      <trkpt lat="44.63074" lon="1.19539">
        <ele>296.154</ele>
        <time>2019-12-03T14:44:06Z</time>
      </trkpt>
      <trkpt lat="44.63082" lon="1.19461">
        <ele>299.294</ele>
        <time>2019-12-03T14:44:26Z</time>
      </trkpt>
      <trkpt lat="44.63026" lon="1.19281">
        <ele>299.085</ele>
        <time>2019-12-03T14:44:46Z</time>
      </trkpt>
      <trkpt lat="44.63048" lon="1.1918">
        <ele>297.387</ele>
        <time>2019-12-03T14:45:06Z</time>
      </trkpt>
      <trkpt lat="44.63056" lon="1.19088">
        <ele>293.877</ele>
        <time>2019-12-03T14:45:26Z</time>
      </trkpt>
      <trkpt lat="44.62945" lon="1.19074">
        <ele>284.761</ele>
        <time>2019-12-03T14:45:46Z</time>
      </trkpt>
      <trkpt lat="44.62875" lon="1.19044">
        <ele>280.027</ele>
        <time>2019-12-03T14:46:06Z</time>
      </trkpt>
      <trkpt lat="44.6287" lon="1.19018">
        <ele>279.508</ele>
        <time>2019-12-03T14:46:26Z</time>
      </trkpt>
      <trkpt lat="44.62845" lon="1.18983">
        <ele>278.274</ele>
        <time>2019-12-03T14:46:46Z</time>
      </trkpt>
      <trkpt lat="44.6282" lon="1.18967">
        <ele>277.627</ele>
        <time>2019-12-03T14:47:06Z</time>
      </trkpt>
      <trkpt lat="44.6275" lon="1.18886">
        <ele>279.211</ele>
        <time>2019-12-03T14:47:26Z</time>
      </trkpt>
      <trkpt lat="44.62624" lon="1.18905">
        <ele>283.176</ele>
        <time>2019-12-03T14:47:46Z</time>
      </trkpt>
      <trkpt lat="44.62397" lon="1.18988">
        <ele>282.463</ele>
        <time>2019-12-03T14:48:06Z</time>
      </trkpt>
      <trkpt lat="44.62318" lon="1.19053">
        <ele>281.913</ele>
        <time>2019-12-03T14:48:26Z</time>
      </trkpt>
      <trkpt lat="44.62273" lon="1.19058">
        <ele>282.124</ele>
        <time>2019-12-03T14:48:46Z</time>
      </trkpt>
      <trkpt lat="44.62103" lon="1.19053">
        <ele>287.256</ele>
        <time>2019-12-03T14:49:06Z</time>
      </trkpt>
      <trkpt lat="44.62048" lon="1.1907">
        <ele>288.717</ele>
        <time>2019-12-03T14:49:26Z</time>
      </trkpt>
      <trkpt lat="44.61903" lon="1.191">
        <ele>280.787</ele>
        <time>2019-12-03T14:49:46Z</time>
      </trkpt>
      <trkpt lat="44.61811" lon="1.19135">
        <ele>276.815</ele>
        <time>2019-12-03T14:50:06Z</time>
      </trkpt>
      <trkpt lat="44.61742" lon="1.19137">
        <ele>277.908</ele>
        <time>2019-12-03T14:50:26Z</time>
      </trkpt>
      <trkpt lat="44.61689" lon="1.19121">
        <ele>279.418</ele>
        <time>2019-12-03T14:50:46Z</time>
      </trkpt>
      <trkpt lat="44.61632" lon="1.19074">
        <ele>281.631</ele>
        <time>2019-12-03T14:51:06Z</time>
      </trkpt>
      <trkpt lat="44.6139" lon="1.19016">
        <ele>281.745</ele>
        <time>2019-12-03T14:51:26Z</time>
      </trkpt>
      <trkpt lat="44.61385" lon="1.1892">
        <ele>279.89</ele>
        <time>2019-12-03T14:51:46Z</time>
      </trkpt>
      <trkpt lat="44.61355" lon="1.18905">
        <ele>277.937</ele>
        <time>2019-12-03T14:52:06Z</time>
      </trkpt>
      <trkpt lat="44.61314" lon="1.18905">
        <ele>275.337</ele>
        <time>2019-12-03T14:52:26Z</time>
      </trkpt>
      <trkpt lat="44.61212" lon="1.18821">
        <ele>269.348</ele>
        <time>2019-12-03T14:52:46Z</time>
      </trkpt>
      <trkpt lat="44.61006" lon="1.18788">
        <ele>255.31</ele>
        <time>2019-12-03T14:53:06Z</time>
      </trkpt>
      <trkpt lat="44.60919" lon="1.18758">
        <ele>251.634</ele>
        <time>2019-12-03T14:53:26Z</time>
      </trkpt>
      <trkpt lat="44.6085" lon="1.18729">
        <ele>250.255</ele>
        <time>2019-12-03T14:53:46Z</time>
      </trkpt>
      <trkpt lat="44.6079" lon="1.18764">
        <ele>251.31</ele>
        <time>2019-12-03T14:54:06Z</time>
      </trkpt>
      <trkpt lat="44.60708" lon="1.18858">
        <ele>251.608</ele>
        <time>2019-12-03T14:54:26Z</time>
      </trkpt>
      <trkpt lat="44.60651" lon="1.18971">
        <ele>249.72</ele>
        <time>2019-12-03T14:54:46Z</time>
      </trkpt>
      <trkpt lat="44.60591" lon="1.1902">
        <ele>247.383</ele>
        <time>2019-12-03T14:55:06Z</time>
      </trkpt>
      <trkpt lat="44.60507" lon="1.19004">
        <ele>244.217</ele>
        <time>2019-12-03T14:55:26Z</time>
      </trkpt>
      <trkpt lat="44.60444" lon="1.19027">
        <ele>241.652</ele>
        <time>2019-12-03T14:55:46Z</time>
      </trkpt>
      <trkpt lat="44.60387" lon="1.19021">
        <ele>238.959</ele>
        <time>2019-12-03T14:56:06Z</time>
      </trkpt>
      <trkpt lat="44.60355" lon="1.18966">
        <ele>239.649</ele>
        <time>2019-12-03T14:56:26Z</time>
      </trkpt>
      <trkpt lat="44.60346" lon="1.18912">
        <ele>238.89</ele>
        <time>2019-12-03T14:56:46Z</time>
      </trkpt>
      <trkpt lat="44.60294" lon="1.1887">
        <ele>238.382</ele>
        <time>2019-12-03T14:57:06Z</time>
      </trkpt>
      <trkpt lat="44.60344" lon="1.18755">
        <ele>237.693</ele>
        <time>2019-12-03T14:57:26Z</time>
      </trkpt>
      <trkpt lat="44.60353" lon="1.18651">
        <ele>239.265</ele>
        <time>2019-12-03T14:57:46Z</time>
      </trkpt>
      <trkpt lat="44.60313" lon="1.18542">
        <ele>242.621</ele>
        <time>2019-12-03T14:58:06Z</time>
      </trkpt>
      <trkpt lat="44.60151" lon="1.18259">
        <ele>241.008</ele>
        <time>2019-12-03T14:58:26Z</time>
      </trkpt>
      <trkpt lat="44.60043" lon="1.18198">
        <ele>236.086</ele>
        <time>2019-12-03T14:58:46Z</time>
      </trkpt>
      <trkpt lat="44.59998" lon="1.18194">
        <ele>233.849</ele>
        <time>2019-12-03T14:59:06Z</time>
      </trkpt>
      <trkpt lat="44.59868" lon="1.1826">
        <ele>230.823</ele>
        <time>2019-12-03T14:59:26Z</time>
      </trkpt>
      <trkpt lat="44.59761" lon="1.18135">
        <ele>220.628</ele>
        <time>2019-12-03T14:59:46Z</time>
      </trkpt>
      <trkpt lat="44.59758" lon="1.18054">
        <ele>218.955</ele>
        <time>2019-12-03T15:00:06Z</time>
      </trkpt>
      <trkpt lat="44.59767" lon="1.1791">
        <ele>218.175</ele>
        <time>2019-12-03T15:00:26Z</time>
      </trkpt>
      <trkpt lat="44.59727" lon="1.17862">
        <ele>217.646</ele>
        <time>2019-12-03T15:00:46Z</time>
      </trkpt>
      <trkpt lat="44.5963" lon="1.17786">
        <ele>213.838</ele>
        <time>2019-12-03T15:01:06Z</time>
      </trkpt>
      <trkpt lat="44.59575" lon="1.17751">
        <ele>213.289</ele>
        <time>2019-12-03T15:01:26Z</time>
      </trkpt>
      <trkpt lat="44.59538" lon="1.17672">
        <ele>210.006</ele>
        <time>2019-12-03T15:01:46Z</time>
      </trkpt>
      <trkpt lat="44.59484" lon="1.17571">
        <ele>207.526</ele>
        <time>2019-12-03T15:02:06Z</time>
      </trkpt>
      <trkpt lat="44.5947" lon="1.17486">
        <ele>208.508</ele>
        <time>2019-12-03T15:02:26Z</time>
      </trkpt>
      <trkpt lat="44.5944" lon="1.17418">
        <ele>207.495</ele>
        <time>2019-12-03T15:02:46Z</time>
      </trkpt>
      <trkpt lat="44.5946" lon="1.17416">
        <ele>207.158</ele>
        <time>2019-12-03T15:03:06Z</time>
      </trkpt>
      <trkpt lat="44.59506" lon="1.17376">
        <ele>211.992</ele>
        <time>2019-12-03T15:03:26Z</time>
      </trkpt>
      <trkpt lat="44.59561" lon="1.17359">
        <ele>214.687</ele>
        <time>2019-12-03T15:03:46Z</time>
      </trkpt>
      <trkpt lat="44.59609" lon="1.17303">
        <ele>221.854</ele>
        <time>2019-12-03T15:04:06Z</time>
      </trkpt>
      <trkpt lat="44.59651" lon="1.17289">
        <ele>224.154</ele>
        <time>2019-12-03T15:04:26Z</time>
      </trkpt>
      <trkpt lat="44.5966" lon="1.17265">
        <ele>225.635</ele>
        <time>2019-12-03T15:04:46Z</time>
      </trkpt>
      <trkpt lat="44.59662" lon="1.17209">
        <ele>226.857</ele>
        <time>2019-12-03T15:05:06Z</time>
      </trkpt>
      <trkpt lat="44.5969" lon="1.17151">
        <ele>235.082</ele>
        <time>2019-12-03T15:05:26Z</time>
      </trkpt>
      <trkpt lat="44.59695" lon="1.1708">
        <ele>237.543</ele>
        <time>2019-12-03T15:05:46Z</time>
      </trkpt>
      <trkpt lat="44.59762" lon="1.16885">
        <ele>239.417</ele>
        <time>2019-12-03T15:06:06Z</time>
      </trkpt>
      <trkpt lat="44.59727" lon="1.16733">
        <ele>249.408</ele>
        <time>2019-12-03T15:06:26Z</time>
      </trkpt>
      <trkpt lat="44.59714" lon="1.16632">
        <ele>253.485</ele>
        <time>2019-12-03T15:06:46Z</time>
      </trkpt>
      <trkpt lat="44.59696" lon="1.16566">
        <ele>255.958</ele>
        <time>2019-12-03T15:07:06Z</time>
      </trkpt>
      <trkpt lat="44.5969" lon="1.16465">
        <ele>261.982</ele>
        <time>2019-12-03T15:07:26Z</time>
      </trkpt>
      <trkpt lat="44.59675" lon="1.16418">
        <ele>263.727</ele>
        <time>2019-12-03T15:07:46Z</time>
      </trkpt>
      <trkpt lat="44.59568" lon="1.16147">
        <ele>256.684</ele>
        <time>2019-12-03T15:08:06Z</time>
      </trkpt>
      <trkpt lat="44.59323" lon="1.16111">
        <ele>243.934</ele>
        <time>2019-12-03T15:08:26Z</time>
      </trkpt>
      <trkpt lat="44.5916" lon="1.16116">
        <ele>240.855</ele>
        <time>2019-12-03T15:08:46Z</time>
      </trkpt>
      <trkpt lat="44.59115" lon="1.16146">
        <ele>239.277</ele>
        <time>2019-12-03T15:09:06Z</time>
      </trkpt>
      <trkpt lat="44.58899" lon="1.16235">
        <ele>227.678</ele>
        <time>2019-12-03T15:09:26Z</time>
      </trkpt>
      <trkpt lat="44.58806" lon="1.16343">
        <ele>224.033</ele>
        <time>2019-12-03T15:09:46Z</time>
      </trkpt>
      <trkpt lat="44.58705" lon="1.16402">
        <ele>214.626</ele>
        <time>2019-12-03T15:10:06Z</time>
      </trkpt>
      <trkpt lat="44.58623" lon="1.16339">
        <ele>209.308</ele>
        <time>2019-12-03T15:10:26Z</time>
      </trkpt>
      <trkpt lat="44.5859" lon="1.16303">
        <ele>206.774</ele>
        <time>2019-12-03T15:10:46Z</time>
      </trkpt>
      <trkpt lat="44.58524" lon="1.16308">
        <ele>203.097</ele>
        <time>2019-12-03T15:11:06Z</time>
      </trkpt>
      <trkpt lat="44.58462" lon="1.16332">
        <ele>197.981</ele>
        <time>2019-12-03T15:11:26Z</time>
      </trkpt>
      <trkpt lat="44.58447" lon="1.16308">
        <ele>196.656</ele>
        <time>2019-12-03T15:11:46Z</time>
      </trkpt>
      <trkpt lat="44.58366" lon="1.16306">
        <ele>189.543</ele>
        <time>2019-12-03T15:12:06Z</time>
      </trkpt>
      <trkpt lat="44.58343" lon="1.16356">
        <ele>187.343</ele>
        <time>2021-04-14T08:09:21Z</time>
      </trkpt>
      <trkpt lat="44.58301" lon="1.16365">
        <ele>185.374</ele>
        <time>2019-12-03T15:12:46Z</time>
      </trkpt>
      <trkpt lat="44.58288" lon="1.16418">
        <ele>185.566</ele>
        <time>2021-04-14T08:10:01Z</time>
      </trkpt>
      <trkpt lat="44.58274" lon="1.16442">
        <ele>186.688</ele>
        <time>2021-04-14T08:10:21Z</time>
      </trkpt>
      <trkpt lat="44.5822" lon="1.16454">
        <ele>187.424</ele>
        <time>2019-12-03T15:13:26Z</time>
      </trkpt>
      <trkpt lat="44.58204" lon="1.16444">
        <ele>186.626</ele>
        <time>2021-04-14T08:11:01Z</time>
      </trkpt>
      <trkpt lat="44.58211" lon="1.16383">
        <ele>184.208</ele>
        <time>2021-04-14T08:11:21Z</time>
      </trkpt>
      <trkpt lat="44.58203" lon="1.16374">
        <ele>183.955</ele>
        <time>2021-04-14T08:11:41Z</time>
      </trkpt>
      <trkpt lat="44.58179" lon="1.16386">
        <ele>184.068</ele>
        <time>2021-04-14T08:12:01Z</time>
      </trkpt>
      <trkpt lat="44.58139" lon="1.16376">
        <ele>183.282</ele>
        <time>2021-04-14T08:12:21Z</time>
      </trkpt>
      <trkpt lat="44.58113" lon="1.16348">
        <ele>181.527</ele>
        <time>2021-04-14T08:12:41Z</time>
      </trkpt>
      <trkpt lat="44.58121" lon="1.16332">
        <ele>181.074</ele>
        <time>2021-04-14T08:13:01Z</time>
      </trkpt>
      <trkpt lat="44.58108" lon="1.1627">
        <ele>183.544</ele>
        <time>2021-04-14T08:13:21Z</time>
      </trkpt>
      <trkpt lat="44.58102" lon="1.16221">
        <ele>184.125</ele>
        <time>2021-04-14T08:13:41Z</time>
      </trkpt>
      <trkpt lat="44.58082" lon="1.1614">
        <ele>183.577</ele>
        <time>2021-04-14T08:14:01Z</time>
      </trkpt>
      <trkpt lat="44.58109" lon="1.16139">
        <ele>187.914</ele>
        <time>2019-12-03T15:16:06Z</time>
      </trkpt>
      <trkpt lat="44.58145" lon="1.16102">
        <ele>191.154</ele>
        <time>2019-12-03T15:16:26Z</time>
      </trkpt>
      <trkpt lat="44.58186" lon="1.16142">
        <ele>194.109</ele>
        <time>2019-12-03T15:16:46Z</time>
      </trkpt>
      <trkpt lat="44.58215" lon="1.16053">
        <ele>198.208</ele>
        <time>2019-12-03T15:17:06Z</time>
      </trkpt>
      <trkpt lat="44.58234" lon="1.15959">
        <ele>206.178</ele>
        <time>2019-12-03T15:17:26Z</time>
      </trkpt>
      <trkpt lat="44.58216" lon="1.15884">
        <ele>215.871</ele>
        <time>2019-12-03T15:17:46Z</time>
      </trkpt>
      <trkpt lat="44.58217" lon="1.15809">
        <ele>221.725</ele>
        <time>2019-12-03T15:18:06Z</time>
      </trkpt>
      <trkpt lat="44.58172" lon="1.15771">
        <ele>224.25</ele>
        <time>2019-12-03T15:18:26Z</time>
      </trkpt>
      <trkpt lat="44.58149" lon="1.15706">
        <ele>224.337</ele>
        <time>2019-12-03T15:18:46Z</time>
      </trkpt>
      <trkpt lat="44.58143" lon="1.15649">
        <ele>227.887</ele>
        <time>2019-12-03T15:19:06Z</time>
      </trkpt>
      <trkpt lat="44.58109" lon="1.15567">
        <ele>229.028</ele>
        <time>2019-12-03T15:19:26Z</time>
      </trkpt>
      <trkpt lat="44.58107" lon="1.15489">
        <ele>230.11</ele>
        <time>2019-12-03T15:19:46Z</time>
      </trkpt>
      <trkpt lat="44.58076" lon="1.15259">
        <ele>233.388</ele>
        <time>2019-12-03T15:20:06Z</time>
      </trkpt>
      <trkpt lat="44.58076" lon="1.15168">
        <ele>229.824</ele>
        <time>2019-12-03T15:20:26Z</time>
      </trkpt>
      <trkpt lat="44.57853" lon="1.15236">
        <ele>225.426</ele>
        <time>2019-12-03T15:20:46Z</time>
      </trkpt>
      <trkpt lat="44.57794" lon="1.15241">
        <ele>220.408</ele>
        <time>2019-12-03T15:21:06Z</time>
      </trkpt>
      <trkpt lat="44.57759" lon="1.15266">
        <ele>216.735</ele>
        <time>2019-12-03T15:21:26Z</time>
      </trkpt>
      <trkpt lat="44.57679" lon="1.15278">
        <ele>208.338</ele>
        <time>2019-12-03T15:21:46Z</time>
      </trkpt>
      <trkpt lat="44.57627" lon="1.15271">
        <ele>202.192</ele>
        <time>2019-12-03T15:22:06Z</time>
      </trkpt>
      <trkpt lat="44.57491" lon="1.15323">
        <ele>188.237</ele>
        <time>2019-12-03T15:22:26Z</time>
      </trkpt>
      <trkpt lat="44.57398" lon="1.1537">
        <ele>183.314</ele>
        <time>2019-12-03T15:22:46Z</time>
      </trkpt>
      <trkpt lat="44.57353" lon="1.15541">
        <ele>176.624</ele>
        <time>2019-12-03T15:23:06Z</time>
      </trkpt>
      <trkpt lat="44.57357" lon="1.15565">
        <ele>176.185</ele>
        <time>2019-12-03T15:23:26Z</time>
      </trkpt>
      <trkpt lat="44.57331" lon="1.15841">
        <ele>177.127</ele>
        <time>2019-12-03T15:23:46Z</time>
      </trkpt>
      <trkpt lat="44.57299" lon="1.15886">
        <ele>177.893</ele>
        <time>2019-12-03T15:24:06Z</time>
      </trkpt>
      <trkpt lat="44.57268" lon="1.15905">
        <ele>177.265</ele>
        <time>2019-12-03T15:24:26Z</time>
      </trkpt>
      <trkpt lat="44.57188" lon="1.15874">
        <ele>175.621</ele>
        <time>2019-12-03T15:24:46Z</time>
      </trkpt>
      <trkpt lat="44.57132" lon="1.15872">
        <ele>178.008</ele>
        <time>2019-12-03T15:25:06Z</time>
      </trkpt>
      <trkpt lat="44.57" lon="1.15933">
        <ele>185.986</ele>
        <time>2019-12-03T15:25:26Z</time>
      </trkpt>
      <trkpt lat="44.56915" lon="1.1595">
        <ele>190.199</ele>
        <time>2019-12-03T15:25:46Z</time>
      </trkpt>
      <trkpt lat="44.5672" lon="1.15682">
        <ele>209.383</ele>
        <time>2019-12-03T15:26:06Z</time>
      </trkpt>
      <trkpt lat="44.56699" lon="1.15686">
        <ele>210.548</ele>
        <time>2019-12-03T15:26:26Z</time>
      </trkpt>
      <trkpt lat="44.56633" lon="1.15724">
        <ele>216.925</ele>
        <time>2019-12-03T15:26:46Z</time>
      </trkpt>
      <trkpt lat="44.56569" lon="1.1572">
        <ele>219.555</ele>
        <time>2019-12-03T15:27:06Z</time>
      </trkpt>
      <trkpt lat="44.56498" lon="1.15769">
        <ele>223.066</ele>
        <time>2019-12-03T15:27:26Z</time>
      </trkpt>
      <trkpt lat="44.56358" lon="1.15719">
        <ele>230.248</ele>
        <time>2019-12-03T15:27:46Z</time>
      </trkpt>
      <trkpt lat="44.56302" lon="1.1574">
        <ele>235.325</ele>
        <time>2019-12-03T15:28:06Z</time>
      </trkpt>
      <trkpt lat="44.56291" lon="1.15713">
        <ele>236.126</ele>
        <time>2019-12-03T15:28:26Z</time>
      </trkpt>
      <trkpt lat="44.5626" lon="1.15706">
        <ele>237.108</ele>
        <time>2019-12-03T15:28:46Z</time>
      </trkpt>
      <trkpt lat="44.56132" lon="1.15783">
        <ele>250.308</ele>
        <time>2019-12-03T15:29:06Z</time>
      </trkpt>
      <trkpt lat="44.55968" lon="1.15801">
        <ele>261.369</ele>
        <time>2019-12-03T15:29:26Z</time>
      </trkpt>
      <trkpt lat="44.55882" lon="1.15802">
        <ele>266.112</ele>
        <time>2019-12-03T15:29:46Z</time>
      </trkpt>
      <trkpt lat="44.55788" lon="1.1578">
        <ele>269.916</ele>
        <time>2019-12-03T15:30:06Z</time>
      </trkpt>
      <trkpt lat="44.55759" lon="1.15738">
        <ele>270.521</ele>
        <time>2019-12-03T15:30:26Z</time>
      </trkpt>
      <trkpt lat="44.55617" lon="1.15701">
        <ele>275.488</ele>
        <time>2019-12-03T15:30:46Z</time>
      </trkpt>
      <trkpt lat="44.55485" lon="1.1568">
        <ele>273.198</ele>
        <time>2019-12-03T15:31:06Z</time>
      </trkpt>
      <trkpt lat="44.55312" lon="1.15614">
        <ele>274.349</ele>
        <time>2019-12-03T15:31:26Z</time>
      </trkpt>
      <trkpt lat="44.55261" lon="1.15567">
        <ele>274.981</ele>
        <time>2019-12-03T15:31:46Z</time>
      </trkpt>
      <trkpt lat="44.5521" lon="1.15485">
        <ele>281.082</ele>
        <time>2019-12-03T15:32:06Z</time>
      </trkpt>
      <trkpt lat="44.55163" lon="1.15457">
        <ele>289.043</ele>
        <time>2019-12-03T15:32:26Z</time>
      </trkpt>
      <trkpt lat="44.55116" lon="1.15443">
        <ele>289.617</ele>
        <time>2019-12-03T15:32:46Z</time>
      </trkpt>
      <trkpt lat="44.55064" lon="1.1533">
        <ele>290.108</ele>
        <time>2019-12-03T15:33:06Z</time>
      </trkpt>
      <trkpt lat="44.55029" lon="1.1521">
        <ele>288.985</ele>
        <time>2019-12-03T15:33:26Z</time>
      </trkpt>
      <trkpt lat="44.55018" lon="1.15096">
        <ele>285.488</ele>
        <time>2019-12-03T15:33:46Z</time>
      </trkpt>
      <trkpt lat="44.54989" lon="1.15006">
        <ele>283.612</ele>
        <time>2019-12-03T15:34:06Z</time>
      </trkpt>
      <trkpt lat="44.54895" lon="1.14765">
        <ele>288.217</ele>
        <time>2019-12-03T15:34:26Z</time>
      </trkpt>
      <trkpt lat="44.54865" lon="1.14633">
        <ele>282.834</ele>
        <time>2019-12-03T15:34:46Z</time>
      </trkpt>
      <trkpt lat="44.54814" lon="1.14551">
        <ele>278.544</ele>
        <time>2019-12-03T15:35:06Z</time>
      </trkpt>
      <trkpt lat="44.54769" lon="1.14418">
        <ele>275.635</ele>
        <time>2019-12-03T15:35:26Z</time>
      </trkpt>
      <trkpt lat="44.54748" lon="1.1434">
        <ele>276.417</ele>
        <time>2019-12-03T15:35:46Z</time>
      </trkpt>
      <trkpt lat="44.54675" lon="1.14283">
        <ele>278.415</ele>
        <time>2019-12-03T15:36:06Z</time>
      </trkpt>
      <trkpt lat="44.54604" lon="1.14148">
        <ele>277.065</ele>
        <time>2019-12-03T15:36:26Z</time>
      </trkpt>
      <trkpt lat="44.54537" lon="1.13976">
        <ele>269.411</ele>
        <time>2019-12-03T15:36:46Z</time>
      </trkpt>
      <trkpt lat="44.5454" lon="1.13931">
        <ele>269.608</ele>
        <time>2019-12-03T15:37:06Z</time>
      </trkpt>
      <trkpt lat="44.54515" lon="1.13845">
        <ele>267.578</ele>
        <time>2019-12-03T15:37:26Z</time>
      </trkpt>
      <trkpt lat="44.54487" lon="1.13775">
        <ele>261.451</ele>
        <time>2019-12-03T15:37:46Z</time>
      </trkpt>
      <trkpt lat="44.54426" lon="1.13777">
        <ele>257.235</ele>
        <time>2019-12-03T15:38:06Z</time>
      </trkpt>
      <trkpt lat="44.54382" lon="1.13608">
        <ele>246.52</ele>
        <time>2019-12-03T15:38:26Z</time>
      </trkpt>
      <trkpt lat="44.54384" lon="1.13524">
        <ele>244.847</ele>
        <time>2019-12-03T15:38:46Z</time>
      </trkpt>
      <trkpt lat="44.54421" lon="1.13496">
        <ele>244.637</ele>
        <time>2019-12-03T15:39:06Z</time>
      </trkpt>
      <trkpt lat="44.54429" lon="1.13439">
        <ele>242.778</ele>
        <time>2019-12-03T15:39:26Z</time>
      </trkpt>
      <trkpt lat="44.54423" lon="1.13394">
        <ele>240.19</ele>
        <time>2019-12-03T15:39:46Z</time>
      </trkpt>
      <trkpt lat="44.54409" lon="1.13373">
        <ele>239.558</ele>
        <time>2019-12-03T15:40:06Z</time>
      </trkpt>
      <trkpt lat="44.54403" lon="1.1328">
        <ele>235.652</ele>
        <time>2019-12-03T15:40:26Z</time>
      </trkpt>
      <trkpt lat="44.54382" lon="1.1327">
        <ele>235.817</ele>
        <time>2019-12-03T15:40:46Z</time>
      </trkpt>
      <trkpt lat="44.54327" lon="1.1316">
        <ele>238.208</ele>
        <time>2019-12-03T15:41:06Z</time>
      </trkpt>
      <trkpt lat="44.54254" lon="1.13082">
        <ele>240.512</ele>
        <time>2019-12-03T15:41:26Z</time>
      </trkpt>
      <trkpt lat="44.54211" lon="1.13056">
        <ele>242.855</ele>
        <time>2019-12-03T15:41:46Z</time>
      </trkpt>
      <trkpt lat="44.54138" lon="1.13029">
        <ele>248.329</ele>
        <time>2019-12-03T15:42:06Z</time>
      </trkpt>
      <trkpt lat="44.54122" lon="1.12918">
        <ele>254.244</ele>
        <time>2019-12-03T15:42:26Z</time>
      </trkpt>
      <trkpt lat="44.54019" lon="1.12984">
        <ele>255.121</ele>
        <time>2019-12-03T15:42:46Z</time>
      </trkpt>
      <trkpt lat="44.53933" lon="1.13022">
        <ele>259.771</ele>
        <time>2019-12-03T15:43:06Z</time>
      </trkpt>
      <trkpt lat="44.53856" lon="1.13047">
        <ele>265.022</ele>
        <time>2019-12-03T15:43:26Z</time>
      </trkpt>
      <trkpt lat="44.53736" lon="1.13136">
        <ele>271.834</ele>
        <time>2019-12-03T15:43:46Z</time>
      </trkpt>
      <trkpt lat="44.53723" lon="1.13066">
        <ele>270.857</ele>
        <time>2019-12-03T15:44:06Z</time>
      </trkpt>
      <trkpt lat="44.53664" lon="1.12944">
        <ele>269.9</ele>
        <time>2019-12-03T15:44:26Z</time>
      </trkpt>
      <trkpt lat="44.53613" lon="1.12853">
        <ele>271.22</ele>
        <time>2019-12-03T15:44:46Z</time>
      </trkpt>
      <trkpt lat="44.53568" lon="1.12751">
        <ele>268.408</ele>
        <time>2019-12-03T15:45:06Z</time>
      </trkpt>
      <trkpt lat="44.53565" lon="1.12595">
        <ele>255.052</ele>
        <time>2019-12-03T15:45:26Z</time>
      </trkpt>
      <trkpt lat="44.53574" lon="1.12439">
        <ele>243.645</ele>
        <time>2019-12-03T15:45:46Z</time>
      </trkpt>
      <trkpt lat="44.5363" lon="1.12428">
        <ele>242.039</ele>
        <time>2019-12-03T15:46:06Z</time>
      </trkpt>
      <trkpt lat="44.53655" lon="1.12383">
        <ele>240.864</ele>
        <time>2019-12-03T15:46:26Z</time>
      </trkpt>
      <trkpt lat="44.53705" lon="1.12189">
        <ele>234.781</ele>
        <time>2019-12-03T15:46:46Z</time>
      </trkpt>
      <trkpt lat="44.53712" lon="1.11957">
        <ele>245.411</ele>
        <time>2019-12-03T15:47:06Z</time>
      </trkpt>
      <trkpt lat="44.53733" lon="1.11818">
        <ele>247.042</ele>
        <time>2019-12-03T15:47:26Z</time>
      </trkpt>
      <trkpt lat="44.53788" lon="1.11576">
        <ele>244.074</ele>
        <time>2019-12-03T15:47:46Z</time>
      </trkpt>
      <trkpt lat="44.53831" lon="1.11318">
        <ele>264.846</ele>
        <time>2019-12-03T15:48:06Z</time>
      </trkpt>
      <trkpt lat="44.53831" lon="1.11131">
        <ele>263.188</ele>
        <time>2019-12-03T15:48:26Z</time>
      </trkpt>
      <trkpt lat="44.53847" lon="1.11055">
        <ele>260.816</ele>
        <time>2019-12-03T15:48:46Z</time>
      </trkpt>
      <trkpt lat="44.53838" lon="1.10839">
        <ele>246.808</ele>
        <time>2019-12-03T15:49:06Z</time>
      </trkpt>
      <trkpt lat="44.5383" lon="1.10713">
        <ele>234.161</ele>
        <time>2019-12-03T15:49:26Z</time>
      </trkpt>
      <trkpt lat="44.53803" lon="1.10586">
        <ele>235.084</ele>
        <time>2019-12-03T15:49:46Z</time>
      </trkpt>
      <trkpt lat="44.53782" lon="1.10534">
        <ele>239.928</ele>
        <time>2019-12-03T15:50:06Z</time>
      </trkpt>
      <trkpt lat="44.53769" lon="1.1042">
        <ele>244.273</ele>
        <time>2019-12-03T15:50:26Z</time>
      </trkpt>
      <trkpt lat="44.53767" lon="1.10283">
        <ele>242.71</ele>
        <time>2019-12-03T15:50:46Z</time>
      </trkpt>
      <trkpt lat="44.53759" lon="1.10126">
        <ele>248.08</ele>
        <time>2019-12-03T15:51:06Z</time>
      </trkpt>
      <trkpt lat="44.5377" lon="1.10002">
        <ele>253.551</ele>
        <time>2019-12-03T15:51:26Z</time>
      </trkpt>
      <trkpt lat="44.53772" lon="1.09889">
        <ele>252.973</ele>
        <time>2019-12-03T15:51:46Z</time>
      </trkpt>
      <trkpt lat="44.53799" lon="1.09831">
        <ele>250.226</ele>
        <time>2019-12-03T15:52:06Z</time>
      </trkpt>
      <trkpt lat="44.53835" lon="1.09781">
        <ele>251.047</ele>
        <time>2019-12-03T15:52:26Z</time>
      </trkpt>
      <trkpt lat="44.53891" lon="1.09676">
        <ele>247.311</ele>
        <time>2019-12-03T15:52:46Z</time>
      </trkpt>
      <trkpt lat="44.53934" lon="1.09624">
        <ele>242.608</ele>
        <time>2019-12-03T15:53:06Z</time>
      </trkpt>
      <trkpt lat="44.53964" lon="1.09556">
        <ele>237.839</ele>
        <time>2019-12-03T15:53:26Z</time>
      </trkpt>
      <trkpt lat="44.53997" lon="1.09444">
        <ele>230.032</ele>
        <time>2019-12-03T15:53:46Z</time>
      </trkpt>
      <trkpt lat="44.54067" lon="1.09319">
        <ele>230.946</ele>
        <time>2019-12-03T15:54:06Z</time>
      </trkpt>
      <trkpt lat="44.54076" lon="1.09268">
        <ele>231.261</ele>
        <time>2019-12-03T15:54:26Z</time>
      </trkpt>
      <trkpt lat="44.54082" lon="1.09192">
        <ele>234.448</ele>
        <time>2019-12-03T15:54:46Z</time>
      </trkpt>
      <trkpt lat="44.54108" lon="1.0909">
        <ele>236.088</ele>
        <time>2019-12-03T15:55:06Z</time>
      </trkpt>
      <trkpt lat="44.54121" lon="1.09021">
        <ele>232.149</ele>
        <time>2019-12-03T15:55:26Z</time>
      </trkpt>
      <trkpt lat="44.54116" lon="1.08976">
        <ele>226.491</ele>
        <time>2019-12-03T15:55:46Z</time>
      </trkpt>
      <trkpt lat="44.54113" lon="1.08912">
        <ele>220.944</ele>
        <time>2019-12-03T15:56:06Z</time>
      </trkpt>
      <trkpt lat="44.54117" lon="1.08891">
        <ele>220.605</ele>
        <time>2019-12-03T15:56:26Z</time>
      </trkpt>
      <trkpt lat="44.54218" lon="1.08897">
        <ele>218.215</ele>
        <time>2021-04-14T08:55:01Z</time>
      </trkpt>
      <trkpt lat="44.54288" lon="1.08867">
        <ele>213.708</ele>
        <time>2021-04-14T08:55:21Z</time>
      </trkpt>
      <trkpt lat="44.54239" lon="1.08696">
        <ele>209.621</ele>
        <time>2020-06-04T20:40:20Z</time>
      </trkpt>
      <trkpt lat="44.54234" lon="1.08618">
        <ele>211.554</ele>
        <time>2020-06-04T20:40:40Z</time>
      </trkpt>
      <trkpt lat="44.54174" lon="1.08387">
        <ele>205.538</ele>
        <time>2020-06-04T20:41:00Z</time>
      </trkpt>
      <trkpt lat="44.54146" lon="1.08334">
        <ele>205.913</ele>
        <time>2019-12-03T15:58:46Z</time>
      </trkpt>
      <trkpt lat="44.54111" lon="1.08253">
        <ele>208.79</ele>
        <time>2019-12-03T15:59:06Z</time>
      </trkpt>
      <trkpt lat="44.54105" lon="1.08222">
        <ele>210.65</ele>
        <time>2019-12-03T15:59:26Z</time>
      </trkpt>
      <trkpt lat="44.54131" lon="1.08177">
        <ele>211.161</ele>
        <time>2019-12-03T15:59:46Z</time>
      </trkpt>
      <trkpt lat="44.54132" lon="1.08147">
        <ele>209.043</ele>
        <time>2019-12-03T16:00:06Z</time>
      </trkpt>
      <trkpt lat="44.54111" lon="1.08093">
        <ele>207.138</ele>
        <time>2019-12-03T16:00:26Z</time>
      </trkpt>
      <trkpt lat="44.54109" lon="1.07976">
        <ele>207.37</ele>
        <time>2019-12-03T16:00:46Z</time>
      </trkpt>
      <trkpt lat="44.541" lon="1.07943">
        <ele>207.917</ele>
        <time>2019-12-03T16:01:06Z</time>
      </trkpt>
      <trkpt lat="44.54124" lon="1.07952">
        <ele>209.008</ele>
        <time>2019-12-03T16:01:26Z</time>
      </trkpt>
      <trkpt lat="44.54151" lon="1.07942">
        <ele>211.38</ele>
        <time>2019-12-03T16:01:46Z</time>
      </trkpt>
      <trkpt lat="44.54218" lon="1.07768">
        <ele>212.083</ele>
        <time>2019-12-03T16:02:06Z</time>
      </trkpt>
      <trkpt lat="44.54205" lon="1.07579">
        <ele>181.577</ele>
        <time>2019-12-03T16:02:26Z</time>
      </trkpt>
      <trkpt lat="44.5418" lon="1.07496">
        <ele>183.432</ele>
        <time>2019-12-03T16:02:46Z</time>
      </trkpt>
      <trkpt lat="44.54224" lon="1.07382">
        <ele>186.979</ele>
        <time>2019-12-03T16:03:06Z</time>
      </trkpt>
      <trkpt lat="44.54195" lon="1.0735">
        <ele>187.619</ele>
        <time>2021-01-05T00:46:22Z</time>
      </trkpt>
      <trkpt lat="44.54233" lon="1.0726">
        <ele>174.17</ele>
        <time>2021-01-05T00:46:42Z</time>
      </trkpt>
      <trkpt lat="44.543" lon="1.07244">
        <ele>161.882</ele>
        <time>2021-01-05T00:47:02Z</time>
      </trkpt>
      <trkpt lat="44.54289" lon="1.0723">
        <ele>160.041</ele>
        <time>2021-01-05T00:47:22Z</time>
      </trkpt>
      <trkpt lat="44.54266" lon="1.07221">
        <ele>161.681</ele>
        <time>2021-01-05T00:47:42Z</time>
      </trkpt>
      <trkpt lat="44.54286" lon="1.07204">
        <ele>154.109</ele>
        <time>2021-01-05T00:48:02Z</time>
      </trkpt>
      <trkpt lat="44.54268" lon="1.07191">
        <ele>153.908</ele>
        <time>2021-01-05T00:48:22Z</time>
      </trkpt>
      <trkpt lat="44.54291" lon="1.07187">
        <ele>149.241</ele>
        <time>2021-01-05T00:48:42Z</time>
      </trkpt>
      <trkpt lat="44.54276" lon="1.07159">
        <ele>144.964</ele>
        <time>2021-01-05T00:49:02Z</time>
      </trkpt>
      <trkpt lat="44.54313" lon="1.07157">
        <ele>138.588</ele>
        <time>2021-01-05T00:49:22Z</time>
      </trkpt>
      <trkpt lat="44.54347" lon="1.07144">
        <ele>130.813</ele>
        <time>2021-01-05T00:49:42Z</time>
      </trkpt>
      <trkpt lat="44.54349" lon="1.07111">
        <ele>125.53</ele>
        <time>2021-01-05T00:50:02Z</time>
      </trkpt>
      <trkpt lat="44.54438" lon="1.06968">
        <ele>125.39</ele>
        <time>2021-01-05T00:50:22Z</time>
      </trkpt>
      <trkpt lat="44.54438" lon="1.0688">
        <ele>130.921</ele>
        <time>2021-01-05T00:50:42Z</time>
      </trkpt>
      <trkpt lat="44.54387" lon="1.06865">
        <ele>128.883</ele>
        <time>2021-01-05T00:51:02Z</time>
      </trkpt>
      <trkpt lat="44.54313" lon="1.06784">
        <ele>137.589</ele>
        <time>2021-01-05T00:51:22Z</time>
      </trkpt>
      <trkpt lat="44.54277" lon="1.06708">
        <ele>143.806</ele>
        <time>2021-01-05T00:51:42Z</time>
      </trkpt>
      <trkpt lat="44.54178" lon="1.06565">
        <ele>134.526</ele>
        <time>2021-01-05T00:52:02Z</time>
      </trkpt>
      <trkpt lat="44.54109" lon="1.06543">
        <ele>122.208</ele>
        <time>2021-01-05T00:52:22Z</time>
      </trkpt>
      <trkpt lat="44.54079" lon="1.06523">
        <ele>119.015</ele>
        <time>2021-01-05T00:52:42Z</time>
      </trkpt>
      <trkpt lat="44.54048" lon="1.06525">
        <ele>126.668</ele>
        <time>2021-01-05T00:53:02Z</time>
      </trkpt>
      <trkpt lat="44.54025" lon="1.06429">
        <ele>123.732</ele>
        <time>2019-12-03T16:07:06Z</time>
      </trkpt>
      <trkpt lat="44.54025" lon="1.06429">
        <ele>123.737</ele>
        <time>2019-12-03T16:07:06Z</time>
      </trkpt>
      <trkpt lat="44.5387" lon="1.06152">
        <ele>114.064</ele>
        <time>2019-12-03T16:07:26Z</time>
      </trkpt>
      <trkpt lat="44.53903" lon="1.06106">
        <ele>114.344</ele>
        <time>2019-12-03T16:07:46Z</time>
      </trkpt>
      <trkpt lat="44.53937" lon="1.06032">
        <ele>122.295</ele>
        <time>2019-12-03T16:08:06Z</time>
      </trkpt>
      <trkpt lat="44.5391" lon="1.05955">
        <ele>113.237</ele>
        <time>2019-12-03T16:08:26Z</time>
      </trkpt>
      <trkpt lat="44.53881" lon="1.05752">
        <ele>112.245</ele>
        <time>2019-12-03T16:08:46Z</time>
      </trkpt>
      <trkpt lat="44.53836" lon="1.05594">
        <ele>115.147</ele>
        <time>2019-12-03T16:09:06Z</time>
      </trkpt>
      <trkpt lat="44.5381" lon="1.05457">
        <ele>121.211</ele>
        <time>2019-12-03T16:09:26Z</time>
      </trkpt>
      <trkpt lat="44.5377" lon="1.05366">
        <ele>127.708</ele>
        <time>2019-12-03T16:09:46Z</time>
      </trkpt>
      <trkpt lat="44.53674" lon="1.05244">
        <ele>124.111</ele>
        <time>2019-12-03T16:10:06Z</time>
      </trkpt>
      <trkpt lat="44.53641" lon="1.05174">
        <ele>119.784</ele>
        <time>2019-12-03T16:10:26Z</time>
      </trkpt>
      <trkpt lat="44.53626" lon="1.05101">
        <ele>121.118</ele>
        <time>2019-12-03T16:10:46Z</time>
      </trkpt>
      <trkpt lat="44.53597" lon="1.0503">
        <ele>122.993</ele>
        <time>2019-12-03T16:11:06Z</time>
      </trkpt>
      <trkpt lat="44.53583" lon="1.0493">
        <ele>113.99</ele>
        <time>2019-12-03T16:11:26Z</time>
      </trkpt>
      <trkpt lat="44.5359" lon="1.04906">
        <ele>123.01</ele>
        <time>2019-12-03T16:11:46Z</time>
      </trkpt>
      <trkpt lat="44.53604" lon="1.0487">
        <ele>129.251</ele>
        <time>2019-12-03T16:12:06Z</time>
      </trkpt>
      <trkpt lat="44.53598" lon="1.04815">
        <ele>124.743</ele>
        <time>2019-12-03T16:12:26Z</time>
      </trkpt>
      <trkpt lat="44.53582" lon="1.04724">
        <ele>118.554</ele>
        <time>2019-12-03T16:12:46Z</time>
      </trkpt>
      <trkpt lat="44.53561" lon="1.04677">
        <ele>121.056</ele>
        <time>2019-12-03T16:13:06Z</time>
      </trkpt>
      <trkpt lat="44.53529" lon="1.04693">
        <ele>119.511</ele>
        <time>2019-12-03T16:13:26Z</time>
      </trkpt>
      <trkpt lat="44.53495" lon="1.04682">
        <ele>117.608</ele>
        <time>2019-12-03T16:13:46Z</time>
      </trkpt>
      <trkpt lat="44.53459" lon="1.04612">
        <ele>122.412</ele>
        <time>2019-12-03T16:14:06Z</time>
      </trkpt>
      <trkpt lat="44.5337" lon="1.04511">
        <ele>113.755</ele>
        <time>2019-12-03T16:14:26Z</time>
      </trkpt>
      <trkpt lat="44.53149" lon="1.04212">
        <ele>107.359</ele>
        <time>2019-12-03T16:14:46Z</time>
      </trkpt>
      <trkpt lat="44.53103" lon="1.04174">
        <ele>106.284</ele>
        <time>2019-12-03T16:15:06Z</time>
      </trkpt>
      <trkpt lat="44.53095" lon="1.04197">
        <ele>106.191</ele>
        <time>2019-12-03T16:15:26Z</time>
      </trkpt>
      <trkpt lat="44.52992" lon="1.04295">
        <ele>101.921</ele>
        <time>2019-12-03T16:15:46Z</time>
      </trkpt>
      <trkpt lat="44.52991" lon="1.04343">
        <ele>102.732</ele>
        <time>2019-12-03T16:16:06Z</time>
      </trkpt>
      <trkpt lat="44.52985" lon="1.04373">
        <ele>102.544</ele>
        <time>2019-12-03T16:16:26Z</time>
      </trkpt>
      <trkpt lat="44.5262" lon="1.04355">
        <ele>100.793</ele>
        <time>2019-12-03T16:16:46Z</time>
      </trkpt>
      <trkpt lat="44.52426" lon="1.04127">
        <ele>98.965</ele>
        <time>2019-12-03T16:17:06Z</time>
      </trkpt>
      <trkpt lat="44.52396" lon="1.04138">
        <ele>99.821</ele>
        <time>2019-12-03T16:17:26Z</time>
      </trkpt>
      <trkpt lat="44.52343" lon="1.04121">
        <ele>99.908</ele>
        <time>2019-12-03T16:17:46Z</time>
      </trkpt>
      <trkpt lat="44.52276" lon="1.04078">
        <ele>99.056</ele>
        <time>2019-12-03T16:18:06Z</time>
      </trkpt>
      <trkpt lat="44.52186" lon="1.04054">
        <ele>100.349</ele>
        <time>2019-12-03T16:18:26Z</time>
      </trkpt>
      <trkpt lat="44.52008" lon="1.03969">
        <ele>104.043</ele>
        <time>2019-12-03T16:18:46Z</time>
      </trkpt>
      <trkpt lat="44.51902" lon="1.0389">
        <ele>120.258</ele>
        <time>2019-12-03T16:19:06Z</time>
      </trkpt>
      <trkpt lat="44.51857" lon="1.03881">
        <ele>121.995</ele>
        <time>2019-12-03T16:19:26Z</time>
      </trkpt>
      <trkpt lat="44.51785" lon="1.0387">
        <ele>129.965</ele>
        <time>2019-12-03T16:19:46Z</time>
      </trkpt>
      <trkpt lat="44.51691" lon="1.03838">
        <ele>140.596</ele>
        <time>2019-12-03T16:20:06Z</time>
      </trkpt>
      <trkpt lat="44.51605" lon="1.03857">
        <ele>150.928</ele>
        <time>2019-12-03T16:20:26Z</time>
      </trkpt>
      <trkpt lat="44.51521" lon="1.03891">
        <ele>163.555</ele>
        <time>2019-12-03T16:20:46Z</time>
      </trkpt>
      <trkpt lat="44.5144" lon="1.03945">
        <ele>176.207</ele>
        <time>2019-12-03T16:21:06Z</time>
      </trkpt>
      <trkpt lat="44.51336" lon="1.03992">
        <ele>195.217</ele>
        <time>2019-12-03T16:21:26Z</time>
      </trkpt>
      <trkpt lat="44.51258" lon="1.03927">
        <ele>199.608</ele>
        <time>2019-12-03T16:21:46Z</time>
      </trkpt>
      <trkpt lat="44.51247" lon="1.03833">
        <ele>204.532</ele>
        <time>2019-12-03T16:22:06Z</time>
      </trkpt>
      <trkpt lat="44.5121" lon="1.03782">
        <ele>208.595</ele>
        <time>2019-12-03T16:22:26Z</time>
      </trkpt>
      <trkpt lat="44.51184" lon="1.03732">
        <ele>209.719</ele>
        <time>2019-12-03T16:22:46Z</time>
      </trkpt>
      <trkpt lat="44.51139" lon="1.03834">
        <ele>211.774</ele>
        <time>2019-12-03T16:23:06Z</time>
      </trkpt>
      <trkpt lat="44.51127" lon="1.03883">
        <ele>211.431</ele>
        <time>2019-12-03T16:23:26Z</time>
      </trkpt>
      <trkpt lat="44.51106" lon="1.03938">
        <ele>210.261</ele>
        <time>2019-12-03T16:23:46Z</time>
      </trkpt>
      <trkpt lat="44.5111" lon="1.04072">
        <ele>208.312</ele>
        <time>2019-12-03T16:24:06Z</time>
      </trkpt>
      <trkpt lat="44.51031" lon="1.04099">
        <ele>203.984</ele>
        <time>2019-12-03T16:24:26Z</time>
      </trkpt>
      <trkpt lat="44.50966" lon="1.04119">
        <ele>196.944</ele>
        <time>2019-12-03T16:24:46Z</time>
      </trkpt>
      <trkpt lat="44.50826" lon="1.04213">
        <ele>190.205</ele>
        <time>2019-12-03T16:25:06Z</time>
      </trkpt>
      <trkpt lat="44.50811" lon="1.04269">
        <ele>190.115</ele>
        <time>2019-12-03T16:25:26Z</time>
      </trkpt>
      <trkpt lat="44.5074" lon="1.04303">
        <ele>178.608</ele>
        <time>2019-12-03T16:25:46Z</time>
      </trkpt>
      <trkpt lat="44.5071" lon="1.0435">
        <ele>180.591</ele>
        <time>2019-12-03T16:26:06Z</time>
      </trkpt>
      <trkpt lat="44.50694" lon="1.04345">
        <ele>178.264</ele>
        <time>2019-12-03T16:26:26Z</time>
      </trkpt>
      <trkpt lat="44.50659" lon="1.04373">
        <ele>169.428</ele>
        <time>2019-12-03T16:26:46Z</time>
      </trkpt>
      <trkpt lat="44.50602" lon="1.04402">
        <ele>165.243</ele>
        <time>2019-12-03T16:27:06Z</time>
      </trkpt>
      <trkpt lat="44.50605" lon="1.04356">
        <ele>165.06</ele>
        <time>2019-12-03T16:27:26Z</time>
      </trkpt>
      <trkpt lat="44.5059" lon="1.0435">
        <ele>163.49</ele>
        <time>2019-12-03T16:27:46Z</time>
      </trkpt>
      <trkpt lat="44.50572" lon="1.04363">
        <ele>156.391</ele>
        <time>2019-12-03T16:28:06Z</time>
      </trkpt>
      <trkpt lat="44.50549" lon="1.04407">
        <ele>155.453</ele>
        <time>2019-12-03T16:28:26Z</time>
      </trkpt>
      <trkpt lat="44.50508" lon="1.04395">
        <ele>152.214</ele>
        <time>2019-12-03T16:28:46Z</time>
      </trkpt>
      <trkpt lat="44.50485" lon="1.04301">
        <ele>144.154</ele>
        <time>2019-12-03T16:29:06Z</time>
      </trkpt>
      <trkpt lat="44.50448" lon="1.04247">
        <ele>144.309</ele>
        <time>2019-12-03T16:29:26Z</time>
      </trkpt>
      <trkpt lat="44.50363" lon="1.04169">
        <ele>135.808</ele>
        <time>2019-12-03T16:29:46Z</time>
      </trkpt>
      <trkpt lat="44.50329" lon="1.04169">
        <ele>131.648</ele>
        <time>2019-12-03T16:30:06Z</time>
      </trkpt>
      <trkpt lat="44.50273" lon="1.04147">
        <ele>131.521</ele>
        <time>2019-12-03T16:30:26Z</time>
      </trkpt>
      <trkpt lat="44.5021" lon="1.04134">
        <ele>124.855</ele>
        <time>2019-12-03T16:30:46Z</time>
      </trkpt>
      <trkpt lat="44.50149" lon="1.04158">
        <ele>119.14</ele>
        <time>2019-12-03T16:31:06Z</time>
      </trkpt>
      <trkpt lat="44.501" lon="1.04225">
        <ele>117.987</ele>
        <time>2019-12-03T16:31:26Z</time>
      </trkpt>
      <trkpt lat="44.50006" lon="1.04411">
        <ele>106.447</ele>
        <time>2019-12-03T16:31:46Z</time>
      </trkpt>
      <trkpt lat="44.49978" lon="1.04486">
        <ele>107.178</ele>
        <time>2019-12-03T16:32:06Z</time>
      </trkpt>
      <trkpt lat="44.49957" lon="1.04628">
        <ele>105.74</ele>
        <time>2019-12-03T16:32:26Z</time>
      </trkpt>
      <trkpt lat="44.4988" lon="1.04753">
        <ele>95.063</ele>
        <time>2019-12-03T16:32:46Z</time>
      </trkpt>
      <trkpt lat="44.49871" lon="1.0481">
        <ele>91.844</ele>
        <time>2019-12-03T16:33:06Z</time>
      </trkpt>
      <trkpt lat="44.49843" lon="1.04836">
        <ele>84.318</ele>
        <time>2019-12-03T16:33:26Z</time>
      </trkpt>
      <trkpt lat="44.49793" lon="1.04838">
        <ele>82.108</ele>
        <time>2019-12-03T16:33:46Z</time>
      </trkpt>
      <trkpt lat="44.49763" lon="1.04859">
        <ele>81.663</ele>
        <time>2019-12-03T16:34:06Z</time>
      </trkpt>
      <trkpt lat="44.49601" lon="1.0488">
        <ele>80.936</ele>
        <time>2019-12-03T16:34:26Z</time>
      </trkpt>
      <trkpt lat="44.49644" lon="1.05335">
        <ele>78.77</ele>
        <time>2019-12-03T16:34:46Z</time>
      </trkpt>
      <trkpt lat="44.49692" lon="1.05444">
        <ele>81.275</ele>
        <time>2019-12-03T16:35:06Z</time>
      </trkpt>
      <trkpt lat="44.49642" lon="1.05461">
        <ele>80.422</ele>
        <time>2019-12-03T16:35:26Z</time>
      </trkpt>
      <trkpt lat="44.49578" lon="1.05449">
        <ele>79.392</ele>
        <time>2019-12-03T16:35:46Z</time>
      </trkpt>
      <trkpt lat="44.49569" lon="1.05626">
        <ele>79.373</ele>
        <time>2019-12-03T16:36:06Z</time>
      </trkpt>
      <trkpt lat="44.49377" lon="1.05667">
        <ele>80.515</ele>
        <time>2019-12-03T16:36:26Z</time>
      </trkpt>
      <trkpt lat="44.49303" lon="1.0569">
        <ele>80.399</ele>
        <time>2019-12-03T16:36:46Z</time>
      </trkpt>
      <trkpt lat="44.49208" lon="1.05701">
        <ele>78.907</ele>
        <time>2019-12-03T16:37:06Z</time>
      </trkpt>
      <trkpt lat="44.49172" lon="1.05722">
        <ele>78.927</ele>
        <time>2019-12-03T16:37:26Z</time>
      </trkpt>
      <trkpt lat="44.49127" lon="1.0576">
        <ele>79.708</ele>
        <time>2019-12-03T16:37:46Z</time>
      </trkpt>
      <trkpt lat="44.4904" lon="1.0576">
        <ele>82.176</ele>
        <time>2019-12-03T16:38:06Z</time>
      </trkpt>
      <trkpt lat="44.48881" lon="1.05745">
        <ele>82.159</ele>
        <time>2019-12-03T16:38:26Z</time>
      </trkpt>
      <trkpt lat="44.48603" lon="1.05644">
        <ele>79.323</ele>
        <time>2019-12-03T16:38:46Z</time>
      </trkpt>
      <trkpt lat="44.48257" lon="1.05467">
        <ele>84.158</ele>
        <time>2019-12-03T16:39:06Z</time>
      </trkpt>
      <trkpt lat="44.48101" lon="1.05369">
        <ele>87.935</ele>
        <time>2019-12-03T16:39:26Z</time>
      </trkpt>
      <trkpt lat="44.48019" lon="1.05288">
        <ele>82.135</ele>
        <time>2019-12-03T16:39:46Z</time>
      </trkpt>
      <trkpt lat="44.47945" lon="1.05386">
        <ele>90.866</ele>
        <time>2019-12-03T16:40:06Z</time>
      </trkpt>
      <trkpt lat="44.47902" lon="1.05387">
        <ele>90.778</ele>
        <time>2019-12-03T16:40:26Z</time>
      </trkpt>
      <trkpt lat="44.47797" lon="1.05456">
        <ele>97.174</ele>
        <time>2019-12-03T16:40:46Z</time>
      </trkpt>
      <trkpt lat="44.47736" lon="1.0548">
        <ele>105.056</ele>
        <time>2019-12-03T16:41:06Z</time>
      </trkpt>
      <trkpt lat="44.47678" lon="1.05475">
        <ele>107.021</ele>
        <time>2019-12-03T16:41:26Z</time>
      </trkpt>
      <trkpt lat="44.47674" lon="1.05433">
        <ele>107.008</ele>
        <time>2021-04-14T09:43:21Z</time>
      </trkpt>
      <trkpt lat="44.47689" lon="1.05355">
        <ele>108.314</ele>
        <time>2019-12-03T16:42:06Z</time>
      </trkpt>
      <trkpt lat="44.4778" lon="1.05176">
        <ele>119.867</ele>
        <time>2019-12-03T16:42:26Z</time>
      </trkpt>
      <trkpt lat="44.47836" lon="1.05091">
        <ele>114.121</ele>
        <time>2019-12-03T16:42:46Z</time>
      </trkpt>
      <trkpt lat="44.47771" lon="1.04994">
        <ele>130.996</ele>
        <time>2019-12-03T16:43:06Z</time>
      </trkpt>
      <trkpt lat="44.47747" lon="1.04934">
        <ele>145.953</ele>
        <time>2019-12-03T16:43:26Z</time>
      </trkpt>
      <trkpt lat="44.47685" lon="1.04862">
        <ele>149.993</ele>
        <time>2019-12-03T16:43:46Z</time>
      </trkpt>
      <trkpt lat="44.47656" lon="1.04773">
        <ele>158.054</ele>
        <time>2019-12-03T16:44:06Z</time>
      </trkpt>
      <trkpt lat="44.47598" lon="1.04691">
        <ele>150.696</ele>
        <time>2019-12-03T16:44:26Z</time>
      </trkpt>
      <trkpt lat="44.47573" lon="1.04683">
        <ele>167.078</ele>
        <time>2019-12-03T16:44:46Z</time>
      </trkpt>
      <trkpt lat="44.47529" lon="1.04713">
        <ele>177.233</ele>
        <time>2019-12-03T16:45:06Z</time>
      </trkpt>
      <trkpt lat="44.47511" lon="1.04706">
        <ele>178.326</ele>
        <time>2019-12-03T16:45:26Z</time>
      </trkpt>
      <trkpt lat="44.47515" lon="1.04565">
        <ele>166.808</ele>
        <time>2019-12-03T16:45:46Z</time>
      </trkpt>
      <trkpt lat="44.475" lon="1.04486">
        <ele>160.894</ele>
        <time>2019-12-03T16:46:06Z</time>
      </trkpt>
      <trkpt lat="44.47477" lon="1.04462">
        <ele>164.077</ele>
        <time>2019-12-03T16:46:26Z</time>
      </trkpt>
      <trkpt lat="44.47449" lon="1.04465">
        <ele>163.741</ele>
        <time>2019-12-03T16:46:46Z</time>
      </trkpt>
      <trkpt lat="44.47398" lon="1.0463">
        <ele>182.246</ele>
        <time>2019-12-03T16:47:06Z</time>
      </trkpt>
      <trkpt lat="44.47384" lon="1.04769">
        <ele>194.423</ele>
        <time>2019-12-03T16:47:26Z</time>
      </trkpt>
      <trkpt lat="44.47365" lon="1.04836">
        <ele>199.843</ele>
        <time>2019-12-03T16:47:46Z</time>
      </trkpt>
      <trkpt lat="44.47313" lon="1.04945">
        <ele>209.984</ele>
        <time>2019-12-03T16:48:06Z</time>
      </trkpt>
      <trkpt lat="44.47157" lon="1.05054">
        <ele>224.786</ele>
        <time>2019-12-03T16:48:26Z</time>
      </trkpt>
      <trkpt lat="44.46925" lon="1.0486">
        <ele>224.441</ele>
        <time>2019-12-03T16:48:46Z</time>
      </trkpt>
      <trkpt lat="44.46856" lon="1.04711">
        <ele>221.581</ele>
        <time>2019-12-03T16:49:06Z</time>
      </trkpt>
      <trkpt lat="44.46751" lon="1.04662">
        <ele>215.309</ele>
        <time>2019-12-03T16:49:26Z</time>
      </trkpt>
      <trkpt lat="44.46776" lon="1.04579">
        <ele>216.108</ele>
        <time>2019-12-03T16:49:46Z</time>
      </trkpt>
      <trkpt lat="44.46803" lon="1.04527">
        <ele>216.781</ele>
        <time>2019-12-03T16:50:06Z</time>
      </trkpt>
      <trkpt lat="44.46799" lon="1.04483">
        <ele>216.534</ele>
        <time>2019-12-03T16:50:26Z</time>
      </trkpt>
      <trkpt lat="44.46846" lon="1.04431">
        <ele>217.098</ele>
        <time>2019-12-03T16:50:46Z</time>
      </trkpt>
      <trkpt lat="44.469" lon="1.04389">
        <ele>217.533</ele>
        <time>2019-12-03T16:51:06Z</time>
      </trkpt>
      <trkpt lat="44.46928" lon="1.04343">
        <ele>214.91</ele>
        <time>2019-12-03T16:51:26Z</time>
      </trkpt>
      <trkpt lat="44.47002" lon="1.04184">
        <ele>211.91</ele>
        <time>2019-12-03T16:51:46Z</time>
      </trkpt>
      <trkpt lat="44.47141" lon="1.038">
        <ele>208.711</ele>
        <time>2019-12-03T16:52:06Z</time>
      </trkpt>
      <trkpt lat="44.47201" lon="1.03545">
        <ele>187.723</ele>
        <time>2019-12-03T16:52:26Z</time>
      </trkpt>
      <trkpt lat="44.47202" lon="1.03484">
        <ele>183.596</ele>
        <time>2021-04-14T09:54:21Z</time>
      </trkpt>
      <trkpt lat="44.47177" lon="1.03376">
        <ele>178.031</ele>
        <time>2021-04-14T09:54:41Z</time>
      </trkpt>
      <trkpt lat="44.47168" lon="1.03249">
        <ele>166.624</ele>
        <time>2019-12-03T16:53:26Z</time>
      </trkpt>
      <trkpt lat="44.47177" lon="1.03228">
        <ele>164.008</ele>
        <time>2019-12-03T16:53:46Z</time>
      </trkpt>
      <trkpt lat="44.4716" lon="1.03091">
        <ele>161.456</ele>
        <time>2019-12-03T16:54:06Z</time>
      </trkpt>
      <trkpt lat="44.47177" lon="1.0299">
        <ele>156.189</ele>
        <time>2019-12-03T16:54:26Z</time>
      </trkpt>
      <trkpt lat="44.47167" lon="1.02924">
        <ele>155.153</ele>
        <time>2019-12-03T16:54:46Z</time>
      </trkpt>
      <trkpt lat="44.4716" lon="1.02833">
        <ele>149.968</ele>
        <time>2019-12-03T16:55:06Z</time>
      </trkpt>
      <trkpt lat="44.47128" lon="1.02722">
        <ele>152.715</ele>
        <time>2019-12-03T16:55:26Z</time>
      </trkpt>
      <trkpt lat="44.47138" lon="1.02611">
        <ele>153.565</ele>
        <time>2019-12-03T16:55:46Z</time>
      </trkpt>
      <trkpt lat="44.47151" lon="1.02553">
        <ele>152.636</ele>
        <time>2019-12-03T16:56:06Z</time>
      </trkpt>
      <trkpt lat="44.47172" lon="1.02488">
        <ele>145.518</ele>
        <time>2019-12-03T16:56:26Z</time>
      </trkpt>
      <trkpt lat="44.47151" lon="1.02363">
        <ele>144.091</ele>
        <time>2019-12-03T16:56:46Z</time>
      </trkpt>
      <trkpt lat="44.47093" lon="1.0213">
        <ele>132.881</ele>
        <time>2019-12-03T16:57:06Z</time>
      </trkpt>
      <trkpt lat="44.4707" lon="1.01928">
        <ele>129.619</ele>
        <time>2019-12-03T16:57:26Z</time>
      </trkpt>
      <trkpt lat="44.47094" lon="1.01714">
        <ele>123.808</ele>
        <time>2019-12-03T16:57:46Z</time>
      </trkpt>
      <trkpt lat="44.47098" lon="1.01507">
        <ele>113.716</ele>
        <time>2019-12-03T16:58:06Z</time>
      </trkpt>
      <trkpt lat="44.47086" lon="1.01354">
        <ele>117.919</ele>
        <time>2019-12-03T16:58:26Z</time>
      </trkpt>
      <trkpt lat="44.47088" lon="1.012">
        <ele>124.623</ele>
        <time>2019-12-03T16:58:46Z</time>
      </trkpt>
      <trkpt lat="44.47023" lon="1.01223">
        <ele>129.938</ele>
        <time>2019-12-03T16:59:06Z</time>
      </trkpt>
      <trkpt lat="44.46996" lon="1.0121">
        <ele>135.095</ele>
        <time>2019-12-03T16:59:26Z</time>
      </trkpt>
      <trkpt lat="44.46957" lon="1.01153">
        <ele>137.825</ele>
        <time>2019-12-03T16:59:46Z</time>
      </trkpt>
      <trkpt lat="44.46928" lon="1.01143">
        <ele>139.376</ele>
        <time>2019-12-03T17:00:06Z</time>
      </trkpt>
      <trkpt lat="44.46906" lon="1.01106">
        <ele>147.888</ele>
        <time>2019-12-03T17:00:26Z</time>
      </trkpt>
      <trkpt lat="44.46852" lon="1.0105">
        <ele>153.686</ele>
        <time>2019-12-03T17:00:46Z</time>
      </trkpt>
      <trkpt lat="44.46847" lon="1.01018">
        <ele>155.06</ele>
        <time>2019-12-03T17:01:06Z</time>
      </trkpt>
      <trkpt lat="44.46873" lon="1.00891">
        <ele>149.926</ele>
        <time>2019-12-03T17:01:26Z</time>
      </trkpt>
      <trkpt lat="44.46873" lon="1.00819">
        <ele>147.308</ele>
        <time>2019-12-03T17:01:46Z</time>
      </trkpt>
      <trkpt lat="44.46842" lon="1.00803">
        <ele>148.655</ele>
        <time>2019-12-03T17:02:06Z</time>
      </trkpt>
      <trkpt lat="44.4679" lon="1.00761">
        <ele>152.658</ele>
        <time>2019-12-03T17:02:26Z</time>
      </trkpt>
      <trkpt lat="44.46755" lon="1.00748">
        <ele>150.692</ele>
        <time>2019-12-03T17:02:46Z</time>
      </trkpt>
      <trkpt lat="44.46712" lon="1.00754">
        <ele>157.217</ele>
        <time>2019-12-03T17:03:06Z</time>
      </trkpt>
      <trkpt lat="44.46625" lon="1.00636">
        <ele>164.294</ele>
        <time>2019-12-03T17:03:26Z</time>
      </trkpt>
      <trkpt lat="44.46561" lon="1.006">
        <ele>175.794</ele>
        <time>2019-12-03T17:03:46Z</time>
      </trkpt>
      <trkpt lat="44.46502" lon="1.00527">
        <ele>183.175</ele>
        <time>2019-12-03T17:04:06Z</time>
      </trkpt>
      <trkpt lat="44.46438" lon="1.00483">
        <ele>193.557</ele>
        <time>2019-12-03T17:04:26Z</time>
      </trkpt>
      <trkpt lat="44.46409" lon="1.00426">
        <ele>197.627</ele>
        <time>2019-12-03T17:04:46Z</time>
      </trkpt>
      <trkpt lat="44.46382" lon="1.00398">
        <ele>196.768</ele>
        <time>2019-12-03T17:05:06Z</time>
      </trkpt>
      <trkpt lat="44.46404" lon="1.00317">
        <ele>195.814</ele>
        <time>2019-12-03T17:05:26Z</time>
      </trkpt>
      <trkpt lat="44.464" lon="1.00218">
        <ele>193.808</ele>
        <time>2019-12-03T17:05:46Z</time>
      </trkpt>
      <trkpt lat="44.46375" lon="1.00094">
        <ele>191.929</ele>
        <time>2019-12-03T17:06:06Z</time>
      </trkpt>
      <trkpt lat="44.46314" lon="1.00149">
        <ele>191.282</ele>
        <time>2019-12-03T17:06:26Z</time>
      </trkpt>
      <trkpt lat="44.46263" lon="1.00234">
        <ele>185.476</ele>
        <time>2019-12-03T17:06:46Z</time>
      </trkpt>
      <trkpt lat="44.46234" lon="1.0024">
        <ele>181.631</ele>
        <time>2019-12-03T17:07:06Z</time>
      </trkpt>
      <trkpt lat="44.46164" lon="1.00223">
        <ele>178.218</ele>
        <time>2021-04-14T10:09:01Z</time>
      </trkpt>
      <trkpt lat="44.46082" lon="1.0024">
        <ele>174.638</ele>
        <time>2021-04-14T10:09:21Z</time>
      </trkpt>
      <trkpt lat="44.45985" lon="1.00224">
        <ele>167.899</ele>
        <time>2021-04-14T10:09:41Z</time>
      </trkpt>
      <trkpt lat="44.45908" lon="1.00232">
        <ele>166.381</ele>
        <time>2021-04-14T10:10:01Z</time>
      </trkpt>
      <trkpt lat="44.45827" lon="1.00263">
        <ele>164.378</ele>
        <time>2021-04-14T10:10:21Z</time>
      </trkpt>
      <trkpt lat="44.457" lon="1.00343">
        <ele>161.733</ele>
        <time>2019-12-03T17:09:06Z</time>
      </trkpt>
      <trkpt lat="44.45639" lon="1.0041">
        <ele>160.226</ele>
        <time>2019-12-03T17:09:26Z</time>
      </trkpt>
      <trkpt lat="44.45598" lon="1.00408">
        <ele>157.808</ele>
        <time>2019-12-03T17:09:46Z</time>
      </trkpt>
      <trkpt lat="44.45491" lon="1.0045">
        <ele>154.394</ele>
        <time>2019-12-03T17:10:06Z</time>
      </trkpt>
      <trkpt lat="44.45332" lon="1.00588">
        <ele>142.537</ele>
        <time>2019-12-03T17:10:26Z</time>
      </trkpt>
      <trkpt lat="44.45272" lon="1.00608">
        <ele>138.661</ele>
        <time>2019-12-03T17:10:46Z</time>
      </trkpt>
      <trkpt lat="44.45267" lon="1.00593">
        <ele>137.896</ele>
        <time>2019-12-03T17:11:06Z</time>
      </trkpt>
      <trkpt lat="44.45184" lon="1.00592">
        <ele>143.433</ele>
        <time>2019-12-03T17:11:26Z</time>
      </trkpt>
      <trkpt lat="44.45179" lon="1.00553">
        <ele>141.533</ele>
        <time>2019-12-03T17:11:46Z</time>
      </trkpt>
      <trkpt lat="44.45024" lon="1.00623">
        <ele>167.414</ele>
        <time>2019-12-03T17:12:06Z</time>
      </trkpt>
      <trkpt lat="44.45037" lon="1.00668">
        <ele>169.036</ele>
        <time>2019-12-03T17:12:26Z</time>
      </trkpt>
      <trkpt lat="44.44976" lon="1.00743">
        <ele>178.197</ele>
        <time>2019-12-03T17:12:46Z</time>
      </trkpt>
      <trkpt lat="44.4491" lon="1.00842">
        <ele>190.523</ele>
        <time>2019-12-03T17:13:06Z</time>
      </trkpt>
      <trkpt lat="44.44888" lon="1.00917">
        <ele>199.125</ele>
        <time>2019-12-03T17:13:26Z</time>
      </trkpt>
      <trkpt lat="44.44816" lon="1.01018">
        <ele>210.008</ele>
        <time>2019-12-03T17:13:46Z</time>
      </trkpt>
      <trkpt lat="44.44708" lon="1.01062">
        <ele>215.616</ele>
        <time>2019-12-03T17:14:06Z</time>
      </trkpt>
      <trkpt lat="44.44632" lon="1.01075">
        <ele>219.179</ele>
        <time>2019-12-03T17:14:26Z</time>
      </trkpt>
      <trkpt lat="44.44532" lon="1.01143">
        <ele>221.853</ele>
        <time>2019-12-03T17:14:46Z</time>
      </trkpt>
      <trkpt lat="44.44473" lon="1.0121">
        <ele>222.358</ele>
        <time>2019-12-03T17:15:06Z</time>
      </trkpt>
      <trkpt lat="44.44424" lon="1.01104">
        <ele>223.835</ele>
        <time>2019-12-03T17:15:26Z</time>
      </trkpt>
      <trkpt lat="44.44375" lon="1.0106">
        <ele>224.755</ele>
        <time>2019-12-03T17:15:46Z</time>
      </trkpt>
      <trkpt lat="44.4432" lon="1.01037">
        <ele>226.036</ele>
        <time>2019-12-03T17:16:06Z</time>
      </trkpt>
      <trkpt lat="44.44379" lon="1.00896">
        <ele>218.368</ele>
        <time>2019-12-03T17:16:26Z</time>
      </trkpt>
      <trkpt lat="44.44413" lon="1.00883">
        <ele>217.762</ele>
        <time>2019-12-03T17:16:46Z</time>
      </trkpt>
      <trkpt lat="44.4445" lon="1.00818">
        <ele>214.583</ele>
        <time>2019-12-03T17:17:06Z</time>
      </trkpt>
      <trkpt lat="44.44454" lon="1.00797">
        <ele>214.011</ele>
        <time>2019-12-03T17:17:26Z</time>
      </trkpt>
      <trkpt lat="44.44407" lon="1.0081">
        <ele>211.108</ele>
        <time>2019-12-03T17:17:46Z</time>
      </trkpt>
      <trkpt lat="44.44386" lon="1.00798">
        <ele>210.133</ele>
        <time>2019-12-03T17:18:06Z</time>
      </trkpt>
      <trkpt lat="44.44375" lon="1.00697">
        <ele>203.256</ele>
        <time>2019-12-03T17:18:26Z</time>
      </trkpt>
      <trkpt lat="44.44327" lon="1.0061">
        <ele>190.88</ele>
        <time>2019-12-03T17:18:46Z</time>
      </trkpt>
      <trkpt lat="44.44334" lon="1.00598">
        <ele>193.635</ele>
        <time>2019-12-03T17:19:06Z</time>
      </trkpt>
      <trkpt lat="44.4433" lon="1.00562">
        <ele>186.442</ele>
        <time>2019-12-03T17:19:26Z</time>
      </trkpt>
      <trkpt lat="44.4433" lon="1.00517">
        <ele>185.672</ele>
        <time>2019-12-03T17:19:46Z</time>
      </trkpt>
      <trkpt lat="44.44298" lon="1.00457">
        <ele>183.653</ele>
        <time>2019-12-03T17:20:06Z</time>
      </trkpt>
      <trkpt lat="44.44173" lon="1.00385">
        <ele>176.665</ele>
        <time>2019-12-03T17:20:26Z</time>
      </trkpt>
      <trkpt lat="44.4412" lon="1.00397">
        <ele>171.948</ele>
        <time>2019-12-03T17:20:46Z</time>
      </trkpt>
      <trkpt lat="44.44058" lon="1.00382">
        <ele>169.461</ele>
        <time>2019-12-03T17:21:06Z</time>
      </trkpt>
      <trkpt lat="44.43983" lon="1.00296">
        <ele>163.317</ele>
        <time>2019-12-03T17:21:26Z</time>
      </trkpt>
      <trkpt lat="44.43952" lon="1.00245">
        <ele>161.708</ele>
        <time>2019-12-03T17:21:46Z</time>
      </trkpt>
      <trkpt lat="44.43937" lon="1.0018">
        <ele>159.821</ele>
        <time>2019-12-03T17:22:06Z</time>
      </trkpt>
      <trkpt lat="44.43908" lon="1.00099">
        <ele>150.124</ele>
        <time>2019-12-03T17:22:26Z</time>
      </trkpt>
      <trkpt lat="44.43911" lon="0.99987">
        <ele>140.298</ele>
        <time>2019-12-03T17:22:46Z</time>
      </trkpt>
      <trkpt lat="44.43892" lon="0.99938">
        <ele>137.953</ele>
        <time>2019-12-03T17:23:06Z</time>
      </trkpt>
      <trkpt lat="44.43838" lon="1.00011">
        <ele>137.92</ele>
        <time>2019-12-03T17:23:26Z</time>
      </trkpt>
      <trkpt lat="44.43774" lon="1.00141">
        <ele>145.52</ele>
        <time>2019-12-03T17:23:46Z</time>
      </trkpt>
      <trkpt lat="44.43737" lon="1.00174">
        <ele>145.391</ele>
        <time>2019-12-03T17:24:06Z</time>
      </trkpt>
      <trkpt lat="44.4372" lon="1.00161">
        <ele>144.593</ele>
        <time>2019-12-03T17:24:26Z</time>
      </trkpt>
      <trkpt lat="44.4368" lon="1.00208">
        <ele>148.499</ele>
        <time>2019-12-03T17:24:46Z</time>
      </trkpt>
      <trkpt lat="44.43638" lon="1.00216">
        <ele>153.307</ele>
        <time>2019-12-03T17:25:06Z</time>
      </trkpt>
      <trkpt lat="44.4354" lon="1.00286">
        <ele>169.427</ele>
        <time>2019-12-03T17:25:26Z</time>
      </trkpt>
      <trkpt lat="44.43571" lon="1.00317">
        <ele>171.608</ele>
        <time>2019-12-03T17:25:46Z</time>
      </trkpt>
      <trkpt lat="44.4357" lon="1.00369">
        <ele>180.246</ele>
        <time>2019-12-03T17:26:06Z</time>
      </trkpt>
      <trkpt lat="44.43542" lon="1.00379">
        <ele>182.299</ele>
        <time>2019-12-03T17:26:26Z</time>
      </trkpt>
      <trkpt lat="44.43534" lon="1.0042">
        <ele>190.263</ele>
        <time>2019-12-03T17:26:46Z</time>
      </trkpt>
      <trkpt lat="44.43514" lon="1.00456">
        <ele>192.338</ele>
        <time>2019-12-03T17:27:06Z</time>
      </trkpt>
      <trkpt lat="44.43481" lon="1.0055">
        <ele>203.935</ele>
        <time>2019-12-03T17:27:26Z</time>
      </trkpt>
      <trkpt lat="44.43432" lon="1.00609">
        <ele>205.075</ele>
        <time>2019-12-03T17:27:46Z</time>
      </trkpt>
      <trkpt lat="44.43342" lon="1.00706">
        <ele>207.916</ele>
        <time>2019-12-03T17:28:06Z</time>
      </trkpt>
      <trkpt lat="44.43312" lon="1.0073">
        <ele>208.668</ele>
        <time>2019-12-03T17:28:26Z</time>
      </trkpt>
      <trkpt lat="44.43277" lon="1.00781">
        <ele>211.273</ele>
        <time>2019-12-03T17:28:46Z</time>
      </trkpt>
      <trkpt lat="44.43234" lon="1.00815">
        <ele>212.985</ele>
        <time>2019-12-03T17:29:06Z</time>
      </trkpt>
      <trkpt lat="44.43204" lon="1.00808">
        <ele>212.113</ele>
        <time>2019-12-03T17:29:26Z</time>
      </trkpt>
      <trkpt lat="44.43168" lon="1.00836">
        <ele>215.008</ele>
        <time>2019-12-03T17:29:46Z</time>
      </trkpt>
      <trkpt lat="44.43116" lon="1.00834">
        <ele>212.584</ele>
        <time>2019-12-03T17:30:06Z</time>
      </trkpt>
      <trkpt lat="44.42959" lon="1.00983">
        <ele>213.497</ele>
        <time>2021-04-14T10:32:01Z</time>
      </trkpt>
      <trkpt lat="44.42923" lon="1.00989">
        <ele>212.561</ele>
        <time>2019-12-03T17:30:46Z</time>
      </trkpt>
      <trkpt lat="44.42856" lon="1.00945">
        <ele>211.816</ele>
        <time>2019-12-03T17:31:06Z</time>
      </trkpt>
      <trkpt lat="44.42815" lon="1.00971">
        <ele>211.293</ele>
        <time>2019-12-03T17:31:26Z</time>
      </trkpt>
      <trkpt lat="44.42817" lon="1.00989">
        <ele>211.643</ele>
        <time>2019-12-03T17:31:46Z</time>
      </trkpt>
      <trkpt lat="44.42728" lon="1.01054">
        <ele>208.954</ele>
        <time>2019-12-03T17:32:06Z</time>
      </trkpt>
      <trkpt lat="44.42687" lon="1.01015">
        <ele>206.626</ele>
        <time>2019-12-03T17:32:26Z</time>
      </trkpt>
      <trkpt lat="44.42586" lon="1.01068">
        <ele>204.459</ele>
        <time>2019-12-03T17:32:46Z</time>
      </trkpt>
      <trkpt lat="44.42533" lon="1.01065">
        <ele>204.203</ele>
        <time>2019-12-03T17:33:06Z</time>
      </trkpt>
      <trkpt lat="44.42477" lon="1.01097">
        <ele>200.823</ele>
        <time>2019-12-03T17:33:26Z</time>
      </trkpt>
      <trkpt lat="44.42412" lon="1.01161">
        <ele>195.808</ele>
        <time>2019-12-03T17:33:46Z</time>
      </trkpt>
      <trkpt lat="44.4239" lon="1.01195">
        <ele>196.422</ele>
        <time>2019-12-03T17:34:06Z</time>
      </trkpt>
      <trkpt lat="44.42324" lon="1.01265">
        <ele>200.065</ele>
        <time>2019-12-03T17:34:26Z</time>
      </trkpt>
      <trkpt lat="44.42231" lon="1.0121">
        <ele>206.299</ele>
        <time>2019-12-03T17:34:46Z</time>
      </trkpt>
      <trkpt lat="44.42054" lon="1.01">
        <ele>201.484</ele>
        <time>2019-12-03T17:35:06Z</time>
      </trkpt>
      <trkpt lat="44.42022" lon="1.00907">
        <ele>201.011</ele>
        <time>2019-12-03T17:35:26Z</time>
      </trkpt>
      <trkpt lat="44.41986" lon="1.00847">
        <ele>203.911</ele>
        <time>2019-12-03T17:35:46Z</time>
      </trkpt>
      <trkpt lat="44.41975" lon="1.00802">
        <ele>204.062</ele>
        <time>2019-12-03T17:36:06Z</time>
      </trkpt>
      <trkpt lat="44.41948" lon="1.00717">
        <ele>204.184</ele>
        <time>2019-12-03T17:36:26Z</time>
      </trkpt>
      <trkpt lat="44.41921" lon="1.00608">
        <ele>206.298</ele>
        <time>2019-12-03T17:36:46Z</time>
      </trkpt>
      <trkpt lat="44.41847" lon="1.00551">
        <ele>209.815</ele>
        <time>2019-12-03T17:37:06Z</time>
      </trkpt>
      <trkpt lat="44.41745" lon="1.00538">
        <ele>203.326</ele>
        <time>2019-12-03T17:37:26Z</time>
      </trkpt>
      <trkpt lat="44.41672" lon="1.00538">
        <ele>202.908</ele>
        <time>2019-12-03T17:37:46Z</time>
      </trkpt>
      <trkpt lat="44.4162" lon="1.00515">
        <ele>203.626</ele>
        <time>2019-12-03T17:38:06Z</time>
      </trkpt>
      <trkpt lat="44.41521" lon="1.00428">
        <ele>208.369</ele>
        <time>2019-12-03T17:38:26Z</time>
      </trkpt>
      <trkpt lat="44.41385" lon="1.00481">
        <ele>201.673</ele>
        <time>2019-12-03T17:38:46Z</time>
      </trkpt>
      <trkpt lat="44.41219" lon="1.0032">
        <ele>185.898</ele>
        <time>2019-12-03T17:39:06Z</time>
      </trkpt>
      <trkpt lat="44.41184" lon="1.00237">
        <ele>180.645</ele>
        <time>2019-12-03T17:39:26Z</time>
      </trkpt>
      <trkpt lat="44.41146" lon="1.00216">
        <ele>173.595</ele>
        <time>2019-12-03T17:39:46Z</time>
      </trkpt>
      <trkpt lat="44.4113" lon="1.00193">
        <ele>172.026</ele>
        <time>2019-12-03T17:40:06Z</time>
      </trkpt>
      <trkpt lat="44.41074" lon="1.00188">
        <ele>166.248</ele>
        <time>2019-12-03T17:40:26Z</time>
      </trkpt>
      <trkpt lat="44.40949" lon="1.00397">
        <ele>172.578</ele>
        <time>2019-12-03T17:40:46Z</time>
      </trkpt>
      <trkpt lat="44.40907" lon="1.00506">
        <ele>176.033</ele>
        <time>2019-12-03T17:41:06Z</time>
      </trkpt>
      <trkpt lat="44.40892" lon="1.00585">
        <ele>173.726</ele>
        <time>2019-12-03T17:41:26Z</time>
      </trkpt>
      <trkpt lat="44.40871" lon="1.00709">
        <ele>173.308</ele>
        <time>2019-12-03T17:41:46Z</time>
      </trkpt>
      <trkpt lat="44.40889" lon="1.00782">
        <ele>175.464</ele>
        <time>2019-12-03T17:42:06Z</time>
      </trkpt>
      <trkpt lat="44.40846" lon="1.0079">
        <ele>173.077</ele>
        <time>2019-12-03T17:42:26Z</time>
      </trkpt>
      <trkpt lat="44.40715" lon="1.0079">
        <ele>155.561</ele>
        <time>2019-12-03T17:42:46Z</time>
      </trkpt>
      <trkpt lat="44.4068" lon="1.00776">
        <ele>153.686</ele>
        <time>2019-12-03T17:43:06Z</time>
      </trkpt>
      <trkpt lat="44.40702" lon="1.00723">
        <ele>153.673</ele>
        <time>2019-12-03T17:43:26Z</time>
      </trkpt>
      <trkpt lat="44.40674" lon="1.00663">
        <ele>151.633</ele>
        <time>2019-12-03T17:43:46Z</time>
      </trkpt>
      <trkpt lat="44.40671" lon="1.0045">
        <ele>154.044</ele>
        <time>2019-12-03T17:44:06Z</time>
      </trkpt>
      <trkpt lat="44.40643" lon="1.004">
        <ele>154.616</ele>
        <time>2019-12-03T17:44:26Z</time>
      </trkpt>
      <trkpt lat="44.40623" lon="1.00336">
        <ele>154.525</ele>
        <time>2019-12-03T17:44:46Z</time>
      </trkpt>
      <trkpt lat="44.40585" lon="1.00263">
        <ele>153.726</ele>
        <time>2019-12-03T17:45:06Z</time>
      </trkpt>
      <trkpt lat="44.40534" lon="1.0019">
        <ele>154.308</ele>
        <time>2019-12-03T17:45:26Z</time>
      </trkpt>
      <trkpt lat="44.40475" lon="1.00153">
        <ele>158.508</ele>
        <time>2019-12-03T17:45:46Z</time>
      </trkpt>
      <trkpt lat="44.40397" lon="1.00117">
        <ele>165.359</ele>
        <time>2019-12-03T17:46:06Z</time>
      </trkpt>
      <trkpt lat="44.4029" lon="1.00032">
        <ele>168.772</ele>
        <time>2019-12-03T17:46:26Z</time>
      </trkpt>
      <trkpt lat="44.40212" lon="0.99953">
        <ele>169.056</ele>
        <time>2019-12-03T17:46:46Z</time>
      </trkpt>
      <trkpt lat="44.40197" lon="0.99958">
        <ele>168.921</ele>
        <time>2019-12-03T17:47:06Z</time>
      </trkpt>
      <trkpt lat="44.40127" lon="0.99717">
        <ele>173.638</ele>
        <time>2019-12-03T17:47:26Z</time>
      </trkpt>
      <trkpt lat="44.4013" lon="0.99688">
        <ele>174.118</ele>
        <time>2020-06-05T08:41:06Z</time>
      </trkpt>
      <trkpt lat="44.40125" lon="0.99629">
        <ele>179.189</ele>
        <time>2020-06-05T08:41:26Z</time>
      </trkpt>
      <trkpt lat="44.40133" lon="0.99566">
        <ele>183.651</ele>
        <time>2020-06-05T08:41:46Z</time>
      </trkpt>
      <trkpt lat="44.40119" lon="0.99559">
        <ele>186.132</ele>
        <time>2020-06-05T08:42:06Z</time>
      </trkpt>
      <trkpt lat="44.40106" lon="0.99588">
        <ele>184.192</ele>
        <time>2020-06-05T08:42:26Z</time>
      </trkpt>
      <trkpt lat="44.40102" lon="0.99569">
        <ele>188.211</ele>
        <time>2020-06-05T08:42:46Z</time>
      </trkpt>
      <trkpt lat="44.40103" lon="0.99498">
        <ele>196.408</ele>
        <time>2020-06-05T08:43:06Z</time>
      </trkpt>
      <trkpt lat="44.40131" lon="0.99456">
        <ele>191.18</ele>
        <time>2020-06-05T08:43:26Z</time>
      </trkpt>
      <trkpt lat="44.40149" lon="0.99396">
        <ele>187.053</ele>
        <time>2020-06-05T08:43:46Z</time>
      </trkpt>
      <trkpt lat="44.40148" lon="0.99357">
        <ele>185.627</ele>
        <time>2020-06-05T08:44:06Z</time>
      </trkpt>
      <trkpt lat="44.40139" lon="0.99331">
        <ele>178.792</ele>
        <time>2020-06-05T08:44:26Z</time>
      </trkpt>
      <trkpt lat="44.40115" lon="0.99307">
        <ele>179.849</ele>
        <time>2020-06-05T08:44:46Z</time>
      </trkpt>
      <trkpt lat="44.40098" lon="0.99303">
        <ele>184.599</ele>
        <time>2016-12-19T15:29:14Z</time>
      </trkpt>
      <trkpt lat="44.40098" lon="0.99303">
        <ele>184.55</ele>
        <time>2016-12-19T15:29:14Z</time>
      </trkpt>
      <trkpt lat="44.40086" lon="0.99255">
        <ele>173.132</ele>
        <time>2016-12-19T15:29:34Z</time>
      </trkpt>
      <trkpt lat="44.39891" lon="0.99281">
        <ele>150.167</ele>
        <time>2016-12-19T15:29:54Z</time>
      </trkpt>
      <trkpt lat="44.39816" lon="0.99275">
        <ele>138.781</ele>
        <time>2016-12-19T15:30:14Z</time>
      </trkpt>
      <trkpt lat="44.39781" lon="0.9926">
        <ele>134.219</ele>
        <time>2016-12-19T15:30:34Z</time>
      </trkpt>
      <trkpt lat="44.39744" lon="0.99215">
        <ele>129.608</ele>
        <time>2016-12-19T15:30:54Z</time>
      </trkpt>
      <trkpt lat="44.39716" lon="0.9915">
        <ele>129.443</ele>
        <time>2016-12-19T15:31:14Z</time>
      </trkpt>
      <trkpt lat="44.39664" lon="0.99064">
        <ele>125.456</ele>
        <time>2016-12-19T15:31:34Z</time>
      </trkpt>
      <trkpt lat="44.3958" lon="0.99009">
        <ele>124.46</ele>
        <time>2016-12-19T15:31:54Z</time>
      </trkpt>
      <trkpt lat="44.39505" lon="0.98985">
        <ele>118.935</ele>
        <time>2016-12-19T15:32:14Z</time>
      </trkpt>
      <trkpt lat="44.39402" lon="0.98914">
        <ele>118.022</ele>
        <time>2016-12-19T15:32:34Z</time>
      </trkpt>
      <trkpt lat="44.39286" lon="0.9888">
        <ele>119.722</ele>
        <time>2016-12-19T15:32:54Z</time>
      </trkpt>
      <trkpt lat="44.38885" lon="0.98618">
        <ele>142.543</ele>
        <time>2016-12-19T15:33:14Z</time>
      </trkpt>
      <trkpt lat="44.38844" lon="0.98586">
        <ele>142.715</ele>
        <time>2016-12-19T15:33:34Z</time>
      </trkpt>
      <trkpt lat="44.38822" lon="0.98524">
        <ele>141.023</ele>
        <time>2016-12-19T15:33:54Z</time>
      </trkpt>
      <trkpt lat="44.38747" lon="0.98517">
        <ele>150.183</ele>
        <time>2021-04-14T10:58:41Z</time>
      </trkpt>
      <trkpt lat="44.38655" lon="0.98528">
        <ele>165.011</ele>
        <time>2016-12-19T15:34:14Z</time>
      </trkpt>
      <trkpt lat="44.38586" lon="0.98509">
        <ele>181.608</ele>
        <time>2016-12-19T15:34:34Z</time>
      </trkpt>
      <trkpt lat="44.38525" lon="0.98313">
        <ele>220.789</ele>
        <time>2016-12-19T15:34:54Z</time>
      </trkpt>
      <trkpt lat="44.38496" lon="0.9812">
        <ele>239.142</ele>
        <time>2016-12-19T15:35:14Z</time>
      </trkpt>
      <trkpt lat="44.38433" lon="0.98092">
        <ele>244.266</ele>
        <time>2021-04-14T11:00:21Z</time>
      </trkpt>
      <trkpt lat="44.38392" lon="0.98045">
        <ele>246.051</ele>
        <time>2016-12-19T15:35:54Z</time>
      </trkpt>
      <trkpt lat="44.3834" lon="0.98019">
        <ele>242.378</ele>
        <time>2021-04-14T11:01:01Z</time>
      </trkpt>
      <trkpt lat="44.38319" lon="0.98054">
        <ele>241.458</ele>
        <time>2021-04-14T11:01:21Z</time>
      </trkpt>
      <trkpt lat="44.38208" lon="0.97987">
        <ele>243.259</ele>
        <time>2016-12-19T15:36:54Z</time>
      </trkpt>
      <trkpt lat="44.38171" lon="0.98015">
        <ele>252.791</ele>
        <time>2016-12-19T15:37:14Z</time>
      </trkpt>
      <trkpt lat="44.38125" lon="0.97987">
        <ele>255.681</ele>
        <time>2016-12-19T15:37:34Z</time>
      </trkpt>
      <trkpt lat="44.38082" lon="0.97951">
        <ele>256.561</ele>
        <time>2016-12-19T15:37:54Z</time>
      </trkpt>
      <trkpt lat="44.38022" lon="0.97959">
        <ele>257.617</ele>
        <time>2016-12-19T15:38:14Z</time>
      </trkpt>
      <trkpt lat="44.38025" lon="0.9776">
        <ele>252.308</ele>
        <time>2016-12-19T15:38:34Z</time>
      </trkpt>
      <trkpt lat="44.37892" lon="0.97532">
        <ele>249.945</ele>
        <time>2016-12-19T15:38:54Z</time>
      </trkpt>
      <trkpt lat="44.37856" lon="0.97378">
        <ele>249.458</ele>
        <time>2016-12-19T15:39:14Z</time>
      </trkpt>
      <trkpt lat="44.3782" lon="0.97281">
        <ele>249.542</ele>
        <time>2016-12-19T15:39:34Z</time>
      </trkpt>
      <trkpt lat="44.37671" lon="0.96968">
        <ele>250.747</ele>
        <time>2016-12-19T15:39:54Z</time>
      </trkpt>
      <trkpt lat="44.37594" lon="0.96768">
        <ele>248.054</ele>
        <time>2016-12-19T15:40:14Z</time>
      </trkpt>
      <trkpt lat="44.37581" lon="0.96687">
        <ele>246.924</ele>
        <time>2021-01-05T02:50:02Z</time>
      </trkpt>
      <trkpt lat="44.37593" lon="0.96623">
        <ele>246.995</ele>
        <time>2021-01-05T02:50:22Z</time>
      </trkpt>
      <trkpt lat="44.3756" lon="0.96443">
        <ele>238.947</ele>
        <time>2021-01-05T02:50:42Z</time>
      </trkpt>
      <trkpt lat="44.37565" lon="0.96367">
        <ele>234.567</ele>
        <time>2021-01-05T02:51:02Z</time>
      </trkpt>
      <trkpt lat="44.37585" lon="0.96304">
        <ele>229.281</ele>
        <time>2021-01-05T02:51:22Z</time>
      </trkpt>
      <trkpt lat="44.37637" lon="0.96253">
        <ele>224.419</ele>
        <time>2021-01-05T02:51:42Z</time>
      </trkpt>
      <trkpt lat="44.37634" lon="0.96231">
        <ele>222.708</ele>
        <time>2021-01-05T02:52:02Z</time>
      </trkpt>
      <trkpt lat="44.37584" lon="0.96228">
        <ele>223.453</ele>
        <time>2021-01-05T02:52:22Z</time>
      </trkpt>
      <trkpt lat="44.37593" lon="0.9614">
        <ele>222.216</ele>
        <time>2021-01-05T02:52:42Z</time>
      </trkpt>
      <trkpt lat="44.3758" lon="0.96096">
        <ele>224.99</ele>
        <time>2021-01-05T02:53:02Z</time>
      </trkpt>
      <trkpt lat="44.37572" lon="0.96025">
        <ele>225.665</ele>
        <time>2021-01-05T02:53:22Z</time>
      </trkpt>
      <trkpt lat="44.37559" lon="0.96027">
        <ele>227.272</ele>
        <time>2021-01-05T02:53:42Z</time>
      </trkpt>
      <trkpt lat="44.37538" lon="0.96001">
        <ele>229.582</ele>
        <time>2021-01-05T02:54:02Z</time>
      </trkpt>
      <trkpt lat="44.37481" lon="0.95972">
        <ele>230.173</ele>
        <time>2021-01-05T02:54:22Z</time>
      </trkpt>
      <trkpt lat="44.37487" lon="0.95949">
        <ele>230.135</ele>
        <time>2016-12-19T15:43:14Z</time>
      </trkpt>
      <trkpt lat="44.37462" lon="0.95809">
        <ele>214.615</ele>
        <time>2016-12-19T15:43:34Z</time>
      </trkpt>
      <trkpt lat="44.37436" lon="0.9573">
        <ele>211.865</ele>
        <time>2016-12-19T15:43:54Z</time>
      </trkpt>
      <trkpt lat="44.37396" lon="0.95683">
        <ele>210.011</ele>
        <time>2016-12-19T15:44:14Z</time>
      </trkpt>
      <trkpt lat="44.37367" lon="0.95631">
        <ele>209.108</ele>
        <time>2016-12-19T15:44:34Z</time>
      </trkpt>
      <trkpt lat="44.37356" lon="0.95556">
        <ele>216.298</ele>
        <time>2016-12-19T15:44:54Z</time>
      </trkpt>
      <trkpt lat="44.37355" lon="0.95472">
        <ele>224.681</ele>
        <time>2016-12-19T15:45:14Z</time>
      </trkpt>
      <trkpt lat="44.37382" lon="0.95376">
        <ele>224.075</ele>
        <time>2016-12-19T15:45:34Z</time>
      </trkpt>
      <trkpt lat="44.37404" lon="0.95251">
        <ele>219.18</ele>
        <time>2016-12-19T15:45:54Z</time>
      </trkpt>
      <trkpt lat="44.37416" lon="0.95086">
        <ele>221.777</ele>
        <time>2016-12-19T15:46:14Z</time>
      </trkpt>
      <trkpt lat="44.37441" lon="0.94983">
        <ele>222.527</ele>
        <time>2016-12-19T15:46:34Z</time>
      </trkpt>
      <trkpt lat="44.37433" lon="0.94902">
        <ele>224.468</ele>
        <time>2016-12-19T15:46:54Z</time>
      </trkpt>
      <trkpt lat="44.37451" lon="0.94859">
        <ele>224.87</ele>
        <time>2016-12-19T15:47:14Z</time>
      </trkpt>
      <trkpt lat="44.37473" lon="0.94758">
        <ele>225.085</ele>
        <time>2016-12-19T15:47:34Z</time>
      </trkpt>
      <trkpt lat="44.37511" lon="0.947">
        <ele>227.789</ele>
        <time>2016-12-19T15:47:54Z</time>
      </trkpt>
      <trkpt lat="44.37491" lon="0.94616">
        <ele>227.017</ele>
        <time>2016-12-19T15:48:14Z</time>
      </trkpt>
      <trkpt lat="44.37504" lon="0.94571">
        <ele>226.308</ele>
        <time>2016-12-19T15:48:34Z</time>
      </trkpt>
      <trkpt lat="44.37671" lon="0.94378">
        <ele>226.425</ele>
        <time>2016-12-19T15:48:54Z</time>
      </trkpt>
      <trkpt lat="44.37754" lon="0.94324">
        <ele>227.068</ele>
        <time>2016-12-19T15:49:14Z</time>
      </trkpt>
      <trkpt lat="44.37781" lon="0.94324">
        <ele>227.292</ele>
        <time>2016-12-19T15:49:34Z</time>
      </trkpt>
      <trkpt lat="44.37856" lon="0.94258">
        <ele>226.847</ele>
        <time>2016-12-19T15:49:54Z</time>
      </trkpt>
      <trkpt lat="44.3781" lon="0.94136">
        <ele>223.964</ele>
        <time>2016-12-19T15:50:14Z</time>
      </trkpt>
      <trkpt lat="44.37813" lon="0.94093">
        <ele>218.434</ele>
        <time>2016-12-19T15:50:34Z</time>
      </trkpt>
      <trkpt lat="44.37856" lon="0.94022">
        <ele>206.535</ele>
        <time>2016-12-19T15:50:54Z</time>
      </trkpt>
      <trkpt lat="44.37892" lon="0.93895">
        <ele>194.337</ele>
        <time>2016-12-19T15:51:14Z</time>
      </trkpt>
      <trkpt lat="44.37924" lon="0.93721">
        <ele>181.721</ele>
        <time>2016-12-19T15:51:34Z</time>
      </trkpt>
      <trkpt lat="44.37951" lon="0.93644">
        <ele>181.841</ele>
        <time>2016-12-19T15:51:54Z</time>
      </trkpt>
      <trkpt lat="44.38116" lon="0.93397">
        <ele>155.905</ele>
        <time>2016-12-19T15:52:14Z</time>
      </trkpt>
      <trkpt lat="44.38024" lon="0.92908">
        <ele>119.908</ele>
        <time>2016-12-19T15:52:34Z</time>
      </trkpt>
      <trkpt lat="44.37987" lon="0.92822">
        <ele>123.059</ele>
        <time>2021-04-14T11:19:41Z</time>
      </trkpt>
      <trkpt lat="44.37948" lon="0.92762">
        <ele>127.642</ele>
        <time>2016-12-19T15:52:54Z</time>
      </trkpt>
      <trkpt lat="44.3774" lon="0.93039">
        <ele>134.426</ele>
        <time>2016-12-19T15:53:14Z</time>
      </trkpt>
      <trkpt lat="44.37646" lon="0.93247">
        <ele>138.141</ele>
        <time>2016-12-19T15:53:34Z</time>
      </trkpt>
      <trkpt lat="44.37625" lon="0.93457">
        <ele>134.068</ele>
        <time>2016-12-19T15:53:54Z</time>
      </trkpt>
      <trkpt lat="44.37415" lon="0.93393">
        <ele>117.028</ele>
        <time>2016-12-19T15:54:14Z</time>
      </trkpt>
      <trkpt lat="44.37419" lon="0.93322">
        <ele>116.189</ele>
        <time>2016-12-19T15:54:34Z</time>
      </trkpt>
      <trkpt lat="44.37197" lon="0.93125">
        <ele>117.831</ele>
        <time>2016-12-19T15:54:54Z</time>
      </trkpt>
      <trkpt lat="44.37145" lon="0.92994">
        <ele>120.273</ele>
        <time>2016-12-19T15:55:14Z</time>
      </trkpt>
      <trkpt lat="44.37047" lon="0.92852">
        <ele>123.785</ele>
        <time>2016-12-19T15:55:34Z</time>
      </trkpt>
      <trkpt lat="44.36991" lon="0.92636">
        <ele>133.713</ele>
        <time>2016-12-19T15:55:54Z</time>
      </trkpt>
      <trkpt lat="44.36839" lon="0.92481">
        <ele>160.508</ele>
        <time>2016-12-19T15:56:14Z</time>
      </trkpt>
      <trkpt lat="44.36838" lon="0.9243">
        <ele>159.444</ele>
        <time>2016-12-19T15:56:34Z</time>
      </trkpt>
      <trkpt lat="44.36893" lon="0.92363">
        <ele>157.917</ele>
        <time>2016-12-19T15:56:54Z</time>
      </trkpt>
      <trkpt lat="44.37013" lon="0.91955">
        <ele>151.311</ele>
        <time>2016-12-19T15:57:14Z</time>
      </trkpt>
      <trkpt lat="44.37" lon="0.91865">
        <ele>147.816</ele>
        <time>2021-04-14T11:24:41Z</time>
      </trkpt>
      <trkpt lat="44.36996" lon="0.91792">
        <ele>146.593</ele>
        <time>2016-12-19T15:57:34Z</time>
      </trkpt>
      <trkpt lat="44.37198" lon="0.91612">
        <ele>150.263</ele>
        <time>2016-12-19T15:57:54Z</time>
      </trkpt>
      <trkpt lat="44.37238" lon="0.91533">
        <ele>148.874</ele>
        <time>2016-12-19T15:58:14Z</time>
      </trkpt>
      <trkpt lat="44.37243" lon="0.9147">
        <ele>147.936</ele>
        <time>2016-12-19T15:58:34Z</time>
      </trkpt>
      <trkpt lat="44.37295" lon="0.91387">
        <ele>144.925</ele>
        <time>2016-12-19T15:58:54Z</time>
      </trkpt>
      <trkpt lat="44.37439" lon="0.91267">
        <ele>137.626</ele>
        <time>2016-12-19T15:59:14Z</time>
      </trkpt>
      <trkpt lat="44.37528" lon="0.91234">
        <ele>130.908</ele>
        <time>2016-12-19T15:59:34Z</time>
      </trkpt>
      <trkpt lat="44.37694" lon="0.91063">
        <ele>110.308</ele>
        <time>2016-12-19T15:59:54Z</time>
      </trkpt>
      <trkpt lat="44.37746" lon="0.90977">
        <ele>101.559</ele>
        <time>2016-12-19T16:00:14Z</time>
      </trkpt>
      <trkpt lat="44.37789" lon="0.90863">
        <ele>95.612</ele>
        <time>2016-12-19T16:00:34Z</time>
      </trkpt>
      <trkpt lat="44.37815" lon="0.90752">
        <ele>92.446</ele>
        <time>2016-12-19T16:00:54Z</time>
      </trkpt>
      <trkpt lat="44.3782" lon="0.90606">
        <ele>91.151</ele>
        <time>2016-12-19T16:01:14Z</time>
      </trkpt>
      <trkpt lat="44.37783" lon="0.90456">
        <ele>97.578</ele>
        <time>2016-12-19T16:01:34Z</time>
      </trkpt>
      <trkpt lat="44.37862" lon="0.90046">
        <ele>91.268</ele>
        <time>2016-12-19T16:01:54Z</time>
      </trkpt>
      <trkpt lat="44.37939" lon="0.89859">
        <ele>88.829</ele>
        <time>2016-12-19T16:02:14Z</time>
      </trkpt>
      <trkpt lat="44.37945" lon="0.89662">
        <ele>88.711</ele>
        <time>2016-12-19T16:02:34Z</time>
      </trkpt>
      <trkpt lat="44.37982" lon="0.8961">
        <ele>87.033</ele>
        <time>2016-12-19T16:02:54Z</time>
      </trkpt>
      <trkpt lat="44.38057" lon="0.89436">
        <ele>87.023</ele>
        <time>2016-12-19T16:03:14Z</time>
      </trkpt>
      <trkpt lat="44.38082" lon="0.8935">
        <ele>89.415</ele>
        <time>2016-12-19T16:03:34Z</time>
      </trkpt>
      <trkpt lat="44.38137" lon="0.89357">
        <ele>88.008</ele>
        <time>2016-12-19T16:03:54Z</time>
      </trkpt>
      <trkpt lat="44.38178" lon="0.89327">
        <ele>89.25</ele>
        <time>2016-12-19T16:04:14Z</time>
      </trkpt>
      <trkpt lat="44.38234" lon="0.89245">
        <ele>87.923</ele>
        <time>2016-12-19T16:04:34Z</time>
      </trkpt>
      <trkpt lat="44.38387" lon="0.89084">
        <ele>92.927</ele>
        <time>2016-12-19T16:04:54Z</time>
      </trkpt>
      <trkpt lat="44.38359" lon="0.88985">
        <ele>92.532</ele>
        <time>2021-04-14T11:32:41Z</time>
      </trkpt>
      <trkpt lat="44.38414" lon="0.88935">
        <ele>100.139</ele>
        <time>2016-12-19T16:05:34Z</time>
      </trkpt>
      <trkpt lat="44.38515" lon="0.88928">
        <ele>124.049</ele>
        <time>2016-12-19T16:05:54Z</time>
      </trkpt>
      <trkpt lat="44.38605" lon="0.88855">
        <ele>144.06</ele>
        <time>2016-12-19T16:06:14Z</time>
      </trkpt>
      <trkpt lat="44.38622" lon="0.88744">
        <ele>152.752</ele>
        <time>2016-12-19T16:06:34Z</time>
      </trkpt>
      <trkpt lat="44.38592" lon="0.88701">
        <ele>154.872</ele>
        <time>2016-12-19T16:06:54Z</time>
      </trkpt>
      <trkpt lat="44.38585" lon="0.88653">
        <ele>159.313</ele>
        <time>2021-04-14T11:34:41Z</time>
      </trkpt>
      <trkpt lat="44.38622" lon="0.88561">
        <ele>174.714</ele>
        <time>2016-12-19T16:07:34Z</time>
      </trkpt>
      <trkpt lat="44.38673" lon="0.8848">
        <ele>177.508</ele>
        <time>2016-12-19T16:07:54Z</time>
      </trkpt>
      <trkpt lat="44.3878" lon="0.88454">
        <ele>183.494</ele>
        <time>2016-12-19T16:08:14Z</time>
      </trkpt>
      <trkpt lat="44.38883" lon="0.8837">
        <ele>193.117</ele>
        <time>2016-12-19T16:08:34Z</time>
      </trkpt>
      <trkpt lat="44.38975" lon="0.88244">
        <ele>188.561</ele>
        <time>2016-12-19T16:08:54Z</time>
      </trkpt>
      <trkpt lat="44.39026" lon="0.88164">
        <ele>189.826</ele>
        <time>2016-12-19T16:09:14Z</time>
      </trkpt>
      <trkpt lat="44.39058" lon="0.88136">
        <ele>190.043</ele>
        <time>2016-12-19T16:09:34Z</time>
      </trkpt>
      <trkpt lat="44.39113" lon="0.88141">
        <ele>195.883</ele>
        <time>2016-12-19T16:09:54Z</time>
      </trkpt>
      <trkpt lat="44.39107" lon="0.88085">
        <ele>195.314</ele>
        <time>2016-12-19T16:10:14Z</time>
      </trkpt>
      <trkpt lat="44.39136" lon="0.87965">
        <ele>194.526</ele>
        <time>2016-12-19T16:10:34Z</time>
      </trkpt>
      <trkpt lat="44.39202" lon="0.87842">
        <ele>196.063</ele>
        <time>2016-12-19T16:10:54Z</time>
      </trkpt>
      <trkpt lat="44.39291" lon="0.87754">
        <ele>197.744</ele>
        <time>2016-12-19T16:11:14Z</time>
      </trkpt>
      <trkpt lat="44.39366" lon="0.87651">
        <ele>196.918</ele>
        <time>2016-12-19T16:11:34Z</time>
      </trkpt>
      <trkpt lat="44.39346" lon="0.87589">
        <ele>203.408</ele>
        <time>2016-12-19T16:11:54Z</time>
      </trkpt>
      <trkpt lat="44.39361" lon="0.8749">
        <ele>219.763</ele>
        <time>2016-12-19T16:12:14Z</time>
      </trkpt>
      <trkpt lat="44.39335" lon="0.87415">
        <ele>217.356</ele>
        <time>2016-12-19T16:12:34Z</time>
      </trkpt>
      <trkpt lat="44.39352" lon="0.87349">
        <ele>219.46</ele>
        <time>2016-12-19T16:12:54Z</time>
      </trkpt>
      <trkpt lat="44.39345" lon="0.87218">
        <ele>220.355</ele>
        <time>2016-12-19T16:13:14Z</time>
      </trkpt>
      <trkpt lat="44.39349" lon="0.87141">
        <ele>220.772</ele>
        <time>2016-12-19T16:13:34Z</time>
      </trkpt>
      <trkpt lat="44.39394" lon="0.86997">
        <ele>223.172</ele>
        <time>2016-12-19T16:13:54Z</time>
      </trkpt>
      <trkpt lat="44.3943" lon="0.86911">
        <ele>223.413</ele>
        <time>2016-12-19T16:14:14Z</time>
      </trkpt>
      <trkpt lat="44.39433" lon="0.86802">
        <ele>209.525</ele>
        <time>2016-12-19T16:14:34Z</time>
      </trkpt>
      <trkpt lat="44.39524" lon="0.86703">
        <ele>209.959</ele>
        <time>2016-12-19T16:14:54Z</time>
      </trkpt>
      <trkpt lat="44.39506" lon="0.86645">
        <ele>206.803</ele>
        <time>2016-12-19T16:15:14Z</time>
      </trkpt>
      <trkpt lat="44.39469" lon="0.86293">
        <ele>221.323</ele>
        <time>2016-12-19T16:15:34Z</time>
      </trkpt>
      <trkpt lat="44.39444" lon="0.86192">
        <ele>218.908</ele>
        <time>2016-12-19T16:15:54Z</time>
      </trkpt>
      <trkpt lat="44.39334" lon="0.86068">
        <ele>213.062</ele>
        <time>2016-12-19T16:16:14Z</time>
      </trkpt>
      <trkpt lat="44.39305" lon="0.86117">
        <ele>210.355</ele>
        <time>2016-12-19T16:16:34Z</time>
      </trkpt>
      <trkpt lat="44.39272" lon="0.86154">
        <ele>206.179</ele>
        <time>2016-12-19T16:16:54Z</time>
      </trkpt>
      <trkpt lat="44.39233" lon="0.86224">
        <ele>197.664</ele>
        <time>2016-12-19T16:17:14Z</time>
      </trkpt>
      <trkpt lat="44.39104" lon="0.86246">
        <ele>199.931</ele>
        <time>2016-12-19T16:17:34Z</time>
      </trkpt>
      <trkpt lat="44.3907" lon="0.86276">
        <ele>201.651</ele>
        <time>2016-12-19T16:17:54Z</time>
      </trkpt>
      <trkpt lat="44.39047" lon="0.86385">
        <ele>194.992</ele>
        <time>2016-12-19T16:18:14Z</time>
      </trkpt>
      <trkpt lat="44.39012" lon="0.86456">
        <ele>186.424</ele>
        <time>2016-12-19T16:18:34Z</time>
      </trkpt>
      <trkpt lat="44.38995" lon="0.86448">
        <ele>191.371</ele>
        <time>2021-04-14T11:46:21Z</time>
      </trkpt>
      <trkpt lat="44.38943" lon="0.86453">
        <ele>191.241</ele>
        <time>2021-04-14T11:46:41Z</time>
      </trkpt>
      <trkpt lat="44.38885" lon="0.8638">
        <ele>197.415</ele>
        <time>2021-04-14T11:47:01Z</time>
      </trkpt>
      <trkpt lat="44.38871" lon="0.86347">
        <ele>198.508</ele>
        <time>2021-04-14T11:47:21Z</time>
      </trkpt>
      <trkpt lat="44.38883" lon="0.863">
        <ele>203.224</ele>
        <time>2021-04-14T11:47:41Z</time>
      </trkpt>
      <trkpt lat="44.38887" lon="0.86303">
        <ele>204.327</ele>
        <time>2021-04-14T11:48:01Z</time>
      </trkpt>
      <trkpt lat="44.38887" lon="0.8633">
        <ele>204.511</ele>
        <time>2021-04-14T11:48:21Z</time>
      </trkpt>
      <trkpt lat="44.38897" lon="0.86326">
        <ele>207.156</ele>
        <time>2021-04-14T11:48:41Z</time>
      </trkpt>
      <trkpt lat="44.38903" lon="0.86291">
        <ele>211.513</ele>
        <time>2016-12-19T16:19:34Z</time>
      </trkpt>
      <trkpt lat="44.38906" lon="0.86244">
        <ele>208.973</ele>
        <time>2021-04-14T11:49:21Z</time>
      </trkpt>
      <trkpt lat="44.38924" lon="0.86176">
        <ele>209.584</ele>
        <time>2021-04-14T11:49:41Z</time>
      </trkpt>
      <trkpt lat="44.3895" lon="0.86121">
        <ele>212.926</ele>
        <time>2016-12-19T16:20:14Z</time>
      </trkpt>
      <trkpt lat="44.39026" lon="0.86029">
        <ele>219.578</ele>
        <time>2016-12-19T16:20:34Z</time>
      </trkpt>
      <trkpt lat="44.39036" lon="0.85981">
        <ele>209.733</ele>
        <time>2021-04-14T11:50:41Z</time>
      </trkpt>
      <trkpt lat="44.39078" lon="0.85898">
        <ele>212.726</ele>
        <time>2016-12-19T16:21:14Z</time>
      </trkpt>
      <trkpt lat="44.39142" lon="0.85731">
        <ele>210.908</ele>
        <time>2016-12-19T16:21:34Z</time>
      </trkpt>
      <trkpt lat="44.39158" lon="0.85655">
        <ele>205.794</ele>
        <time>2021-04-14T11:51:41Z</time>
      </trkpt>
      <trkpt lat="44.39143" lon="0.85565">
        <ele>205.097</ele>
        <time>2016-12-19T16:22:14Z</time>
      </trkpt>
      <trkpt lat="44.39113" lon="0.85508">
        <ele>209.151</ele>
        <time>2016-12-19T16:22:34Z</time>
      </trkpt>
      <trkpt lat="44.39047" lon="0.85332">
        <ele>203.436</ele>
        <time>2016-12-19T16:22:54Z</time>
      </trkpt>
      <trkpt lat="44.38987" lon="0.853">
        <ele>191.723</ele>
        <time>2016-12-19T16:23:14Z</time>
      </trkpt>
      <trkpt lat="44.38973" lon="0.85267">
        <ele>191.043</ele>
        <time>2016-12-19T16:23:34Z</time>
      </trkpt>
      <trkpt lat="44.39063" lon="0.85129">
        <ele>169.894</ele>
        <time>2021-04-14T11:53:41Z</time>
      </trkpt>
      <trkpt lat="44.39136" lon="0.85031">
        <ele>160.166</ele>
        <time>2021-04-14T11:54:01Z</time>
      </trkpt>
      <trkpt lat="44.39164" lon="0.84907">
        <ele>167.728</ele>
        <time>2021-04-14T11:54:21Z</time>
      </trkpt>
      <trkpt lat="44.39141" lon="0.84806">
        <ele>172.489</ele>
        <time>2016-12-19T16:24:34Z</time>
      </trkpt>
      <trkpt lat="44.39112" lon="0.84738">
        <ele>171.617</ele>
        <time>2021-04-14T11:55:01Z</time>
      </trkpt>
      <trkpt lat="44.39095" lon="0.84584">
        <ele>170.508</ele>
        <time>2021-04-14T11:55:21Z</time>
      </trkpt>
      <trkpt lat="44.39095" lon="0.84494">
        <ele>170.449</ele>
        <time>2021-04-14T11:55:41Z</time>
      </trkpt>
      <trkpt lat="44.3913" lon="0.84355">
        <ele>182.922</ele>
        <time>2016-12-19T16:25:34Z</time>
      </trkpt>
      <trkpt lat="44.39108" lon="0.84222">
        <ele>187.796</ele>
        <time>2016-12-19T16:25:54Z</time>
      </trkpt>
      <trkpt lat="44.39108" lon="0.84073">
        <ele>202.021</ele>
        <time>2021-04-14T11:56:41Z</time>
      </trkpt>
      <trkpt lat="44.3909" lon="0.84037">
        <ele>204.278</ele>
        <time>2021-04-14T11:57:01Z</time>
      </trkpt>
      <trkpt lat="44.39078" lon="0.83991">
        <ele>210.128</ele>
        <time>2016-12-19T16:26:54Z</time>
      </trkpt>
      <trkpt lat="44.39096" lon="0.83924">
        <ele>218.619</ele>
        <time>2016-12-19T16:27:14Z</time>
      </trkpt>
      <trkpt lat="44.39152" lon="0.83867">
        <ele>222.391</ele>
        <time>2021-04-14T11:58:01Z</time>
      </trkpt>
      <trkpt lat="44.39176" lon="0.83815">
        <ele>222.393</ele>
        <time>2016-12-19T16:27:34Z</time>
      </trkpt>
      <trkpt lat="44.39161" lon="0.8366">
        <ele>219.865</ele>
        <time>2016-12-19T16:27:54Z</time>
      </trkpt>
      <trkpt lat="44.39173" lon="0.83551">
        <ele>219.221</ele>
        <time>2016-12-19T16:28:14Z</time>
      </trkpt>
      <trkpt lat="44.39168" lon="0.83474">
        <ele>218.708</ele>
        <time>2016-12-19T16:28:34Z</time>
      </trkpt>
      <trkpt lat="44.3917" lon="0.83343">
        <ele>217.896</ele>
        <time>2016-12-19T16:28:54Z</time>
      </trkpt>
      <trkpt lat="44.39165" lon="0.83263">
        <ele>220.399</ele>
        <time>2016-12-19T16:29:14Z</time>
      </trkpt>
      <trkpt lat="44.39182" lon="0.83053">
        <ele>218.093</ele>
        <time>2016-12-19T16:29:34Z</time>
      </trkpt>
      <trkpt lat="44.39174" lon="0.82933">
        <ele>218.538</ele>
        <time>2016-12-19T16:29:54Z</time>
      </trkpt>
      <trkpt lat="44.39182" lon="0.82879">
        <ele>214.835</ele>
        <time>2016-12-19T16:30:14Z</time>
      </trkpt>
      <trkpt lat="44.39177" lon="0.82811">
        <ele>211.415</ele>
        <time>2016-12-19T16:30:34Z</time>
      </trkpt>
      <trkpt lat="44.39101" lon="0.82474">
        <ele>217.376</ele>
        <time>2016-12-19T16:30:54Z</time>
      </trkpt>
      <trkpt lat="44.3899" lon="0.82467">
        <ele>213.148</ele>
        <time>2016-12-19T16:31:14Z</time>
      </trkpt>
      <trkpt lat="44.39012" lon="0.82416">
        <ele>216.668</ele>
        <time>2016-12-19T16:31:34Z</time>
      </trkpt>
      <trkpt lat="44.39042" lon="0.8227">
        <ele>211.442</ele>
        <time>2016-12-19T16:31:54Z</time>
      </trkpt>
      <trkpt lat="44.39049" lon="0.8218">
        <ele>198.026</ele>
        <time>2016-12-19T16:32:14Z</time>
      </trkpt>
      <trkpt lat="44.39032" lon="0.82137">
        <ele>192.208</ele>
        <time>2016-12-19T16:32:34Z</time>
      </trkpt>
      <trkpt lat="44.39013" lon="0.8206">
        <ele>186.193</ele>
        <time>2016-12-19T16:32:54Z</time>
      </trkpt>
      <trkpt lat="44.39004" lon="0.82057">
        <ele>186.736</ele>
        <time>2016-12-19T16:34:34Z</time>
      </trkpt>
      <trkpt lat="44.38992" lon="0.81972">
        <ele>184.23</ele>
        <time>2016-12-19T16:35:34Z</time>
      </trkpt>
      <trkpt lat="44.38962" lon="0.81863">
        <ele>195.065</ele>
        <time>2016-12-19T16:35:54Z</time>
      </trkpt>
      <trkpt lat="44.38969" lon="0.81844">
        <ele>189.282</ele>
        <time>2021-04-14T12:05:01Z</time>
      </trkpt>
      <trkpt lat="44.38961" lon="0.81787">
        <ele>190.342</ele>
        <time>2021-04-14T12:05:21Z</time>
      </trkpt>
      <trkpt lat="44.38982" lon="0.81783">
        <ele>191.423</ele>
        <time>2021-04-14T12:05:41Z</time>
      </trkpt>
      <trkpt lat="44.38989" lon="0.81761">
        <ele>191.845</ele>
        <time>2021-04-14T12:06:01Z</time>
      </trkpt>
      <trkpt lat="44.38959" lon="0.8163">
        <ele>197.053</ele>
        <time>2016-12-19T16:38:54Z</time>
      </trkpt>
      <trkpt lat="44.38946" lon="0.81615">
        <ele>196.404</ele>
        <time>2016-12-19T16:39:14Z</time>
      </trkpt>
      <trkpt lat="44.38934" lon="0.81628">
        <ele>195.214</ele>
        <time>2016-12-19T16:39:34Z</time>
      </trkpt>
      <trkpt lat="44.3893" lon="0.81655">
        <ele>196.108</ele>
        <time>2016-12-19T16:39:54Z</time>
      </trkpt>
      <trkpt lat="44.3892" lon="0.81701">
        <ele>194.772</ele>
        <time>2016-12-19T16:40:14Z</time>
      </trkpt>
      <trkpt lat="44.389" lon="0.81742">
        <ele>183.975</ele>
        <time>2016-12-19T16:40:34Z</time>
      </trkpt>
      <trkpt lat="44.38897" lon="0.81783">
        <ele>181.669</ele>
        <time>2016-12-19T16:40:54Z</time>
      </trkpt>
      <trkpt lat="44.38906" lon="0.81839">
        <ele>181.914</ele>
        <time>2016-12-19T16:41:14Z</time>
      </trkpt>
      <trkpt lat="44.38904" lon="0.8187">
        <ele>179.281</ele>
        <time>2016-12-19T16:41:34Z</time>
      </trkpt>
      <trkpt lat="44.38858" lon="0.81873">
        <ele>167.571</ele>
        <time>2016-12-19T16:41:54Z</time>
      </trkpt>
      <trkpt lat="44.38846" lon="0.81885">
        <ele>164.992</ele>
        <time>2016-12-19T16:42:14Z</time>
      </trkpt>
      <trkpt lat="44.38831" lon="0.81878">
        <ele>162.794</ele>
        <time>2016-12-19T16:42:34Z</time>
      </trkpt>
      <trkpt lat="44.38826" lon="0.81834">
        <ele>163.455</ele>
        <time>2016-12-19T16:42:54Z</time>
      </trkpt>
      <trkpt lat="44.38829" lon="0.81759">
        <ele>163.107</ele>
        <time>2016-12-19T16:43:14Z</time>
      </trkpt>
      <trkpt lat="44.38822" lon="0.81651">
        <ele>158.617</ele>
        <time>2016-12-19T16:43:34Z</time>
      </trkpt>
      <trkpt lat="44.38855" lon="0.81493">
        <ele>157.608</ele>
        <time>2016-12-19T16:43:54Z</time>
      </trkpt>
      <trkpt lat="44.38865" lon="0.81341">
        <ele>141.352</ele>
        <time>2016-12-19T16:44:14Z</time>
      </trkpt>
      <trkpt lat="44.38885" lon="0.81283">
        <ele>137.975</ele>
        <time>2016-12-19T16:44:34Z</time>
      </trkpt>
      <trkpt lat="44.38927" lon="0.81212">
        <ele>126.169</ele>
        <time>2016-12-19T16:44:54Z</time>
      </trkpt>
      <trkpt lat="44.3895" lon="0.81145">
        <ele>114.114</ele>
        <time>2016-12-19T16:45:14Z</time>
      </trkpt>
      <trkpt lat="44.38947" lon="0.81109">
        <ele>107.781</ele>
        <time>2016-12-19T16:45:34Z</time>
      </trkpt>
      <trkpt lat="44.38932" lon="0.81053">
        <ele>101.891</ele>
        <time>2016-12-19T16:45:54Z</time>
      </trkpt>
      <trkpt lat="44.38915" lon="0.80897">
        <ele>97.042</ele>
        <time>2021-04-14T12:13:41Z</time>
      </trkpt>
      <trkpt lat="44.3894" lon="0.80789">
        <ele>98.714</ele>
        <time>2016-12-19T16:46:34Z</time>
      </trkpt>
      <trkpt lat="44.38931" lon="0.8066">
        <ele>93.743</ele>
        <time>2016-12-19T16:46:54Z</time>
      </trkpt>
      <trkpt lat="44.38904" lon="0.80534">
        <ele>87.664</ele>
        <time>2016-12-19T16:47:14Z</time>
      </trkpt>
      <trkpt lat="44.38868" lon="0.80459">
        <ele>81.41</ele>
        <time>2016-12-19T16:47:34Z</time>
      </trkpt>
      <trkpt lat="44.38852" lon="0.8039">
        <ele>80.008</ele>
        <time>2016-12-19T16:47:54Z</time>
      </trkpt>
      <trkpt lat="44.38852" lon="0.80274">
        <ele>70.161</ele>
        <time>2016-12-19T16:48:14Z</time>
      </trkpt>
      <trkpt lat="44.389" lon="0.8012">
        <ele>64.594</ele>
        <time>2016-12-19T16:48:34Z</time>
      </trkpt>
      <trkpt lat="44.38901" lon="0.80049">
        <ele>59.958</ele>
        <time>2016-12-19T16:48:54Z</time>
      </trkpt>
      <trkpt lat="44.38858" lon="0.79944">
        <ele>59.043</ele>
        <time>2016-12-19T16:49:14Z</time>
      </trkpt>
      <trkpt lat="44.38802" lon="0.79886">
        <ele>61.17</ele>
        <time>2016-12-19T16:49:34Z</time>
      </trkpt>
      <trkpt lat="44.38733" lon="0.79843">
        <ele>63.49</ele>
        <time>2016-12-19T16:49:54Z</time>
      </trkpt>
      <trkpt lat="44.38734" lon="0.79751">
        <ele>63.661</ele>
        <time>2016-12-19T16:50:14Z</time>
      </trkpt>
      <trkpt lat="44.3872" lon="0.79757">
        <ele>64.083</ele>
        <time>2016-12-19T16:50:34Z</time>
      </trkpt>
      <trkpt lat="44.38693" lon="0.79817">
        <ele>62.667</ele>
        <time>2016-12-19T16:50:54Z</time>
      </trkpt>
      <trkpt lat="44.38596" lon="0.79802">
        <ele>68.581</ele>
        <time>2016-12-19T16:51:14Z</time>
      </trkpt>
      <trkpt lat="44.38351" lon="0.79845">
        <ele>74.219</ele>
        <time>2016-12-19T16:51:34Z</time>
      </trkpt>
      <trkpt lat="44.38334" lon="0.79721">
        <ele>79.008</ele>
        <time>2016-12-19T16:51:54Z</time>
      </trkpt>
      <trkpt lat="44.38346" lon="0.79682">
        <ele>80.213</ele>
        <time>2016-12-19T16:52:14Z</time>
      </trkpt>
      <trkpt lat="44.38328" lon="0.79605">
        <ele>84.146</ele>
        <time>2016-12-19T16:52:34Z</time>
      </trkpt>
      <trkpt lat="44.38326" lon="0.79551">
        <ele>85.79</ele>
        <time>2016-12-19T16:52:54Z</time>
      </trkpt>
      <trkpt lat="44.38313" lon="0.79497">
        <ele>89.655</ele>
        <time>2016-12-19T16:53:14Z</time>
      </trkpt>
      <trkpt lat="44.38283" lon="0.79448">
        <ele>92.782</ele>
        <time>2016-12-19T16:53:34Z</time>
      </trkpt>
      <trkpt lat="44.38204" lon="0.7918">
        <ele>118.982</ele>
        <time>2016-12-19T16:53:54Z</time>
      </trkpt>
      <trkpt lat="44.38145" lon="0.79058">
        <ele>142.443</ele>
        <time>2016-12-19T16:54:14Z</time>
      </trkpt>
      <trkpt lat="44.38201" lon="0.78942">
        <ele>144.515</ele>
        <time>2016-12-19T16:54:34Z</time>
      </trkpt>
      <trkpt lat="44.3817" lon="0.78879">
        <ele>151.046</ele>
        <time>2016-12-19T16:54:54Z</time>
      </trkpt>
      <trkpt lat="44.38125" lon="0.78682">
        <ele>174.588</ele>
        <time>2016-12-19T16:55:14Z</time>
      </trkpt>
      <trkpt lat="44.38081" lon="0.78729">
        <ele>194.316</ele>
        <time>2016-12-19T16:55:34Z</time>
      </trkpt>
      <trkpt lat="44.38061" lon="0.78785">
        <ele>192.708</ele>
        <time>2021-01-05T04:03:42Z</time>
      </trkpt>
      <trkpt lat="44.38035" lon="0.7876">
        <ele>199.751</ele>
        <time>2021-01-05T04:04:02Z</time>
      </trkpt>
      <trkpt lat="44.38019" lon="0.78684">
        <ele>206.374</ele>
        <time>2021-01-05T04:04:22Z</time>
      </trkpt>
      <trkpt lat="44.37966" lon="0.78603">
        <ele>212.138</ele>
        <time>2016-12-19T16:56:14Z</time>
      </trkpt>
      <trkpt lat="44.37828" lon="0.7842">
        <ele>209.143</ele>
        <time>2016-12-19T16:56:34Z</time>
      </trkpt>
      <trkpt lat="44.37727" lon="0.78255">
        <ele>205.53</ele>
        <time>2016-12-19T16:56:54Z</time>
      </trkpt>
      <trkpt lat="44.37687" lon="0.78214">
        <ele>204.58</ele>
        <time>2016-12-19T16:57:14Z</time>
      </trkpt>
      <trkpt lat="44.37599" lon="0.78008">
        <ele>198.091</ele>
        <time>2016-12-19T16:57:34Z</time>
      </trkpt>
      <trkpt lat="44.3754" lon="0.77985">
        <ele>200.873</ele>
        <time>2016-12-19T16:57:54Z</time>
      </trkpt>
      <trkpt lat="44.37494" lon="0.77946">
        <ele>201.838</ele>
        <time>2016-12-19T16:58:14Z</time>
      </trkpt>
      <trkpt lat="44.37515" lon="0.77819">
        <ele>201.37</ele>
        <time>2016-12-19T16:58:34Z</time>
      </trkpt>
      <trkpt lat="44.37487" lon="0.77568">
        <ele>195.917</ele>
        <time>2016-12-19T16:58:54Z</time>
      </trkpt>
      <trkpt lat="44.37469" lon="0.77472">
        <ele>191.808</ele>
        <time>2016-12-19T16:59:14Z</time>
      </trkpt>
      <trkpt lat="44.37467" lon="0.77392">
        <ele>189.42</ele>
        <time>2016-12-19T16:59:34Z</time>
      </trkpt>
      <trkpt lat="44.37406" lon="0.77195">
        <ele>191.223</ele>
        <time>2021-01-05T04:08:22Z</time>
      </trkpt>
      <trkpt lat="44.37364" lon="0.77125">
        <ele>187.017</ele>
        <time>2021-01-05T04:08:42Z</time>
      </trkpt>
      <trkpt lat="44.37347" lon="0.76993">
        <ele>184.362</ele>
        <time>2021-01-05T04:09:02Z</time>
      </trkpt>
      <trkpt lat="44.3731" lon="0.76862">
        <ele>170.959</ele>
        <time>2016-12-19T17:01:14Z</time>
      </trkpt>
      <trkpt lat="44.37251" lon="0.76813">
        <ele>164.339</ele>
        <time>2016-12-19T17:01:34Z</time>
      </trkpt>
      <trkpt lat="44.37167" lon="0.76764">
        <ele>170.07</ele>
        <time>2016-12-19T17:01:54Z</time>
      </trkpt>
      <trkpt lat="44.37185" lon="0.76729">
        <ele>168.132</ele>
        <time>2016-12-19T17:02:14Z</time>
      </trkpt>
      <trkpt lat="44.37191" lon="0.76586">
        <ele>160.066</ele>
        <time>2016-12-19T17:02:34Z</time>
      </trkpt>
      <trkpt lat="44.37226" lon="0.765">
        <ele>154.229</ele>
        <time>2016-12-19T17:02:54Z</time>
      </trkpt>
      <trkpt lat="44.37251" lon="0.76384">
        <ele>148.021</ele>
        <time>2016-12-19T17:03:14Z</time>
      </trkpt>
      <trkpt lat="44.37349" lon="0.76242">
        <ele>135.808</ele>
        <time>2016-12-19T17:03:34Z</time>
      </trkpt>
      <trkpt lat="44.37475" lon="0.76199">
        <ele>137.633</ele>
        <time>2016-12-19T17:03:54Z</time>
      </trkpt>
      <trkpt lat="44.37541" lon="0.76161">
        <ele>123.766</ele>
        <time>2016-12-19T17:04:14Z</time>
      </trkpt>
      <trkpt lat="44.37544" lon="0.76092">
        <ele>126.72</ele>
        <time>2016-12-19T17:04:34Z</time>
      </trkpt>
      <trkpt lat="44.37527" lon="0.76054">
        <ele>127.935</ele>
        <time>2016-12-19T17:04:54Z</time>
      </trkpt>
      <trkpt lat="44.3761" lon="0.75899">
        <ele>111.852</ele>
        <time>2016-12-19T17:05:14Z</time>
      </trkpt>
      <trkpt lat="44.37716" lon="0.7577">
        <ele>102.152</ele>
        <time>2016-12-19T17:05:34Z</time>
      </trkpt>
      <trkpt lat="44.37882" lon="0.75642">
        <ele>89.893</ele>
        <time>2016-12-19T17:05:54Z</time>
      </trkpt>
      <trkpt lat="44.37863" lon="0.75577">
        <ele>95.285</ele>
        <time>2016-12-19T17:06:14Z</time>
      </trkpt>
      <trkpt lat="44.37885" lon="0.75539">
        <ele>93.722</ele>
        <time>2016-12-19T17:06:34Z</time>
      </trkpt>
      <trkpt lat="44.37908" lon="0.75528">
        <ele>91.762</ele>
        <time>2016-12-19T17:06:54Z</time>
      </trkpt>
      <trkpt lat="44.37943" lon="0.75532">
        <ele>92.808</ele>
        <time>2016-12-19T17:07:14Z</time>
      </trkpt>
      <trkpt lat="44.37975" lon="0.75491">
        <ele>98.908</ele>
        <time>2016-12-19T17:07:34Z</time>
      </trkpt>
      <trkpt lat="44.38008" lon="0.7548">
        <ele>105.139</ele>
        <time>2021-01-05T04:16:02Z</time>
      </trkpt>
      <trkpt lat="44.37943" lon="0.753">
        <ele>99.382</ele>
        <time>2021-01-05T04:16:22Z</time>
      </trkpt>
      <trkpt lat="44.37996" lon="0.75278">
        <ele>107.796</ele>
        <time>2021-01-05T04:16:42Z</time>
      </trkpt>
      <trkpt lat="44.38008" lon="0.7523">
        <ele>111.291</ele>
        <time>2021-01-05T04:17:02Z</time>
      </trkpt>
      <trkpt lat="44.38007" lon="0.7513">
        <ele>113.448</ele>
        <time>2021-01-05T04:17:22Z</time>
      </trkpt>
      <trkpt lat="44.37984" lon="0.74945">
        <ele>111.668</ele>
        <time>2021-01-05T04:17:42Z</time>
      </trkpt>
      <trkpt lat="44.37928" lon="0.74831">
        <ele>112.849</ele>
        <time>2021-01-05T04:18:02Z</time>
      </trkpt>
      <trkpt lat="44.37916" lon="0.74766">
        <ele>113.381</ele>
        <time>2021-01-05T04:18:22Z</time>
      </trkpt>
      <trkpt lat="44.37897" lon="0.74711">
        <ele>112.373</ele>
        <time>2021-01-05T04:18:42Z</time>
      </trkpt>
      <trkpt lat="44.37876" lon="0.74706">
        <ele>110.685</ele>
        <time>2021-01-05T04:19:02Z</time>
      </trkpt>
      <trkpt lat="44.37857" lon="0.74611">
        <ele>110.313</ele>
        <time>2021-01-05T04:19:22Z</time>
      </trkpt>
      <trkpt lat="44.37854" lon="0.74506">
        <ele>114.608</ele>
        <time>2021-01-05T04:19:42Z</time>
      </trkpt>
      <trkpt lat="44.37874" lon="0.74354">
        <ele>121.164</ele>
        <time>2021-01-05T04:20:02Z</time>
      </trkpt>
      <trkpt lat="44.37859" lon="0.74251">
        <ele>127.567</ele>
        <time>2021-01-05T04:20:22Z</time>
      </trkpt>
      <trkpt lat="44.37817" lon="0.74142">
        <ele>139.551</ele>
        <time>2021-01-05T04:20:42Z</time>
      </trkpt>
      <trkpt lat="44.37791" lon="0.74055">
        <ele>152.896</ele>
        <time>2021-01-05T04:21:02Z</time>
      </trkpt>
      <trkpt lat="44.37779" lon="0.73955">
        <ele>168.673</ele>
        <time>2021-01-05T04:21:22Z</time>
      </trkpt>
      <trkpt lat="44.37836" lon="0.73963">
        <ele>175.833</ele>
        <time>2021-01-05T04:21:42Z</time>
      </trkpt>
      <trkpt lat="44.3787" lon="0.7393">
        <ele>179.584</ele>
        <time>2021-01-05T04:22:02Z</time>
      </trkpt>
      <trkpt lat="44.37887" lon="0.73857">
        <ele>187.566</ele>
        <time>2021-01-05T04:22:22Z</time>
      </trkpt>
      <trkpt lat="44.37876" lon="0.73804">
        <ele>191.333</ele>
        <time>2021-01-05T04:22:42Z</time>
      </trkpt>
      <trkpt lat="44.37861" lon="0.73781">
        <ele>191.723</ele>
        <time>2021-01-05T04:23:02Z</time>
      </trkpt>
      <trkpt lat="44.37912" lon="0.7365">
        <ele>197.915</ele>
        <time>2021-01-05T04:23:22Z</time>
      </trkpt>
      <trkpt lat="44.37847" lon="0.73611">
        <ele>196.108</ele>
        <time>2021-01-05T04:23:42Z</time>
      </trkpt>
      <trkpt lat="44.37917" lon="0.7357">
        <ele>197.48</ele>
        <time>2021-01-05T04:24:02Z</time>
      </trkpt>
      <trkpt lat="44.37971" lon="0.73568">
        <ele>194.913</ele>
        <time>2021-01-05T04:24:22Z</time>
      </trkpt>
      <trkpt lat="44.3802" lon="0.73577">
        <ele>194.177</ele>
        <time>2016-12-19T17:15:14Z</time>
      </trkpt>
      <trkpt lat="44.38101" lon="0.73599">
        <ele>191.092</ele>
        <time>2016-12-19T17:15:34Z</time>
      </trkpt>
      <trkpt lat="44.38161" lon="0.73571">
        <ele>192.519</ele>
        <time>2016-12-19T17:15:54Z</time>
      </trkpt>
      <trkpt lat="44.38219" lon="0.73558">
        <ele>191.519</ele>
        <time>2016-12-19T17:16:14Z</time>
      </trkpt>
      <trkpt lat="44.38285" lon="0.73483">
        <ele>190.65</ele>
        <time>2016-12-19T17:16:34Z</time>
      </trkpt>
      <trkpt lat="44.38305" lon="0.73391">
        <ele>189.062</ele>
        <time>2016-12-19T17:16:54Z</time>
      </trkpt>
      <trkpt lat="44.3834" lon="0.7332">
        <ele>188.947</ele>
        <time>2016-12-19T17:17:14Z</time>
      </trkpt>
      <trkpt lat="44.38355" lon="0.73266">
        <ele>188.029</ele>
        <time>2016-12-19T17:17:34Z</time>
      </trkpt>
      <trkpt lat="44.38391" lon="0.7318">
        <ele>189.221</ele>
        <time>2016-12-19T17:17:54Z</time>
      </trkpt>
      <trkpt lat="44.38383" lon="0.72992">
        <ele>188.008</ele>
        <time>2016-12-19T17:18:14Z</time>
      </trkpt>
      <trkpt lat="44.38373" lon="0.7291">
        <ele>184.351</ele>
        <time>2021-04-14T12:47:41Z</time>
      </trkpt>
      <trkpt lat="44.38359" lon="0.72846">
        <ele>186.954</ele>
        <time>2016-12-19T17:18:54Z</time>
      </trkpt>
      <trkpt lat="44.38348" lon="0.72698">
        <ele>190.438</ele>
        <time>2016-12-19T17:19:14Z</time>
      </trkpt>
      <trkpt lat="44.38328" lon="0.72562">
        <ele>188.663</ele>
        <time>2016-12-19T17:19:34Z</time>
      </trkpt>
      <trkpt lat="44.38334" lon="0.72492">
        <ele>181.96</ele>
        <time>2016-12-19T17:19:54Z</time>
      </trkpt>
      <trkpt lat="44.38331" lon="0.72457">
        <ele>183.15</ele>
        <time>2021-04-14T12:49:21Z</time>
      </trkpt>
      <trkpt lat="44.38301" lon="0.7241">
        <ele>172.861</ele>
        <time>2021-04-14T12:49:41Z</time>
      </trkpt>
      <trkpt lat="44.38277" lon="0.72295">
        <ele>160.343</ele>
        <time>2021-04-14T12:50:01Z</time>
      </trkpt>
      <trkpt lat="44.38293" lon="0.72245">
        <ele>161.579</ele>
        <time>2021-01-05T04:30:02Z</time>
      </trkpt>
      <trkpt lat="44.38302" lon="0.72189">
        <ele>157.005</ele>
        <time>2021-01-05T04:30:22Z</time>
      </trkpt>
      <trkpt lat="44.38296" lon="0.72174">
        <ele>153.625</ele>
        <time>2021-01-05T04:30:42Z</time>
      </trkpt>
      <trkpt lat="44.38299" lon="0.72128">
        <ele>148.008</ele>
        <time>2021-01-05T04:31:02Z</time>
      </trkpt>
      <trkpt lat="44.38416" lon="0.71887">
        <ele>122.164</ele>
        <time>2021-01-05T04:31:22Z</time>
      </trkpt>
      <trkpt lat="44.38405" lon="0.71759">
        <ele>107.887</ele>
        <time>2021-01-05T04:31:42Z</time>
      </trkpt>
      <trkpt lat="44.38582" lon="0.71742">
        <ele>105.981</ele>
        <time>2021-01-05T04:32:02Z</time>
      </trkpt>
      <trkpt lat="44.38617" lon="0.71754">
        <ele>102.616</ele>
        <time>2021-01-05T04:32:22Z</time>
      </trkpt>
      <trkpt lat="44.38692" lon="0.71798">
        <ele>96.813</ele>
        <time>2021-01-05T04:32:42Z</time>
      </trkpt>
      <trkpt lat="44.38726" lon="0.71838">
        <ele>97.553</ele>
        <time>2021-01-05T04:33:02Z</time>
      </trkpt>
      <trkpt lat="44.38751" lon="0.71846">
        <ele>96.324</ele>
        <time>2021-01-05T04:33:22Z</time>
      </trkpt>
      <trkpt lat="44.38787" lon="0.71818">
        <ele>92.736</ele>
        <time>2021-01-05T04:33:42Z</time>
      </trkpt>
      <trkpt lat="44.38844" lon="0.71843">
        <ele>92.748</ele>
        <time>2021-01-05T04:34:02Z</time>
      </trkpt>
      <trkpt lat="44.38864" lon="0.71846">
        <ele>91.061</ele>
        <time>2021-01-05T04:34:22Z</time>
      </trkpt>
      <trkpt lat="44.38913" lon="0.71811">
        <ele>85.417</ele>
        <time>2021-01-05T04:34:42Z</time>
      </trkpt>
      <trkpt lat="44.38981" lon="0.71794">
        <ele>79.308</ele>
        <time>2016-12-19T17:24:34Z</time>
      </trkpt>
      <trkpt lat="44.38982" lon="0.71763">
        <ele>77.071</ele>
        <time>2021-01-05T04:35:22Z</time>
      </trkpt>
      <trkpt lat="44.38904" lon="0.7159">
        <ele>71.634</ele>
        <time>2021-01-05T04:35:42Z</time>
      </trkpt>
      <trkpt lat="44.38872" lon="0.71487">
        <ele>68.398</ele>
        <time>2021-01-05T04:36:02Z</time>
      </trkpt>
      <trkpt lat="44.38858" lon="0.71473">
        <ele>68.373</ele>
        <time>2021-01-05T04:36:22Z</time>
      </trkpt>
      <trkpt lat="44.38796" lon="0.71316">
        <ele>70.69</ele>
        <time>2016-12-19T17:26:54Z</time>
      </trkpt>
      <trkpt lat="44.38809" lon="0.71292">
        <ele>71.64</ele>
        <time>2016-12-19T17:27:14Z</time>
      </trkpt>
      <trkpt lat="44.38756" lon="0.71251">
        <ele>74.921</ele>
        <time>2021-04-14T12:57:41Z</time>
      </trkpt>
      <trkpt lat="44.3878" lon="0.71198">
        <ele>78.643</ele>
        <time>2021-04-14T12:58:01Z</time>
      </trkpt>
      <trkpt lat="44.38864" lon="0.71186">
        <ele>78.478</ele>
        <time>2021-01-05T04:38:02Z</time>
      </trkpt>
      <trkpt lat="44.38887" lon="0.71146">
        <ele>80.533</ele>
        <time>2021-01-05T04:38:22Z</time>
      </trkpt>
      <trkpt lat="44.38846" lon="0.7103">
        <ele>84.826</ele>
        <time>2021-01-05T04:38:42Z</time>
      </trkpt>
      <trkpt lat="44.3878" lon="0.70929">
        <ele>94.508</ele>
        <time>2016-12-19T17:29:14Z</time>
      </trkpt>
      <trkpt lat="44.38733" lon="0.70865">
        <ele>103.864</ele>
        <time>2016-12-19T17:29:34Z</time>
      </trkpt>
      <trkpt lat="44.38717" lon="0.70775">
        <ele>114.637</ele>
        <time>2016-12-19T17:29:54Z</time>
      </trkpt>
      <trkpt lat="44.38717" lon="0.70691">
        <ele>123.751</ele>
        <time>2016-12-19T17:30:14Z</time>
      </trkpt>
      <trkpt lat="44.38731" lon="0.7065">
        <ele>127.156</ele>
        <time>2016-12-19T17:30:34Z</time>
      </trkpt>
      <trkpt lat="44.38699" lon="0.70507">
        <ele>144.673</ele>
        <time>2021-01-05T04:40:42Z</time>
      </trkpt>
      <trkpt lat="44.38679" lon="0.70521">
        <ele>146.383</ele>
        <time>2021-01-05T04:41:02Z</time>
      </trkpt>
      <trkpt lat="44.38659" lon="0.70519">
        <ele>149.454</ele>
        <time>2021-01-05T04:41:22Z</time>
      </trkpt>
      <trkpt lat="44.38633" lon="0.70483">
        <ele>154.766</ele>
        <time>2021-01-05T04:41:42Z</time>
      </trkpt>
      <trkpt lat="44.38586" lon="0.70322">
        <ele>155.822</ele>
        <time>2021-01-05T04:42:02Z</time>
      </trkpt>
      <trkpt lat="44.38548" lon="0.70265">
        <ele>160.162</ele>
        <time>2021-01-05T04:42:22Z</time>
      </trkpt>
      <trkpt lat="44.38518" lon="0.70185">
        <ele>161.308</ele>
        <time>2021-01-05T04:42:42Z</time>
      </trkpt>
      <trkpt lat="44.385" lon="0.70174">
        <ele>164.608</ele>
        <time>2021-01-05T04:43:02Z</time>
      </trkpt>
      <trkpt lat="44.38466" lon="0.70031">
        <ele>159.949</ele>
        <time>2021-01-05T04:43:22Z</time>
      </trkpt>
      <trkpt lat="44.38466" lon="0.6996">
        <ele>158.352</ele>
        <time>2021-01-05T04:43:42Z</time>
      </trkpt>
      <trkpt lat="44.38505" lon="0.69831">
        <ele>150.076</ele>
        <time>2021-01-05T04:44:02Z</time>
      </trkpt>
      <trkpt lat="44.3856" lon="0.69734">
        <ele>148.361</ele>
        <time>2021-01-05T04:44:22Z</time>
      </trkpt>
      <trkpt lat="44.38579" lon="0.69616">
        <ele>147.928</ele>
        <time>2021-01-05T04:44:42Z</time>
      </trkpt>
      <trkpt lat="44.38564" lon="0.69591">
        <ele>153.788</ele>
        <time>2021-01-05T04:45:02Z</time>
      </trkpt>
      <trkpt lat="44.38553" lon="0.6953">
        <ele>160.979</ele>
        <time>2021-01-05T04:45:22Z</time>
      </trkpt>
      <trkpt lat="44.38551" lon="0.6935">
        <ele>169.171</ele>
        <time>2021-01-05T04:45:42Z</time>
      </trkpt>
      <trkpt lat="44.38557" lon="0.69283">
        <ele>167.425</ele>
        <time>2021-01-05T04:46:02Z</time>
      </trkpt>
      <trkpt lat="44.38531" lon="0.6926">
        <ele>168.526</ele>
        <time>2021-01-05T04:46:22Z</time>
      </trkpt>
      <trkpt lat="44.3856" lon="0.69188">
        <ele>166.508</ele>
        <time>2021-01-05T04:46:42Z</time>
      </trkpt>
      <trkpt lat="44.38605" lon="0.69045">
        <ele>169.608</ele>
        <time>2021-01-05T04:47:02Z</time>
      </trkpt>
      <trkpt lat="44.38592" lon="0.68988">
        <ele>178.369</ele>
        <time>2016-12-19T17:39:54Z</time>
      </trkpt>
      <trkpt lat="44.38563" lon="0.68878">
        <ele>181.972</ele>
        <time>2016-12-19T17:40:14Z</time>
      </trkpt>
      <trkpt lat="44.38557" lon="0.68802">
        <ele>176.146</ele>
        <time>2021-04-14T13:08:21Z</time>
      </trkpt>
      <trkpt lat="44.38555" lon="0.68704">
        <ele>181.391</ele>
        <time>2016-12-19T17:40:54Z</time>
      </trkpt>
      <trkpt lat="44.38538" lon="0.687">
        <ele>180.488</ele>
        <time>2016-12-19T17:41:14Z</time>
      </trkpt>
      <trkpt lat="44.38532" lon="0.68683">
        <ele>175.018</ele>
        <time>2021-01-05T04:49:02Z</time>
      </trkpt>
      <trkpt lat="44.38502" lon="0.68689">
        <ele>173.329</ele>
        <time>2021-01-05T04:49:22Z</time>
      </trkpt>
      <trkpt lat="44.38485" lon="0.68704">
        <ele>168.661</ele>
        <time>2021-01-05T04:49:42Z</time>
      </trkpt>
      <trkpt lat="44.38449" lon="0.68657">
        <ele>162.567</ele>
        <time>2016-12-19T17:42:14Z</time>
      </trkpt>
      <trkpt lat="44.38426" lon="0.68584">
        <ele>156.481</ele>
        <time>2016-12-19T17:42:34Z</time>
      </trkpt>
      <trkpt lat="44.38198" lon="0.68451">
        <ele>106.219</ele>
        <time>2016-12-19T17:42:54Z</time>
      </trkpt>
      <trkpt lat="44.38095" lon="0.684">
        <ele>90.908</ele>
        <time>2021-04-14T13:11:21Z</time>
      </trkpt>
      <trkpt lat="44.38033" lon="0.68389">
        <ele>87.973</ele>
        <time>2021-04-14T13:11:41Z</time>
      </trkpt>
      <trkpt lat="44.3798" lon="0.68284">
        <ele>82.526</ele>
        <time>2021-04-14T13:12:01Z</time>
      </trkpt>
      <trkpt lat="44.38" lon="0.6818">
        <ele>81.03</ele>
        <time>2016-12-19T17:44:14Z</time>
      </trkpt>
      <trkpt lat="44.37931" lon="0.67994">
        <ele>89.345</ele>
        <time>2016-12-19T17:44:34Z</time>
      </trkpt>
      <trkpt lat="44.37915" lon="0.6793">
        <ele>93.112</ele>
        <time>2016-12-19T17:45:34Z</time>
      </trkpt>
      <trkpt lat="44.37842" lon="0.67872">
        <ele>106.352</ele>
        <time>2016-12-19T17:45:54Z</time>
      </trkpt>
      <trkpt lat="44.37762" lon="0.67876">
        <ele>119.113</ele>
        <time>2016-12-19T17:46:14Z</time>
      </trkpt>
      <trkpt lat="44.37707" lon="0.67827">
        <ele>125.655</ele>
        <time>2016-12-19T17:46:34Z</time>
      </trkpt>
      <trkpt lat="44.37673" lon="0.67743">
        <ele>136.845</ele>
        <time>2016-12-19T17:46:54Z</time>
      </trkpt>
      <trkpt lat="44.37667" lon="0.67642">
        <ele>142.647</ele>
        <time>2016-12-19T17:47:14Z</time>
      </trkpt>
      <trkpt lat="44.37702" lon="0.67498">
        <ele>163.411</ele>
        <time>2016-12-19T17:47:34Z</time>
      </trkpt>
      <trkpt lat="44.37746" lon="0.67376">
        <ele>171.708</ele>
        <time>2021-04-14T13:15:21Z</time>
      </trkpt>
      <trkpt lat="44.37676" lon="0.67415">
        <ele>183.981</ele>
        <time>2021-04-14T13:15:41Z</time>
      </trkpt>
      <trkpt lat="44.37582" lon="0.67377">
        <ele>192.044</ele>
        <time>2021-04-14T13:16:01Z</time>
      </trkpt>
      <trkpt lat="44.37538" lon="0.6735">
        <ele>190.948</ele>
        <time>2021-04-14T13:16:21Z</time>
      </trkpt>
      <trkpt lat="44.37477" lon="0.67342">
        <ele>190.053</ele>
        <time>2016-12-19T17:48:54Z</time>
      </trkpt>
      <trkpt lat="44.37368" lon="0.6726">
        <ele>193.46</ele>
        <time>2016-12-19T17:49:14Z</time>
      </trkpt>
      <trkpt lat="44.37317" lon="0.67239">
        <ele>194.82</ele>
        <time>2016-12-19T17:49:34Z</time>
      </trkpt>
      <trkpt lat="44.37257" lon="0.67187">
        <ele>198.141</ele>
        <time>2016-12-19T17:49:54Z</time>
      </trkpt>
      <trkpt lat="44.37113" lon="0.66988">
        <ele>196.163</ele>
        <time>2016-12-19T17:50:14Z</time>
      </trkpt>
      <trkpt lat="44.37058" lon="0.66992">
        <ele>194.327</ele>
        <time>2016-12-19T17:50:34Z</time>
      </trkpt>
      <trkpt lat="44.3696" lon="0.66988">
        <ele>188.368</ele>
        <time>2016-12-19T17:50:54Z</time>
      </trkpt>
      <trkpt lat="44.36886" lon="0.66994">
        <ele>188.414</ele>
        <time>2016-12-19T17:51:14Z</time>
      </trkpt>
      <trkpt lat="44.36816" lon="0.66981">
        <ele>188.008</ele>
        <time>2016-12-19T17:51:34Z</time>
      </trkpt>
      <trkpt lat="44.36728" lon="0.66859">
        <ele>191.859</ele>
        <time>2016-12-19T17:51:54Z</time>
      </trkpt>
      <trkpt lat="44.36702" lon="0.6676">
        <ele>194.372</ele>
        <time>2016-12-19T17:52:14Z</time>
      </trkpt>
      <trkpt lat="44.36622" lon="0.66726">
        <ele>194.426</ele>
        <time>2016-12-19T17:52:34Z</time>
      </trkpt>
      <trkpt lat="44.36584" lon="0.66726">
        <ele>195.981</ele>
        <time>2016-12-19T17:52:54Z</time>
      </trkpt>
      <trkpt lat="44.36566" lon="0.66814">
        <ele>191.878</ele>
        <time>2016-12-19T17:53:14Z</time>
      </trkpt>
      <trkpt lat="44.36517" lon="0.66855">
        <ele>192.938</ele>
        <time>2016-12-19T17:53:34Z</time>
      </trkpt>
      <trkpt lat="44.36403" lon="0.66998">
        <ele>192.189</ele>
        <time>2021-04-14T13:21:41Z</time>
      </trkpt>
      <trkpt lat="44.36293" lon="0.67116">
        <ele>185.471</ele>
        <time>2016-12-19T17:54:14Z</time>
      </trkpt>
      <trkpt lat="44.36253" lon="0.67134">
        <ele>182.375</ele>
        <time>2016-12-19T17:54:34Z</time>
      </trkpt>
      <trkpt lat="44.36219" lon="0.67164">
        <ele>175.528</ele>
        <time>2016-12-19T17:54:54Z</time>
      </trkpt>
      <trkpt lat="44.3619" lon="0.67116">
        <ele>173.92</ele>
        <time>2016-12-19T17:55:14Z</time>
      </trkpt>
      <trkpt lat="44.36081" lon="0.67153">
        <ele>176.608</ele>
        <time>2016-12-19T17:55:34Z</time>
      </trkpt>
      <trkpt lat="44.36062" lon="0.67192">
        <ele>177.864</ele>
        <time>2016-12-19T17:55:54Z</time>
      </trkpt>
      <trkpt lat="44.36024" lon="0.67413">
        <ele>170.167</ele>
        <time>2016-12-19T17:56:14Z</time>
      </trkpt>
      <trkpt lat="44.35938" lon="0.67586">
        <ele>169.581</ele>
        <time>2016-12-19T17:56:34Z</time>
      </trkpt>
      <trkpt lat="44.35932" lon="0.67619">
        <ele>164.356</ele>
        <time>2016-12-19T17:56:54Z</time>
      </trkpt>
      <trkpt lat="44.35898" lon="0.67634">
        <ele>163.133</ele>
        <time>2016-12-19T17:57:14Z</time>
      </trkpt>
      <trkpt lat="44.35861" lon="0.6761">
        <ele>163.323</ele>
        <time>2016-12-19T17:57:34Z</time>
      </trkpt>
      <trkpt lat="44.35812" lon="0.67408">
        <ele>173.074</ele>
        <time>2016-12-19T17:57:54Z</time>
      </trkpt>
      <trkpt lat="44.35795" lon="0.67376">
        <ele>169.676</ele>
        <time>2016-12-19T17:58:14Z</time>
      </trkpt>
      <trkpt lat="44.35792" lon="0.67252">
        <ele>177.143</ele>
        <time>2016-12-19T17:58:34Z</time>
      </trkpt>
      <trkpt lat="44.35742" lon="0.67196">
        <ele>170.664</ele>
        <time>2016-12-19T17:58:54Z</time>
      </trkpt>
      <trkpt lat="44.35709" lon="0.67069">
        <ele>166.81</ele>
        <time>2021-04-14T13:27:01Z</time>
      </trkpt>
      <trkpt lat="44.3563" lon="0.66949">
        <ele>164.708</ele>
        <time>2016-12-19T17:59:34Z</time>
      </trkpt>
      <trkpt lat="44.35611" lon="0.66883">
        <ele>166.371</ele>
        <time>2016-12-19T17:59:54Z</time>
      </trkpt>
      <trkpt lat="44.35616" lon="0.66835">
        <ele>168.614</ele>
        <time>2016-12-19T18:00:14Z</time>
      </trkpt>
      <trkpt lat="44.35645" lon="0.6678">
        <ele>173.088</ele>
        <time>2016-12-19T18:00:34Z</time>
      </trkpt>
      <trkpt lat="44.35688" lon="0.66754">
        <ele>184.243</ele>
        <time>2016-12-19T18:00:54Z</time>
      </trkpt>
      <trkpt lat="44.35726" lon="0.66569">
        <ele>181.93</ele>
        <time>2016-12-19T18:01:14Z</time>
      </trkpt>
      <trkpt lat="44.3578" lon="0.66471">
        <ele>186.09</ele>
        <time>2016-12-19T18:01:34Z</time>
      </trkpt>
      <trkpt lat="44.35848" lon="0.66434">
        <ele>188.721</ele>
        <time>2016-12-19T18:01:54Z</time>
      </trkpt>
      <trkpt lat="44.35881" lon="0.66383">
        <ele>184.463</ele>
        <time>2016-12-19T18:02:14Z</time>
      </trkpt>
      <trkpt lat="44.35944" lon="0.6634">
        <ele>184.075</ele>
        <time>2016-12-19T18:02:34Z</time>
      </trkpt>
      <trkpt lat="44.35938" lon="0.66288">
        <ele>183.328</ele>
        <time>2016-12-19T18:02:54Z</time>
      </trkpt>
      <trkpt lat="44.35895" lon="0.6623">
        <ele>180.22</ele>
        <time>2016-12-19T18:03:14Z</time>
      </trkpt>
      <trkpt lat="44.35878" lon="0.66147">
        <ele>186.208</ele>
        <time>2016-12-19T18:03:34Z</time>
      </trkpt>
      <trkpt lat="44.35852" lon="0.66082">
        <ele>185.424</ele>
        <time>2016-12-19T18:03:54Z</time>
      </trkpt>
      <trkpt lat="44.35895" lon="0.65981">
        <ele>188.267</ele>
        <time>2016-12-19T18:04:14Z</time>
      </trkpt>
      <trkpt lat="44.35848" lon="0.66016">
        <ele>180.761</ele>
        <time>2016-12-19T18:04:34Z</time>
      </trkpt>
      <trkpt lat="44.3578" lon="0.66104">
        <ele>161.256</ele>
        <time>2016-12-19T18:04:54Z</time>
      </trkpt>
      <trkpt lat="44.35753" lon="0.66164">
        <ele>148.233</ele>
        <time>2016-12-19T18:05:14Z</time>
      </trkpt>
      <trkpt lat="44.35706" lon="0.66164">
        <ele>135.423</ele>
        <time>2016-12-19T18:05:34Z</time>
      </trkpt>
      <trkpt lat="44.35694" lon="0.66104">
        <ele>132.794</ele>
        <time>2016-12-19T18:05:54Z</time>
      </trkpt>
      <trkpt lat="44.35605" lon="0.66104">
        <ele>122.436</ele>
        <time>2016-12-19T18:06:14Z</time>
      </trkpt>
      <trkpt lat="44.35604" lon="0.66046">
        <ele>124.227</ele>
        <time>2016-12-19T18:06:34Z</time>
      </trkpt>
      <trkpt lat="44.35552" lon="0.6605">
        <ele>138.968</ele>
        <time>2016-12-19T18:06:54Z</time>
      </trkpt>
      <trkpt lat="44.35513" lon="0.66215">
        <ele>121.414</ele>
        <time>2016-12-19T18:07:14Z</time>
      </trkpt>
      <trkpt lat="44.35449" lon="0.6637">
        <ele>125.208</ele>
        <time>2016-12-19T18:07:34Z</time>
      </trkpt>
      <trkpt lat="44.35358" lon="0.6649">
        <ele>124.369</ele>
        <time>2016-12-19T18:07:54Z</time>
      </trkpt>
      <trkpt lat="44.35324" lon="0.66501">
        <ele>123.342</ele>
        <time>2016-12-19T18:08:14Z</time>
      </trkpt>
      <trkpt lat="44.35281" lon="0.66447">
        <ele>119.866</ele>
        <time>2016-12-19T18:08:34Z</time>
      </trkpt>
      <trkpt lat="44.35045" lon="0.66337">
        <ele>119.981</ele>
        <time>2016-12-19T18:08:54Z</time>
      </trkpt>
      <trkpt lat="44.34961" lon="0.66177">
        <ele>121.228</ele>
        <time>2016-12-19T18:09:14Z</time>
      </trkpt>
      <trkpt lat="44.3493" lon="0.66174">
        <ele>121.068</ele>
        <time>2016-12-19T18:09:34Z</time>
      </trkpt>
      <trkpt lat="44.34912" lon="0.66198">
        <ele>121.329</ele>
        <time>2016-12-19T18:09:54Z</time>
      </trkpt>
      <trkpt lat="44.34772" lon="0.66151">
        <ele>127.311</ele>
        <time>2016-12-19T18:10:14Z</time>
      </trkpt>
      <trkpt lat="44.3474" lon="0.66131">
        <ele>128.411</ele>
        <time>2016-12-19T18:10:34Z</time>
      </trkpt>
      <trkpt lat="44.34682" lon="0.66112">
        <ele>128.621</ele>
        <time>2016-12-19T18:10:54Z</time>
      </trkpt>
      <trkpt lat="44.34694" lon="0.66074">
        <ele>128.403</ele>
        <time>2016-12-19T18:11:14Z</time>
      </trkpt>
      <trkpt lat="44.3468" lon="0.65977">
        <ele>140.008</ele>
        <time>2016-12-19T18:11:34Z</time>
      </trkpt>
      <trkpt lat="44.34636" lon="0.65964">
        <ele>139.968</ele>
        <time>2016-12-19T18:11:54Z</time>
      </trkpt>
      <trkpt lat="44.34566" lon="0.65885">
        <ele>161.531</ele>
        <time>2016-12-19T18:12:14Z</time>
      </trkpt>
      <trkpt lat="44.34519" lon="0.65908">
        <ele>171.395</ele>
        <time>2016-12-19T18:12:34Z</time>
      </trkpt>
      <trkpt lat="44.34418" lon="0.65855">
        <ele>180.31</ele>
        <time>2016-12-19T18:12:54Z</time>
      </trkpt>
      <trkpt lat="44.34313" lon="0.65831">
        <ele>174.957</ele>
        <time>2016-12-19T18:13:14Z</time>
      </trkpt>
      <trkpt lat="44.34273" lon="0.65771">
        <ele>184.867</ele>
        <time>2016-12-19T18:13:34Z</time>
      </trkpt>
      <trkpt lat="44.34241" lon="0.65762">
        <ele>184.938</ele>
        <time>2016-12-19T18:13:54Z</time>
      </trkpt>
      <trkpt lat="44.34171" lon="0.65805">
        <ele>184.47</ele>
        <time>2016-12-19T18:14:14Z</time>
      </trkpt>
      <trkpt lat="44.34204" lon="0.65752">
        <ele>189.781</ele>
        <time>2016-12-19T18:14:34Z</time>
      </trkpt>
      <trkpt lat="44.34172" lon="0.65653">
        <ele>195.461</ele>
        <time>2016-12-19T18:14:54Z</time>
      </trkpt>
      <trkpt lat="44.34091" lon="0.65677">
        <ele>199.917</ele>
        <time>2016-12-19T18:15:14Z</time>
      </trkpt>
      <trkpt lat="44.34042" lon="0.6567">
        <ele>198.408</ele>
        <time>2016-12-19T18:15:34Z</time>
      </trkpt>
      <trkpt lat="44.33962" lon="0.65612">
        <ele>197.415</ele>
        <time>2016-12-19T18:15:54Z</time>
      </trkpt>
      <trkpt lat="44.33927" lon="0.65612">
        <ele>198.668</ele>
        <time>2016-12-19T18:16:14Z</time>
      </trkpt>
      <trkpt lat="44.33888" lon="0.65636">
        <ele>201.192</ele>
        <time>2016-12-19T18:16:34Z</time>
      </trkpt>
      <trkpt lat="44.33736" lon="0.65812">
        <ele>200.597</ele>
        <time>2016-12-19T18:16:54Z</time>
      </trkpt>
      <trkpt lat="44.33674" lon="0.65678">
        <ele>210.914</ele>
        <time>2021-04-14T13:45:01Z</time>
      </trkpt>
      <trkpt lat="44.33525" lon="0.65568">
        <ele>210.674</ele>
        <time>2021-04-14T13:45:21Z</time>
      </trkpt>
      <trkpt lat="44.3339" lon="0.65496">
        <ele>202.995</ele>
        <time>2021-04-14T13:45:41Z</time>
      </trkpt>
      <trkpt lat="44.33365" lon="0.65558">
        <ele>203.137</ele>
        <time>2021-04-14T13:46:01Z</time>
      </trkpt>
      <trkpt lat="44.33336" lon="0.65539">
        <ele>199.536</ele>
        <time>2021-04-14T13:46:21Z</time>
      </trkpt>
      <trkpt lat="44.33376" lon="0.65681">
        <ele>205.217</ele>
        <time>2021-04-14T13:46:41Z</time>
      </trkpt>
      <trkpt lat="44.33374" lon="0.65711">
        <ele>205.018</ele>
        <time>2016-12-19T18:19:34Z</time>
      </trkpt>
      <trkpt lat="44.33306" lon="0.65823">
        <ele>208.708</ele>
        <time>2016-12-19T18:19:54Z</time>
      </trkpt>
      <trkpt lat="44.33287" lon="0.65889">
        <ele>206.97</ele>
        <time>2016-12-19T18:20:14Z</time>
      </trkpt>
      <trkpt lat="44.3313" lon="0.65737">
        <ele>192.773</ele>
        <time>2016-12-19T18:20:34Z</time>
      </trkpt>
      <trkpt lat="44.32777" lon="0.65537">
        <ele>190.527</ele>
        <time>2021-04-14T13:48:21Z</time>
      </trkpt>
      <trkpt lat="44.32735" lon="0.65543">
        <ele>190.922</ele>
        <time>2021-04-14T13:48:41Z</time>
      </trkpt>
      <trkpt lat="44.32679" lon="0.65421">
        <ele>190.429</ele>
        <time>2016-12-19T18:21:14Z</time>
      </trkpt>
      <trkpt lat="44.32493" lon="0.65595">
        <ele>195.439</ele>
        <time>2016-12-19T18:21:34Z</time>
      </trkpt>
      <trkpt lat="44.32409" lon="0.65662">
        <ele>203.91</ele>
        <time>2016-12-19T18:21:54Z</time>
      </trkpt>
      <trkpt lat="44.32359" lon="0.65548">
        <ele>206.432</ele>
        <time>2016-12-19T18:22:14Z</time>
      </trkpt>
      <trkpt lat="44.32332" lon="0.65511">
        <ele>209.683</ele>
        <time>2016-12-19T18:22:34Z</time>
      </trkpt>
      <trkpt lat="44.3225" lon="0.65503">
        <ele>205.925</ele>
        <time>2016-12-19T18:22:54Z</time>
      </trkpt>
      <trkpt lat="44.32238" lon="0.65473">
        <ele>206.317</ele>
        <time>2016-12-19T18:23:14Z</time>
      </trkpt>
      <trkpt lat="44.32243" lon="0.65404">
        <ele>207.108</ele>
        <time>2016-12-19T18:23:34Z</time>
      </trkpt>
      <trkpt lat="44.32168" lon="0.65329">
        <ele>204.975</ele>
        <time>2016-12-19T18:23:54Z</time>
      </trkpt>
      <trkpt lat="44.32128" lon="0.65305">
        <ele>203.698</ele>
        <time>2016-12-19T18:24:14Z</time>
      </trkpt>
      <trkpt lat="44.32123" lon="0.65267">
        <ele>203.672</ele>
        <time>2016-12-19T18:24:34Z</time>
      </trkpt>
      <trkpt lat="44.32016" lon="0.65247">
        <ele>203.987</ele>
        <time>2016-12-19T18:24:54Z</time>
      </trkpt>
      <trkpt lat="44.32007" lon="0.65173">
        <ele>202.124</ele>
        <time>2021-04-14T13:53:01Z</time>
      </trkpt>
      <trkpt lat="44.31973" lon="0.65059">
        <ele>200.144</ele>
        <time>2016-12-19T18:25:14Z</time>
      </trkpt>
      <trkpt lat="44.31934" lon="0.64999">
        <ele>199.465</ele>
        <time>2016-12-19T18:25:34Z</time>
      </trkpt>
      <trkpt lat="44.31905" lon="0.649">
        <ele>202.167</ele>
        <time>2016-12-19T18:25:54Z</time>
      </trkpt>
      <trkpt lat="44.31857" lon="0.64898">
        <ele>205.123</ele>
        <time>2016-12-19T18:26:14Z</time>
      </trkpt>
      <trkpt lat="44.31779" lon="0.64878">
        <ele>208.583</ele>
        <time>2016-12-19T18:26:34Z</time>
      </trkpt>
      <trkpt lat="44.31678" lon="0.6481">
        <ele>206.511</ele>
        <time>2016-12-19T18:26:54Z</time>
      </trkpt>
      <trkpt lat="44.31504" lon="0.64662">
        <ele>197.008</ele>
        <time>2016-12-19T18:27:14Z</time>
      </trkpt>
      <trkpt lat="44.314" lon="0.6455">
        <ele>190.469</ele>
        <time>2016-12-19T18:27:34Z</time>
      </trkpt>
      <trkpt lat="44.31355" lon="0.64447">
        <ele>186.772</ele>
        <time>2016-12-19T18:27:54Z</time>
      </trkpt>
      <trkpt lat="44.31338" lon="0.64406">
        <ele>183.196</ele>
        <time>2016-12-19T18:28:14Z</time>
      </trkpt>
      <trkpt lat="44.31328" lon="0.64331">
        <ele>177.721</ele>
        <time>2016-12-19T18:28:34Z</time>
      </trkpt>
      <trkpt lat="44.31338" lon="0.64263">
        <ele>174.078</ele>
        <time>2016-12-19T18:28:54Z</time>
      </trkpt>
      <trkpt lat="44.313" lon="0.6426">
        <ele>164.748</ele>
        <time>2016-12-19T18:29:14Z</time>
      </trkpt>
      <trkpt lat="44.31274" lon="0.64286">
        <ele>160.329</ele>
        <time>2016-12-19T18:29:34Z</time>
      </trkpt>
      <trkpt lat="44.31227" lon="0.64262">
        <ele>150.991</ele>
        <time>2021-04-14T13:58:01Z</time>
      </trkpt>
      <trkpt lat="44.31166" lon="0.64252">
        <ele>146.042</ele>
        <time>2021-04-14T13:58:21Z</time>
      </trkpt>
      <trkpt lat="44.3116" lon="0.64284">
        <ele>146.722</ele>
        <time>2016-12-19T18:30:14Z</time>
      </trkpt>
      <trkpt lat="44.31124" lon="0.64275">
        <ele>151.114</ele>
        <time>2016-12-19T18:30:34Z</time>
      </trkpt>
      <trkpt lat="44.30909" lon="0.64323">
        <ele>182.308</ele>
        <time>2016-12-19T18:31:14Z</time>
      </trkpt>
      <trkpt lat="44.30875" lon="0.64293">
        <ele>185.341</ele>
        <time>2016-12-19T18:31:34Z</time>
      </trkpt>
      <trkpt lat="44.30571" lon="0.6417">
        <ele>212.764</ele>
        <time>2016-12-19T18:31:54Z</time>
      </trkpt>
      <trkpt lat="44.30555" lon="0.64104">
        <ele>206.428</ele>
        <time>2016-12-19T18:32:14Z</time>
      </trkpt>
      <trkpt lat="44.3052" lon="0.64022">
        <ele>199.023</ele>
        <time>2016-12-19T18:32:34Z</time>
      </trkpt>
      <trkpt lat="44.30494" lon="0.63921">
        <ele>195.17</ele>
        <time>2016-12-19T18:32:54Z</time>
      </trkpt>
      <trkpt lat="44.30343" lon="0.6402">
        <ele>193.32</ele>
        <time>2016-12-19T18:33:14Z</time>
      </trkpt>
      <trkpt lat="44.30239" lon="0.6411">
        <ele>193.411</ele>
        <time>2016-12-19T18:33:34Z</time>
      </trkpt>
      <trkpt lat="44.30059" lon="0.64215">
        <ele>195.223</ele>
        <time>2016-12-19T18:33:54Z</time>
      </trkpt>
      <trkpt lat="44.30004" lon="0.64151">
        <ele>196.663</ele>
        <time>2016-12-19T18:34:14Z</time>
      </trkpt>
      <trkpt lat="44.29976" lon="0.6405">
        <ele>195.044</ele>
        <time>2016-12-19T18:34:34Z</time>
      </trkpt>
      <trkpt lat="44.29961" lon="0.6402">
        <ele>195.618</ele>
        <time>2016-12-19T18:34:54Z</time>
      </trkpt>
      <trkpt lat="44.29941" lon="0.64009">
        <ele>197.708</ele>
        <time>2016-12-19T18:35:14Z</time>
      </trkpt>
      <trkpt lat="44.2989" lon="0.63915">
        <ele>202.743</ele>
        <time>2016-12-19T18:35:34Z</time>
      </trkpt>
      <trkpt lat="44.29837" lon="0.63898">
        <ele>200.816</ele>
        <time>2016-12-19T18:35:54Z</time>
      </trkpt>
      <trkpt lat="44.29794" lon="0.63906">
        <ele>198.88</ele>
        <time>2016-12-19T18:36:14Z</time>
      </trkpt>
      <trkpt lat="44.29766" lon="0.63338">
        <ele>193.335</ele>
        <time>2016-12-19T18:36:34Z</time>
      </trkpt>
      <trkpt lat="44.29797" lon="0.63269">
        <ele>191.612</ele>
        <time>2016-12-19T18:36:54Z</time>
      </trkpt>
      <trkpt lat="44.29781" lon="0.63194">
        <ele>189.282</ele>
        <time>2016-12-19T18:37:14Z</time>
      </trkpt>
      <trkpt lat="44.29748" lon="0.63145">
        <ele>193.893</ele>
        <time>2016-12-19T18:37:34Z</time>
      </trkpt>
      <trkpt lat="44.29651" lon="0.63065">
        <ele>207.345</ele>
        <time>2016-12-19T18:37:54Z</time>
      </trkpt>
      <trkpt lat="44.29614" lon="0.63052">
        <ele>206.445</ele>
        <time>2016-12-19T18:38:14Z</time>
      </trkpt>
      <trkpt lat="44.29628" lon="0.62953">
        <ele>211.947</ele>
        <time>2021-04-14T14:06:41Z</time>
      </trkpt>
      <trkpt lat="44.29668" lon="0.62926">
        <ele>218.411</ele>
        <time>2016-12-19T18:38:54Z</time>
      </trkpt>
      <trkpt lat="44.29811" lon="0.62698">
        <ele>232.208</ele>
        <time>2016-12-19T18:39:14Z</time>
      </trkpt>
      <trkpt lat="44.29809" lon="0.62657">
        <ele>232.061</ele>
        <time>2016-12-19T18:39:34Z</time>
      </trkpt>
      <trkpt lat="44.29894" lon="0.62475">
        <ele>233.884</ele>
        <time>2016-12-19T18:39:54Z</time>
      </trkpt>
      <trkpt lat="44.29892" lon="0.62312">
        <ele>241.618</ele>
        <time>2016-12-19T18:40:14Z</time>
      </trkpt>
      <trkpt lat="44.29898" lon="0.6222">
        <ele>247.643</ele>
        <time>2016-12-19T18:40:34Z</time>
      </trkpt>
      <trkpt lat="44.29975" lon="0.62061">
        <ele>235.38</ele>
        <time>2016-12-19T18:40:54Z</time>
      </trkpt>
      <trkpt lat="44.30012" lon="0.61941">
        <ele>233.96</ele>
        <time>2016-12-19T18:41:14Z</time>
      </trkpt>
      <trkpt lat="44.30019" lon="0.61827">
        <ele>229.761</ele>
        <time>2016-12-19T18:41:34Z</time>
      </trkpt>
      <trkpt lat="44.30016" lon="0.61692">
        <ele>226.693</ele>
        <time>2016-12-19T18:41:54Z</time>
      </trkpt>
      <trkpt lat="44.2999" lon="0.61535">
        <ele>224.717</ele>
        <time>2016-12-19T18:42:14Z</time>
      </trkpt>
      <trkpt lat="44.29935" lon="0.61527">
        <ele>222.687</ele>
        <time>2016-12-19T18:42:34Z</time>
      </trkpt>
      <trkpt lat="44.29903" lon="0.61548">
        <ele>219.315</ele>
        <time>2016-12-19T18:42:54Z</time>
      </trkpt>
      <trkpt lat="44.298" lon="0.61499">
        <ele>206.808</ele>
        <time>2016-12-19T18:43:14Z</time>
      </trkpt>
      <trkpt lat="44.29858" lon="0.61432">
        <ele>210.328</ele>
        <time>2016-12-19T18:43:34Z</time>
      </trkpt>
      <trkpt lat="44.29878" lon="0.61207">
        <ele>207.691</ele>
        <time>2016-12-19T18:43:54Z</time>
      </trkpt>
      <trkpt lat="44.29918" lon="0.61061">
        <ele>204.125</ele>
        <time>2016-12-19T18:44:14Z</time>
      </trkpt>
      <trkpt lat="44.2998" lon="0.60924">
        <ele>197.09</ele>
        <time>2016-12-19T18:44:34Z</time>
      </trkpt>
      <trkpt lat="44.29843" lon="0.6081">
        <ele>191.077</ele>
        <time>2016-12-19T18:45:14Z</time>
      </trkpt>
      <trkpt lat="44.29879" lon="0.60575">
        <ele>190.797</ele>
        <time>2021-01-05T05:51:02Z</time>
      </trkpt>
      <trkpt lat="44.29857" lon="0.60474">
        <ele>190.088</ele>
        <time>2021-01-05T05:51:22Z</time>
      </trkpt>
      <trkpt lat="44.29851" lon="0.60362">
        <ele>191.71</ele>
        <time>2021-01-05T05:51:42Z</time>
      </trkpt>
      <trkpt lat="44.29871" lon="0.60272">
        <ele>192.856</ele>
        <time>2021-01-05T05:52:02Z</time>
      </trkpt>
      <trkpt lat="44.29833" lon="0.59832">
        <ele>191.059</ele>
        <time>2021-01-05T05:52:22Z</time>
      </trkpt>
      <trkpt lat="44.29705" lon="0.59817">
        <ele>177.314</ele>
        <time>2021-01-05T05:52:42Z</time>
      </trkpt>
      <trkpt lat="44.29701" lon="0.59853">
        <ele>177.408</ele>
        <time>2021-01-05T05:53:02Z</time>
      </trkpt>
      <trkpt lat="44.29623" lon="0.59908">
        <ele>165.962</ele>
        <time>2021-04-14T14:15:41Z</time>
      </trkpt>
      <trkpt lat="44.29526" lon="0.59916">
        <ele>156.215</ele>
        <time>2021-04-14T14:16:01Z</time>
      </trkpt>
      <trkpt lat="44.29499" lon="0.59896">
        <ele>154.339</ele>
        <time>2021-04-14T14:16:21Z</time>
      </trkpt>
      <trkpt lat="44.29428" lon="0.59921">
        <ele>157.864</ele>
        <time>2021-01-05T05:53:42Z</time>
      </trkpt>
      <trkpt lat="44.29307" lon="0.59832">
        <ele>176.911</ele>
        <time>2021-01-05T05:54:02Z</time>
      </trkpt>
      <trkpt lat="44.29275" lon="0.59892">
        <ele>178.641</ele>
        <time>2021-04-14T14:17:21Z</time>
      </trkpt>
      <trkpt lat="44.29254" lon="0.59892">
        <ele>182.262</ele>
        <time>2021-04-14T14:17:41Z</time>
      </trkpt>
      <trkpt lat="44.29208" lon="0.59819">
        <ele>190.764</ele>
        <time>2021-04-14T14:18:01Z</time>
      </trkpt>
      <trkpt lat="44.29064" lon="0.597">
        <ele>191.151</ele>
        <time>2021-01-05T05:55:22Z</time>
      </trkpt>
      <trkpt lat="44.29064" lon="0.59643">
        <ele>185.301</ele>
        <time>2016-12-19T18:49:14Z</time>
      </trkpt>
      <trkpt lat="44.29075" lon="0.59593">
        <ele>182.911</ele>
        <time>2016-12-19T18:49:34Z</time>
      </trkpt>
      <trkpt lat="44.29061" lon="0.59583">
        <ele>182.708</ele>
        <time>2016-12-19T18:49:54Z</time>
      </trkpt>
      <trkpt lat="44.28923" lon="0.59604">
        <ele>193.292</ele>
        <time>2016-12-19T18:50:14Z</time>
      </trkpt>
      <trkpt lat="44.28855" lon="0.59591">
        <ele>190.575</ele>
        <time>2016-12-19T18:50:34Z</time>
      </trkpt>
      <trkpt lat="44.28728" lon="0.59527">
        <ele>177.089</ele>
        <time>2016-12-19T18:50:54Z</time>
      </trkpt>
      <trkpt lat="44.28454" lon="0.59454">
        <ele>156.414</ele>
        <time>2016-12-19T18:51:14Z</time>
      </trkpt>
      <trkpt lat="44.28301" lon="0.59422">
        <ele>184.231</ele>
        <time>2016-12-19T18:51:34Z</time>
      </trkpt>
      <trkpt lat="44.28195" lon="0.59428">
        <ele>189.261</ele>
        <time>2016-12-19T18:51:54Z</time>
      </trkpt>
      <trkpt lat="44.28126" lon="0.59499">
        <ele>194.532</ele>
        <time>2016-12-19T18:52:14Z</time>
      </trkpt>
      <trkpt lat="44.28127" lon="0.59314">
        <ele>192.984</ele>
        <time>2016-12-19T18:52:34Z</time>
      </trkpt>
      <trkpt lat="44.28103" lon="0.59203">
        <ele>184.753</ele>
        <time>2016-12-19T18:52:54Z</time>
      </trkpt>
      <trkpt lat="44.27999" lon="0.59178">
        <ele>181.704</ele>
        <time>2021-04-14T14:22:41Z</time>
      </trkpt>
      <trkpt lat="44.2795" lon="0.59188">
        <ele>175.314</ele>
        <time>2016-12-19T18:53:34Z</time>
      </trkpt>
      <trkpt lat="44.27884" lon="0.59222">
        <ele>165.208</ele>
        <time>2016-12-19T18:53:54Z</time>
      </trkpt>
      <trkpt lat="44.27727" lon="0.59169">
        <ele>147.282</ele>
        <time>2016-12-19T18:54:14Z</time>
      </trkpt>
      <trkpt lat="44.27716" lon="0.59328">
        <ele>151.165</ele>
        <time>2021-04-14T14:24:01Z</time>
      </trkpt>
      <trkpt lat="44.27674" lon="0.5952">
        <ele>154.299</ele>
        <time>2021-04-14T14:24:21Z</time>
      </trkpt>
      <trkpt lat="44.27623" lon="0.59514">
        <ele>158.714</ele>
        <time>2016-12-19T18:55:14Z</time>
      </trkpt>
      <trkpt lat="44.27596" lon="0.59531">
        <ele>162.211</ele>
        <time>2016-12-19T18:55:34Z</time>
      </trkpt>
      <trkpt lat="44.27574" lon="0.59512">
        <ele>165.211</ele>
        <time>2016-12-19T18:55:54Z</time>
      </trkpt>
      <trkpt lat="44.27511" lon="0.59532">
        <ele>172.232</ele>
        <time>2021-04-14T14:25:41Z</time>
      </trkpt>
      <trkpt lat="44.27438" lon="0.59611">
        <ele>177.784</ele>
        <time>2021-04-14T14:26:01Z</time>
      </trkpt>
      <trkpt lat="44.27087" lon="0.59756">
        <ele>189.791</ele>
        <time>2016-12-19T18:57:54Z</time>
      </trkpt>
      <trkpt lat="44.26947" lon="0.5966">
        <ele>180.381</ele>
        <time>2016-12-19T18:58:14Z</time>
      </trkpt>
      <trkpt lat="44.26764" lon="0.59617">
        <ele>198.019</ele>
        <time>2016-12-19T18:58:34Z</time>
      </trkpt>
      <trkpt lat="44.26692" lon="0.59611">
        <ele>198.608</ele>
        <time>2016-12-19T18:58:54Z</time>
      </trkpt>
      <trkpt lat="44.26602" lon="0.59437">
        <ele>188.116</ele>
        <time>2016-12-19T18:59:14Z</time>
      </trkpt>
      <trkpt lat="44.26506" lon="0.59299">
        <ele>183.429</ele>
        <time>2016-12-19T18:59:34Z</time>
      </trkpt>
      <trkpt lat="44.26434" lon="0.59297">
        <ele>182.193</ele>
        <time>2016-12-19T18:59:54Z</time>
      </trkpt>
      <trkpt lat="44.26363" lon="0.59265">
        <ele>182.528</ele>
        <time>2016-12-19T19:00:14Z</time>
      </trkpt>
      <trkpt lat="44.26328" lon="0.59222">
        <ele>183.065</ele>
        <time>2016-12-19T19:00:34Z</time>
      </trkpt>
      <trkpt lat="44.26293" lon="0.59143">
        <ele>182.045</ele>
        <time>2016-12-19T19:00:54Z</time>
      </trkpt>
      <trkpt lat="44.26245" lon="0.5916">
        <ele>178.486</ele>
        <time>2021-01-05T06:06:42Z</time>
      </trkpt>
      <trkpt lat="44.26207" lon="0.59023">
        <ele>179.668</ele>
        <time>2016-12-19T19:01:34Z</time>
      </trkpt>
      <trkpt lat="44.2616" lon="0.58911">
        <ele>181.493</ele>
        <time>2016-12-19T19:01:54Z</time>
      </trkpt>
      <trkpt lat="44.26122" lon="0.58924">
        <ele>181.665</ele>
        <time>2016-12-19T19:02:14Z</time>
      </trkpt>
      <trkpt lat="44.26082" lon="0.58988">
        <ele>173.121</ele>
        <time>2016-12-19T19:02:34Z</time>
      </trkpt>
      <trkpt lat="44.25907" lon="0.59194">
        <ele>146.708</ele>
        <time>2016-12-19T19:02:54Z</time>
      </trkpt>
      <trkpt lat="44.25936" lon="0.59246">
        <ele>139.966</ele>
        <time>2016-12-19T19:03:14Z</time>
      </trkpt>
      <trkpt lat="44.2601" lon="0.59222">
        <ele>142.099</ele>
        <time>2016-12-19T19:03:34Z</time>
      </trkpt>
      <trkpt lat="44.26038" lon="0.59226">
        <ele>142.743</ele>
        <time>2016-12-19T19:03:54Z</time>
      </trkpt>
      <trkpt lat="44.26045" lon="0.59246">
        <ele>141.978</ele>
        <time>2016-12-19T19:04:14Z</time>
      </trkpt>
      <trkpt lat="44.26033" lon="0.59271">
        <ele>135.875</ele>
        <time>2016-12-19T19:04:34Z</time>
      </trkpt>
      <trkpt lat="44.26001" lon="0.59261">
        <ele>133.245</ele>
        <time>2016-12-19T19:04:54Z</time>
      </trkpt>
      <trkpt lat="44.25908" lon="0.59308">
        <ele>120.866</ele>
        <time>2016-12-19T19:05:14Z</time>
      </trkpt>
      <trkpt lat="44.25912" lon="0.59321">
        <ele>117.778</ele>
        <time>2016-12-19T19:05:34Z</time>
      </trkpt>
      <trkpt lat="44.25955" lon="0.59319">
        <ele>119.474</ele>
        <time>2016-12-19T19:05:54Z</time>
      </trkpt>
      <trkpt lat="44.25971" lon="0.59334">
        <ele>116.956</ele>
        <time>2016-12-19T19:06:14Z</time>
      </trkpt>
      <trkpt lat="44.25965" lon="0.59359">
        <ele>114.221</ele>
        <time>2016-12-19T19:06:34Z</time>
      </trkpt>
      <trkpt lat="44.25884" lon="0.59477">
        <ele>100.208</ele>
        <time>2021-04-14T14:35:21Z</time>
      </trkpt>
      <trkpt lat="44.25812" lon="0.59529">
        <ele>88.674</ele>
        <time>2016-12-19T19:07:14Z</time>
      </trkpt>
      <trkpt lat="44.25698" lon="0.59555">
        <ele>70.527</ele>
        <time>2016-12-19T19:07:34Z</time>
      </trkpt>
      <trkpt lat="44.25723" lon="0.59821">
        <ele>72.081</ele>
        <time>2021-04-14T14:36:21Z</time>
      </trkpt>
      <trkpt lat="44.25976" lon="0.60205">
        <ele>80.716</ele>
        <time>2016-12-19T19:08:14Z</time>
      </trkpt>
      <trkpt lat="44.25965" lon="0.60224">
        <ele>79.713</ele>
        <time>2021-04-14T14:37:01Z</time>
      </trkpt>
      <trkpt lat="44.25819" lon="0.60336">
        <ele>76.783</ele>
        <time>2021-04-14T14:37:21Z</time>
      </trkpt>
      <trkpt lat="44.25791" lon="0.6037">
        <ele>76.684</ele>
        <time>2021-04-14T14:37:41Z</time>
      </trkpt>
      <trkpt lat="44.25747" lon="0.60387">
        <ele>76.016</ele>
        <time>2016-12-19T19:09:34Z</time>
      </trkpt>
      <trkpt lat="44.25693" lon="0.60364">
        <ele>75.081</ele>
        <time>2016-12-19T19:09:54Z</time>
      </trkpt>
      <trkpt lat="44.25656" lon="0.6037">
        <ele>74.561</ele>
        <time>2016-12-19T19:10:14Z</time>
      </trkpt>
      <trkpt lat="44.25564" lon="0.60471">
        <ele>86.417</ele>
        <time>2016-12-19T19:10:34Z</time>
      </trkpt>
      <trkpt lat="44.2552" lon="0.60533">
        <ele>96.608</ele>
        <time>2016-12-19T19:10:54Z</time>
      </trkpt>
      <trkpt lat="44.25452" lon="0.60542">
        <ele>107.365</ele>
        <time>2016-12-19T19:11:14Z</time>
      </trkpt>
      <trkpt lat="44.25435" lon="0.60585">
        <ele>115.538</ele>
        <time>2016-12-19T19:11:34Z</time>
      </trkpt>
      <trkpt lat="44.25458" lon="0.60716">
        <ele>121.112</ele>
        <time>2016-12-19T19:11:54Z</time>
      </trkpt>
      <trkpt lat="44.25456" lon="0.60759">
        <ele>124.857</ele>
        <time>2021-04-14T14:40:41Z</time>
      </trkpt>
      <trkpt lat="44.25434" lon="0.60767">
        <ele>136.394</ele>
        <time>2016-12-19T19:12:34Z</time>
      </trkpt>
      <trkpt lat="44.25383" lon="0.60741">
        <ele>143.244</ele>
        <time>2016-12-19T19:12:54Z</time>
      </trkpt>
      <trkpt lat="44.25337" lon="0.6066">
        <ele>149.435</ele>
        <time>2016-12-19T19:13:14Z</time>
      </trkpt>
      <trkpt lat="44.25294" lon="0.60503">
        <ele>150.997</ele>
        <time>2016-12-19T19:13:34Z</time>
      </trkpt>
      <trkpt lat="44.25249" lon="0.60525">
        <ele>151.946</ele>
        <time>2016-12-19T19:13:54Z</time>
      </trkpt>
      <trkpt lat="44.25169" lon="0.60222">
        <ele>154.188</ele>
        <time>2016-12-19T19:14:14Z</time>
      </trkpt>
      <trkpt lat="44.25028" lon="0.60284">
        <ele>142.316</ele>
        <time>2016-12-19T19:14:34Z</time>
      </trkpt>
      <trkpt lat="44.24994" lon="0.60246">
        <ele>141.408</ele>
        <time>2016-12-19T19:14:54Z</time>
      </trkpt>
      <trkpt lat="44.24917" lon="0.6025">
        <ele>135.151</ele>
        <time>2016-12-19T19:15:14Z</time>
      </trkpt>
      <trkpt lat="44.2464" lon="0.60338">
        <ele>75.994</ele>
        <time>2016-12-19T19:15:34Z</time>
      </trkpt>
      <trkpt lat="44.24591" lon="0.60327">
        <ele>70.248</ele>
        <time>2016-12-19T19:15:54Z</time>
      </trkpt>
      <trkpt lat="44.24531" lon="0.60379">
        <ele>68.273</ele>
        <time>2016-12-19T19:16:14Z</time>
      </trkpt>
      <trkpt lat="44.24485" lon="0.60443">
        <ele>77.57</ele>
        <time>2016-12-19T19:16:34Z</time>
      </trkpt>
      <trkpt lat="44.24391" lon="0.60499">
        <ele>85.31</ele>
        <time>2016-12-19T19:16:54Z</time>
      </trkpt>
      <trkpt lat="44.24318" lon="0.6051">
        <ele>83.061</ele>
        <time>2016-12-19T19:17:14Z</time>
      </trkpt>
      <trkpt lat="44.24219" lon="0.6051">
        <ele>101.993</ele>
        <time>2016-12-19T19:17:34Z</time>
      </trkpt>
      <trkpt lat="44.24235" lon="0.60604">
        <ele>107.013</ele>
        <time>2016-12-19T19:17:54Z</time>
      </trkpt>
      <trkpt lat="44.24236" lon="0.60664">
        <ele>109.943</ele>
        <time>2016-12-19T19:18:14Z</time>
      </trkpt>
      <trkpt lat="44.24252" lon="0.60694">
        <ele>107.807</ele>
        <time>2016-12-19T19:18:34Z</time>
      </trkpt>
      <trkpt lat="44.24268" lon="0.6075">
        <ele>109.008</ele>
        <time>2016-12-19T19:18:54Z</time>
      </trkpt>
      <trkpt lat="44.24308" lon="0.60771">
        <ele>111.038</ele>
        <time>2016-12-19T19:19:14Z</time>
      </trkpt>
      <trkpt lat="44.24315" lon="0.60857">
        <ele>122.861</ele>
        <time>2016-12-19T19:19:34Z</time>
      </trkpt>
      <trkpt lat="44.24298" lon="0.6093">
        <ele>133.365</ele>
        <time>2016-12-19T19:19:54Z</time>
      </trkpt>
      <trkpt lat="44.24267" lon="0.6099">
        <ele>140.38</ele>
        <time>2016-12-19T19:20:14Z</time>
      </trkpt>
      <trkpt lat="44.24242" lon="0.6107">
        <ele>148.877</ele>
        <time>2016-12-19T19:20:34Z</time>
      </trkpt>
      <trkpt lat="44.24213" lon="0.61093">
        <ele>151.747</ele>
        <time>2016-12-19T19:20:54Z</time>
      </trkpt>
      <trkpt lat="44.24205" lon="0.61153">
        <ele>152.188</ele>
        <time>2016-12-19T19:21:14Z</time>
      </trkpt>
      <trkpt lat="44.24179" lon="0.61188">
        <ele>152.58</ele>
        <time>2016-12-19T19:21:34Z</time>
      </trkpt>
      <trkpt lat="44.24175" lon="0.6125">
        <ele>153.381</ele>
        <time>2016-12-19T19:21:54Z</time>
      </trkpt>
      <trkpt lat="44.24104" lon="0.61284">
        <ele>148.261</ele>
        <time>2016-12-19T19:22:14Z</time>
      </trkpt>
      <trkpt lat="44.24029" lon="0.61295">
        <ele>144.417</ele>
        <time>2016-12-19T19:22:34Z</time>
      </trkpt>
      <trkpt lat="44.23944" lon="0.61246">
        <ele>133.908</ele>
        <time>2016-12-19T19:22:54Z</time>
      </trkpt>
      <trkpt lat="44.2393" lon="0.61183">
        <ele>125.665</ele>
        <time>2021-04-14T14:51:41Z</time>
      </trkpt>
      <trkpt lat="44.23912" lon="0.6126">
        <ele>124.018</ele>
        <time>2021-04-14T14:52:01Z</time>
      </trkpt>
      <trkpt lat="44.23824" lon="0.61299">
        <ele>103.262</ele>
        <time>2016-12-19T19:24:14Z</time>
      </trkpt>
      <trkpt lat="44.23777" lon="0.61147">
        <ele>91.097</ele>
        <time>2016-12-19T19:24:34Z</time>
      </trkpt>
      <trkpt lat="44.2379" lon="0.61025">
        <ele>90.284</ele>
        <time>2016-12-19T19:24:54Z</time>
      </trkpt>
      <trkpt lat="44.23829" lon="0.60916">
        <ele>85.684</ele>
        <time>2021-04-14T14:53:21Z</time>
      </trkpt>
      <trkpt lat="44.23781" lon="0.60889">
        <ele>84.665</ele>
        <time>2016-12-19T19:25:34Z</time>
      </trkpt>
      <trkpt lat="44.23744" lon="0.61046">
        <ele>98.977</ele>
        <time>2016-12-19T19:25:54Z</time>
      </trkpt>
      <trkpt lat="44.23744" lon="0.61155">
        <ele>93.238</ele>
        <time>2016-12-19T19:26:14Z</time>
      </trkpt>
      <trkpt lat="44.23595" lon="0.61123">
        <ele>126.17</ele>
        <time>2016-12-19T19:26:34Z</time>
      </trkpt>
      <trkpt lat="44.23591" lon="0.61033">
        <ele>131.917</ele>
        <time>2016-12-19T19:26:54Z</time>
      </trkpt>
      <trkpt lat="44.23538" lon="0.61005">
        <ele>135.508</ele>
        <time>2016-12-19T19:27:14Z</time>
      </trkpt>
      <trkpt lat="44.23503" lon="0.61014">
        <ele>137.07</ele>
        <time>2016-12-19T19:27:34Z</time>
      </trkpt>
      <trkpt lat="44.23423" lon="0.61061">
        <ele>136.423</ele>
        <time>2016-12-19T19:27:54Z</time>
      </trkpt>
      <trkpt lat="44.23385" lon="0.6107">
        <ele>137.277</ele>
        <time>2016-12-19T19:28:14Z</time>
      </trkpt>
      <trkpt lat="44.23349" lon="0.61104">
        <ele>140.252</ele>
        <time>2016-12-19T19:28:34Z</time>
      </trkpt>
      <trkpt lat="44.23331" lon="0.61143">
        <ele>142.649</ele>
        <time>2016-12-19T19:28:54Z</time>
      </trkpt>
      <trkpt lat="44.23158" lon="0.61147">
        <ele>156.219</ele>
        <time>2021-04-14T14:57:21Z</time>
      </trkpt>
      <trkpt lat="44.23151" lon="0.6113">
        <ele>157.74</ele>
        <time>2016-12-19T19:29:34Z</time>
      </trkpt>
      <trkpt lat="44.23062" lon="0.61175">
        <ele>150.062</ele>
        <time>2016-12-19T19:29:54Z</time>
      </trkpt>
      <trkpt lat="44.22986" lon="0.61248">
        <ele>138.377</ele>
        <time>2016-12-19T19:30:14Z</time>
      </trkpt>
      <trkpt lat="44.22952" lon="0.61216">
        <ele>140.361</ele>
        <time>2016-12-19T19:30:34Z</time>
      </trkpt>
      <trkpt lat="44.229" lon="0.61218">
        <ele>130.027</ele>
        <time>2016-12-19T19:30:54Z</time>
      </trkpt>
      <trkpt lat="44.22851" lon="0.61269">
        <ele>109.508</ele>
        <time>2016-12-19T19:31:14Z</time>
      </trkpt>
      <trkpt lat="44.22796" lon="0.61256">
        <ele>106.744</ele>
        <time>2016-12-19T19:31:34Z</time>
      </trkpt>
      <trkpt lat="44.22663" lon="0.6128">
        <ele>86.857</ele>
        <time>2016-12-19T19:31:54Z</time>
      </trkpt>
      <trkpt lat="44.226" lon="0.61323">
        <ele>88.861</ele>
        <time>2016-12-19T19:32:14Z</time>
      </trkpt>
      <trkpt lat="44.22563" lon="0.61411">
        <ele>87.716</ele>
        <time>2016-12-19T19:32:34Z</time>
      </trkpt>
      <trkpt lat="44.2252" lon="0.61471">
        <ele>79.333</ele>
        <time>2016-12-19T19:32:54Z</time>
      </trkpt>
      <trkpt lat="44.22393" lon="0.61542">
        <ele>65.753</ele>
        <time>2016-12-19T19:33:14Z</time>
      </trkpt>
      <trkpt lat="44.22324" lon="0.61576">
        <ele>73.244</ele>
        <time>2016-12-19T19:33:34Z</time>
      </trkpt>
      <trkpt lat="44.2227" lon="0.61756">
        <ele>101.386</ele>
        <time>2016-12-19T19:33:54Z</time>
      </trkpt>
      <trkpt lat="44.22208" lon="0.6178">
        <ele>115.989</ele>
        <time>2016-12-19T19:34:14Z</time>
      </trkpt>
      <trkpt lat="44.22085" lon="0.6178">
        <ele>105.806</ele>
        <time>2016-12-19T19:34:34Z</time>
      </trkpt>
      <trkpt lat="44.22007" lon="0.61879">
        <ele>120.026</ele>
        <time>2016-12-19T19:34:54Z</time>
      </trkpt>
      <trkpt lat="44.21915" lon="0.61952">
        <ele>125.808</ele>
        <time>2016-12-19T19:35:14Z</time>
      </trkpt>
      <trkpt lat="44.21875" lon="0.61967">
        <ele>128.835</ele>
        <time>2016-12-19T19:35:34Z</time>
      </trkpt>
      <trkpt lat="44.21801" lon="0.61952">
        <ele>119.118</ele>
        <time>2016-12-19T19:35:54Z</time>
      </trkpt>
      <trkpt lat="44.21739" lon="0.61956">
        <ele>132.092</ele>
        <time>2016-12-19T19:36:14Z</time>
      </trkpt>
      <trkpt lat="44.21682" lon="0.61958">
        <ele>140.817</ele>
        <time>2016-12-19T19:36:34Z</time>
      </trkpt>
      <trkpt lat="44.21661" lon="0.61982">
        <ele>146.314</ele>
        <time>2016-12-19T19:36:54Z</time>
      </trkpt>
      <trkpt lat="44.21688" lon="0.6216">
        <ele>139.634</ele>
        <time>2016-12-19T19:37:14Z</time>
      </trkpt>
      <trkpt lat="44.21659" lon="0.62203">
        <ele>140.215</ele>
        <time>2016-12-19T19:37:34Z</time>
      </trkpt>
      <trkpt lat="44.21619" lon="0.62205">
        <ele>146.177</ele>
        <time>2016-12-19T19:37:54Z</time>
      </trkpt>
      <trkpt lat="44.21461" lon="0.62014">
        <ele>159.698</ele>
        <time>2016-12-19T19:38:14Z</time>
      </trkpt>
      <trkpt lat="44.21387" lon="0.61982">
        <ele>162.315</ele>
        <time>2016-12-19T19:38:34Z</time>
      </trkpt>
      <trkpt lat="44.21341" lon="0.61928">
        <ele>162.426</ele>
        <time>2016-12-19T19:38:54Z</time>
      </trkpt>
      <trkpt lat="44.21282" lon="0.61906">
        <ele>153.408</ele>
        <time>2016-12-19T19:39:14Z</time>
      </trkpt>
      <trkpt lat="44.21224" lon="0.61909">
        <ele>140.866</ele>
        <time>2016-12-19T19:39:34Z</time>
      </trkpt>
      <trkpt lat="44.21206" lon="0.61849">
        <ele>138.439</ele>
        <time>2016-12-19T19:39:54Z</time>
      </trkpt>
      <trkpt lat="44.21172" lon="0.61812">
        <ele>131.763</ele>
        <time>2016-12-19T19:40:14Z</time>
      </trkpt>
      <trkpt lat="44.21178" lon="0.61887">
        <ele>128.318</ele>
        <time>2016-12-19T19:40:34Z</time>
      </trkpt>
      <trkpt lat="44.21174" lon="0.61939">
        <ele>125.125</ele>
        <time>2021-04-14T15:09:01Z</time>
      </trkpt>
      <trkpt lat="44.21156" lon="0.61969">
        <ele>119.175</ele>
        <time>2016-12-19T19:41:14Z</time>
      </trkpt>
      <trkpt lat="44.21127" lon="0.61896">
        <ele>111.156</ele>
        <time>2016-12-19T19:41:34Z</time>
      </trkpt>
      <trkpt lat="44.21119" lon="0.61906">
        <ele>108.248</ele>
        <time>2016-12-19T19:41:54Z</time>
      </trkpt>
      <trkpt lat="44.21107" lon="0.61988">
        <ele>102.714</ele>
        <time>2016-12-19T19:42:14Z</time>
      </trkpt>
      <trkpt lat="44.21075" lon="0.61909">
        <ele>93.054</ele>
        <time>2016-12-19T19:42:34Z</time>
      </trkpt>
      <trkpt lat="44.21053" lon="0.61973">
        <ele>85.109</ele>
        <time>2016-12-19T19:42:54Z</time>
      </trkpt>
      <trkpt lat="44.20967" lon="0.62125">
        <ele>63.408</ele>
        <time>2016-12-19T19:43:14Z</time>
      </trkpt>
      <trkpt lat="44.20959" lon="0.62203">
        <ele>63.068</ele>
        <time>2016-12-19T19:43:34Z</time>
      </trkpt>
      <trkpt lat="44.20936" lon="0.62166">
        <ele>57.521</ele>
        <time>2016-12-19T19:43:54Z</time>
      </trkpt>
      <trkpt lat="44.20959" lon="0.62059">
        <ele>61.315</ele>
        <time>2021-04-14T15:12:21Z</time>
      </trkpt>
      <trkpt lat="44.20951" lon="0.61965">
        <ele>58.42</ele>
        <time>2021-04-14T15:12:41Z</time>
      </trkpt>
      <trkpt lat="44.20894" lon="0.6158">
        <ele>63.027</ele>
        <time>2021-04-14T15:13:01Z</time>
      </trkpt>
      <trkpt lat="44.20891" lon="0.61482">
        <ele>64.147</ele>
        <time>2021-04-14T15:13:21Z</time>
      </trkpt>
      <trkpt lat="44.20901" lon="0.61377">
        <ele>64.918</ele>
        <time>2021-04-14T15:13:41Z</time>
      </trkpt>
      <trkpt lat="44.20944" lon="0.61207">
        <ele>62.95</ele>
        <time>2016-12-19T19:45:54Z</time>
      </trkpt>
      <trkpt lat="44.20935" lon="0.61136">
        <ele>60.513</ele>
        <time>2016-12-19T19:46:14Z</time>
      </trkpt>
      <trkpt lat="44.2072" lon="0.60252">
        <ele>48.843</ele>
        <time>2016-12-19T19:46:34Z</time>
      </trkpt>
      <trkpt lat="44.2072" lon="0.60181">
        <ele>51.207</ele>
        <time>2016-12-19T19:46:54Z</time>
      </trkpt>
      <trkpt lat="44.20687" lon="0.60091">
        <ele>49.708</ele>
        <time>2016-12-19T19:47:14Z</time>
      </trkpt>
      <trkpt lat="44.20683" lon="0.60022">
        <ele>48.858</ele>
        <time>2016-12-19T19:47:34Z</time>
      </trkpt>
      <trkpt lat="44.20349" lon="0.5854">
        <ele>40.971</ele>
        <time>2016-12-19T19:48:54Z</time>
      </trkpt>
      <trkpt lat="44.20656" lon="0.57887">
        <ele>41.995</ele>
        <time>2016-12-19T19:49:14Z</time>
      </trkpt>
      <trkpt lat="44.20621" lon="0.57855">
        <ele>41.58</ele>
        <time>2016-12-19T19:49:34Z</time>
      </trkpt>
      <trkpt lat="44.20826" lon="0.57433">
        <ele>44.357</ele>
        <time>2016-12-19T19:49:54Z</time>
      </trkpt>
      <trkpt lat="44.20804" lon="0.57409">
        <ele>44.717</ele>
        <time>2016-12-19T19:50:14Z</time>
      </trkpt>
      <trkpt lat="44.20758" lon="0.57413">
        <ele>44.078</ele>
        <time>2016-12-19T19:50:34Z</time>
      </trkpt>
      <trkpt lat="44.20415" lon="0.57212">
        <ele>43.06</ele>
        <time>2016-12-19T19:50:54Z</time>
      </trkpt>
      <trkpt lat="44.20304" lon="0.57229">
        <ele>45.053</ele>
        <time>2016-12-19T19:51:14Z</time>
      </trkpt>
      <trkpt lat="44.20292" lon="0.5734">
        <ele>44.004</ele>
        <time>2016-12-19T19:51:34Z</time>
      </trkpt>
      <trkpt lat="44.20063" lon="0.57212">
        <ele>43.314</ele>
        <time>2016-12-19T19:51:54Z</time>
      </trkpt>
      <trkpt lat="44.19949" lon="0.57199">
        <ele>43.008</ele>
        <time>2016-12-19T19:52:14Z</time>
      </trkpt>
      <trkpt lat="44.1989" lon="0.57169">
        <ele>46.872</ele>
        <time>2016-12-19T19:52:34Z</time>
      </trkpt>
      <trkpt lat="44.19774" lon="0.57128">
        <ele>57.275</ele>
        <time>2016-12-19T19:52:54Z</time>
      </trkpt>
      <trkpt lat="44.19674" lon="0.57091">
        <ele>60.349</ele>
        <time>2016-12-19T19:53:14Z</time>
      </trkpt>
      <trkpt lat="44.19361" lon="0.57023">
        <ele>58.454</ele>
        <time>2016-12-19T19:53:34Z</time>
      </trkpt>
      <trkpt lat="44.19186" lon="0.56952">
        <ele>58.281</ele>
        <time>2016-12-19T19:53:54Z</time>
      </trkpt>
      <trkpt lat="44.19117" lon="0.5693">
        <ele>57.851</ele>
        <time>2016-12-19T19:54:14Z</time>
      </trkpt>
      <trkpt lat="44.19018" lon="0.5693">
        <ele>59.082</ele>
        <time>2016-12-19T19:54:34Z</time>
      </trkpt>
      <trkpt lat="44.18921" lon="0.56905">
        <ele>58.084</ele>
        <time>2016-12-19T19:54:54Z</time>
      </trkpt>
      <trkpt lat="44.18866" lon="0.56873">
        <ele>55.978</ele>
        <time>2016-12-19T19:55:14Z</time>
      </trkpt>
      <trkpt lat="44.1877" lon="0.56789">
        <ele>59.233</ele>
        <time>2016-12-19T19:55:34Z</time>
      </trkpt>
      <trkpt lat="44.18549" lon="0.56632">
        <ele>57.626</ele>
        <time>2016-12-19T19:55:54Z</time>
      </trkpt>
      <trkpt lat="44.18407" lon="0.56508">
        <ele>57.308</ele>
        <time>2016-12-19T19:56:14Z</time>
      </trkpt>
      <trkpt lat="44.18253" lon="0.56433">
        <ele>60.214</ele>
        <time>2016-12-19T19:56:34Z</time>
      </trkpt>
      <trkpt lat="44.18009" lon="0.56212">
        <ele>57.797</ele>
        <time>2016-12-19T19:56:54Z</time>
      </trkpt>
      <trkpt lat="44.17839" lon="0.56175">
        <ele>63.781</ele>
        <time>2016-12-19T19:57:14Z</time>
      </trkpt>
      <trkpt lat="44.17749" lon="0.56141">
        <ele>70.196</ele>
        <time>2016-12-19T19:57:34Z</time>
      </trkpt>
      <trkpt lat="44.17624" lon="0.56074">
        <ele>71.923</ele>
        <time>2016-12-19T19:57:54Z</time>
      </trkpt>
      <trkpt lat="44.17539" lon="0.55984">
        <ele>72.943</ele>
        <time>2016-12-19T19:58:14Z</time>
      </trkpt>
      <trkpt lat="44.17509" lon="0.55985">
        <ele>73.514</ele>
        <time>2016-12-19T19:58:34Z</time>
      </trkpt>
      <trkpt lat="44.17347" lon="0.55883">
        <ele>73.966</ele>
        <time>2016-12-19T19:58:54Z</time>
      </trkpt>
      <trkpt lat="44.17301" lon="0.55847">
        <ele>74.674</ele>
        <time>2016-12-19T19:59:14Z</time>
      </trkpt>
      <trkpt lat="44.17084" lon="0.55725">
        <ele>102.956</ele>
        <time>2016-12-19T19:59:34Z</time>
      </trkpt>
      <trkpt lat="44.17075" lon="0.55609">
        <ele>103.521</ele>
        <time>2016-12-19T19:59:54Z</time>
      </trkpt>
      <trkpt lat="44.17066" lon="0.55572">
        <ele>99.008</ele>
        <time>2021-04-14T15:27:21Z</time>
      </trkpt>
      <trkpt lat="44.17045" lon="0.55538">
        <ele>97.824</ele>
        <time>2016-12-19T20:00:14Z</time>
      </trkpt>
      <trkpt lat="44.17001" lon="0.55514">
        <ele>93.147</ele>
        <time>2016-12-19T20:00:34Z</time>
      </trkpt>
      <trkpt lat="44.16944" lon="0.55574">
        <ele>101.291</ele>
        <time>2016-12-19T20:00:54Z</time>
      </trkpt>
      <trkpt lat="44.16919" lon="0.55624">
        <ele>107.046</ele>
        <time>2016-12-19T20:01:14Z</time>
      </trkpt>
      <trkpt lat="44.16882" lon="0.55626">
        <ele>104.643</ele>
        <time>2016-12-19T20:01:34Z</time>
      </trkpt>
      <trkpt lat="44.16855" lon="0.55651">
        <ele>104.973</ele>
        <time>2021-04-14T15:29:21Z</time>
      </trkpt>
      <trkpt lat="44.1683" lon="0.55656">
        <ele>103.844</ele>
        <time>2021-04-14T15:29:41Z</time>
      </trkpt>
      <trkpt lat="44.16782" lon="0.55682">
        <ele>105.726</ele>
        <time>2016-12-19T20:01:54Z</time>
      </trkpt>
      <trkpt lat="44.16717" lon="0.55733">
        <ele>109.266</ele>
        <time>2016-12-19T20:02:14Z</time>
      </trkpt>
      <trkpt lat="44.16641" lon="0.55682">
        <ele>94.029</ele>
        <time>2016-12-19T20:02:34Z</time>
      </trkpt>
      <trkpt lat="44.16451" lon="0.55718">
        <ele>86.521</ele>
        <time>2016-12-19T20:02:54Z</time>
      </trkpt>
      <trkpt lat="44.16457" lon="0.55785">
        <ele>97.508</ele>
        <time>2016-12-19T20:03:14Z</time>
      </trkpt>
      <trkpt lat="44.16474" lon="0.55888">
        <ele>119.793</ele>
        <time>2021-04-14T15:31:41Z</time>
      </trkpt>
      <trkpt lat="44.16396" lon="0.55931">
        <ele>117.596</ele>
        <time>2016-12-19T20:03:54Z</time>
      </trkpt>
      <trkpt lat="44.1631" lon="0.56104">
        <ele>119.74</ele>
        <time>2016-12-19T20:04:14Z</time>
      </trkpt>
      <trkpt lat="44.16282" lon="0.56091">
        <ele>117.685</ele>
        <time>2016-12-19T20:04:34Z</time>
      </trkpt>
      <trkpt lat="44.16267" lon="0.56057">
        <ele>115.432</ele>
        <time>2016-12-19T20:04:54Z</time>
      </trkpt>
      <trkpt lat="44.16271" lon="0.56029">
        <ele>111.292</ele>
        <time>2016-12-19T20:05:14Z</time>
      </trkpt>
      <trkpt lat="44.16234" lon="0.55971">
        <ele>107.723</ele>
        <time>2016-12-19T20:05:34Z</time>
      </trkpt>
      <trkpt lat="44.1623" lon="0.56074">
        <ele>118.815</ele>
        <time>2016-12-19T20:05:54Z</time>
      </trkpt>
      <trkpt lat="44.16202" lon="0.56147">
        <ele>119.688</ele>
        <time>2016-12-19T20:06:14Z</time>
      </trkpt>
      <trkpt lat="44.1617" lon="0.56343">
        <ele>138.724</ele>
        <time>2016-12-19T20:06:34Z</time>
      </trkpt>
      <trkpt lat="44.16151" lon="0.5636">
        <ele>141.926</ele>
        <time>2016-12-19T20:06:54Z</time>
      </trkpt>
      <trkpt lat="44.16126" lon="0.56405">
        <ele>148.908</ele>
        <time>2016-12-19T20:07:14Z</time>
      </trkpt>
      <trkpt lat="44.16079" lon="0.56426">
        <ele>154.895</ele>
        <time>2016-12-19T20:07:34Z</time>
      </trkpt>
      <trkpt lat="44.1606" lon="0.56471">
        <ele>158.698</ele>
        <time>2016-12-19T20:07:54Z</time>
      </trkpt>
      <trkpt lat="44.16022" lon="0.56473">
        <ele>159.882</ele>
        <time>2016-12-19T20:08:14Z</time>
      </trkpt>
      <trkpt lat="44.15962" lon="0.5643">
        <ele>160.247</ele>
        <time>2016-12-19T20:08:34Z</time>
      </trkpt>
      <trkpt lat="44.15896" lon="0.56409">
        <ele>157.664</ele>
        <time>2016-12-19T20:08:54Z</time>
      </trkpt>
      <trkpt lat="44.15774" lon="0.56415">
        <ele>158.534</ele>
        <time>2016-12-19T20:09:14Z</time>
      </trkpt>
      <trkpt lat="44.15771" lon="0.56679">
        <ele>129.545</ele>
        <time>2016-12-19T20:09:34Z</time>
      </trkpt>
      <trkpt lat="44.15783" lon="0.56864">
        <ele>126.067</ele>
        <time>2016-12-19T20:09:54Z</time>
      </trkpt>
      <trkpt lat="44.15802" lon="0.56907">
        <ele>127.842</ele>
        <time>2016-12-19T20:10:14Z</time>
      </trkpt>
      <trkpt lat="44.15792" lon="0.56941">
        <ele>127.522</ele>
        <time>2016-12-19T20:10:34Z</time>
      </trkpt>
      <trkpt lat="44.15759" lon="0.56952">
        <ele>125.914</ele>
        <time>2016-12-19T20:10:54Z</time>
      </trkpt>
      <trkpt lat="44.15678" lon="0.56943">
        <ele>117.908</ele>
        <time>2016-12-19T20:11:14Z</time>
      </trkpt>
      <trkpt lat="44.15678" lon="0.56943">
        <ele>117.911</ele>
        <time>2016-12-19T20:11:34Z</time>
      </trkpt>
      <trkpt lat="44.15655" lon="0.57082">
        <ele>106.224</ele>
        <time>2016-12-19T20:11:54Z</time>
      </trkpt>
      <trkpt lat="44.15615" lon="0.57168">
        <ele>102.568</ele>
        <time>2016-12-19T20:12:14Z</time>
      </trkpt>
      <trkpt lat="44.15655" lon="0.57232">
        <ele>98.313</ele>
        <time>2016-12-19T20:12:34Z</time>
      </trkpt>
      <trkpt lat="44.15636" lon="0.57344">
        <ele>106.38</ele>
        <time>2016-12-19T20:12:54Z</time>
      </trkpt>
      <trkpt lat="44.1567" lon="0.57417">
        <ele>92.72</ele>
        <time>2016-12-19T20:13:14Z</time>
      </trkpt>
      <trkpt lat="44.15682" lon="0.57425">
        <ele>91.081</ele>
        <time>2016-12-19T20:13:34Z</time>
      </trkpt>
      <trkpt lat="44.15798" lon="0.57659">
        <ele>87.583</ele>
        <time>2016-12-19T20:13:54Z</time>
      </trkpt>
      <trkpt lat="44.15724" lon="0.57698">
        <ele>89.469</ele>
        <time>2016-12-19T20:14:14Z</time>
      </trkpt>
      <trkpt lat="44.15571" lon="0.57805">
        <ele>90.704</ele>
        <time>2021-04-14T15:42:41Z</time>
      </trkpt>
      <trkpt lat="44.15522" lon="0.57807">
        <ele>89.624</ele>
        <time>2021-04-14T15:43:01Z</time>
      </trkpt>
      <trkpt lat="44.15444" lon="0.57838">
        <ele>92.808</ele>
        <time>2021-04-14T15:43:21Z</time>
      </trkpt>
      <trkpt lat="44.15398" lon="0.57886">
        <ele>95.293</ele>
        <time>2021-04-14T15:43:41Z</time>
      </trkpt>
      <trkpt lat="44.15347" lon="0.57892">
        <ele>99.856</ele>
        <time>2021-04-14T15:44:01Z</time>
      </trkpt>
      <trkpt lat="44.15293" lon="0.5793">
        <ele>98.91</ele>
        <time>2016-12-19T20:16:14Z</time>
      </trkpt>
      <trkpt lat="44.15213" lon="0.57949">
        <ele>102.115</ele>
        <time>2016-12-19T20:16:34Z</time>
      </trkpt>
      <trkpt lat="44.15208" lon="0.57988">
        <ele>102.132</ele>
        <time>2016-12-19T20:16:54Z</time>
      </trkpt>
      <trkpt lat="44.15279" lon="0.58086">
        <ele>103.722</ele>
        <time>2016-12-19T20:17:14Z</time>
      </trkpt>
      <trkpt lat="44.15351" lon="0.58091">
        <ele>114.423</ele>
        <time>2016-12-19T20:17:34Z</time>
      </trkpt>
      <trkpt lat="44.15387" lon="0.58129">
        <ele>126.225</ele>
        <time>2016-12-19T20:17:54Z</time>
      </trkpt>
      <trkpt lat="44.1545" lon="0.58174">
        <ele>129.971</ele>
        <time>2016-12-19T20:18:14Z</time>
      </trkpt>
      <trkpt lat="44.15311" lon="0.5838">
        <ele>137.941</ele>
        <time>2016-12-19T20:18:34Z</time>
      </trkpt>
      <trkpt lat="44.15264" lon="0.58502">
        <ele>138.915</ele>
        <time>2016-12-19T20:18:54Z</time>
      </trkpt>
      <trkpt lat="44.15142" lon="0.58582">
        <ele>142.908</ele>
        <time>2016-12-19T20:19:14Z</time>
      </trkpt>
      <trkpt lat="44.15111" lon="0.58661">
        <ele>140.244</ele>
        <time>2016-12-19T20:19:34Z</time>
      </trkpt>
      <trkpt lat="44.15091" lon="0.58874">
        <ele>134.467</ele>
        <time>2016-12-19T20:19:54Z</time>
      </trkpt>
      <trkpt lat="44.1504" lon="0.58983">
        <ele>136.711</ele>
        <time>2016-12-19T20:20:14Z</time>
      </trkpt>
      <trkpt lat="44.15" lon="0.5911">
        <ele>135.846</ele>
        <time>2016-12-19T20:20:34Z</time>
      </trkpt>
      <trkpt lat="44.14905" lon="0.59271">
        <ele>143.753</ele>
        <time>2016-12-19T20:20:54Z</time>
      </trkpt>
      <trkpt lat="44.14854" lon="0.59408">
        <ele>141.143</ele>
        <time>2016-12-19T20:21:14Z</time>
      </trkpt>
      <trkpt lat="44.14843" lon="0.5952">
        <ele>134.014</ele>
        <time>2016-12-19T20:21:34Z</time>
      </trkpt>
      <trkpt lat="44.14812" lon="0.59601">
        <ele>123.656</ele>
        <time>2016-12-19T20:21:54Z</time>
      </trkpt>
      <trkpt lat="44.1478" lon="0.59642">
        <ele>119.376</ele>
        <time>2016-12-19T20:22:14Z</time>
      </trkpt>
      <trkpt lat="44.14763" lon="0.59708">
        <ele>114.49</ele>
        <time>2016-12-19T20:22:34Z</time>
      </trkpt>
      <trkpt lat="44.1474" lon="0.59929">
        <ele>99.819</ele>
        <time>2016-12-19T20:22:54Z</time>
      </trkpt>
      <trkpt lat="44.14686" lon="0.60054">
        <ele>88.108</ele>
        <time>2016-12-19T20:23:14Z</time>
      </trkpt>
      <trkpt lat="44.14521" lon="0.60338">
        <ele>73.974</ele>
        <time>2021-04-14T15:51:41Z</time>
      </trkpt>
      <trkpt lat="44.14485" lon="0.60358">
        <ele>75.997</ele>
        <time>2021-04-14T15:52:01Z</time>
      </trkpt>
      <trkpt lat="44.14463" lon="0.60408">
        <ele>80.821</ele>
        <time>2016-12-19T20:24:14Z</time>
      </trkpt>
      <trkpt lat="44.14408" lon="0.60449">
        <ele>86.086</ele>
        <time>2016-12-19T20:24:34Z</time>
      </trkpt>
      <trkpt lat="44.14354" lon="0.60586">
        <ele>105.733</ele>
        <time>2016-12-19T20:24:54Z</time>
      </trkpt>
      <trkpt lat="44.14332" lon="0.60706">
        <ele>117.523</ele>
        <time>2016-12-19T20:25:14Z</time>
      </trkpt>
      <trkpt lat="44.14311" lon="0.60794">
        <ele>125.354</ele>
        <time>2016-12-19T20:25:34Z</time>
      </trkpt>
      <trkpt lat="44.14329" lon="0.60899">
        <ele>136.986</ele>
        <time>2016-12-19T20:25:54Z</time>
      </trkpt>
      <trkpt lat="44.14349" lon="0.60942">
        <ele>141.253</ele>
        <time>2016-12-19T20:26:14Z</time>
      </trkpt>
      <trkpt lat="44.14309" lon="0.60948">
        <ele>142.204</ele>
        <time>2021-04-14T15:54:41Z</time>
      </trkpt>
      <trkpt lat="44.14234" lon="0.60934">
        <ele>148.914</ele>
        <time>2016-12-19T20:26:34Z</time>
      </trkpt>
      <trkpt lat="44.14181" lon="0.60923">
        <ele>152.408</ele>
        <time>2016-12-19T20:26:54Z</time>
      </trkpt>
      <trkpt lat="44.14138" lon="0.60899">
        <ele>157.122</ele>
        <time>2016-12-19T20:27:14Z</time>
      </trkpt>
      <trkpt lat="44.14078" lon="0.60904">
        <ele>160.935</ele>
        <time>2016-12-19T20:27:34Z</time>
      </trkpt>
      <trkpt lat="44.14007" lon="0.60869">
        <ele>158.619</ele>
        <time>2016-12-19T20:27:54Z</time>
      </trkpt>
      <trkpt lat="44.13995" lon="0.6094">
        <ele>161.594</ele>
        <time>2016-12-19T20:28:14Z</time>
      </trkpt>
      <trkpt lat="44.13958" lon="0.61004">
        <ele>155.161</ele>
        <time>2016-12-19T20:28:34Z</time>
      </trkpt>
      <trkpt lat="44.13844" lon="0.61022">
        <ele>144.971</ele>
        <time>2016-12-19T20:28:54Z</time>
      </trkpt>
      <trkpt lat="44.13869" lon="0.61137">
        <ele>134.892</ele>
        <time>2016-12-19T20:29:14Z</time>
      </trkpt>
      <trkpt lat="44.13921" lon="0.61213">
        <ele>128.694</ele>
        <time>2016-12-19T20:29:34Z</time>
      </trkpt>
      <trkpt lat="44.13849" lon="0.61339">
        <ele>118.051</ele>
        <time>2016-12-19T20:29:54Z</time>
      </trkpt>
      <trkpt lat="44.13793" lon="0.61354">
        <ele>115.801</ele>
        <time>2016-12-19T20:30:14Z</time>
      </trkpt>
      <trkpt lat="44.13664" lon="0.61425">
        <ele>123.411</ele>
        <time>2016-12-19T20:30:34Z</time>
      </trkpt>
      <trkpt lat="44.13561" lon="0.615">
        <ele>111.708</ele>
        <time>2016-12-19T20:30:54Z</time>
      </trkpt>
      <trkpt lat="44.13565" lon="0.61556">
        <ele>110.412</ele>
        <time>2016-12-19T20:31:14Z</time>
      </trkpt>
      <trkpt lat="44.13487" lon="0.61627">
        <ele>88.145</ele>
        <time>2016-12-19T20:31:34Z</time>
      </trkpt>
      <trkpt lat="44.13322" lon="0.61631">
        <ele>78.369</ele>
        <time>2021-04-14T16:00:21Z</time>
      </trkpt>
      <trkpt lat="44.13299" lon="0.61554">
        <ele>79.984</ele>
        <time>2021-04-14T16:00:41Z</time>
      </trkpt>
      <trkpt lat="44.13254" lon="0.61539">
        <ele>86.141</ele>
        <time>2016-12-19T20:32:34Z</time>
      </trkpt>
      <trkpt lat="44.13229" lon="0.61481">
        <ele>83.211</ele>
        <time>2016-12-19T20:32:54Z</time>
      </trkpt>
      <trkpt lat="44.13196" lon="0.61472">
        <ele>86.842</ele>
        <time>2016-12-19T20:33:14Z</time>
      </trkpt>
      <trkpt lat="44.13166" lon="0.61504">
        <ele>92.414</ele>
        <time>2016-12-19T20:33:34Z</time>
      </trkpt>
      <trkpt lat="44.13145" lon="0.61492">
        <ele>95.055</ele>
        <time>2016-12-19T20:33:54Z</time>
      </trkpt>
      <trkpt lat="44.13122" lon="0.61504">
        <ele>100.507</ele>
        <time>2016-12-19T20:34:14Z</time>
      </trkpt>
      <trkpt lat="44.13106" lon="0.6147">
        <ele>101.717</ele>
        <time>2016-12-19T20:34:34Z</time>
      </trkpt>
      <trkpt lat="44.13052" lon="0.61483">
        <ele>114.408</ele>
        <time>2016-12-19T20:34:54Z</time>
      </trkpt>
      <trkpt lat="44.12988" lon="0.61582">
        <ele>115.022</ele>
        <time>2021-04-14T16:03:41Z</time>
      </trkpt>
      <trkpt lat="44.12904" lon="0.61558">
        <ele>124.425</ele>
        <time>2016-12-19T20:35:34Z</time>
      </trkpt>
      <trkpt lat="44.12857" lon="0.61601">
        <ele>128.319</ele>
        <time>2016-12-19T20:35:54Z</time>
      </trkpt>
      <trkpt lat="44.12848" lon="0.61487">
        <ele>132.834</ele>
        <time>2016-12-19T20:36:14Z</time>
      </trkpt>
      <trkpt lat="44.12857" lon="0.61382">
        <ele>134.471</ele>
        <time>2016-12-19T20:36:34Z</time>
      </trkpt>
      <trkpt lat="44.12844" lon="0.61219">
        <ele>138.591</ele>
        <time>2016-12-19T20:36:54Z</time>
      </trkpt>
      <trkpt lat="44.12809" lon="0.61144">
        <ele>135.942</ele>
        <time>2016-12-19T20:37:14Z</time>
      </trkpt>
      <trkpt lat="44.12786" lon="0.61125">
        <ele>137.344</ele>
        <time>2016-12-19T20:37:34Z</time>
      </trkpt>
      <trkpt lat="44.12721" lon="0.6097">
        <ele>120.947</ele>
        <time>2016-12-19T20:37:54Z</time>
      </trkpt>
      <trkpt lat="44.12644" lon="0.60934">
        <ele>122.129</ele>
        <time>2016-12-19T20:38:14Z</time>
      </trkpt>
      <trkpt lat="44.12646" lon="0.60826">
        <ele>117.321</ele>
        <time>2016-12-19T20:38:34Z</time>
      </trkpt>
      <trkpt lat="44.12666" lon="0.60728">
        <ele>111.108</ele>
        <time>2016-12-19T20:38:54Z</time>
      </trkpt>
      <trkpt lat="44.12553" lon="0.60653">
        <ele>114.951</ele>
        <time>2016-12-19T20:39:14Z</time>
      </trkpt>
      <trkpt lat="44.12473" lon="0.60584">
        <ele>110.034</ele>
        <time>2016-12-19T20:39:34Z</time>
      </trkpt>
      <trkpt lat="44.12518" lon="0.60568">
        <ele>105.698</ele>
        <time>2021-04-14T16:08:21Z</time>
      </trkpt>
      <trkpt lat="44.12492" lon="0.60509">
        <ele>95.493</ele>
        <time>2016-12-19T20:40:14Z</time>
      </trkpt>
      <trkpt lat="44.12471" lon="0.60505">
        <ele>96.56</ele>
        <time>2021-04-14T16:09:01Z</time>
      </trkpt>
      <trkpt lat="44.12398" lon="0.60539">
        <ele>103.69</ele>
        <time>2021-04-14T16:09:21Z</time>
      </trkpt>
      <trkpt lat="44.12325" lon="0.60554">
        <ele>110.131</ele>
        <time>2016-12-19T20:40:54Z</time>
      </trkpt>
      <trkpt lat="44.12335" lon="0.60468">
        <ele>104.353</ele>
        <time>2016-12-19T20:41:14Z</time>
      </trkpt>
      <trkpt lat="44.12358" lon="0.60436">
        <ele>104.447</ele>
        <time>2016-12-19T20:41:34Z</time>
      </trkpt>
      <trkpt lat="44.12382" lon="0.60286">
        <ele>118.029</ele>
        <time>2016-12-19T20:41:54Z</time>
      </trkpt>
      <trkpt lat="44.12409" lon="0.60271">
        <ele>118.121</ele>
        <time>2016-12-19T20:42:14Z</time>
      </trkpt>
      <trkpt lat="44.12419" lon="0.60217">
        <ele>122.808</ele>
        <time>2016-12-19T20:42:34Z</time>
      </trkpt>
      <trkpt lat="44.1241" lon="0.60194">
        <ele>122.991</ele>
        <time>2021-04-14T16:11:41Z</time>
      </trkpt>
      <trkpt lat="44.12415" lon="0.60117">
        <ele>130.384</ele>
        <time>2021-04-14T16:12:01Z</time>
      </trkpt>
      <trkpt lat="44.12398" lon="0.60068">
        <ele>135.158</ele>
        <time>2021-04-14T16:12:21Z</time>
      </trkpt>
      <trkpt lat="44.12368" lon="0.59906">
        <ele>143.533</ele>
        <time>2016-12-19T20:42:54Z</time>
      </trkpt>
      <trkpt lat="44.12295" lon="0.60082">
        <ele>129.62</ele>
        <time>2016-12-19T20:43:14Z</time>
      </trkpt>
      <trkpt lat="44.12225" lon="0.60178">
        <ele>116.39</ele>
        <time>2016-12-19T20:43:34Z</time>
      </trkpt>
      <trkpt lat="44.12165" lon="0.60206">
        <ele>112.661</ele>
        <time>2016-12-19T20:43:54Z</time>
      </trkpt>
      <trkpt lat="44.12079" lon="0.60204">
        <ele>112.393</ele>
        <time>2016-12-19T20:44:14Z</time>
      </trkpt>
      <trkpt lat="44.12016" lon="0.60245">
        <ele>106.974</ele>
        <time>2016-12-19T20:44:34Z</time>
      </trkpt>
      <trkpt lat="44.11879" lon="0.60232">
        <ele>108.656</ele>
        <time>2016-12-19T20:44:54Z</time>
      </trkpt>
      <trkpt lat="44.11831" lon="0.60247">
        <ele>104.021</ele>
        <time>2016-12-19T20:45:14Z</time>
      </trkpt>
      <trkpt lat="44.11786" lon="0.60241">
        <ele>102.008</ele>
        <time>2016-12-19T20:45:34Z</time>
      </trkpt>
      <trkpt lat="44.11694" lon="0.60294">
        <ele>101.684</ele>
        <time>2016-12-19T20:45:54Z</time>
      </trkpt>
      <trkpt lat="44.11555" lon="0.60267">
        <ele>101.717</ele>
        <time>2021-04-14T16:16:01Z</time>
      </trkpt>
      <trkpt lat="44.11498" lon="0.60183">
        <ele>103.021</ele>
        <time>2021-04-14T16:16:21Z</time>
      </trkpt>
      <trkpt lat="44.11464" lon="0.60185">
        <ele>103.766</ele>
        <time>2021-04-14T16:16:41Z</time>
      </trkpt>
      <trkpt lat="44.11298" lon="0.60101">
        <ele>109.033</ele>
        <time>2016-12-19T20:47:34Z</time>
      </trkpt>
      <trkpt lat="44.11104" lon="0.60133">
        <ele>121.593</ele>
        <time>2016-12-19T20:47:54Z</time>
      </trkpt>
      <trkpt lat="44.10828" lon="0.6002">
        <ele>141.784</ele>
        <time>2016-12-19T20:48:14Z</time>
      </trkpt>
      <trkpt lat="44.1069" lon="0.6002">
        <ele>149.476</ele>
        <time>2021-04-14T16:18:01Z</time>
      </trkpt>
      <trkpt lat="44.10381" lon="0.60198">
        <ele>172.213</ele>
        <time>2016-12-19T20:48:54Z</time>
      </trkpt>
      <trkpt lat="44.10329" lon="0.60249">
        <ele>175.243</ele>
        <time>2016-12-19T20:49:14Z</time>
      </trkpt>
      <trkpt lat="44.10301" lon="0.60369">
        <ele>172.607</ele>
        <time>2016-12-19T20:49:34Z</time>
      </trkpt>
      <trkpt lat="44.10307" lon="0.60447">
        <ele>171.908</ele>
        <time>2016-12-19T20:49:54Z</time>
      </trkpt>
      <trkpt lat="44.10297" lon="0.60481">
        <ele>170.318</ele>
        <time>2021-04-14T16:19:41Z</time>
      </trkpt>
      <trkpt lat="44.10176" lon="0.60251">
        <ele>160.621</ele>
        <time>2016-12-19T20:50:34Z</time>
      </trkpt>
      <trkpt lat="44.10038" lon="0.60103">
        <ele>164.375</ele>
        <time>2016-12-19T20:50:54Z</time>
      </trkpt>
      <trkpt lat="44.09967" lon="0.6006">
        <ele>166.49</ele>
        <time>2016-12-19T20:51:14Z</time>
      </trkpt>
      <trkpt lat="44.09902" lon="0.59977">
        <ele>163.777</ele>
        <time>2016-12-19T20:51:34Z</time>
      </trkpt>
      <trkpt lat="44.09829" lon="0.59938">
        <ele>160.067</ele>
        <time>2016-12-19T20:51:54Z</time>
      </trkpt>
      <trkpt lat="44.09777" lon="0.6017">
        <ele>154.858</ele>
        <time>2016-12-19T20:52:14Z</time>
      </trkpt>
      <trkpt lat="44.09779" lon="0.60277">
        <ele>149.18</ele>
        <time>2016-12-19T20:52:34Z</time>
      </trkpt>
      <trkpt lat="44.09771" lon="0.60344">
        <ele>145.474</ele>
        <time>2016-12-19T20:52:54Z</time>
      </trkpt>
      <trkpt lat="44.09745" lon="0.60386">
        <ele>141.256</ele>
        <time>2021-04-14T16:22:41Z</time>
      </trkpt>
      <trkpt lat="44.09702" lon="0.60435">
        <ele>136.621</ele>
        <time>2021-04-14T16:23:01Z</time>
      </trkpt>
      <trkpt lat="44.09669" lon="0.60507">
        <ele>132.408</ele>
        <time>2016-12-19T20:53:54Z</time>
      </trkpt>
      <trkpt lat="44.09443" lon="0.60567">
        <ele>104.064</ele>
        <time>2016-12-19T20:54:14Z</time>
      </trkpt>
      <trkpt lat="44.09423" lon="0.60535">
        <ele>104.217</ele>
        <time>2016-12-19T20:54:34Z</time>
      </trkpt>
      <trkpt lat="44.09376" lon="0.60592">
        <ele>106.941</ele>
        <time>2016-12-19T20:54:54Z</time>
      </trkpt>
      <trkpt lat="44.09221" lon="0.60715">
        <ele>122.866</ele>
        <time>2016-12-19T20:55:14Z</time>
      </trkpt>
      <trkpt lat="44.09167" lon="0.60723">
        <ele>125.153</ele>
        <time>2016-12-19T20:55:34Z</time>
      </trkpt>
      <trkpt lat="44.09082" lon="0.60588">
        <ele>125.713</ele>
        <time>2016-12-19T20:55:54Z</time>
      </trkpt>
      <trkpt lat="44.08704" lon="0.60638">
        <ele>149.034</ele>
        <time>2016-12-19T20:56:14Z</time>
      </trkpt>
      <trkpt lat="44.08597" lon="0.60603">
        <ele>147.096</ele>
        <time>2016-12-19T20:56:34Z</time>
      </trkpt>
      <trkpt lat="44.08552" lon="0.60562">
        <ele>145.379</ele>
        <time>2016-12-19T20:56:54Z</time>
      </trkpt>
      <trkpt lat="44.0843" lon="0.60588">
        <ele>135.405</ele>
        <time>2016-12-19T20:57:14Z</time>
      </trkpt>
      <trkpt lat="44.08302" lon="0.60522">
        <ele>123.825</ele>
        <time>2016-12-19T20:57:34Z</time>
      </trkpt>
      <trkpt lat="44.08191" lon="0.60492">
        <ele>122.308</ele>
        <time>2016-12-19T20:57:54Z</time>
      </trkpt>
      <trkpt lat="44.08147" lon="0.60453">
        <ele>122.154</ele>
        <time>2016-12-19T20:58:14Z</time>
      </trkpt>
      <trkpt lat="44.07955" lon="0.60193">
        <ele>103.627</ele>
        <time>2016-12-19T20:58:34Z</time>
      </trkpt>
      <trkpt lat="44.079" lon="0.60135">
        <ele>103.251</ele>
        <time>2016-12-19T20:58:54Z</time>
      </trkpt>
      <trkpt lat="44.07841" lon="0.60131">
        <ele>105.146</ele>
        <time>2016-12-19T20:59:14Z</time>
      </trkpt>
      <trkpt lat="44.07794" lon="0.60135">
        <ele>104.583</ele>
        <time>2016-12-19T20:59:34Z</time>
      </trkpt>
      <trkpt lat="44.07479" lon="0.59917">
        <ele>129.033</ele>
        <time>2016-12-19T20:59:54Z</time>
      </trkpt>
      <trkpt lat="44.07487" lon="0.59861">
        <ele>131.084</ele>
        <time>2016-12-19T21:00:14Z</time>
      </trkpt>
      <trkpt lat="44.07443" lon="0.59572">
        <ele>148.836</ele>
        <time>2016-12-19T21:00:34Z</time>
      </trkpt>
      <trkpt lat="44.07442" lon="0.59516">
        <ele>152.226</ele>
        <time>2016-12-19T21:00:54Z</time>
      </trkpt>
      <trkpt lat="44.07428" lon="0.59455">
        <ele>152.847</ele>
        <time>2016-12-19T21:01:14Z</time>
      </trkpt>
      <trkpt lat="44.07436" lon="0.59393">
        <ele>152.211</ele>
        <time>2016-12-19T21:01:34Z</time>
      </trkpt>
      <trkpt lat="44.07393" lon="0.59281">
        <ele>142.908</ele>
        <time>2016-12-19T21:01:54Z</time>
      </trkpt>
      <trkpt lat="44.07478" lon="0.59032">
        <ele>141.619</ele>
        <time>2016-12-19T21:02:14Z</time>
      </trkpt>
      <trkpt lat="44.0747" lon="0.58893">
        <ele>127.632</ele>
        <time>2016-12-19T21:02:34Z</time>
      </trkpt>
      <trkpt lat="44.0749" lon="0.58769">
        <ele>120.336</ele>
        <time>2016-12-19T21:02:54Z</time>
      </trkpt>
      <trkpt lat="44.07499" lon="0.58616">
        <ele>113.071</ele>
        <time>2016-12-19T21:03:14Z</time>
      </trkpt>
      <trkpt lat="44.07575" lon="0.58472">
        <ele>123.038</ele>
        <time>2016-12-19T21:03:34Z</time>
      </trkpt>
      <trkpt lat="44.07636" lon="0.58307">
        <ele>132.878</ele>
        <time>2016-12-19T21:03:54Z</time>
      </trkpt>
      <trkpt lat="44.07667" lon="0.58041">
        <ele>134.059</ele>
        <time>2016-12-19T21:04:14Z</time>
      </trkpt>
      <trkpt lat="44.07639" lon="0.57844">
        <ele>130.481</ele>
        <time>2016-12-19T21:04:34Z</time>
      </trkpt>
      <trkpt lat="44.07553" lon="0.57365">
        <ele>133.934</ele>
        <time>2016-12-19T21:04:54Z</time>
      </trkpt>
      <trkpt lat="44.07511" lon="0.57232">
        <ele>139.655</ele>
        <time>2016-12-19T21:05:14Z</time>
      </trkpt>
      <trkpt lat="44.07479" lon="0.56912">
        <ele>160.31</ele>
        <time>2016-12-19T21:05:34Z</time>
      </trkpt>
      <trkpt lat="44.07453" lon="0.56897">
        <ele>161.608</ele>
        <time>2016-12-19T21:05:54Z</time>
      </trkpt>
      <trkpt lat="44.07424" lon="0.56797">
        <ele>167.48</ele>
        <time>2016-12-19T21:06:14Z</time>
      </trkpt>
      <trkpt lat="44.07379" lon="0.56687">
        <ele>171.363</ele>
        <time>2016-12-19T21:06:34Z</time>
      </trkpt>
      <trkpt lat="44.07353" lon="0.56518">
        <ele>178.137</ele>
        <time>2016-12-19T21:06:54Z</time>
      </trkpt>
      <trkpt lat="44.07584" lon="0.56528">
        <ele>188.022</ele>
        <time>2016-12-19T21:07:14Z</time>
      </trkpt>
      <trkpt lat="44.07593" lon="0.5652">
        <ele>188.399</ele>
        <time>2016-12-19T21:07:34Z</time>
      </trkpt>
      <trkpt lat="44.07596" lon="0.56406">
        <ele>185.339</ele>
        <time>2016-12-19T21:07:54Z</time>
      </trkpt>
      <trkpt lat="44.07556" lon="0.56301">
        <ele>170.78</ele>
        <time>2016-12-19T21:08:14Z</time>
      </trkpt>
      <trkpt lat="44.07493" lon="0.55973">
        <ele>155.532</ele>
        <time>2016-12-19T21:08:34Z</time>
      </trkpt>
      <trkpt lat="44.07487" lon="0.55782">
        <ele>150.383</ele>
        <time>2016-12-19T21:08:54Z</time>
      </trkpt>
      <trkpt lat="44.07507" lon="0.55683">
        <ele>151.625</ele>
        <time>2016-12-19T21:09:14Z</time>
      </trkpt>
      <trkpt lat="44.07522" lon="0.55623">
        <ele>156.217</ele>
        <time>2016-12-19T21:09:34Z</time>
      </trkpt>
      <trkpt lat="44.07493" lon="0.55473">
        <ele>159.508</ele>
        <time>2016-12-19T21:09:54Z</time>
      </trkpt>
      <trkpt lat="44.07425" lon="0.55179">
        <ele>151.715</ele>
        <time>2016-12-19T21:10:14Z</time>
      </trkpt>
      <trkpt lat="44.07388" lon="0.55076">
        <ele>147.668</ele>
        <time>2016-12-19T21:10:34Z</time>
      </trkpt>
      <trkpt lat="44.07376" lon="0.54928">
        <ele>149.932</ele>
        <time>2016-12-19T21:10:54Z</time>
      </trkpt>
      <trkpt lat="44.07376" lon="0.5467">
        <ele>169.847</ele>
        <time>2016-12-19T21:11:14Z</time>
      </trkpt>
      <trkpt lat="44.07362" lon="0.54565">
        <ele>172.784</ele>
        <time>2016-12-19T21:11:34Z</time>
      </trkpt>
      <trkpt lat="44.07371" lon="0.54327">
        <ele>180.974</ele>
        <time>2016-12-19T21:11:54Z</time>
      </trkpt>
      <trkpt lat="44.0736" lon="0.54119">
        <ele>187.485</ele>
        <time>2016-12-19T21:12:14Z</time>
      </trkpt>
      <trkpt lat="44.07439" lon="0.53825">
        <ele>180.437</ele>
        <time>2016-12-19T21:12:34Z</time>
      </trkpt>
      <trkpt lat="44.07485" lon="0.5376">
        <ele>180.291</ele>
        <time>2016-12-19T21:12:54Z</time>
      </trkpt>
      <trkpt lat="44.07516" lon="0.53653">
        <ele>181.581</ele>
        <time>2016-12-19T21:13:14Z</time>
      </trkpt>
      <trkpt lat="44.07545" lon="0.53447">
        <ele>179.419</ele>
        <time>2021-04-14T16:43:01Z</time>
      </trkpt>
      <trkpt lat="44.07549" lon="0.53392">
        <ele>179.308</ele>
        <time>2021-04-14T16:43:21Z</time>
      </trkpt>
      <trkpt lat="44.07602" lon="0.53097">
        <ele>169.736</ele>
        <time>2016-12-19T21:13:34Z</time>
      </trkpt>
      <trkpt lat="44.07558" lon="0.52911">
        <ele>152.739</ele>
        <time>2016-12-19T21:13:54Z</time>
      </trkpt>
      <trkpt lat="44.0749" lon="0.52499">
        <ele>143.963</ele>
        <time>2016-12-19T21:14:14Z</time>
      </trkpt>
      <trkpt lat="44.07478" lon="0.52363">
        <ele>134.838</ele>
        <time>2016-12-19T21:14:34Z</time>
      </trkpt>
      <trkpt lat="44.07511" lon="0.52237">
        <ele>129.915</ele>
        <time>2021-04-14T16:45:01Z</time>
      </trkpt>
      <trkpt lat="44.07523" lon="0.52163">
        <ele>129.635</ele>
        <time>2021-04-14T16:45:21Z</time>
      </trkpt>
      <trkpt lat="44.07547" lon="0.52156">
        <ele>130.336</ele>
        <time>2021-04-14T16:45:41Z</time>
      </trkpt>
      <trkpt lat="44.07558" lon="0.52101">
        <ele>132.048</ele>
        <time>2021-04-14T16:46:01Z</time>
      </trkpt>
      <trkpt lat="44.07419" lon="0.52024">
        <ele>118.122</ele>
        <time>2016-12-19T21:15:34Z</time>
      </trkpt>
      <trkpt lat="44.07414" lon="0.51992">
        <ele>115.962</ele>
        <time>2016-12-19T21:15:54Z</time>
      </trkpt>
      <trkpt lat="44.07404" lon="0.51992">
        <ele>114.508</ele>
        <time>2016-12-19T21:16:14Z</time>
      </trkpt>
      <trkpt lat="44.07297" lon="0.52218">
        <ele>112.508</ele>
        <time>2016-12-19T21:16:34Z</time>
      </trkpt>
      <trkpt lat="44.07242" lon="0.52173">
        <ele>107.239</ele>
        <time>2021-04-14T16:47:41Z</time>
      </trkpt>
      <trkpt lat="44.07155" lon="0.52258">
        <ele>107.942</ele>
        <time>2016-12-19T21:17:14Z</time>
      </trkpt>
      <trkpt lat="44.0712" lon="0.52233">
        <ele>108.616</ele>
        <time>2016-12-19T21:17:34Z</time>
      </trkpt>
      <trkpt lat="44.06947" lon="0.52209">
        <ele>112.261</ele>
        <time>2016-12-19T21:17:54Z</time>
      </trkpt>
      <trkpt lat="44.06793" lon="0.52177">
        <ele>125.858</ele>
        <time>2016-12-19T21:18:14Z</time>
      </trkpt>
      <trkpt lat="44.06594" lon="0.52046">
        <ele>152.018</ele>
        <time>2016-12-19T21:18:34Z</time>
      </trkpt>
      <trkpt lat="44.06557" lon="0.5216">
        <ele>151.239</ele>
        <time>2016-12-19T21:18:54Z</time>
      </trkpt>
      <trkpt lat="44.06497" lon="0.52254">
        <ele>149.171</ele>
        <time>2016-12-19T21:19:14Z</time>
      </trkpt>
      <trkpt lat="44.06417" lon="0.52417">
        <ele>156.032</ele>
        <time>2016-12-19T21:19:34Z</time>
      </trkpt>
      <trkpt lat="44.06363" lon="0.52578">
        <ele>158.092</ele>
        <time>2016-12-19T21:19:54Z</time>
      </trkpt>
      <trkpt lat="44.06202" lon="0.52782">
        <ele>158.911</ele>
        <time>2016-12-19T21:20:14Z</time>
      </trkpt>
      <trkpt lat="44.0619" lon="0.52838">
        <ele>164.208</ele>
        <time>2016-12-19T21:20:34Z</time>
      </trkpt>
      <trkpt lat="44.0619" lon="0.52913">
        <ele>164.51</ele>
        <time>2021-04-14T16:51:41Z</time>
      </trkpt>
      <trkpt lat="44.05945" lon="0.52872">
        <ele>151.143</ele>
        <time>2016-12-19T21:21:14Z</time>
      </trkpt>
      <trkpt lat="44.05839" lon="0.52808">
        <ele>143.697</ele>
        <time>2016-12-19T21:21:34Z</time>
      </trkpt>
      <trkpt lat="44.05792" lon="0.52803">
        <ele>135.642</ele>
        <time>2016-12-19T21:21:54Z</time>
      </trkpt>
      <trkpt lat="44.0563" lon="0.52831">
        <ele>134.369</ele>
        <time>2016-12-19T21:22:14Z</time>
      </trkpt>
      <trkpt lat="44.05561" lon="0.52865">
        <ele>140.539</ele>
        <time>2021-04-14T16:53:21Z</time>
      </trkpt>
      <trkpt lat="44.05441" lon="0.5287">
        <ele>145.19</ele>
        <time>2016-12-19T21:22:54Z</time>
      </trkpt>
      <trkpt lat="44.0529" lon="0.5282">
        <ele>157.092</ele>
        <time>2016-12-19T21:23:14Z</time>
      </trkpt>
      <trkpt lat="44.051" lon="0.52808">
        <ele>138.126</ele>
        <time>2016-12-19T21:23:34Z</time>
      </trkpt>
      <trkpt lat="44.05015" lon="0.52793">
        <ele>131.147</ele>
        <time>2016-12-19T21:23:54Z</time>
      </trkpt>
      <trkpt lat="44.04963" lon="0.52769">
        <ele>128.411</ele>
        <time>2016-12-19T21:24:14Z</time>
      </trkpt>
      <trkpt lat="44.04858" lon="0.52793">
        <ele>117.608</ele>
        <time>2016-12-19T21:24:34Z</time>
      </trkpt>
      <trkpt lat="44.04696" lon="0.52707">
        <ele>123.229</ele>
        <time>2016-12-19T21:24:54Z</time>
      </trkpt>
      <trkpt lat="44.04674" lon="0.5269">
        <ele>124.282</ele>
        <time>2016-12-19T21:25:14Z</time>
      </trkpt>
      <trkpt lat="44.04667" lon="0.52638">
        <ele>123.066</ele>
        <time>2016-12-19T21:25:34Z</time>
      </trkpt>
      <trkpt lat="44.04605" lon="0.52645">
        <ele>127.411</ele>
        <time>2016-12-19T21:25:54Z</time>
      </trkpt>
      <trkpt lat="44.04558" lon="0.52594">
        <ele>129.288</ele>
        <time>2021-04-14T16:57:01Z</time>
      </trkpt>
      <trkpt lat="44.0452" lon="0.52525">
        <ele>130.558</ele>
        <time>2021-04-14T16:57:21Z</time>
      </trkpt>
      <trkpt lat="44.04501" lon="0.52449">
        <ele>128.219</ele>
        <time>2016-12-19T21:26:34Z</time>
      </trkpt>
      <trkpt lat="44.04446" lon="0.52391">
        <ele>131.081</ele>
        <time>2016-12-19T21:26:54Z</time>
      </trkpt>
      <trkpt lat="44.04252" lon="0.52256">
        <ele>154.832</ele>
        <time>2016-12-19T21:27:14Z</time>
      </trkpt>
      <trkpt lat="44.04266" lon="0.52194">
        <ele>151.792</ele>
        <time>2016-12-19T21:27:34Z</time>
      </trkpt>
      <trkpt lat="44.04303" lon="0.52168">
        <ele>144.311</ele>
        <time>2016-12-19T21:27:54Z</time>
      </trkpt>
      <trkpt lat="44.04306" lon="0.52132">
        <ele>143.008</ele>
        <time>2016-12-19T21:28:14Z</time>
      </trkpt>
      <trkpt lat="44.04282" lon="0.52087">
        <ele>142.02</ele>
        <time>2016-12-19T21:28:34Z</time>
      </trkpt>
      <trkpt lat="44.04219" lon="0.52059">
        <ele>146.253</ele>
        <time>2016-12-19T21:28:54Z</time>
      </trkpt>
      <trkpt lat="44.04222" lon="0.51973">
        <ele>139.077</ele>
        <time>2016-12-19T21:29:14Z</time>
      </trkpt>
      <trkpt lat="44.04201" lon="0.51943">
        <ele>138.542</ele>
        <time>2016-12-19T21:29:34Z</time>
      </trkpt>
      <trkpt lat="44.04154" lon="0.51921">
        <ele>144.849</ele>
        <time>2016-12-19T21:29:54Z</time>
      </trkpt>
      <trkpt lat="44.04122" lon="0.51874">
        <ele>147.069</ele>
        <time>2016-12-19T21:30:14Z</time>
      </trkpt>
      <trkpt lat="44.04093" lon="0.51866">
        <ele>151.51</ele>
        <time>2016-12-19T21:30:34Z</time>
      </trkpt>
      <trkpt lat="44.04082" lon="0.51829">
        <ele>152.842</ele>
        <time>2016-12-19T21:30:54Z</time>
      </trkpt>
      <trkpt lat="44.03939" lon="0.51626">
        <ele>164.578</ele>
        <time>2021-04-14T17:02:21Z</time>
      </trkpt>
      <trkpt lat="44.03925" lon="0.51627">
        <ele>166.133</ele>
        <time>2021-04-14T17:02:41Z</time>
      </trkpt>
      <trkpt lat="44.03909" lon="0.51735">
        <ele>173.026</ele>
        <time>2016-12-19T21:31:34Z</time>
      </trkpt>
      <trkpt lat="44.03881" lon="0.51816">
        <ele>180.808</ele>
        <time>2016-12-19T21:31:54Z</time>
      </trkpt>
      <trkpt lat="44.03829" lon="0.51887">
        <ele>185.124</ele>
        <time>2016-12-19T21:32:14Z</time>
      </trkpt>
      <trkpt lat="44.03764" lon="0.51928">
        <ele>191.067</ele>
        <time>2016-12-19T21:32:34Z</time>
      </trkpt>
      <trkpt lat="44.03689" lon="0.51926">
        <ele>189.311</ele>
        <time>2016-12-19T21:32:54Z</time>
      </trkpt>
      <trkpt lat="44.0367" lon="0.51857">
        <ele>183.566</ele>
        <time>2016-12-19T21:33:14Z</time>
      </trkpt>
      <trkpt lat="44.03621" lon="0.51842">
        <ele>177.153</ele>
        <time>2016-12-19T21:33:34Z</time>
      </trkpt>
      <trkpt lat="44.03605" lon="0.51758">
        <ele>170.333</ele>
        <time>2016-12-19T21:33:54Z</time>
      </trkpt>
      <trkpt lat="44.0363" lon="0.5169">
        <ele>163.334</ele>
        <time>2016-12-19T21:34:14Z</time>
      </trkpt>
      <trkpt lat="44.03672" lon="0.51647">
        <ele>159.146</ele>
        <time>2016-12-19T21:34:34Z</time>
      </trkpt>
      <trkpt lat="44.03684" lon="0.5134">
        <ele>135.962</ele>
        <time>2016-12-19T21:34:54Z</time>
      </trkpt>
      <trkpt lat="44.03207" lon="0.51108">
        <ele>129.783</ele>
        <time>2016-12-19T21:35:14Z</time>
      </trkpt>
      <trkpt lat="44.03087" lon="0.5104">
        <ele>117.211</ele>
        <time>2016-12-19T21:35:34Z</time>
      </trkpt>
      <trkpt lat="44.03019" lon="0.51029">
        <ele>117.808</ele>
        <time>2016-12-19T21:35:54Z</time>
      </trkpt>
      <trkpt lat="44.02945" lon="0.50967">
        <ele>112.673</ele>
        <time>2016-12-19T21:36:14Z</time>
      </trkpt>
      <trkpt lat="44.02882" lon="0.50939">
        <ele>110.066</ele>
        <time>2016-12-19T21:36:34Z</time>
      </trkpt>
      <trkpt lat="44.02817" lon="0.50962">
        <ele>110.78</ele>
        <time>2016-12-19T21:36:54Z</time>
      </trkpt>
      <trkpt lat="44.02618" lon="0.50982">
        <ele>109.345</ele>
        <time>2016-12-19T21:37:14Z</time>
      </trkpt>
      <trkpt lat="44.02561" lon="0.50967">
        <ele>109.652</ele>
        <time>2016-12-19T21:37:34Z</time>
      </trkpt>
      <trkpt lat="44.02448" lon="0.51005">
        <ele>115.712</ele>
        <time>2016-12-19T21:37:54Z</time>
      </trkpt>
      <trkpt lat="44.02353" lon="0.50982">
        <ele>117.013</ele>
        <time>2016-12-19T21:38:14Z</time>
      </trkpt>
      <trkpt lat="44.02231" lon="0.51005">
        <ele>116.855</ele>
        <time>2016-12-19T21:38:34Z</time>
      </trkpt>
      <trkpt lat="44.01984" lon="0.50967">
        <ele>115.614</ele>
        <time>2016-12-19T21:38:54Z</time>
      </trkpt>
      <trkpt lat="44.01873" lon="0.51001">
        <ele>119.654</ele>
        <time>2016-12-19T21:39:14Z</time>
      </trkpt>
      <trkpt lat="44.01678" lon="0.50943">
        <ele>117.909</ele>
        <time>2016-12-19T21:39:34Z</time>
      </trkpt>
      <trkpt lat="44.01677" lon="0.50861">
        <ele>117.408</ele>
        <time>2016-12-19T21:39:54Z</time>
      </trkpt>
      <trkpt lat="44.01629" lon="0.50862">
        <ele>117.058</ele>
        <time>2019-12-03T20:58:30Z</time>
      </trkpt>
      <trkpt lat="44.0159" lon="0.50835">
        <ele>117.051</ele>
        <time>2019-12-03T20:58:50Z</time>
      </trkpt>
      <trkpt lat="44.01549" lon="0.50829">
        <ele>118.445</ele>
        <time>2019-12-03T20:59:10Z</time>
      </trkpt>
      <trkpt lat="44.01482" lon="0.50782">
        <ele>118.88</ele>
        <time>2021-04-14T17:12:41Z</time>
      </trkpt>
      <trkpt lat="44.0132" lon="0.50832">
        <ele>119.717</ele>
        <time>2021-04-14T17:13:01Z</time>
      </trkpt>
      <trkpt lat="44.01257" lon="0.50887">
        <ele>119.477</ele>
        <time>2021-04-14T17:13:21Z</time>
      </trkpt>
      <trkpt lat="44.00987" lon="0.50683">
        <ele>122.188</ele>
        <time>2021-04-14T17:13:41Z</time>
      </trkpt>
      <trkpt lat="44.00899" lon="0.50649">
        <ele>123.42</ele>
        <time>2019-12-03T21:00:50Z</time>
      </trkpt>
      <trkpt lat="44.00796" lon="0.50649">
        <ele>124.212</ele>
        <time>2019-12-03T21:01:10Z</time>
      </trkpt>
      <trkpt lat="44.00731" lon="0.50613">
        <ele>125.732</ele>
        <time>2019-12-03T21:01:30Z</time>
      </trkpt>
      <trkpt lat="44.00629" lon="0.50628">
        <ele>127.605</ele>
        <time>2019-12-03T21:01:50Z</time>
      </trkpt>
      <trkpt lat="44.00418" lon="0.50596">
        <ele>131.108</ele>
        <time>2021-04-14T17:15:21Z</time>
      </trkpt>
      <trkpt lat="44.00388" lon="0.50596">
        <ele>131.878</ele>
        <time>2021-04-14T17:15:41Z</time>
      </trkpt>
      <trkpt lat="44.0034" lon="0.50567">
        <ele>132.631</ele>
        <time>2021-04-14T17:16:01Z</time>
      </trkpt>
      <trkpt lat="44.00099" lon="0.50522">
        <ele>134.215</ele>
        <time>2019-12-03T21:03:10Z</time>
      </trkpt>
      <trkpt lat="43.99982" lon="0.5049">
        <ele>137.01</ele>
        <time>2021-04-14T17:16:41Z</time>
      </trkpt>
      <trkpt lat="43.99914" lon="0.50455">
        <ele>136.547</ele>
        <time>2021-04-14T17:17:01Z</time>
      </trkpt>
      <trkpt lat="43.9984" lon="0.50437">
        <ele>137.897</ele>
        <time>2021-04-14T17:17:21Z</time>
      </trkpt>
      <trkpt lat="43.9978" lon="0.50391">
        <ele>136.858</ele>
        <time>2019-12-03T21:04:10Z</time>
      </trkpt>
      <trkpt lat="43.99751" lon="0.50462">
        <ele>140.22</ele>
        <time>2019-12-03T21:04:30Z</time>
      </trkpt>
      <trkpt lat="43.99565" lon="0.50351">
        <ele>143.671</ele>
        <time>2019-12-03T21:04:50Z</time>
      </trkpt>
      <trkpt lat="43.9943" lon="0.5037">
        <ele>145.641</ele>
        <time>2019-12-03T21:05:10Z</time>
      </trkpt>
      <trkpt lat="43.99372" lon="0.5034">
        <ele>141.215</ele>
        <time>2019-12-03T21:05:30Z</time>
      </trkpt>
      <trkpt lat="43.99272" lon="0.50308">
        <ele>149.008</ele>
        <time>2019-12-03T21:05:50Z</time>
      </trkpt>
      <trkpt lat="43.99116" lon="0.50149">
        <ele>145.044</ele>
        <time>2019-12-03T21:06:10Z</time>
      </trkpt>
      <trkpt lat="43.99073" lon="0.50117">
        <ele>145.077</ele>
        <time>2019-12-03T21:06:30Z</time>
      </trkpt>
      <trkpt lat="43.98979" lon="0.50123">
        <ele>151.691</ele>
        <time>2019-12-03T21:06:50Z</time>
      </trkpt>
      <trkpt lat="43.98809" lon="0.50106">
        <ele>169.376</ele>
        <time>2019-12-03T21:07:10Z</time>
      </trkpt>
      <trkpt lat="43.98649" lon="0.50137">
        <ele>178.833</ele>
        <time>2021-04-14T17:21:01Z</time>
      </trkpt>
      <trkpt lat="43.98593" lon="0.50096">
        <ele>179.233</ele>
        <time>2021-04-14T17:21:21Z</time>
      </trkpt>
      <trkpt lat="43.98528" lon="0.50087">
        <ele>178.184</ele>
        <time>2019-12-03T21:08:10Z</time>
      </trkpt>
      <trkpt lat="43.98483" lon="0.50048">
        <ele>176.586</ele>
        <time>2019-12-03T21:08:30Z</time>
      </trkpt>
      <trkpt lat="43.98418" lon="0.49917">
        <ele>178.916</ele>
        <time>2019-12-03T21:08:50Z</time>
      </trkpt>
      <trkpt lat="43.98351" lon="0.4988">
        <ele>181.576</ele>
        <time>2021-04-14T17:22:41Z</time>
      </trkpt>
      <trkpt lat="43.98261" lon="0.49801">
        <ele>180.613</ele>
        <time>2019-12-03T21:09:30Z</time>
      </trkpt>
    </trkseg>
  </trk>
</gpx>